<?xml version="1.0" encoding="UTF-8" standalone="no" ?>
<gpx xmlns="http://www.topografix.com/GPX/1/1" xmlns:xsi="http://www.w3.org/2001/XMLSchema-instance" xsi:schemaLocation="http://www.topografix.com/GPX/1/1 http://www.topografix.com/GPX/1/1/gpx.xsd" version="1.1" creator="VisuGPX - https://www.visugpx.com">
  <metadata>
    <name>Rando cyclo-camping 3 jours dans l'Aude</name>
    <desc><![CDATA[Une virée de 3 jours en autonomie pour découvrir les Corbières et la haute vallée de l'Aude. Une terre d'Abbayes et de châteaux moyenâgeux, rendue mythique par l'histoire du catharisme.
[img]https://vr7qlw.am.files.1drv.com/y4mekqlXUBwxKXAfBTY5ZOEoK6MNzj3hoNTwA_5MsuG7L9rpP-dCYBzvxp2iWEBehn4aWu3jUdAz5wUC1BnKMdoOXicRYBWs6DqN7YH9WfXaVpboLnusUH7DchT6_ezJo75Y0k-2vQRrbU5S9XT_ob0MpuWyW-g5Xk2wmIvcBU41wm68nXeqaeEFpbhE4PjDHAwBk3w3U3NjJn-fcK9lSh31w?width=256&height=171&cropmode=none[/img]
Pour une lecture du récit de ces 3 jours rendez-vous sur mon blog [url=https://monexperiencevelo.blogspot.com/2018/05/3-jours-en-cyclo-camping-dans-laude.html]ici[/url].]]></desc>
  </metadata>
  <wpt lat="43.0968" lon="2.40182">
    <ele>281.5</ele>
    <name><![CDATA[Abbaye de Rieunette]]></name>
  </wpt>
  <wpt lat="43.10468" lon="2.4537">
    <ele>493.2</ele>
    <name><![CDATA[Départ / Bivouac 1]]></name>
  </wpt>
  <wpt lat="42.98211" lon="2.37672">
    <ele>663.1</ele>
    <name><![CDATA[Arrivée / Bivouac Mairie Valmigère]]></name>
  </wpt>
  <wpt lat="43.18735" lon="2.97575">
    <ele>20.8</ele>
    <name><![CDATA[Départ/Arrivée Parking]]></name>
  </wpt>
  <trk>
    <name><![CDATA[Aude J1]]></name>
    <extensions>
      <line xmlns="http://www.topografix.com/GPX/gpx_style/0/2">
        <color>ff0000</color>
        <width>4</width>
      </line>
    </extensions>
    <trkseg>
      <trkpt lat="43.18735" lon="2.97575">
        <ele>21</ele>
        <time>2018-05-19T08:09:57Z</time>
      </trkpt>
      <trkpt lat="43.18733" lon="2.97568">
        <ele>21</ele>
        <time>2018-05-19T08:10:02Z</time>
      </trkpt>
      <trkpt lat="43.1873" lon="2.97556">
        <ele>21.1</ele>
        <time>2018-05-19T08:10:07Z</time>
      </trkpt>
      <trkpt lat="43.18737" lon="2.97547">
        <ele>21.2</ele>
        <time>2018-05-19T08:10:12Z</time>
      </trkpt>
      <trkpt lat="43.18754" lon="2.97548">
        <ele>20.8</ele>
        <time>2018-05-19T08:10:17Z</time>
      </trkpt>
      <trkpt lat="43.18767" lon="2.97549">
        <ele>20.6</ele>
        <time>2018-05-19T08:10:22Z</time>
      </trkpt>
      <trkpt lat="43.18783" lon="2.97548">
        <ele>20.3</ele>
        <time>2018-05-19T08:10:27Z</time>
      </trkpt>
      <trkpt lat="43.18791" lon="2.97538">
        <ele>20.3</ele>
        <time>2018-05-19T08:10:32Z</time>
      </trkpt>
      <trkpt lat="43.18791" lon="2.97482">
        <ele>22.4</ele>
        <time>2018-05-19T08:20:17Z</time>
      </trkpt>
      <trkpt lat="43.18789" lon="2.97468">
        <ele>22.6</ele>
        <time>2018-05-19T08:20:22Z</time>
      </trkpt>
      <trkpt lat="43.18789" lon="2.97453">
        <ele>22.9</ele>
        <time>2018-05-19T08:20:27Z</time>
      </trkpt>
      <trkpt lat="43.18791" lon="2.97427">
        <ele>23.2</ele>
        <time>2018-05-19T08:20:32Z</time>
      </trkpt>
      <trkpt lat="43.18791" lon="2.97412">
        <ele>25.1</ele>
        <time>2018-05-19T08:20:37Z</time>
      </trkpt>
      <trkpt lat="43.18789" lon="2.97406">
        <ele>25.2</ele>
        <time>2018-05-19T08:20:42Z</time>
      </trkpt>
      <trkpt lat="43.18787" lon="2.97392">
        <ele>25.4</ele>
        <time>2018-05-19T08:20:47Z</time>
      </trkpt>
      <trkpt lat="43.18782" lon="2.97373">
        <ele>25.8</ele>
        <time>2018-05-19T08:20:52Z</time>
      </trkpt>
      <trkpt lat="43.18777" lon="2.9737">
        <ele>25.8</ele>
        <time>2018-05-19T08:20:57Z</time>
      </trkpt>
      <trkpt lat="43.18767" lon="2.97367">
        <ele>25.9</ele>
        <time>2018-05-19T08:21:02Z</time>
      </trkpt>
      <trkpt lat="43.1875" lon="2.97365">
        <ele>26.1</ele>
        <time>2018-05-19T08:21:07Z</time>
      </trkpt>
      <trkpt lat="43.18739" lon="2.97366">
        <ele>26.1</ele>
        <time>2018-05-19T08:21:12Z</time>
      </trkpt>
      <trkpt lat="43.18726" lon="2.97354">
        <ele>26.2</ele>
        <time>2018-05-19T08:21:17Z</time>
      </trkpt>
      <trkpt lat="43.18719" lon="2.97346">
        <ele>26.3</ele>
        <time>2018-05-19T08:21:22Z</time>
      </trkpt>
      <trkpt lat="43.18711" lon="2.97337">
        <ele>26.4</ele>
        <time>2018-05-19T08:21:27Z</time>
      </trkpt>
      <trkpt lat="43.18707" lon="2.9733">
        <ele>27.5</ele>
        <time>2018-05-19T08:21:32Z</time>
      </trkpt>
      <trkpt lat="43.18715" lon="2.97336">
        <ele>26.4</ele>
        <time>2018-05-19T08:21:37Z</time>
      </trkpt>
      <trkpt lat="43.18728" lon="2.97348">
        <ele>26.3</ele>
        <time>2018-05-19T08:21:42Z</time>
      </trkpt>
      <trkpt lat="43.18738" lon="2.97356">
        <ele>26.2</ele>
        <time>2018-05-19T08:21:47Z</time>
      </trkpt>
      <trkpt lat="43.18744" lon="2.97343">
        <ele>26.6</ele>
        <time>2018-05-19T08:21:52Z</time>
      </trkpt>
      <trkpt lat="43.18747" lon="2.97336">
        <ele>26.8</ele>
        <time>2018-05-19T08:21:57Z</time>
      </trkpt>
      <trkpt lat="43.18756" lon="2.97316">
        <ele>27.9</ele>
        <time>2018-05-19T08:22:02Z</time>
      </trkpt>
      <trkpt lat="43.18763" lon="2.973">
        <ele>28.4</ele>
        <time>2018-05-19T08:22:07Z</time>
      </trkpt>
      <trkpt lat="43.18767" lon="2.97287">
        <ele>28.6</ele>
        <time>2018-05-19T08:22:12Z</time>
      </trkpt>
      <trkpt lat="43.18768" lon="2.97272">
        <ele>28.7</ele>
        <time>2018-05-19T08:22:17Z</time>
      </trkpt>
      <trkpt lat="43.18767" lon="2.97257">
        <ele>28.7</ele>
        <time>2018-05-19T08:22:22Z</time>
      </trkpt>
      <trkpt lat="43.18764" lon="2.97241">
        <ele>30.6</ele>
        <time>2018-05-19T08:22:27Z</time>
      </trkpt>
      <trkpt lat="43.18765" lon="2.97235">
        <ele>31.1</ele>
        <time>2018-05-19T08:22:32Z</time>
      </trkpt>
      <trkpt lat="43.18765" lon="2.97235">
        <ele>31.1</ele>
        <time>2018-05-19T08:22:37Z</time>
      </trkpt>
      <trkpt lat="43.18765" lon="2.97235">
        <ele>31.1</ele>
        <time>2018-05-19T08:22:42Z</time>
      </trkpt>
      <trkpt lat="43.18765" lon="2.97235">
        <ele>31.1</ele>
        <time>2018-05-19T08:22:47Z</time>
      </trkpt>
      <trkpt lat="43.18765" lon="2.97235">
        <ele>31.1</ele>
        <time>2018-05-19T08:22:52Z</time>
      </trkpt>
      <trkpt lat="43.18763" lon="2.97248">
        <ele>30.1</ele>
        <time>2018-05-19T08:23:07Z</time>
      </trkpt>
      <trkpt lat="43.18764" lon="2.97267">
        <ele>28.6</ele>
        <time>2018-05-19T08:23:12Z</time>
      </trkpt>
      <trkpt lat="43.18764" lon="2.97294">
        <ele>28.5</ele>
        <time>2018-05-19T08:23:17Z</time>
      </trkpt>
      <trkpt lat="43.18763" lon="2.97309">
        <ele>28.2</ele>
        <time>2018-05-19T08:23:22Z</time>
      </trkpt>
      <trkpt lat="43.1876" lon="2.97315">
        <ele>28.1</ele>
        <time>2018-05-19T08:23:27Z</time>
      </trkpt>
      <trkpt lat="43.1876" lon="2.97315">
        <ele>28.1</ele>
        <time>2018-05-19T08:23:32Z</time>
      </trkpt>
      <trkpt lat="43.18761" lon="2.97307">
        <ele>28.3</ele>
        <time>2018-05-19T08:23:37Z</time>
      </trkpt>
      <trkpt lat="43.18765" lon="2.97295">
        <ele>28.5</ele>
        <time>2018-05-19T08:23:42Z</time>
      </trkpt>
      <trkpt lat="43.18768" lon="2.97274">
        <ele>28.7</ele>
        <time>2018-05-19T08:23:47Z</time>
      </trkpt>
      <trkpt lat="43.18766" lon="2.97243">
        <ele>30.7</ele>
        <time>2018-05-19T08:23:53Z</time>
      </trkpt>
      <trkpt lat="43.18777" lon="2.9724">
        <ele>31.6</ele>
        <time>2018-05-19T08:23:58Z</time>
      </trkpt>
      <trkpt lat="43.18791" lon="2.97278">
        <ele>29.2</ele>
        <time>2018-05-19T08:24:03Z</time>
      </trkpt>
      <trkpt lat="43.18799" lon="2.97312">
        <ele>28.7</ele>
        <time>2018-05-19T08:24:08Z</time>
      </trkpt>
      <trkpt lat="43.18817" lon="2.97338">
        <ele>26.9</ele>
        <time>2018-05-19T08:24:13Z</time>
      </trkpt>
      <trkpt lat="43.18847" lon="2.97351">
        <ele>27.1</ele>
        <time>2018-05-19T08:24:18Z</time>
      </trkpt>
      <trkpt lat="43.18871" lon="2.97374">
        <ele>26.5</ele>
        <time>2018-05-19T08:24:23Z</time>
      </trkpt>
      <trkpt lat="43.189" lon="2.974">
        <ele>25.6</ele>
        <time>2018-05-19T08:24:28Z</time>
      </trkpt>
      <trkpt lat="43.18929" lon="2.97424">
        <ele>21.9</ele>
        <time>2018-05-19T08:24:33Z</time>
      </trkpt>
      <trkpt lat="43.18962" lon="2.97435">
        <ele>19.6</ele>
        <time>2018-05-19T08:24:38Z</time>
      </trkpt>
      <trkpt lat="43.18998" lon="2.97431">
        <ele>18.5</ele>
        <time>2018-05-19T08:24:43Z</time>
      </trkpt>
      <trkpt lat="43.19029" lon="2.97422">
        <ele>16.5</ele>
        <time>2018-05-19T08:24:48Z</time>
      </trkpt>
      <trkpt lat="43.19061" lon="2.97413">
        <ele>17.2</ele>
        <time>2018-05-19T08:24:53Z</time>
      </trkpt>
      <trkpt lat="43.19091" lon="2.97407">
        <ele>16.4</ele>
        <time>2018-05-19T08:24:58Z</time>
      </trkpt>
      <trkpt lat="43.19107" lon="2.97409">
        <ele>16.6</ele>
        <time>2018-05-19T08:25:03Z</time>
      </trkpt>
      <trkpt lat="43.19128" lon="2.97425">
        <ele>14.5</ele>
        <time>2018-05-19T08:25:08Z</time>
      </trkpt>
      <trkpt lat="43.19128" lon="2.97425">
        <ele>14.5</ele>
        <time>2018-05-19T08:25:13Z</time>
      </trkpt>
      <trkpt lat="43.19171" lon="2.9743">
        <ele>14.7</ele>
        <time>2018-05-19T08:25:18Z</time>
      </trkpt>
      <trkpt lat="43.19195" lon="2.97446">
        <ele>13.6</ele>
        <time>2018-05-19T08:25:23Z</time>
      </trkpt>
      <trkpt lat="43.19204" lon="2.97449">
        <ele>13.5</ele>
        <time>2018-05-19T08:25:28Z</time>
      </trkpt>
      <trkpt lat="43.19204" lon="2.97449">
        <ele>13.5</ele>
        <time>2018-05-19T08:25:33Z</time>
      </trkpt>
      <trkpt lat="43.19204" lon="2.97449">
        <ele>13.5</ele>
        <time>2018-05-19T08:25:38Z</time>
      </trkpt>
      <trkpt lat="43.19203" lon="2.97425">
        <ele>13.9</ele>
        <time>2018-05-19T08:27:03Z</time>
      </trkpt>
      <trkpt lat="43.19206" lon="2.97408">
        <ele>15.7</ele>
        <time>2018-05-19T08:27:08Z</time>
      </trkpt>
      <trkpt lat="43.19211" lon="2.97384">
        <ele>15.9</ele>
        <time>2018-05-19T08:27:13Z</time>
      </trkpt>
      <trkpt lat="43.19214" lon="2.9737">
        <ele>16</ele>
        <time>2018-05-19T08:27:18Z</time>
      </trkpt>
      <trkpt lat="43.19216" lon="2.97355">
        <ele>16.1</ele>
        <time>2018-05-19T08:27:23Z</time>
      </trkpt>
      <trkpt lat="43.19219" lon="2.97341">
        <ele>16.2</ele>
        <time>2018-05-19T08:27:28Z</time>
      </trkpt>
      <trkpt lat="43.19221" lon="2.97327">
        <ele>17.1</ele>
        <time>2018-05-19T08:27:33Z</time>
      </trkpt>
      <trkpt lat="43.19227" lon="2.97298">
        <ele>17.2</ele>
        <time>2018-05-19T08:27:38Z</time>
      </trkpt>
      <trkpt lat="43.19231" lon="2.97275">
        <ele>17.3</ele>
        <time>2018-05-19T08:27:43Z</time>
      </trkpt>
      <trkpt lat="43.19234" lon="2.97262">
        <ele>17.3</ele>
        <time>2018-05-19T08:27:48Z</time>
      </trkpt>
      <trkpt lat="43.19236" lon="2.97249">
        <ele>18</ele>
        <time>2018-05-19T08:27:53Z</time>
      </trkpt>
      <trkpt lat="43.19241" lon="2.97226">
        <ele>18.6</ele>
        <time>2018-05-19T08:27:58Z</time>
      </trkpt>
      <trkpt lat="43.19244" lon="2.97212">
        <ele>19</ele>
        <time>2018-05-19T08:28:03Z</time>
      </trkpt>
      <trkpt lat="43.19248" lon="2.97197">
        <ele>19.4</ele>
        <time>2018-05-19T08:28:08Z</time>
      </trkpt>
      <trkpt lat="43.19253" lon="2.97174">
        <ele>19.4</ele>
        <time>2018-05-19T08:28:13Z</time>
      </trkpt>
      <trkpt lat="43.19256" lon="2.97161">
        <ele>21</ele>
        <time>2018-05-19T08:28:18Z</time>
      </trkpt>
      <trkpt lat="43.1926" lon="2.97146">
        <ele>22.4</ele>
        <time>2018-05-19T08:28:23Z</time>
      </trkpt>
      <trkpt lat="43.19264" lon="2.97131">
        <ele>23.5</ele>
        <time>2018-05-19T08:28:28Z</time>
      </trkpt>
      <trkpt lat="43.19264" lon="2.97131">
        <ele>23.5</ele>
        <time>2018-05-19T08:28:33Z</time>
      </trkpt>
      <trkpt lat="43.19264" lon="2.97131">
        <ele>23.5</ele>
        <time>2018-05-19T08:28:38Z</time>
      </trkpt>
      <trkpt lat="43.19267" lon="2.97099">
        <ele>26.1</ele>
        <time>2018-05-19T08:28:43Z</time>
      </trkpt>
      <trkpt lat="43.19271" lon="2.97074">
        <ele>31.1</ele>
        <time>2018-05-19T08:28:48Z</time>
      </trkpt>
      <trkpt lat="43.19271" lon="2.97074">
        <ele>31.1</ele>
        <time>2018-05-19T08:28:53Z</time>
      </trkpt>
      <trkpt lat="43.19271" lon="2.97074">
        <ele>31.1</ele>
        <time>2018-05-19T08:28:58Z</time>
      </trkpt>
      <trkpt lat="43.19296" lon="2.97061">
        <ele>30.9</ele>
        <time>2018-05-19T08:29:03Z</time>
      </trkpt>
      <trkpt lat="43.19313" lon="2.97037">
        <ele>31.5</ele>
        <time>2018-05-19T08:29:08Z</time>
      </trkpt>
      <trkpt lat="43.19318" lon="2.9702">
        <ele>32</ele>
        <time>2018-05-19T08:29:13Z</time>
      </trkpt>
      <trkpt lat="43.1932" lon="2.97014">
        <ele>32.1</ele>
        <time>2018-05-19T08:29:18Z</time>
      </trkpt>
      <trkpt lat="43.1932" lon="2.97014">
        <ele>32.1</ele>
        <time>2018-05-19T08:29:23Z</time>
      </trkpt>
      <trkpt lat="43.19326" lon="2.96997">
        <ele>34.2</ele>
        <time>2018-05-19T08:29:28Z</time>
      </trkpt>
      <trkpt lat="43.19329" lon="2.96991">
        <ele>34.8</ele>
        <time>2018-05-19T08:29:33Z</time>
      </trkpt>
      <trkpt lat="43.19333" lon="2.96977">
        <ele>36.7</ele>
        <time>2018-05-19T08:29:38Z</time>
      </trkpt>
      <trkpt lat="43.19338" lon="2.96965">
        <ele>32</ele>
        <time>2018-05-19T08:29:43Z</time>
      </trkpt>
      <trkpt lat="43.19345" lon="2.96945">
        <ele>33</ele>
        <time>2018-05-19T08:29:48Z</time>
      </trkpt>
      <trkpt lat="43.19345" lon="2.96945">
        <ele>33</ele>
        <time>2018-05-19T08:29:53Z</time>
      </trkpt>
      <trkpt lat="43.19345" lon="2.96945">
        <ele>33</ele>
        <time>2018-05-19T08:29:58Z</time>
      </trkpt>
      <trkpt lat="43.19345" lon="2.96945">
        <ele>33</ele>
        <time>2018-05-19T08:30:03Z</time>
      </trkpt>
      <trkpt lat="43.19349" lon="2.96932">
        <ele>34</ele>
        <time>2018-05-19T08:30:08Z</time>
      </trkpt>
      <trkpt lat="43.19351" lon="2.96924">
        <ele>34.4</ele>
        <time>2018-05-19T08:30:18Z</time>
      </trkpt>
      <trkpt lat="43.19352" lon="2.96918">
        <ele>34.4</ele>
        <time>2018-05-19T08:30:23Z</time>
      </trkpt>
      <trkpt lat="43.19359" lon="2.96899">
        <ele>36.3</ele>
        <time>2018-05-19T08:30:28Z</time>
      </trkpt>
      <trkpt lat="43.19364" lon="2.96884">
        <ele>36.1</ele>
        <time>2018-05-19T08:30:33Z</time>
      </trkpt>
      <trkpt lat="43.19371" lon="2.96864">
        <ele>36.2</ele>
        <time>2018-05-19T08:30:38Z</time>
      </trkpt>
      <trkpt lat="43.19376" lon="2.9685">
        <ele>36.1</ele>
        <time>2018-05-19T08:30:43Z</time>
      </trkpt>
      <trkpt lat="43.19386" lon="2.96823">
        <ele>38.7</ele>
        <time>2018-05-19T08:30:48Z</time>
      </trkpt>
      <trkpt lat="43.19394" lon="2.96798">
        <ele>39.1</ele>
        <time>2018-05-19T08:30:53Z</time>
      </trkpt>
      <trkpt lat="43.19403" lon="2.96778">
        <ele>39.1</ele>
        <time>2018-05-19T08:30:58Z</time>
      </trkpt>
      <trkpt lat="43.19412" lon="2.96764">
        <ele>38.1</ele>
        <time>2018-05-19T08:31:03Z</time>
      </trkpt>
      <trkpt lat="43.19418" lon="2.96758">
        <ele>34.6</ele>
        <time>2018-05-19T08:31:08Z</time>
      </trkpt>
      <trkpt lat="43.19462" lon="2.9672">
        <ele>33.5</ele>
        <time>2018-05-19T08:31:13Z</time>
      </trkpt>
      <trkpt lat="43.19476" lon="2.96701">
        <ele>33.1</ele>
        <time>2018-05-19T08:31:18Z</time>
      </trkpt>
      <trkpt lat="43.19489" lon="2.96678">
        <ele>32.3</ele>
        <time>2018-05-19T08:31:23Z</time>
      </trkpt>
      <trkpt lat="43.19499" lon="2.96646">
        <ele>32.8</ele>
        <time>2018-05-19T08:31:28Z</time>
      </trkpt>
      <trkpt lat="43.19502" lon="2.96637">
        <ele>33.1</ele>
        <time>2018-05-19T08:31:33Z</time>
      </trkpt>
      <trkpt lat="43.19506" lon="2.96622">
        <ele>33.5</ele>
        <time>2018-05-19T08:31:38Z</time>
      </trkpt>
      <trkpt lat="43.19508" lon="2.96615">
        <ele>33.6</ele>
        <time>2018-05-19T08:31:43Z</time>
      </trkpt>
      <trkpt lat="43.19516" lon="2.96583">
        <ele>34.4</ele>
        <time>2018-05-19T08:31:48Z</time>
      </trkpt>
      <trkpt lat="43.19519" lon="2.96569">
        <ele>34.9</ele>
        <time>2018-05-19T08:31:53Z</time>
      </trkpt>
      <trkpt lat="43.19525" lon="2.96551">
        <ele>35.5</ele>
        <time>2018-05-19T08:31:58Z</time>
      </trkpt>
      <trkpt lat="43.1953" lon="2.96539">
        <ele>35.8</ele>
        <time>2018-05-19T08:32:03Z</time>
      </trkpt>
      <trkpt lat="43.19536" lon="2.96525">
        <ele>36.1</ele>
        <time>2018-05-19T08:32:08Z</time>
      </trkpt>
      <trkpt lat="43.19544" lon="2.96511">
        <ele>36.4</ele>
        <time>2018-05-19T08:32:13Z</time>
      </trkpt>
      <trkpt lat="43.1955" lon="2.96501">
        <ele>36.6</ele>
        <time>2018-05-19T08:32:18Z</time>
      </trkpt>
      <trkpt lat="43.19561" lon="2.96494">
        <ele>37.7</ele>
        <time>2018-05-19T08:32:23Z</time>
      </trkpt>
      <trkpt lat="43.19572" lon="2.96496">
        <ele>37.9</ele>
        <time>2018-05-19T08:32:28Z</time>
      </trkpt>
      <trkpt lat="43.19587" lon="2.965">
        <ele>38.4</ele>
        <time>2018-05-19T08:32:33Z</time>
      </trkpt>
      <trkpt lat="43.19608" lon="2.96504">
        <ele>39.3</ele>
        <time>2018-05-19T08:32:38Z</time>
      </trkpt>
      <trkpt lat="43.19628" lon="2.96509">
        <ele>40.1</ele>
        <time>2018-05-19T08:32:43Z</time>
      </trkpt>
      <trkpt lat="43.19639" lon="2.96512">
        <ele>40.6</ele>
        <time>2018-05-19T08:32:48Z</time>
      </trkpt>
      <trkpt lat="43.19646" lon="2.96494">
        <ele>41.4</ele>
        <time>2018-05-19T08:32:53Z</time>
      </trkpt>
      <trkpt lat="43.1965" lon="2.96475">
        <ele>41.3</ele>
        <time>2018-05-19T08:32:58Z</time>
      </trkpt>
      <trkpt lat="43.19656" lon="2.96455">
        <ele>41.1</ele>
        <time>2018-05-19T08:33:03Z</time>
      </trkpt>
      <trkpt lat="43.19659" lon="2.96442">
        <ele>41.2</ele>
        <time>2018-05-19T08:33:08Z</time>
      </trkpt>
      <trkpt lat="43.19665" lon="2.9642">
        <ele>41.8</ele>
        <time>2018-05-19T08:33:13Z</time>
      </trkpt>
      <trkpt lat="43.19667" lon="2.96412">
        <ele>42.1</ele>
        <time>2018-05-19T08:33:18Z</time>
      </trkpt>
      <trkpt lat="43.19675" lon="2.96387">
        <ele>42.2</ele>
        <time>2018-05-19T08:33:23Z</time>
      </trkpt>
      <trkpt lat="43.1968" lon="2.96373">
        <ele>42</ele>
        <time>2018-05-19T08:33:28Z</time>
      </trkpt>
      <trkpt lat="43.19683" lon="2.96365">
        <ele>41.9</ele>
        <time>2018-05-19T08:33:33Z</time>
      </trkpt>
      <trkpt lat="43.19688" lon="2.9635">
        <ele>41.6</ele>
        <time>2018-05-19T08:33:38Z</time>
      </trkpt>
      <trkpt lat="43.19693" lon="2.96335">
        <ele>41.5</ele>
        <time>2018-05-19T08:33:43Z</time>
      </trkpt>
      <trkpt lat="43.197" lon="2.96315">
        <ele>42.4</ele>
        <time>2018-05-19T08:33:48Z</time>
      </trkpt>
      <trkpt lat="43.19704" lon="2.96302">
        <ele>42.7</ele>
        <time>2018-05-19T08:33:53Z</time>
      </trkpt>
      <trkpt lat="43.19711" lon="2.96283">
        <ele>43.2</ele>
        <time>2018-05-19T08:33:58Z</time>
      </trkpt>
      <trkpt lat="43.19714" lon="2.96276">
        <ele>43.4</ele>
        <time>2018-05-19T08:34:03Z</time>
      </trkpt>
      <trkpt lat="43.19726" lon="2.96246">
        <ele>46.1</ele>
        <time>2018-05-19T08:34:08Z</time>
      </trkpt>
      <trkpt lat="43.19731" lon="2.96232">
        <ele>46.3</ele>
        <time>2018-05-19T08:34:13Z</time>
      </trkpt>
      <trkpt lat="43.19739" lon="2.96214">
        <ele>46.8</ele>
        <time>2018-05-19T08:34:18Z</time>
      </trkpt>
      <trkpt lat="43.19741" lon="2.96208">
        <ele>47</ele>
        <time>2018-05-19T08:34:23Z</time>
      </trkpt>
      <trkpt lat="43.19748" lon="2.9619">
        <ele>47.7</ele>
        <time>2018-05-19T08:34:28Z</time>
      </trkpt>
      <trkpt lat="43.19748" lon="2.9619">
        <ele>47.7</ele>
        <time>2018-05-19T08:34:33Z</time>
      </trkpt>
      <trkpt lat="43.1976" lon="2.96168">
        <ele>48</ele>
        <time>2018-05-19T08:34:38Z</time>
      </trkpt>
      <trkpt lat="43.19766" lon="2.96158">
        <ele>49.7</ele>
        <time>2018-05-19T08:34:43Z</time>
      </trkpt>
      <trkpt lat="43.19769" lon="2.96153">
        <ele>49.8</ele>
        <time>2018-05-19T08:34:48Z</time>
      </trkpt>
      <trkpt lat="43.19775" lon="2.96141">
        <ele>50.2</ele>
        <time>2018-05-19T08:34:53Z</time>
      </trkpt>
      <trkpt lat="43.19783" lon="2.96128">
        <ele>50.6</ele>
        <time>2018-05-19T08:34:58Z</time>
      </trkpt>
      <trkpt lat="43.19787" lon="2.96121">
        <ele>50.7</ele>
        <time>2018-05-19T08:35:03Z</time>
      </trkpt>
      <trkpt lat="43.1979" lon="2.96114">
        <ele>50.9</ele>
        <time>2018-05-19T08:35:08Z</time>
      </trkpt>
      <trkpt lat="43.1979" lon="2.96114">
        <ele>50.9</ele>
        <time>2018-05-19T08:35:13Z</time>
      </trkpt>
      <trkpt lat="43.1979" lon="2.96114">
        <ele>50.9</ele>
        <time>2018-05-19T08:35:18Z</time>
      </trkpt>
      <trkpt lat="43.1979" lon="2.96114">
        <ele>50.9</ele>
        <time>2018-05-19T08:35:23Z</time>
      </trkpt>
      <trkpt lat="43.19792" lon="2.96109">
        <ele>51</ele>
        <time>2018-05-19T08:35:53Z</time>
      </trkpt>
      <trkpt lat="43.19792" lon="2.96109">
        <ele>51</ele>
        <time>2018-05-19T08:35:58Z</time>
      </trkpt>
      <trkpt lat="43.19792" lon="2.96109">
        <ele>51</ele>
        <time>2018-05-19T08:36:03Z</time>
      </trkpt>
      <trkpt lat="43.19792" lon="2.96109">
        <ele>51</ele>
        <time>2018-05-19T08:36:08Z</time>
      </trkpt>
      <trkpt lat="43.19792" lon="2.96109">
        <ele>51</ele>
        <time>2018-05-19T08:36:13Z</time>
      </trkpt>
      <trkpt lat="43.19799" lon="2.96101">
        <ele>51.2</ele>
        <time>2018-05-19T08:36:43Z</time>
      </trkpt>
      <trkpt lat="43.19807" lon="2.96089">
        <ele>51.3</ele>
        <time>2018-05-19T08:36:48Z</time>
      </trkpt>
      <trkpt lat="43.19814" lon="2.96079">
        <ele>55.3</ele>
        <time>2018-05-19T08:36:53Z</time>
      </trkpt>
      <trkpt lat="43.19821" lon="2.96068">
        <ele>55.3</ele>
        <time>2018-05-19T08:36:58Z</time>
      </trkpt>
      <trkpt lat="43.19827" lon="2.96055">
        <ele>56.3</ele>
        <time>2018-05-19T08:37:03Z</time>
      </trkpt>
      <trkpt lat="43.19833" lon="2.96039">
        <ele>57.3</ele>
        <time>2018-05-19T08:37:08Z</time>
      </trkpt>
      <trkpt lat="43.19839" lon="2.96018">
        <ele>56.5</ele>
        <time>2018-05-19T08:37:13Z</time>
      </trkpt>
      <trkpt lat="43.19843" lon="2.96005">
        <ele>57.1</ele>
        <time>2018-05-19T08:37:18Z</time>
      </trkpt>
      <trkpt lat="43.19845" lon="2.95981">
        <ele>61.6</ele>
        <time>2018-05-19T08:37:23Z</time>
      </trkpt>
      <trkpt lat="43.19843" lon="2.95968">
        <ele>62.9</ele>
        <time>2018-05-19T08:37:28Z</time>
      </trkpt>
      <trkpt lat="43.19841" lon="2.95953">
        <ele>64.1</ele>
        <time>2018-05-19T08:37:33Z</time>
      </trkpt>
      <trkpt lat="43.19839" lon="2.95929">
        <ele>65.8</ele>
        <time>2018-05-19T08:37:38Z</time>
      </trkpt>
      <trkpt lat="43.19839" lon="2.95921">
        <ele>66.3</ele>
        <time>2018-05-19T08:37:43Z</time>
      </trkpt>
      <trkpt lat="43.1984" lon="2.95907">
        <ele>69.4</ele>
        <time>2018-05-19T08:37:48Z</time>
      </trkpt>
      <trkpt lat="43.19841" lon="2.95901">
        <ele>70.3</ele>
        <time>2018-05-19T08:37:53Z</time>
      </trkpt>
      <trkpt lat="43.19843" lon="2.95894">
        <ele>71.1</ele>
        <time>2018-05-19T08:37:58Z</time>
      </trkpt>
      <trkpt lat="43.19847" lon="2.9588">
        <ele>72.4</ele>
        <time>2018-05-19T08:38:03Z</time>
      </trkpt>
      <trkpt lat="43.1985" lon="2.95874">
        <ele>72.9</ele>
        <time>2018-05-19T08:38:08Z</time>
      </trkpt>
      <trkpt lat="43.19855" lon="2.95862">
        <ele>73.7</ele>
        <time>2018-05-19T08:38:13Z</time>
      </trkpt>
      <trkpt lat="43.19858" lon="2.95855">
        <ele>74.1</ele>
        <time>2018-05-19T08:38:18Z</time>
      </trkpt>
      <trkpt lat="43.19861" lon="2.95848">
        <ele>74.4</ele>
        <time>2018-05-19T08:38:23Z</time>
      </trkpt>
      <trkpt lat="43.19865" lon="2.95834">
        <ele>74.6</ele>
        <time>2018-05-19T08:38:28Z</time>
      </trkpt>
      <trkpt lat="43.19866" lon="2.95827">
        <ele>77.3</ele>
        <time>2018-05-19T08:38:33Z</time>
      </trkpt>
      <trkpt lat="43.19868" lon="2.9582">
        <ele>77.3</ele>
        <time>2018-05-19T08:38:38Z</time>
      </trkpt>
      <trkpt lat="43.1987" lon="2.95806">
        <ele>77.3</ele>
        <time>2018-05-19T08:38:43Z</time>
      </trkpt>
      <trkpt lat="43.19872" lon="2.95798">
        <ele>77.3</ele>
        <time>2018-05-19T08:38:48Z</time>
      </trkpt>
      <trkpt lat="43.19873" lon="2.95792">
        <ele>77.4</ele>
        <time>2018-05-19T08:38:53Z</time>
      </trkpt>
      <trkpt lat="43.19876" lon="2.95777">
        <ele>77.3</ele>
        <time>2018-05-19T08:38:58Z</time>
      </trkpt>
      <trkpt lat="43.19879" lon="2.95761">
        <ele>77.1</ele>
        <time>2018-05-19T08:39:03Z</time>
      </trkpt>
      <trkpt lat="43.1988" lon="2.95755">
        <ele>76.9</ele>
        <time>2018-05-19T08:39:08Z</time>
      </trkpt>
      <trkpt lat="43.19881" lon="2.95749">
        <ele>74.6</ele>
        <time>2018-05-19T08:39:13Z</time>
      </trkpt>
      <trkpt lat="43.19881" lon="2.95749">
        <ele>74.6</ele>
        <time>2018-05-19T08:39:18Z</time>
      </trkpt>
      <trkpt lat="43.19881" lon="2.95749">
        <ele>74.6</ele>
        <time>2018-05-19T08:39:23Z</time>
      </trkpt>
      <trkpt lat="43.19881" lon="2.95749">
        <ele>74.6</ele>
        <time>2018-05-19T08:39:28Z</time>
      </trkpt>
      <trkpt lat="43.19883" lon="2.95742">
        <ele>74.3</ele>
        <time>2018-05-19T08:39:33Z</time>
      </trkpt>
      <trkpt lat="43.19886" lon="2.95724">
        <ele>73.6</ele>
        <time>2018-05-19T08:39:38Z</time>
      </trkpt>
      <trkpt lat="43.19889" lon="2.95703">
        <ele>72.3</ele>
        <time>2018-05-19T08:39:43Z</time>
      </trkpt>
      <trkpt lat="43.19893" lon="2.95659">
        <ele>65.6</ele>
        <time>2018-05-19T08:39:48Z</time>
      </trkpt>
      <trkpt lat="43.19896" lon="2.95612">
        <ele>64.6</ele>
        <time>2018-05-19T08:39:53Z</time>
      </trkpt>
      <trkpt lat="43.19892" lon="2.95564">
        <ele>60.3</ele>
        <time>2018-05-19T08:39:58Z</time>
      </trkpt>
      <trkpt lat="43.19899" lon="2.95507">
        <ele>57.7</ele>
        <time>2018-05-19T08:40:03Z</time>
      </trkpt>
      <trkpt lat="43.19886" lon="2.95464">
        <ele>56.4</ele>
        <time>2018-05-19T08:40:08Z</time>
      </trkpt>
      <trkpt lat="43.19884" lon="2.95416">
        <ele>54.8</ele>
        <time>2018-05-19T08:40:13Z</time>
      </trkpt>
      <trkpt lat="43.19876" lon="2.95381">
        <ele>54.6</ele>
        <time>2018-05-19T08:40:18Z</time>
      </trkpt>
      <trkpt lat="43.19871" lon="2.95356">
        <ele>54.2</ele>
        <time>2018-05-19T08:40:23Z</time>
      </trkpt>
      <trkpt lat="43.19874" lon="2.95343">
        <ele>54.1</ele>
        <time>2018-05-19T08:40:28Z</time>
      </trkpt>
      <trkpt lat="43.19874" lon="2.95343">
        <ele>54.1</ele>
        <time>2018-05-19T08:40:33Z</time>
      </trkpt>
      <trkpt lat="43.19885" lon="2.95308">
        <ele>52.8</ele>
        <time>2018-05-19T08:40:38Z</time>
      </trkpt>
      <trkpt lat="43.19878" lon="2.95281">
        <ele>52.2</ele>
        <time>2018-05-19T08:40:43Z</time>
      </trkpt>
      <trkpt lat="43.19807" lon="2.95243">
        <ele>47.4</ele>
        <time>2018-05-19T08:40:48Z</time>
      </trkpt>
      <trkpt lat="43.19789" lon="2.95206">
        <ele>46.7</ele>
        <time>2018-05-19T08:40:53Z</time>
      </trkpt>
      <trkpt lat="43.19768" lon="2.95173">
        <ele>45.5</ele>
        <time>2018-05-19T08:40:58Z</time>
      </trkpt>
      <trkpt lat="43.19749" lon="2.95136">
        <ele>43.6</ele>
        <time>2018-05-19T08:41:03Z</time>
      </trkpt>
      <trkpt lat="43.19732" lon="2.95101">
        <ele>43.2</ele>
        <time>2018-05-19T08:41:08Z</time>
      </trkpt>
      <trkpt lat="43.19711" lon="2.95067">
        <ele>40.8</ele>
        <time>2018-05-19T08:41:13Z</time>
      </trkpt>
      <trkpt lat="43.19682" lon="2.95044">
        <ele>40.2</ele>
        <time>2018-05-19T08:41:18Z</time>
      </trkpt>
      <trkpt lat="43.19645" lon="2.95046">
        <ele>40.3</ele>
        <time>2018-05-19T08:41:23Z</time>
      </trkpt>
      <trkpt lat="43.19617" lon="2.95029">
        <ele>40.2</ele>
        <time>2018-05-19T08:41:28Z</time>
      </trkpt>
      <trkpt lat="43.19598" lon="2.95018">
        <ele>40.1</ele>
        <time>2018-05-19T08:41:33Z</time>
      </trkpt>
      <trkpt lat="43.19571" lon="2.95002">
        <ele>40.3</ele>
        <time>2018-05-19T08:41:38Z</time>
      </trkpt>
      <trkpt lat="43.19548" lon="2.94988">
        <ele>39.1</ele>
        <time>2018-05-19T08:41:43Z</time>
      </trkpt>
      <trkpt lat="43.19523" lon="2.94976">
        <ele>39.1</ele>
        <time>2018-05-19T08:41:48Z</time>
      </trkpt>
      <trkpt lat="43.19505" lon="2.94967">
        <ele>39</ele>
        <time>2018-05-19T08:41:53Z</time>
      </trkpt>
      <trkpt lat="43.19491" lon="2.94961">
        <ele>39.2</ele>
        <time>2018-05-19T08:41:58Z</time>
      </trkpt>
      <trkpt lat="43.19463" lon="2.94948">
        <ele>39.1</ele>
        <time>2018-05-19T08:42:03Z</time>
      </trkpt>
      <trkpt lat="43.19439" lon="2.94936">
        <ele>38.9</ele>
        <time>2018-05-19T08:42:08Z</time>
      </trkpt>
      <trkpt lat="43.19418" lon="2.94925">
        <ele>38.4</ele>
        <time>2018-05-19T08:42:13Z</time>
      </trkpt>
      <trkpt lat="43.19395" lon="2.94913">
        <ele>38.2</ele>
        <time>2018-05-19T08:42:18Z</time>
      </trkpt>
      <trkpt lat="43.19382" lon="2.94906">
        <ele>38.4</ele>
        <time>2018-05-19T08:42:23Z</time>
      </trkpt>
      <trkpt lat="43.19359" lon="2.94893">
        <ele>38.6</ele>
        <time>2018-05-19T08:42:28Z</time>
      </trkpt>
      <trkpt lat="43.19345" lon="2.94886">
        <ele>38.7</ele>
        <time>2018-05-19T08:42:33Z</time>
      </trkpt>
      <trkpt lat="43.19328" lon="2.94877">
        <ele>39.4</ele>
        <time>2018-05-19T08:42:38Z</time>
      </trkpt>
      <trkpt lat="43.19304" lon="2.94861">
        <ele>39.2</ele>
        <time>2018-05-19T08:42:43Z</time>
      </trkpt>
      <trkpt lat="43.19283" lon="2.94845">
        <ele>39</ele>
        <time>2018-05-19T08:42:48Z</time>
      </trkpt>
      <trkpt lat="43.19267" lon="2.94832">
        <ele>37.9</ele>
        <time>2018-05-19T08:42:53Z</time>
      </trkpt>
      <trkpt lat="43.19247" lon="2.94815">
        <ele>38.5</ele>
        <time>2018-05-19T08:42:58Z</time>
      </trkpt>
      <trkpt lat="43.19229" lon="2.948">
        <ele>38.7</ele>
        <time>2018-05-19T08:43:03Z</time>
      </trkpt>
      <trkpt lat="43.19216" lon="2.94789">
        <ele>38.8</ele>
        <time>2018-05-19T08:43:08Z</time>
      </trkpt>
      <trkpt lat="43.19192" lon="2.94768">
        <ele>39</ele>
        <time>2018-05-19T08:43:13Z</time>
      </trkpt>
      <trkpt lat="43.19175" lon="2.94753">
        <ele>39</ele>
        <time>2018-05-19T08:43:18Z</time>
      </trkpt>
      <trkpt lat="43.19154" lon="2.94733">
        <ele>38.2</ele>
        <time>2018-05-19T08:43:23Z</time>
      </trkpt>
      <trkpt lat="43.1914" lon="2.94718">
        <ele>37.9</ele>
        <time>2018-05-19T08:43:28Z</time>
      </trkpt>
      <trkpt lat="43.1912" lon="2.94698">
        <ele>37.6</ele>
        <time>2018-05-19T08:43:33Z</time>
      </trkpt>
      <trkpt lat="43.19107" lon="2.94684">
        <ele>37.5</ele>
        <time>2018-05-19T08:43:38Z</time>
      </trkpt>
      <trkpt lat="43.19091" lon="2.94666">
        <ele>36.8</ele>
        <time>2018-05-19T08:43:43Z</time>
      </trkpt>
      <trkpt lat="43.19078" lon="2.94652">
        <ele>36.9</ele>
        <time>2018-05-19T08:43:48Z</time>
      </trkpt>
      <trkpt lat="43.19059" lon="2.94629">
        <ele>36.8</ele>
        <time>2018-05-19T08:43:53Z</time>
      </trkpt>
      <trkpt lat="43.19042" lon="2.9461">
        <ele>36.7</ele>
        <time>2018-05-19T08:43:58Z</time>
      </trkpt>
      <trkpt lat="43.19029" lon="2.94591">
        <ele>36.6</ele>
        <time>2018-05-19T08:44:03Z</time>
      </trkpt>
      <trkpt lat="43.19012" lon="2.94574">
        <ele>35.9</ele>
        <time>2018-05-19T08:44:08Z</time>
      </trkpt>
      <trkpt lat="43.18996" lon="2.94561">
        <ele>35.9</ele>
        <time>2018-05-19T08:44:13Z</time>
      </trkpt>
      <trkpt lat="43.18972" lon="2.94543">
        <ele>35.9</ele>
        <time>2018-05-19T08:44:18Z</time>
      </trkpt>
      <trkpt lat="43.18953" lon="2.94523">
        <ele>35.9</ele>
        <time>2018-05-19T08:44:23Z</time>
      </trkpt>
      <trkpt lat="43.18936" lon="2.94506">
        <ele>35.9</ele>
        <time>2018-05-19T08:44:28Z</time>
      </trkpt>
      <trkpt lat="43.18918" lon="2.94489">
        <ele>35.3</ele>
        <time>2018-05-19T08:44:33Z</time>
      </trkpt>
      <trkpt lat="43.18897" lon="2.94474">
        <ele>35.6</ele>
        <time>2018-05-19T08:44:38Z</time>
      </trkpt>
      <trkpt lat="43.18873" lon="2.94461">
        <ele>35.6</ele>
        <time>2018-05-19T08:44:43Z</time>
      </trkpt>
      <trkpt lat="43.18852" lon="2.94449">
        <ele>35.6</ele>
        <time>2018-05-19T08:44:48Z</time>
      </trkpt>
      <trkpt lat="43.18832" lon="2.94437">
        <ele>36.1</ele>
        <time>2018-05-19T08:44:53Z</time>
      </trkpt>
      <trkpt lat="43.18811" lon="2.94427">
        <ele>36.2</ele>
        <time>2018-05-19T08:44:58Z</time>
      </trkpt>
      <trkpt lat="43.1879" lon="2.94418">
        <ele>36.5</ele>
        <time>2018-05-19T08:45:03Z</time>
      </trkpt>
      <trkpt lat="43.18771" lon="2.94405">
        <ele>35.1</ele>
        <time>2018-05-19T08:45:08Z</time>
      </trkpt>
      <trkpt lat="43.18751" lon="2.94391">
        <ele>35</ele>
        <time>2018-05-19T08:45:13Z</time>
      </trkpt>
      <trkpt lat="43.18733" lon="2.94375">
        <ele>35.7</ele>
        <time>2018-05-19T08:45:18Z</time>
      </trkpt>
      <trkpt lat="43.18718" lon="2.94364">
        <ele>35.7</ele>
        <time>2018-05-19T08:45:23Z</time>
      </trkpt>
      <trkpt lat="43.18699" lon="2.94342">
        <ele>35.8</ele>
        <time>2018-05-19T08:45:28Z</time>
      </trkpt>
      <trkpt lat="43.18689" lon="2.94318">
        <ele>34.5</ele>
        <time>2018-05-19T08:45:33Z</time>
      </trkpt>
      <trkpt lat="43.18668" lon="2.94292">
        <ele>34</ele>
        <time>2018-05-19T08:45:38Z</time>
      </trkpt>
      <trkpt lat="43.1865" lon="2.94264">
        <ele>34</ele>
        <time>2018-05-19T08:45:43Z</time>
      </trkpt>
      <trkpt lat="43.18633" lon="2.94243">
        <ele>32.8</ele>
        <time>2018-05-19T08:45:48Z</time>
      </trkpt>
      <trkpt lat="43.18618" lon="2.94224">
        <ele>32.7</ele>
        <time>2018-05-19T08:45:53Z</time>
      </trkpt>
      <trkpt lat="43.18599" lon="2.94206">
        <ele>32.6</ele>
        <time>2018-05-19T08:45:58Z</time>
      </trkpt>
      <trkpt lat="43.18581" lon="2.94186">
        <ele>32.6</ele>
        <time>2018-05-19T08:46:03Z</time>
      </trkpt>
      <trkpt lat="43.18565" lon="2.94169">
        <ele>32.5</ele>
        <time>2018-05-19T08:46:08Z</time>
      </trkpt>
      <trkpt lat="43.18553" lon="2.94156">
        <ele>32.7</ele>
        <time>2018-05-19T08:46:13Z</time>
      </trkpt>
      <trkpt lat="43.18544" lon="2.94144">
        <ele>32.9</ele>
        <time>2018-05-19T08:46:18Z</time>
      </trkpt>
      <trkpt lat="43.18556" lon="2.94127">
        <ele>32.8</ele>
        <time>2018-05-19T08:46:23Z</time>
      </trkpt>
      <trkpt lat="43.18577" lon="2.941">
        <ele>32.5</ele>
        <time>2018-05-19T08:46:28Z</time>
      </trkpt>
      <trkpt lat="43.18592" lon="2.94074">
        <ele>32.3</ele>
        <time>2018-05-19T08:46:33Z</time>
      </trkpt>
      <trkpt lat="43.18609" lon="2.94052">
        <ele>32.7</ele>
        <time>2018-05-19T08:46:38Z</time>
      </trkpt>
      <trkpt lat="43.18621" lon="2.94032">
        <ele>32.9</ele>
        <time>2018-05-19T08:46:43Z</time>
      </trkpt>
      <trkpt lat="43.18635" lon="2.9401">
        <ele>32.9</ele>
        <time>2018-05-19T08:46:48Z</time>
      </trkpt>
      <trkpt lat="43.18659" lon="2.93992">
        <ele>33</ele>
        <time>2018-05-19T08:46:53Z</time>
      </trkpt>
      <trkpt lat="43.18677" lon="2.9398">
        <ele>32.4</ele>
        <time>2018-05-19T08:46:58Z</time>
      </trkpt>
      <trkpt lat="43.18703" lon="2.93967">
        <ele>32.1</ele>
        <time>2018-05-19T08:47:03Z</time>
      </trkpt>
      <trkpt lat="43.18719" lon="2.93959">
        <ele>31.9</ele>
        <time>2018-05-19T08:47:08Z</time>
      </trkpt>
      <trkpt lat="43.18737" lon="2.93948">
        <ele>31.8</ele>
        <time>2018-05-19T08:47:13Z</time>
      </trkpt>
      <trkpt lat="43.18741" lon="2.93942">
        <ele>31.7</ele>
        <time>2018-05-19T08:47:18Z</time>
      </trkpt>
      <trkpt lat="43.18722" lon="2.93931">
        <ele>31.7</ele>
        <time>2018-05-19T08:47:23Z</time>
      </trkpt>
      <trkpt lat="43.18697" lon="2.93945">
        <ele>32</ele>
        <time>2018-05-19T08:47:28Z</time>
      </trkpt>
      <trkpt lat="43.18676" lon="2.93941">
        <ele>32</ele>
        <time>2018-05-19T08:47:33Z</time>
      </trkpt>
      <trkpt lat="43.18663" lon="2.93931">
        <ele>32.4</ele>
        <time>2018-05-19T08:47:38Z</time>
      </trkpt>
      <trkpt lat="43.18653" lon="2.93932">
        <ele>32.6</ele>
        <time>2018-05-19T08:47:43Z</time>
      </trkpt>
      <trkpt lat="43.18642" lon="2.93953">
        <ele>32.9</ele>
        <time>2018-05-19T08:47:48Z</time>
      </trkpt>
      <trkpt lat="43.18628" lon="2.93977">
        <ele>33.1</ele>
        <time>2018-05-19T08:47:53Z</time>
      </trkpt>
      <trkpt lat="43.18609" lon="2.93999">
        <ele>33.4</ele>
        <time>2018-05-19T08:47:58Z</time>
      </trkpt>
      <trkpt lat="43.18588" lon="2.94016">
        <ele>33.4</ele>
        <time>2018-05-19T08:48:03Z</time>
      </trkpt>
      <trkpt lat="43.18572" lon="2.94027">
        <ele>33.9</ele>
        <time>2018-05-19T08:48:08Z</time>
      </trkpt>
      <trkpt lat="43.18552" lon="2.94045">
        <ele>33.8</ele>
        <time>2018-05-19T08:48:13Z</time>
      </trkpt>
      <trkpt lat="43.18539" lon="2.9406">
        <ele>33.9</ele>
        <time>2018-05-19T08:48:18Z</time>
      </trkpt>
      <trkpt lat="43.18519" lon="2.9408">
        <ele>34.4</ele>
        <time>2018-05-19T08:48:23Z</time>
      </trkpt>
      <trkpt lat="43.18506" lon="2.94093">
        <ele>34.2</ele>
        <time>2018-05-19T08:48:28Z</time>
      </trkpt>
      <trkpt lat="43.18488" lon="2.94101">
        <ele>34.6</ele>
        <time>2018-05-19T08:48:33Z</time>
      </trkpt>
      <trkpt lat="43.18476" lon="2.94092">
        <ele>34.7</ele>
        <time>2018-05-19T08:48:38Z</time>
      </trkpt>
      <trkpt lat="43.18463" lon="2.94072">
        <ele>35.2</ele>
        <time>2018-05-19T08:48:43Z</time>
      </trkpt>
      <trkpt lat="43.18452" lon="2.94064">
        <ele>35.2</ele>
        <time>2018-05-19T08:48:48Z</time>
      </trkpt>
      <trkpt lat="43.18435" lon="2.94053">
        <ele>35.3</ele>
        <time>2018-05-19T08:48:53Z</time>
      </trkpt>
      <trkpt lat="43.18423" lon="2.94041">
        <ele>35.3</ele>
        <time>2018-05-19T08:48:58Z</time>
      </trkpt>
      <trkpt lat="43.18404" lon="2.94026">
        <ele>35.8</ele>
        <time>2018-05-19T08:49:03Z</time>
      </trkpt>
      <trkpt lat="43.18392" lon="2.94015">
        <ele>35.8</ele>
        <time>2018-05-19T08:49:08Z</time>
      </trkpt>
      <trkpt lat="43.18375" lon="2.93999">
        <ele>36</ele>
        <time>2018-05-19T08:49:13Z</time>
      </trkpt>
      <trkpt lat="43.18363" lon="2.93989">
        <ele>36</ele>
        <time>2018-05-19T08:49:18Z</time>
      </trkpt>
      <trkpt lat="43.18344" lon="2.93974">
        <ele>35.9</ele>
        <time>2018-05-19T08:49:23Z</time>
      </trkpt>
      <trkpt lat="43.1834" lon="2.93956">
        <ele>35.8</ele>
        <time>2018-05-19T08:49:28Z</time>
      </trkpt>
      <trkpt lat="43.1834" lon="2.93926">
        <ele>35.4</ele>
        <time>2018-05-19T08:49:33Z</time>
      </trkpt>
      <trkpt lat="43.18347" lon="2.93898">
        <ele>35.5</ele>
        <time>2018-05-19T08:49:38Z</time>
      </trkpt>
      <trkpt lat="43.1835" lon="2.93877">
        <ele>35.5</ele>
        <time>2018-05-19T08:49:43Z</time>
      </trkpt>
      <trkpt lat="43.18354" lon="2.93845">
        <ele>35.5</ele>
        <time>2018-05-19T08:49:48Z</time>
      </trkpt>
      <trkpt lat="43.18362" lon="2.93817">
        <ele>35.2</ele>
        <time>2018-05-19T08:49:53Z</time>
      </trkpt>
      <trkpt lat="43.18364" lon="2.93798">
        <ele>35.2</ele>
        <time>2018-05-19T08:49:58Z</time>
      </trkpt>
      <trkpt lat="43.18369" lon="2.93768">
        <ele>35.2</ele>
        <time>2018-05-19T08:50:03Z</time>
      </trkpt>
      <trkpt lat="43.18373" lon="2.93747">
        <ele>35</ele>
        <time>2018-05-19T08:50:08Z</time>
      </trkpt>
      <trkpt lat="43.18377" lon="2.93715">
        <ele>35</ele>
        <time>2018-05-19T08:50:13Z</time>
      </trkpt>
      <trkpt lat="43.1838" lon="2.93696">
        <ele>35</ele>
        <time>2018-05-19T08:50:18Z</time>
      </trkpt>
      <trkpt lat="43.18385" lon="2.93669">
        <ele>35</ele>
        <time>2018-05-19T08:50:23Z</time>
      </trkpt>
      <trkpt lat="43.18389" lon="2.93647">
        <ele>35</ele>
        <time>2018-05-19T08:50:28Z</time>
      </trkpt>
      <trkpt lat="43.1839" lon="2.9362">
        <ele>35</ele>
        <time>2018-05-19T08:50:33Z</time>
      </trkpt>
      <trkpt lat="43.1839" lon="2.93603">
        <ele>35</ele>
        <time>2018-05-19T08:50:38Z</time>
      </trkpt>
      <trkpt lat="43.18398" lon="2.93575">
        <ele>35.3</ele>
        <time>2018-05-19T08:50:43Z</time>
      </trkpt>
      <trkpt lat="43.18401" lon="2.93556">
        <ele>35.5</ele>
        <time>2018-05-19T08:50:48Z</time>
      </trkpt>
      <trkpt lat="43.18411" lon="2.93522">
        <ele>36.1</ele>
        <time>2018-05-19T08:50:53Z</time>
      </trkpt>
      <trkpt lat="43.18417" lon="2.93502">
        <ele>36.9</ele>
        <time>2018-05-19T08:50:58Z</time>
      </trkpt>
      <trkpt lat="43.18425" lon="2.93474">
        <ele>36.6</ele>
        <time>2018-05-19T08:51:03Z</time>
      </trkpt>
      <trkpt lat="43.18433" lon="2.93445">
        <ele>36.7</ele>
        <time>2018-05-19T08:51:08Z</time>
      </trkpt>
      <trkpt lat="43.18435" lon="2.93428">
        <ele>36.9</ele>
        <time>2018-05-19T08:51:13Z</time>
      </trkpt>
      <trkpt lat="43.18435" lon="2.93402">
        <ele>36.7</ele>
        <time>2018-05-19T08:51:18Z</time>
      </trkpt>
      <trkpt lat="43.18429" lon="2.93391">
        <ele>36.6</ele>
        <time>2018-05-19T08:51:23Z</time>
      </trkpt>
      <trkpt lat="43.18417" lon="2.93376">
        <ele>36.2</ele>
        <time>2018-05-19T08:51:28Z</time>
      </trkpt>
      <trkpt lat="43.18411" lon="2.93359">
        <ele>36</ele>
        <time>2018-05-19T08:51:33Z</time>
      </trkpt>
      <trkpt lat="43.18398" lon="2.93333">
        <ele>35.2</ele>
        <time>2018-05-19T08:51:38Z</time>
      </trkpt>
      <trkpt lat="43.18377" lon="2.93335">
        <ele>35.5</ele>
        <time>2018-05-19T08:51:43Z</time>
      </trkpt>
      <trkpt lat="43.18355" lon="2.93349">
        <ele>35.2</ele>
        <time>2018-05-19T08:51:48Z</time>
      </trkpt>
      <trkpt lat="43.1833" lon="2.93364">
        <ele>34.9</ele>
        <time>2018-05-19T08:51:53Z</time>
      </trkpt>
      <trkpt lat="43.1831" lon="2.93362">
        <ele>35</ele>
        <time>2018-05-19T08:51:58Z</time>
      </trkpt>
      <trkpt lat="43.18281" lon="2.93361">
        <ele>35.3</ele>
        <time>2018-05-19T08:52:03Z</time>
      </trkpt>
      <trkpt lat="43.1826" lon="2.9336">
        <ele>35.5</ele>
        <time>2018-05-19T08:52:08Z</time>
      </trkpt>
      <trkpt lat="43.18244" lon="2.93364">
        <ele>35.2</ele>
        <time>2018-05-19T08:52:13Z</time>
      </trkpt>
      <trkpt lat="43.18224" lon="2.93366">
        <ele>35</ele>
        <time>2018-05-19T08:52:18Z</time>
      </trkpt>
      <trkpt lat="43.18211" lon="2.9337">
        <ele>34.8</ele>
        <time>2018-05-19T08:52:23Z</time>
      </trkpt>
      <trkpt lat="43.18187" lon="2.93373">
        <ele>34.4</ele>
        <time>2018-05-19T08:52:28Z</time>
      </trkpt>
      <trkpt lat="43.18176" lon="2.93371">
        <ele>34.3</ele>
        <time>2018-05-19T08:52:33Z</time>
      </trkpt>
      <trkpt lat="43.18163" lon="2.93357">
        <ele>34.3</ele>
        <time>2018-05-19T08:52:38Z</time>
      </trkpt>
      <trkpt lat="43.18153" lon="2.93353">
        <ele>34.4</ele>
        <time>2018-05-19T08:52:43Z</time>
      </trkpt>
      <trkpt lat="43.18134" lon="2.93367">
        <ele>35</ele>
        <time>2018-05-19T08:52:48Z</time>
      </trkpt>
      <trkpt lat="43.18115" lon="2.93373">
        <ele>35.5</ele>
        <time>2018-05-19T08:52:53Z</time>
      </trkpt>
      <trkpt lat="43.18099" lon="2.93373">
        <ele>35.7</ele>
        <time>2018-05-19T08:52:58Z</time>
      </trkpt>
      <trkpt lat="43.18075" lon="2.93372">
        <ele>36.7</ele>
        <time>2018-05-19T08:53:03Z</time>
      </trkpt>
      <trkpt lat="43.18057" lon="2.93374">
        <ele>36.6</ele>
        <time>2018-05-19T08:53:08Z</time>
      </trkpt>
      <trkpt lat="43.18028" lon="2.93377">
        <ele>36.4</ele>
        <time>2018-05-19T08:53:13Z</time>
      </trkpt>
      <trkpt lat="43.18009" lon="2.93379">
        <ele>36.3</ele>
        <time>2018-05-19T08:53:18Z</time>
      </trkpt>
      <trkpt lat="43.1798" lon="2.93383">
        <ele>36.3</ele>
        <time>2018-05-19T08:53:23Z</time>
      </trkpt>
      <trkpt lat="43.17957" lon="2.93384">
        <ele>36.5</ele>
        <time>2018-05-19T08:53:28Z</time>
      </trkpt>
      <trkpt lat="43.17942" lon="2.93381">
        <ele>36.6</ele>
        <time>2018-05-19T08:53:33Z</time>
      </trkpt>
      <trkpt lat="43.17923" lon="2.93378">
        <ele>36.7</ele>
        <time>2018-05-19T08:53:38Z</time>
      </trkpt>
      <trkpt lat="43.17899" lon="2.93375">
        <ele>37.9</ele>
        <time>2018-05-19T08:53:43Z</time>
      </trkpt>
      <trkpt lat="43.17885" lon="2.93371">
        <ele>38.1</ele>
        <time>2018-05-19T08:53:48Z</time>
      </trkpt>
      <trkpt lat="43.17861" lon="2.93363">
        <ele>38.4</ele>
        <time>2018-05-19T08:53:53Z</time>
      </trkpt>
      <trkpt lat="43.17845" lon="2.93358">
        <ele>38.6</ele>
        <time>2018-05-19T08:53:58Z</time>
      </trkpt>
      <trkpt lat="43.17822" lon="2.93349">
        <ele>39.6</ele>
        <time>2018-05-19T08:54:03Z</time>
      </trkpt>
      <trkpt lat="43.1781" lon="2.93341">
        <ele>39.7</ele>
        <time>2018-05-19T08:54:08Z</time>
      </trkpt>
      <trkpt lat="43.17793" lon="2.93329">
        <ele>40.6</ele>
        <time>2018-05-19T08:54:13Z</time>
      </trkpt>
      <trkpt lat="43.1778" lon="2.93319">
        <ele>40.9</ele>
        <time>2018-05-19T08:54:18Z</time>
      </trkpt>
      <trkpt lat="43.17755" lon="2.93306">
        <ele>41.4</ele>
        <time>2018-05-19T08:54:23Z</time>
      </trkpt>
      <trkpt lat="43.17738" lon="2.93292">
        <ele>42.6</ele>
        <time>2018-05-19T08:54:28Z</time>
      </trkpt>
      <trkpt lat="43.17726" lon="2.93282">
        <ele>42.8</ele>
        <time>2018-05-19T08:54:33Z</time>
      </trkpt>
      <trkpt lat="43.17707" lon="2.93265">
        <ele>42.9</ele>
        <time>2018-05-19T08:54:38Z</time>
      </trkpt>
      <trkpt lat="43.17695" lon="2.93252">
        <ele>42.9</ele>
        <time>2018-05-19T08:54:43Z</time>
      </trkpt>
      <trkpt lat="43.17677" lon="2.93233">
        <ele>45.3</ele>
        <time>2018-05-19T08:54:48Z</time>
      </trkpt>
      <trkpt lat="43.17666" lon="2.93219">
        <ele>43.6</ele>
        <time>2018-05-19T08:54:53Z</time>
      </trkpt>
      <trkpt lat="43.1765" lon="2.932">
        <ele>44</ele>
        <time>2018-05-19T08:54:58Z</time>
      </trkpt>
      <trkpt lat="43.17641" lon="2.93187">
        <ele>44.1</ele>
        <time>2018-05-19T08:55:03Z</time>
      </trkpt>
      <trkpt lat="43.17628" lon="2.93164">
        <ele>45.7</ele>
        <time>2018-05-19T08:55:08Z</time>
      </trkpt>
      <trkpt lat="43.17621" lon="2.9315">
        <ele>45.4</ele>
        <time>2018-05-19T08:55:13Z</time>
      </trkpt>
      <trkpt lat="43.17612" lon="2.9313">
        <ele>45.4</ele>
        <time>2018-05-19T08:55:18Z</time>
      </trkpt>
      <trkpt lat="43.17605" lon="2.93118">
        <ele>45.3</ele>
        <time>2018-05-19T08:55:23Z</time>
      </trkpt>
      <trkpt lat="43.17595" lon="2.93098">
        <ele>44.7</ele>
        <time>2018-05-19T08:55:28Z</time>
      </trkpt>
      <trkpt lat="43.17588" lon="2.93085">
        <ele>43.7</ele>
        <time>2018-05-19T08:55:33Z</time>
      </trkpt>
      <trkpt lat="43.1758" lon="2.93067">
        <ele>43.1</ele>
        <time>2018-05-19T08:55:38Z</time>
      </trkpt>
      <trkpt lat="43.17574" lon="2.93056">
        <ele>43.1</ele>
        <time>2018-05-19T08:55:43Z</time>
      </trkpt>
      <trkpt lat="43.17563" lon="2.93037">
        <ele>43.3</ele>
        <time>2018-05-19T08:55:48Z</time>
      </trkpt>
      <trkpt lat="43.17554" lon="2.93022">
        <ele>43.4</ele>
        <time>2018-05-19T08:55:53Z</time>
      </trkpt>
      <trkpt lat="43.17541" lon="2.92998">
        <ele>45.4</ele>
        <time>2018-05-19T08:55:58Z</time>
      </trkpt>
      <trkpt lat="43.17532" lon="2.92983">
        <ele>45.4</ele>
        <time>2018-05-19T08:56:03Z</time>
      </trkpt>
      <trkpt lat="43.17519" lon="2.92958">
        <ele>45.6</ele>
        <time>2018-05-19T08:56:08Z</time>
      </trkpt>
      <trkpt lat="43.1751" lon="2.92944">
        <ele>45.4</ele>
        <time>2018-05-19T08:56:13Z</time>
      </trkpt>
      <trkpt lat="43.17498" lon="2.9292">
        <ele>44.2</ele>
        <time>2018-05-19T08:56:18Z</time>
      </trkpt>
      <trkpt lat="43.1749" lon="2.929">
        <ele>44.7</ele>
        <time>2018-05-19T08:56:23Z</time>
      </trkpt>
      <trkpt lat="43.17477" lon="2.92875">
        <ele>45.1</ele>
        <time>2018-05-19T08:56:28Z</time>
      </trkpt>
      <trkpt lat="43.1747" lon="2.92861">
        <ele>45.1</ele>
        <time>2018-05-19T08:56:33Z</time>
      </trkpt>
      <trkpt lat="43.17459" lon="2.92838">
        <ele>45.2</ele>
        <time>2018-05-19T08:56:38Z</time>
      </trkpt>
      <trkpt lat="43.1745" lon="2.92823">
        <ele>45.6</ele>
        <time>2018-05-19T08:56:43Z</time>
      </trkpt>
      <trkpt lat="43.17438" lon="2.92801">
        <ele>45.6</ele>
        <time>2018-05-19T08:56:48Z</time>
      </trkpt>
      <trkpt lat="43.1743" lon="2.92785">
        <ele>45.5</ele>
        <time>2018-05-19T08:56:53Z</time>
      </trkpt>
      <trkpt lat="43.17418" lon="2.92763">
        <ele>44.8</ele>
        <time>2018-05-19T08:56:58Z</time>
      </trkpt>
      <trkpt lat="43.1741" lon="2.92746">
        <ele>44.7</ele>
        <time>2018-05-19T08:57:03Z</time>
      </trkpt>
      <trkpt lat="43.17396" lon="2.92722">
        <ele>45.9</ele>
        <time>2018-05-19T08:57:08Z</time>
      </trkpt>
      <trkpt lat="43.17388" lon="2.92707">
        <ele>46.2</ele>
        <time>2018-05-19T08:57:13Z</time>
      </trkpt>
      <trkpt lat="43.17375" lon="2.92682">
        <ele>46.3</ele>
        <time>2018-05-19T08:57:18Z</time>
      </trkpt>
      <trkpt lat="43.17366" lon="2.92665">
        <ele>47.3</ele>
        <time>2018-05-19T08:57:23Z</time>
      </trkpt>
      <trkpt lat="43.17353" lon="2.92639">
        <ele>47.3</ele>
        <time>2018-05-19T08:57:28Z</time>
      </trkpt>
      <trkpt lat="43.17345" lon="2.92624">
        <ele>47.4</ele>
        <time>2018-05-19T08:57:33Z</time>
      </trkpt>
      <trkpt lat="43.17332" lon="2.92598">
        <ele>46.7</ele>
        <time>2018-05-19T08:57:38Z</time>
      </trkpt>
      <trkpt lat="43.17321" lon="2.9258">
        <ele>46.5</ele>
        <time>2018-05-19T08:57:43Z</time>
      </trkpt>
      <trkpt lat="43.17307" lon="2.92552">
        <ele>46.9</ele>
        <time>2018-05-19T08:57:48Z</time>
      </trkpt>
      <trkpt lat="43.17299" lon="2.92536">
        <ele>47</ele>
        <time>2018-05-19T08:57:53Z</time>
      </trkpt>
      <trkpt lat="43.17286" lon="2.9251">
        <ele>46.9</ele>
        <time>2018-05-19T08:57:58Z</time>
      </trkpt>
      <trkpt lat="43.17278" lon="2.92494">
        <ele>47.7</ele>
        <time>2018-05-19T08:58:03Z</time>
      </trkpt>
      <trkpt lat="43.17266" lon="2.92471">
        <ele>47.9</ele>
        <time>2018-05-19T08:58:08Z</time>
      </trkpt>
      <trkpt lat="43.17256" lon="2.92455">
        <ele>48.2</ele>
        <time>2018-05-19T08:58:13Z</time>
      </trkpt>
      <trkpt lat="43.17242" lon="2.92429">
        <ele>48.6</ele>
        <time>2018-05-19T08:58:18Z</time>
      </trkpt>
      <trkpt lat="43.17231" lon="2.92415">
        <ele>50.2</ele>
        <time>2018-05-19T08:58:23Z</time>
      </trkpt>
      <trkpt lat="43.17218" lon="2.92393">
        <ele>51</ele>
        <time>2018-05-19T08:58:28Z</time>
      </trkpt>
      <trkpt lat="43.1721" lon="2.92377">
        <ele>51.4</ele>
        <time>2018-05-19T08:58:33Z</time>
      </trkpt>
      <trkpt lat="43.172" lon="2.92356">
        <ele>52</ele>
        <time>2018-05-19T08:58:38Z</time>
      </trkpt>
      <trkpt lat="43.17192" lon="2.92342">
        <ele>52.2</ele>
        <time>2018-05-19T08:58:43Z</time>
      </trkpt>
      <trkpt lat="43.17179" lon="2.92316">
        <ele>55</ele>
        <time>2018-05-19T08:58:48Z</time>
      </trkpt>
      <trkpt lat="43.1717" lon="2.923">
        <ele>55.6</ele>
        <time>2018-05-19T08:58:53Z</time>
      </trkpt>
      <trkpt lat="43.17158" lon="2.92277">
        <ele>53.3</ele>
        <time>2018-05-19T08:58:58Z</time>
      </trkpt>
      <trkpt lat="43.1715" lon="2.92261">
        <ele>53.7</ele>
        <time>2018-05-19T08:59:03Z</time>
      </trkpt>
      <trkpt lat="43.17139" lon="2.92238">
        <ele>55.5</ele>
        <time>2018-05-19T08:59:08Z</time>
      </trkpt>
      <trkpt lat="43.1713" lon="2.92222">
        <ele>55.5</ele>
        <time>2018-05-19T08:59:13Z</time>
      </trkpt>
      <trkpt lat="43.17119" lon="2.922">
        <ele>55.7</ele>
        <time>2018-05-19T08:59:18Z</time>
      </trkpt>
      <trkpt lat="43.17111" lon="2.92185">
        <ele>55.4</ele>
        <time>2018-05-19T08:59:23Z</time>
      </trkpt>
      <trkpt lat="43.17098" lon="2.92167">
        <ele>56</ele>
        <time>2018-05-19T08:59:28Z</time>
      </trkpt>
      <trkpt lat="43.17089" lon="2.92153">
        <ele>56</ele>
        <time>2018-05-19T08:59:33Z</time>
      </trkpt>
      <trkpt lat="43.17078" lon="2.92129">
        <ele>52.5</ele>
        <time>2018-05-19T08:59:38Z</time>
      </trkpt>
      <trkpt lat="43.1707" lon="2.92111">
        <ele>52.7</ele>
        <time>2018-05-19T08:59:43Z</time>
      </trkpt>
      <trkpt lat="43.1706" lon="2.92084">
        <ele>52.9</ele>
        <time>2018-05-19T08:59:48Z</time>
      </trkpt>
      <trkpt lat="43.17056" lon="2.92066">
        <ele>52.8</ele>
        <time>2018-05-19T08:59:53Z</time>
      </trkpt>
      <trkpt lat="43.17051" lon="2.92038">
        <ele>52.6</ele>
        <time>2018-05-19T08:59:58Z</time>
      </trkpt>
      <trkpt lat="43.17048" lon="2.92022">
        <ele>52.6</ele>
        <time>2018-05-19T09:00:03Z</time>
      </trkpt>
      <trkpt lat="43.17044" lon="2.91994">
        <ele>54.6</ele>
        <time>2018-05-19T09:00:08Z</time>
      </trkpt>
      <trkpt lat="43.17046" lon="2.91972">
        <ele>55.2</ele>
        <time>2018-05-19T09:00:13Z</time>
      </trkpt>
      <trkpt lat="43.17044" lon="2.91944">
        <ele>56.2</ele>
        <time>2018-05-19T09:00:18Z</time>
      </trkpt>
      <trkpt lat="43.17043" lon="2.91925">
        <ele>56.7</ele>
        <time>2018-05-19T09:00:23Z</time>
      </trkpt>
      <trkpt lat="43.17042" lon="2.91897">
        <ele>58.9</ele>
        <time>2018-05-19T09:00:28Z</time>
      </trkpt>
      <trkpt lat="43.17042" lon="2.91882">
        <ele>59</ele>
        <time>2018-05-19T09:00:33Z</time>
      </trkpt>
      <trkpt lat="43.17041" lon="2.91867">
        <ele>59</ele>
        <time>2018-05-19T09:00:38Z</time>
      </trkpt>
      <trkpt lat="43.17039" lon="2.91845">
        <ele>58.8</ele>
        <time>2018-05-19T09:00:43Z</time>
      </trkpt>
      <trkpt lat="43.17037" lon="2.91829">
        <ele>58.5</ele>
        <time>2018-05-19T09:00:48Z</time>
      </trkpt>
      <trkpt lat="43.17035" lon="2.91805">
        <ele>58.3</ele>
        <time>2018-05-19T09:00:53Z</time>
      </trkpt>
      <trkpt lat="43.17034" lon="2.91788">
        <ele>58.1</ele>
        <time>2018-05-19T09:00:58Z</time>
      </trkpt>
      <trkpt lat="43.17033" lon="2.91764">
        <ele>57.7</ele>
        <time>2018-05-19T09:01:03Z</time>
      </trkpt>
      <trkpt lat="43.17032" lon="2.91745">
        <ele>56.5</ele>
        <time>2018-05-19T09:01:08Z</time>
      </trkpt>
      <trkpt lat="43.1703" lon="2.91722">
        <ele>56.5</ele>
        <time>2018-05-19T09:01:13Z</time>
      </trkpt>
      <trkpt lat="43.1703" lon="2.91708">
        <ele>56.5</ele>
        <time>2018-05-19T09:01:18Z</time>
      </trkpt>
      <trkpt lat="43.17029" lon="2.91687">
        <ele>56.1</ele>
        <time>2018-05-19T09:01:23Z</time>
      </trkpt>
      <trkpt lat="43.17028" lon="2.91674">
        <ele>55.8</ele>
        <time>2018-05-19T09:01:28Z</time>
      </trkpt>
      <trkpt lat="43.17022" lon="2.91654">
        <ele>55.5</ele>
        <time>2018-05-19T09:01:33Z</time>
      </trkpt>
      <trkpt lat="43.17017" lon="2.9164">
        <ele>55.7</ele>
        <time>2018-05-19T09:01:38Z</time>
      </trkpt>
      <trkpt lat="43.17006" lon="2.91622">
        <ele>55.8</ele>
        <time>2018-05-19T09:01:43Z</time>
      </trkpt>
      <trkpt lat="43.17" lon="2.91609">
        <ele>55.8</ele>
        <time>2018-05-19T09:01:48Z</time>
      </trkpt>
      <trkpt lat="43.16991" lon="2.91592">
        <ele>54.8</ele>
        <time>2018-05-19T09:01:53Z</time>
      </trkpt>
      <trkpt lat="43.16986" lon="2.91587">
        <ele>54.8</ele>
        <time>2018-05-19T09:01:58Z</time>
      </trkpt>
      <trkpt lat="43.16982" lon="2.91581">
        <ele>54.8</ele>
        <time>2018-05-19T09:02:03Z</time>
      </trkpt>
      <trkpt lat="43.16978" lon="2.91569">
        <ele>54.8</ele>
        <time>2018-05-19T09:02:08Z</time>
      </trkpt>
      <trkpt lat="43.16971" lon="2.91558">
        <ele>54.8</ele>
        <time>2018-05-19T09:02:13Z</time>
      </trkpt>
      <trkpt lat="43.16967" lon="2.91552">
        <ele>54.8</ele>
        <time>2018-05-19T09:02:18Z</time>
      </trkpt>
      <trkpt lat="43.16962" lon="2.91539">
        <ele>54.9</ele>
        <time>2018-05-19T09:02:23Z</time>
      </trkpt>
      <trkpt lat="43.16955" lon="2.91526">
        <ele>54.9</ele>
        <time>2018-05-19T09:02:28Z</time>
      </trkpt>
      <trkpt lat="43.16952" lon="2.91519">
        <ele>54.8</ele>
        <time>2018-05-19T09:02:33Z</time>
      </trkpt>
      <trkpt lat="43.16948" lon="2.91505">
        <ele>54.7</ele>
        <time>2018-05-19T09:02:38Z</time>
      </trkpt>
      <trkpt lat="43.16945" lon="2.91486">
        <ele>56.2</ele>
        <time>2018-05-19T09:02:43Z</time>
      </trkpt>
      <trkpt lat="43.16945" lon="2.91469">
        <ele>56.6</ele>
        <time>2018-05-19T09:02:48Z</time>
      </trkpt>
      <trkpt lat="43.16943" lon="2.91445">
        <ele>56.9</ele>
        <time>2018-05-19T09:02:53Z</time>
      </trkpt>
      <trkpt lat="43.16941" lon="2.91431">
        <ele>57</ele>
        <time>2018-05-19T09:02:58Z</time>
      </trkpt>
      <trkpt lat="43.16937" lon="2.91416">
        <ele>58.1</ele>
        <time>2018-05-19T09:03:03Z</time>
      </trkpt>
      <trkpt lat="43.16935" lon="2.91409">
        <ele>58.1</ele>
        <time>2018-05-19T09:03:08Z</time>
      </trkpt>
      <trkpt lat="43.1693" lon="2.91384">
        <ele>58.8</ele>
        <time>2018-05-19T09:03:13Z</time>
      </trkpt>
      <trkpt lat="43.16926" lon="2.91369">
        <ele>59.1</ele>
        <time>2018-05-19T09:03:18Z</time>
      </trkpt>
      <trkpt lat="43.16919" lon="2.91346">
        <ele>59.2</ele>
        <time>2018-05-19T09:03:23Z</time>
      </trkpt>
      <trkpt lat="43.16913" lon="2.91331">
        <ele>59.1</ele>
        <time>2018-05-19T09:03:28Z</time>
      </trkpt>
      <trkpt lat="43.16905" lon="2.91308">
        <ele>59.4</ele>
        <time>2018-05-19T09:03:33Z</time>
      </trkpt>
      <trkpt lat="43.169" lon="2.91295">
        <ele>59.5</ele>
        <time>2018-05-19T09:03:38Z</time>
      </trkpt>
      <trkpt lat="43.16895" lon="2.91271">
        <ele>60</ele>
        <time>2018-05-19T09:03:43Z</time>
      </trkpt>
      <trkpt lat="43.16893" lon="2.91254">
        <ele>60.2</ele>
        <time>2018-05-19T09:03:48Z</time>
      </trkpt>
      <trkpt lat="43.16893" lon="2.91224">
        <ele>61.9</ele>
        <time>2018-05-19T09:03:53Z</time>
      </trkpt>
      <trkpt lat="43.1689" lon="2.91202">
        <ele>62.4</ele>
        <time>2018-05-19T09:03:58Z</time>
      </trkpt>
      <trkpt lat="43.16889" lon="2.91188">
        <ele>62.8</ele>
        <time>2018-05-19T09:04:03Z</time>
      </trkpt>
      <trkpt lat="43.16885" lon="2.91166">
        <ele>65.5</ele>
        <time>2018-05-19T09:04:08Z</time>
      </trkpt>
      <trkpt lat="43.16883" lon="2.91153">
        <ele>65.5</ele>
        <time>2018-05-19T09:04:13Z</time>
      </trkpt>
      <trkpt lat="43.16878" lon="2.91131">
        <ele>65.8</ele>
        <time>2018-05-19T09:04:18Z</time>
      </trkpt>
      <trkpt lat="43.16875" lon="2.91115">
        <ele>66</ele>
        <time>2018-05-19T09:04:23Z</time>
      </trkpt>
      <trkpt lat="43.16867" lon="2.91092">
        <ele>65.9</ele>
        <time>2018-05-19T09:04:28Z</time>
      </trkpt>
      <trkpt lat="43.16861" lon="2.91075">
        <ele>68.4</ele>
        <time>2018-05-19T09:04:33Z</time>
      </trkpt>
      <trkpt lat="43.16854" lon="2.91052">
        <ele>68.8</ele>
        <time>2018-05-19T09:04:38Z</time>
      </trkpt>
      <trkpt lat="43.16848" lon="2.91037">
        <ele>69</ele>
        <time>2018-05-19T09:04:43Z</time>
      </trkpt>
      <trkpt lat="43.16839" lon="2.91014">
        <ele>68.1</ele>
        <time>2018-05-19T09:04:48Z</time>
      </trkpt>
      <trkpt lat="43.16834" lon="2.91">
        <ele>66.2</ele>
        <time>2018-05-19T09:04:53Z</time>
      </trkpt>
      <trkpt lat="43.16826" lon="2.90978">
        <ele>69.4</ele>
        <time>2018-05-19T09:04:58Z</time>
      </trkpt>
      <trkpt lat="43.1682" lon="2.90964">
        <ele>70.4</ele>
        <time>2018-05-19T09:05:03Z</time>
      </trkpt>
      <trkpt lat="43.16812" lon="2.90942">
        <ele>71.1</ele>
        <time>2018-05-19T09:05:08Z</time>
      </trkpt>
      <trkpt lat="43.16807" lon="2.90926">
        <ele>71.2</ele>
        <time>2018-05-19T09:05:13Z</time>
      </trkpt>
      <trkpt lat="43.16799" lon="2.90904">
        <ele>73.6</ele>
        <time>2018-05-19T09:05:18Z</time>
      </trkpt>
      <trkpt lat="43.16793" lon="2.9089">
        <ele>73.9</ele>
        <time>2018-05-19T09:05:23Z</time>
      </trkpt>
      <trkpt lat="43.16787" lon="2.90868">
        <ele>74.5</ele>
        <time>2018-05-19T09:05:28Z</time>
      </trkpt>
      <trkpt lat="43.16782" lon="2.90854">
        <ele>74.6</ele>
        <time>2018-05-19T09:05:33Z</time>
      </trkpt>
      <trkpt lat="43.16776" lon="2.90831">
        <ele>77.1</ele>
        <time>2018-05-19T09:05:38Z</time>
      </trkpt>
      <trkpt lat="43.16773" lon="2.90814">
        <ele>77.5</ele>
        <time>2018-05-19T09:05:43Z</time>
      </trkpt>
      <trkpt lat="43.16771" lon="2.90788">
        <ele>78.5</ele>
        <time>2018-05-19T09:05:48Z</time>
      </trkpt>
      <trkpt lat="43.16774" lon="2.9077">
        <ele>78.7</ele>
        <time>2018-05-19T09:05:53Z</time>
      </trkpt>
      <trkpt lat="43.1678" lon="2.90747">
        <ele>80.8</ele>
        <time>2018-05-19T09:05:58Z</time>
      </trkpt>
      <trkpt lat="43.16785" lon="2.90735">
        <ele>81.6</ele>
        <time>2018-05-19T09:06:03Z</time>
      </trkpt>
      <trkpt lat="43.16794" lon="2.90718">
        <ele>82.4</ele>
        <time>2018-05-19T09:06:08Z</time>
      </trkpt>
      <trkpt lat="43.168" lon="2.90705">
        <ele>82.6</ele>
        <time>2018-05-19T09:06:13Z</time>
      </trkpt>
      <trkpt lat="43.16809" lon="2.90684">
        <ele>82.9</ele>
        <time>2018-05-19T09:06:18Z</time>
      </trkpt>
      <trkpt lat="43.16813" lon="2.9067">
        <ele>83.1</ele>
        <time>2018-05-19T09:06:23Z</time>
      </trkpt>
      <trkpt lat="43.16817" lon="2.9065">
        <ele>83.4</ele>
        <time>2018-05-19T09:06:28Z</time>
      </trkpt>
      <trkpt lat="43.16818" lon="2.90635">
        <ele>83.3</ele>
        <time>2018-05-19T09:06:33Z</time>
      </trkpt>
      <trkpt lat="43.1682" lon="2.90611">
        <ele>83.3</ele>
        <time>2018-05-19T09:06:38Z</time>
      </trkpt>
      <trkpt lat="43.1682" lon="2.90596">
        <ele>83.2</ele>
        <time>2018-05-19T09:06:43Z</time>
      </trkpt>
      <trkpt lat="43.16819" lon="2.90573">
        <ele>84.2</ele>
        <time>2018-05-19T09:06:48Z</time>
      </trkpt>
      <trkpt lat="43.16818" lon="2.90556">
        <ele>84.7</ele>
        <time>2018-05-19T09:06:53Z</time>
      </trkpt>
      <trkpt lat="43.16815" lon="2.90532">
        <ele>85.1</ele>
        <time>2018-05-19T09:06:58Z</time>
      </trkpt>
      <trkpt lat="43.16813" lon="2.90516">
        <ele>85.1</ele>
        <time>2018-05-19T09:07:03Z</time>
      </trkpt>
      <trkpt lat="43.16812" lon="2.90493">
        <ele>86.3</ele>
        <time>2018-05-19T09:07:08Z</time>
      </trkpt>
      <trkpt lat="43.16811" lon="2.90478">
        <ele>86.7</ele>
        <time>2018-05-19T09:07:13Z</time>
      </trkpt>
      <trkpt lat="43.1681" lon="2.90453">
        <ele>87</ele>
        <time>2018-05-19T09:07:18Z</time>
      </trkpt>
      <trkpt lat="43.16811" lon="2.90438">
        <ele>86.8</ele>
        <time>2018-05-19T09:07:23Z</time>
      </trkpt>
      <trkpt lat="43.16815" lon="2.90415">
        <ele>87</ele>
        <time>2018-05-19T09:07:28Z</time>
      </trkpt>
      <trkpt lat="43.16819" lon="2.90399">
        <ele>87.2</ele>
        <time>2018-05-19T09:07:33Z</time>
      </trkpt>
      <trkpt lat="43.16827" lon="2.90378">
        <ele>87.4</ele>
        <time>2018-05-19T09:07:38Z</time>
      </trkpt>
      <trkpt lat="43.16833" lon="2.90365">
        <ele>86.9</ele>
        <time>2018-05-19T09:07:43Z</time>
      </trkpt>
      <trkpt lat="43.16843" lon="2.9035">
        <ele>87.5</ele>
        <time>2018-05-19T09:07:48Z</time>
      </trkpt>
      <trkpt lat="43.1685" lon="2.90339">
        <ele>87.5</ele>
        <time>2018-05-19T09:07:53Z</time>
      </trkpt>
      <trkpt lat="43.16861" lon="2.90318">
        <ele>86.3</ele>
        <time>2018-05-19T09:07:58Z</time>
      </trkpt>
      <trkpt lat="43.16868" lon="2.90304">
        <ele>86.9</ele>
        <time>2018-05-19T09:08:03Z</time>
      </trkpt>
      <trkpt lat="43.16877" lon="2.90283">
        <ele>86.8</ele>
        <time>2018-05-19T09:08:08Z</time>
      </trkpt>
      <trkpt lat="43.16879" lon="2.90267">
        <ele>86.4</ele>
        <time>2018-05-19T09:08:13Z</time>
      </trkpt>
      <trkpt lat="43.16879" lon="2.90241">
        <ele>84.5</ele>
        <time>2018-05-19T09:08:18Z</time>
      </trkpt>
      <trkpt lat="43.16878" lon="2.90228">
        <ele>84.5</ele>
        <time>2018-05-19T09:08:23Z</time>
      </trkpt>
      <trkpt lat="43.16867" lon="2.90202">
        <ele>84.5</ele>
        <time>2018-05-19T09:08:28Z</time>
      </trkpt>
      <trkpt lat="43.16858" lon="2.90185">
        <ele>84.6</ele>
        <time>2018-05-19T09:08:33Z</time>
      </trkpt>
      <trkpt lat="43.16845" lon="2.90163">
        <ele>87.5</ele>
        <time>2018-05-19T09:08:38Z</time>
      </trkpt>
      <trkpt lat="43.16838" lon="2.90151">
        <ele>88.4</ele>
        <time>2018-05-19T09:08:43Z</time>
      </trkpt>
      <trkpt lat="43.16825" lon="2.90134">
        <ele>90.8</ele>
        <time>2018-05-19T09:08:48Z</time>
      </trkpt>
      <trkpt lat="43.16813" lon="2.90128">
        <ele>91.5</ele>
        <time>2018-05-19T09:08:53Z</time>
      </trkpt>
      <trkpt lat="43.16796" lon="2.90129">
        <ele>91.4</ele>
        <time>2018-05-19T09:08:58Z</time>
      </trkpt>
      <trkpt lat="43.16786" lon="2.90133">
        <ele>91</ele>
        <time>2018-05-19T09:09:03Z</time>
      </trkpt>
      <trkpt lat="43.16769" lon="2.90139">
        <ele>90.2</ele>
        <time>2018-05-19T09:09:08Z</time>
      </trkpt>
      <trkpt lat="43.16758" lon="2.9014">
        <ele>89.6</ele>
        <time>2018-05-19T09:09:13Z</time>
      </trkpt>
      <trkpt lat="43.1674" lon="2.90138">
        <ele>90.1</ele>
        <time>2018-05-19T09:09:18Z</time>
      </trkpt>
      <trkpt lat="43.16731" lon="2.90135">
        <ele>90.7</ele>
        <time>2018-05-19T09:09:23Z</time>
      </trkpt>
      <trkpt lat="43.16716" lon="2.90131">
        <ele>91.3</ele>
        <time>2018-05-19T09:09:28Z</time>
      </trkpt>
      <trkpt lat="43.16705" lon="2.90131">
        <ele>91.4</ele>
        <time>2018-05-19T09:09:33Z</time>
      </trkpt>
      <trkpt lat="43.16691" lon="2.90135">
        <ele>91.2</ele>
        <time>2018-05-19T09:09:38Z</time>
      </trkpt>
      <trkpt lat="43.16684" lon="2.90135">
        <ele>91.1</ele>
        <time>2018-05-19T09:09:43Z</time>
      </trkpt>
      <trkpt lat="43.16671" lon="2.90132">
        <ele>91.3</ele>
        <time>2018-05-19T09:09:48Z</time>
      </trkpt>
      <trkpt lat="43.16659" lon="2.90123">
        <ele>93.1</ele>
        <time>2018-05-19T09:09:53Z</time>
      </trkpt>
      <trkpt lat="43.16655" lon="2.90118">
        <ele>93.4</ele>
        <time>2018-05-19T09:09:58Z</time>
      </trkpt>
      <trkpt lat="43.16647" lon="2.901">
        <ele>94.1</ele>
        <time>2018-05-19T09:10:03Z</time>
      </trkpt>
      <trkpt lat="43.16645" lon="2.90091">
        <ele>94.3</ele>
        <time>2018-05-19T09:10:08Z</time>
      </trkpt>
      <trkpt lat="43.1664" lon="2.90075">
        <ele>95.6</ele>
        <time>2018-05-19T09:10:13Z</time>
      </trkpt>
      <trkpt lat="43.16635" lon="2.90057">
        <ele>95.7</ele>
        <time>2018-05-19T09:10:18Z</time>
      </trkpt>
      <trkpt lat="43.16631" lon="2.90045">
        <ele>95.7</ele>
        <time>2018-05-19T09:10:23Z</time>
      </trkpt>
      <trkpt lat="43.16627" lon="2.90031">
        <ele>95.8</ele>
        <time>2018-05-19T09:10:28Z</time>
      </trkpt>
      <trkpt lat="43.16622" lon="2.90016">
        <ele>95.5</ele>
        <time>2018-05-19T09:10:33Z</time>
      </trkpt>
      <trkpt lat="43.16618" lon="2.90005">
        <ele>95.1</ele>
        <time>2018-05-19T09:10:38Z</time>
      </trkpt>
      <trkpt lat="43.16612" lon="2.8999">
        <ele>95.9</ele>
        <time>2018-05-19T09:10:43Z</time>
      </trkpt>
      <trkpt lat="43.16606" lon="2.89977">
        <ele>95.7</ele>
        <time>2018-05-19T09:10:48Z</time>
      </trkpt>
      <trkpt lat="43.16598" lon="2.89966">
        <ele>95.7</ele>
        <time>2018-05-19T09:10:53Z</time>
      </trkpt>
      <trkpt lat="43.16588" lon="2.89958">
        <ele>95.3</ele>
        <time>2018-05-19T09:10:58Z</time>
      </trkpt>
      <trkpt lat="43.16576" lon="2.89948">
        <ele>92.1</ele>
        <time>2018-05-19T09:11:03Z</time>
      </trkpt>
      <trkpt lat="43.16567" lon="2.89942">
        <ele>92.2</ele>
        <time>2018-05-19T09:11:08Z</time>
      </trkpt>
      <trkpt lat="43.16554" lon="2.89932">
        <ele>92.4</ele>
        <time>2018-05-19T09:11:13Z</time>
      </trkpt>
      <trkpt lat="43.16546" lon="2.89926">
        <ele>92.6</ele>
        <time>2018-05-19T09:11:18Z</time>
      </trkpt>
      <trkpt lat="43.16532" lon="2.89915">
        <ele>92.2</ele>
        <time>2018-05-19T09:11:23Z</time>
      </trkpt>
      <trkpt lat="43.16522" lon="2.89908">
        <ele>92.3</ele>
        <time>2018-05-19T09:11:28Z</time>
      </trkpt>
      <trkpt lat="43.16512" lon="2.89901">
        <ele>92.4</ele>
        <time>2018-05-19T09:11:33Z</time>
      </trkpt>
      <trkpt lat="43.16504" lon="2.89894">
        <ele>92.4</ele>
        <time>2018-05-19T09:11:38Z</time>
      </trkpt>
      <trkpt lat="43.16494" lon="2.89884">
        <ele>93.5</ele>
        <time>2018-05-19T09:11:43Z</time>
      </trkpt>
      <trkpt lat="43.16487" lon="2.89875">
        <ele>93.5</ele>
        <time>2018-05-19T09:11:48Z</time>
      </trkpt>
      <trkpt lat="43.16472" lon="2.8987">
        <ele>93.7</ele>
        <time>2018-05-19T09:11:53Z</time>
      </trkpt>
      <trkpt lat="43.16462" lon="2.89863">
        <ele>93.9</ele>
        <time>2018-05-19T09:11:58Z</time>
      </trkpt>
      <trkpt lat="43.16452" lon="2.89854">
        <ele>94</ele>
        <time>2018-05-19T09:12:03Z</time>
      </trkpt>
      <trkpt lat="43.16441" lon="2.89847">
        <ele>94.2</ele>
        <time>2018-05-19T09:12:08Z</time>
      </trkpt>
      <trkpt lat="43.16431" lon="2.89842">
        <ele>94.5</ele>
        <time>2018-05-19T09:12:13Z</time>
      </trkpt>
      <trkpt lat="43.16421" lon="2.89834">
        <ele>94.8</ele>
        <time>2018-05-19T09:12:18Z</time>
      </trkpt>
      <trkpt lat="43.16412" lon="2.89827">
        <ele>95.6</ele>
        <time>2018-05-19T09:12:23Z</time>
      </trkpt>
      <trkpt lat="43.16404" lon="2.8982">
        <ele>96</ele>
        <time>2018-05-19T09:12:28Z</time>
      </trkpt>
      <trkpt lat="43.16392" lon="2.89813">
        <ele>96.5</ele>
        <time>2018-05-19T09:12:33Z</time>
      </trkpt>
      <trkpt lat="43.16381" lon="2.89808">
        <ele>96.9</ele>
        <time>2018-05-19T09:12:38Z</time>
      </trkpt>
      <trkpt lat="43.16375" lon="2.89806">
        <ele>97.1</ele>
        <time>2018-05-19T09:12:43Z</time>
      </trkpt>
      <trkpt lat="43.16364" lon="2.89805">
        <ele>97.5</ele>
        <time>2018-05-19T09:12:48Z</time>
      </trkpt>
      <trkpt lat="43.16347" lon="2.89809">
        <ele>98</ele>
        <time>2018-05-19T09:12:53Z</time>
      </trkpt>
      <trkpt lat="43.16341" lon="2.89812">
        <ele>98.3</ele>
        <time>2018-05-19T09:12:58Z</time>
      </trkpt>
      <trkpt lat="43.1633" lon="2.89815">
        <ele>100.9</ele>
        <time>2018-05-19T09:13:03Z</time>
      </trkpt>
      <trkpt lat="43.1632" lon="2.8982">
        <ele>101.1</ele>
        <time>2018-05-19T09:13:08Z</time>
      </trkpt>
      <trkpt lat="43.16315" lon="2.89822">
        <ele>101.2</ele>
        <time>2018-05-19T09:13:13Z</time>
      </trkpt>
      <trkpt lat="43.16305" lon="2.89828">
        <ele>101.6</ele>
        <time>2018-05-19T09:13:18Z</time>
      </trkpt>
      <trkpt lat="43.16296" lon="2.89835">
        <ele>102.1</ele>
        <time>2018-05-19T09:13:23Z</time>
      </trkpt>
      <trkpt lat="43.1629" lon="2.89836">
        <ele>102.4</ele>
        <time>2018-05-19T09:13:28Z</time>
      </trkpt>
      <trkpt lat="43.16274" lon="2.89838">
        <ele>103.1</ele>
        <time>2018-05-19T09:13:33Z</time>
      </trkpt>
      <trkpt lat="43.16268" lon="2.89835">
        <ele>103.5</ele>
        <time>2018-05-19T09:13:38Z</time>
      </trkpt>
      <trkpt lat="43.16257" lon="2.89826">
        <ele>104</ele>
        <time>2018-05-19T09:13:43Z</time>
      </trkpt>
      <trkpt lat="43.1625" lon="2.89815">
        <ele>106.2</ele>
        <time>2018-05-19T09:13:48Z</time>
      </trkpt>
      <trkpt lat="43.16247" lon="2.89809">
        <ele>106.4</ele>
        <time>2018-05-19T09:13:53Z</time>
      </trkpt>
      <trkpt lat="43.16239" lon="2.89797">
        <ele>106.7</ele>
        <time>2018-05-19T09:13:58Z</time>
      </trkpt>
      <trkpt lat="43.16232" lon="2.89785">
        <ele>106.9</ele>
        <time>2018-05-19T09:14:03Z</time>
      </trkpt>
      <trkpt lat="43.16224" lon="2.8977">
        <ele>107</ele>
        <time>2018-05-19T09:14:08Z</time>
      </trkpt>
      <trkpt lat="43.16219" lon="2.89763">
        <ele>107.2</ele>
        <time>2018-05-19T09:14:13Z</time>
      </trkpt>
      <trkpt lat="43.16216" lon="2.89741">
        <ele>108.7</ele>
        <time>2018-05-19T09:14:18Z</time>
      </trkpt>
      <trkpt lat="43.16213" lon="2.89727">
        <ele>109.2</ele>
        <time>2018-05-19T09:14:23Z</time>
      </trkpt>
      <trkpt lat="43.1621" lon="2.8971">
        <ele>109.6</ele>
        <time>2018-05-19T09:14:28Z</time>
      </trkpt>
      <trkpt lat="43.16209" lon="2.89694">
        <ele>109.9</ele>
        <time>2018-05-19T09:14:33Z</time>
      </trkpt>
      <trkpt lat="43.16208" lon="2.8968">
        <ele>110.2</ele>
        <time>2018-05-19T09:14:38Z</time>
      </trkpt>
      <trkpt lat="43.16208" lon="2.89663">
        <ele>111.6</ele>
        <time>2018-05-19T09:14:43Z</time>
      </trkpt>
      <trkpt lat="43.16209" lon="2.89654">
        <ele>111.7</ele>
        <time>2018-05-19T09:14:48Z</time>
      </trkpt>
      <trkpt lat="43.1621" lon="2.89633">
        <ele>111.8</ele>
        <time>2018-05-19T09:14:53Z</time>
      </trkpt>
      <trkpt lat="43.16212" lon="2.89624">
        <ele>111.8</ele>
        <time>2018-05-19T09:14:58Z</time>
      </trkpt>
      <trkpt lat="43.16213" lon="2.89603">
        <ele>112</ele>
        <time>2018-05-19T09:15:03Z</time>
      </trkpt>
      <trkpt lat="43.16212" lon="2.89596">
        <ele>112.1</ele>
        <time>2018-05-19T09:15:08Z</time>
      </trkpt>
      <trkpt lat="43.16209" lon="2.89582">
        <ele>113.2</ele>
        <time>2018-05-19T09:15:13Z</time>
      </trkpt>
      <trkpt lat="43.16203" lon="2.8956">
        <ele>113.6</ele>
        <time>2018-05-19T09:15:18Z</time>
      </trkpt>
      <trkpt lat="43.16202" lon="2.89544">
        <ele>113.7</ele>
        <time>2018-05-19T09:15:23Z</time>
      </trkpt>
      <trkpt lat="43.16201" lon="2.89536">
        <ele>113.7</ele>
        <time>2018-05-19T09:15:28Z</time>
      </trkpt>
      <trkpt lat="43.16198" lon="2.89522">
        <ele>113.7</ele>
        <time>2018-05-19T09:15:33Z</time>
      </trkpt>
      <trkpt lat="43.16193" lon="2.89511">
        <ele>113.8</ele>
        <time>2018-05-19T09:15:38Z</time>
      </trkpt>
      <trkpt lat="43.16191" lon="2.89505">
        <ele>113.8</ele>
        <time>2018-05-19T09:15:43Z</time>
      </trkpt>
      <trkpt lat="43.16192" lon="2.8949">
        <ele>113.4</ele>
        <time>2018-05-19T09:15:48Z</time>
      </trkpt>
      <trkpt lat="43.16195" lon="2.89476">
        <ele>113.2</ele>
        <time>2018-05-19T09:15:53Z</time>
      </trkpt>
      <trkpt lat="43.162" lon="2.89461">
        <ele>113</ele>
        <time>2018-05-19T09:15:58Z</time>
      </trkpt>
      <trkpt lat="43.16212" lon="2.89446">
        <ele>112.9</ele>
        <time>2018-05-19T09:16:03Z</time>
      </trkpt>
      <trkpt lat="43.16224" lon="2.89437">
        <ele>112.9</ele>
        <time>2018-05-19T09:16:08Z</time>
      </trkpt>
      <trkpt lat="43.16243" lon="2.89418">
        <ele>113</ele>
        <time>2018-05-19T09:16:13Z</time>
      </trkpt>
      <trkpt lat="43.16259" lon="2.89397">
        <ele>113.6</ele>
        <time>2018-05-19T09:16:18Z</time>
      </trkpt>
      <trkpt lat="43.1627" lon="2.8937">
        <ele>113.5</ele>
        <time>2018-05-19T09:16:23Z</time>
      </trkpt>
      <trkpt lat="43.16279" lon="2.8934">
        <ele>113.2</ele>
        <time>2018-05-19T09:16:28Z</time>
      </trkpt>
      <trkpt lat="43.16288" lon="2.89309">
        <ele>111.3</ele>
        <time>2018-05-19T09:16:33Z</time>
      </trkpt>
      <trkpt lat="43.16298" lon="2.89277">
        <ele>110.8</ele>
        <time>2018-05-19T09:16:38Z</time>
      </trkpt>
      <trkpt lat="43.16307" lon="2.89245">
        <ele>108</ele>
        <time>2018-05-19T09:16:43Z</time>
      </trkpt>
      <trkpt lat="43.16313" lon="2.89209">
        <ele>107.3</ele>
        <time>2018-05-19T09:16:48Z</time>
      </trkpt>
      <trkpt lat="43.1632" lon="2.89173">
        <ele>106.4</ele>
        <time>2018-05-19T09:16:53Z</time>
      </trkpt>
      <trkpt lat="43.16326" lon="2.89133">
        <ele>104.2</ele>
        <time>2018-05-19T09:16:58Z</time>
      </trkpt>
      <trkpt lat="43.1633" lon="2.89092">
        <ele>103.2</ele>
        <time>2018-05-19T09:17:03Z</time>
      </trkpt>
      <trkpt lat="43.1634" lon="2.89057">
        <ele>104.4</ele>
        <time>2018-05-19T09:17:08Z</time>
      </trkpt>
      <trkpt lat="43.16346" lon="2.89018">
        <ele>102.6</ele>
        <time>2018-05-19T09:17:13Z</time>
      </trkpt>
      <trkpt lat="43.1635" lon="2.88978">
        <ele>101</ele>
        <time>2018-05-19T09:17:18Z</time>
      </trkpt>
      <trkpt lat="43.16358" lon="2.88939">
        <ele>101.1</ele>
        <time>2018-05-19T09:17:23Z</time>
      </trkpt>
      <trkpt lat="43.16363" lon="2.88898">
        <ele>99.4</ele>
        <time>2018-05-19T09:17:28Z</time>
      </trkpt>
      <trkpt lat="43.16369" lon="2.88859">
        <ele>99</ele>
        <time>2018-05-19T09:17:33Z</time>
      </trkpt>
      <trkpt lat="43.16372" lon="2.88818">
        <ele>95.6</ele>
        <time>2018-05-19T09:17:38Z</time>
      </trkpt>
      <trkpt lat="43.16382" lon="2.88776">
        <ele>95</ele>
        <time>2018-05-19T09:17:43Z</time>
      </trkpt>
      <trkpt lat="43.16395" lon="2.88734">
        <ele>91.4</ele>
        <time>2018-05-19T09:17:48Z</time>
      </trkpt>
      <trkpt lat="43.16408" lon="2.8869">
        <ele>89.3</ele>
        <time>2018-05-19T09:17:53Z</time>
      </trkpt>
      <trkpt lat="43.16424" lon="2.88648">
        <ele>91</ele>
        <time>2018-05-19T09:17:58Z</time>
      </trkpt>
      <trkpt lat="43.16443" lon="2.8861">
        <ele>90.5</ele>
        <time>2018-05-19T09:18:03Z</time>
      </trkpt>
      <trkpt lat="43.16463" lon="2.88573">
        <ele>84.3</ele>
        <time>2018-05-19T09:18:08Z</time>
      </trkpt>
      <trkpt lat="43.16484" lon="2.88537">
        <ele>83.3</ele>
        <time>2018-05-19T09:18:13Z</time>
      </trkpt>
      <trkpt lat="43.16505" lon="2.88496">
        <ele>81.6</ele>
        <time>2018-05-19T09:18:18Z</time>
      </trkpt>
      <trkpt lat="43.16526" lon="2.88455">
        <ele>81.6</ele>
        <time>2018-05-19T09:18:23Z</time>
      </trkpt>
      <trkpt lat="43.16544" lon="2.88418">
        <ele>80.7</ele>
        <time>2018-05-19T09:18:28Z</time>
      </trkpt>
      <trkpt lat="43.16558" lon="2.88379">
        <ele>75.4</ele>
        <time>2018-05-19T09:18:33Z</time>
      </trkpt>
      <trkpt lat="43.16574" lon="2.8834">
        <ele>74.4</ele>
        <time>2018-05-19T09:18:38Z</time>
      </trkpt>
      <trkpt lat="43.16587" lon="2.88303">
        <ele>75.7</ele>
        <time>2018-05-19T09:18:43Z</time>
      </trkpt>
      <trkpt lat="43.16602" lon="2.8827">
        <ele>75.6</ele>
        <time>2018-05-19T09:18:48Z</time>
      </trkpt>
      <trkpt lat="43.16614" lon="2.88238">
        <ele>73.9</ele>
        <time>2018-05-19T09:18:53Z</time>
      </trkpt>
      <trkpt lat="43.16627" lon="2.88205">
        <ele>73.7</ele>
        <time>2018-05-19T09:18:58Z</time>
      </trkpt>
      <trkpt lat="43.16639" lon="2.88164">
        <ele>71.8</ele>
        <time>2018-05-19T09:19:03Z</time>
      </trkpt>
      <trkpt lat="43.16647" lon="2.88132">
        <ele>71.3</ele>
        <time>2018-05-19T09:19:08Z</time>
      </trkpt>
      <trkpt lat="43.16648" lon="2.88096">
        <ele>70.8</ele>
        <time>2018-05-19T09:19:13Z</time>
      </trkpt>
      <trkpt lat="43.16651" lon="2.88061">
        <ele>70</ele>
        <time>2018-05-19T09:19:18Z</time>
      </trkpt>
      <trkpt lat="43.16651" lon="2.88028">
        <ele>70</ele>
        <time>2018-05-19T09:19:23Z</time>
      </trkpt>
      <trkpt lat="43.16649" lon="2.87995">
        <ele>69.8</ele>
        <time>2018-05-19T09:19:28Z</time>
      </trkpt>
      <trkpt lat="43.16651" lon="2.8796">
        <ele>69.3</ele>
        <time>2018-05-19T09:19:33Z</time>
      </trkpt>
      <trkpt lat="43.16653" lon="2.87923">
        <ele>69.4</ele>
        <time>2018-05-19T09:19:38Z</time>
      </trkpt>
      <trkpt lat="43.16653" lon="2.87899">
        <ele>68.5</ele>
        <time>2018-05-19T09:19:43Z</time>
      </trkpt>
      <trkpt lat="43.16653" lon="2.8787">
        <ele>67.9</ele>
        <time>2018-05-19T09:19:48Z</time>
      </trkpt>
      <trkpt lat="43.16651" lon="2.87836">
        <ele>67.8</ele>
        <time>2018-05-19T09:19:53Z</time>
      </trkpt>
      <trkpt lat="43.16654" lon="2.87814">
        <ele>67.1</ele>
        <time>2018-05-19T09:19:58Z</time>
      </trkpt>
      <trkpt lat="43.1665" lon="2.87779">
        <ele>66.4</ele>
        <time>2018-05-19T09:20:03Z</time>
      </trkpt>
      <trkpt lat="43.16639" lon="2.87752">
        <ele>66.3</ele>
        <time>2018-05-19T09:20:08Z</time>
      </trkpt>
      <trkpt lat="43.16629" lon="2.87734">
        <ele>66.8</ele>
        <time>2018-05-19T09:20:13Z</time>
      </trkpt>
      <trkpt lat="43.16616" lon="2.87708">
        <ele>67.3</ele>
        <time>2018-05-19T09:20:18Z</time>
      </trkpt>
      <trkpt lat="43.16613" lon="2.87677">
        <ele>67.8</ele>
        <time>2018-05-19T09:20:23Z</time>
      </trkpt>
      <trkpt lat="43.16614" lon="2.87643">
        <ele>69.2</ele>
        <time>2018-05-19T09:20:28Z</time>
      </trkpt>
      <trkpt lat="43.16624" lon="2.87616">
        <ele>69.2</ele>
        <time>2018-05-19T09:20:33Z</time>
      </trkpt>
      <trkpt lat="43.16636" lon="2.87589">
        <ele>68.5</ele>
        <time>2018-05-19T09:20:38Z</time>
      </trkpt>
      <trkpt lat="43.16649" lon="2.87559">
        <ele>69.4</ele>
        <time>2018-05-19T09:20:43Z</time>
      </trkpt>
      <trkpt lat="43.16658" lon="2.87528">
        <ele>69.4</ele>
        <time>2018-05-19T09:20:48Z</time>
      </trkpt>
      <trkpt lat="43.16666" lon="2.87494">
        <ele>67.6</ele>
        <time>2018-05-19T09:20:53Z</time>
      </trkpt>
      <trkpt lat="43.16672" lon="2.87469">
        <ele>65.1</ele>
        <time>2018-05-19T09:20:58Z</time>
      </trkpt>
      <trkpt lat="43.16675" lon="2.87446">
        <ele>65.5</ele>
        <time>2018-05-19T09:21:03Z</time>
      </trkpt>
      <trkpt lat="43.16687" lon="2.8741">
        <ele>66.2</ele>
        <time>2018-05-19T09:21:08Z</time>
      </trkpt>
      <trkpt lat="43.16693" lon="2.87381">
        <ele>65.8</ele>
        <time>2018-05-19T09:21:13Z</time>
      </trkpt>
      <trkpt lat="43.16703" lon="2.87366">
        <ele>65.4</ele>
        <time>2018-05-19T09:21:18Z</time>
      </trkpt>
      <trkpt lat="43.16722" lon="2.8734">
        <ele>63.9</ele>
        <time>2018-05-19T09:21:23Z</time>
      </trkpt>
      <trkpt lat="43.1673" lon="2.87314">
        <ele>63.1</ele>
        <time>2018-05-19T09:21:28Z</time>
      </trkpt>
      <trkpt lat="43.16728" lon="2.87288">
        <ele>63.5</ele>
        <time>2018-05-19T09:21:33Z</time>
      </trkpt>
      <trkpt lat="43.16719" lon="2.87261">
        <ele>63.5</ele>
        <time>2018-05-19T09:21:38Z</time>
      </trkpt>
      <trkpt lat="43.16708" lon="2.87236">
        <ele>62.1</ele>
        <time>2018-05-19T09:21:43Z</time>
      </trkpt>
      <trkpt lat="43.16701" lon="2.8722">
        <ele>62.1</ele>
        <time>2018-05-19T09:21:48Z</time>
      </trkpt>
      <trkpt lat="43.16683" lon="2.87197">
        <ele>62</ele>
        <time>2018-05-19T09:21:53Z</time>
      </trkpt>
      <trkpt lat="43.16669" lon="2.87184">
        <ele>62</ele>
        <time>2018-05-19T09:21:58Z</time>
      </trkpt>
      <trkpt lat="43.16643" lon="2.87171">
        <ele>63.6</ele>
        <time>2018-05-19T09:22:03Z</time>
      </trkpt>
      <trkpt lat="43.16616" lon="2.87165">
        <ele>60.5</ele>
        <time>2018-05-19T09:22:08Z</time>
      </trkpt>
      <trkpt lat="43.16595" lon="2.87153">
        <ele>60.8</ele>
        <time>2018-05-19T09:22:13Z</time>
      </trkpt>
      <trkpt lat="43.16577" lon="2.87148">
        <ele>61.5</ele>
        <time>2018-05-19T09:22:18Z</time>
      </trkpt>
      <trkpt lat="43.16551" lon="2.87141">
        <ele>61.5</ele>
        <time>2018-05-19T09:22:23Z</time>
      </trkpt>
      <trkpt lat="43.16535" lon="2.87136">
        <ele>61.7</ele>
        <time>2018-05-19T09:22:28Z</time>
      </trkpt>
      <trkpt lat="43.16508" lon="2.87119">
        <ele>61.4</ele>
        <time>2018-05-19T09:22:33Z</time>
      </trkpt>
      <trkpt lat="43.16485" lon="2.87103">
        <ele>62.5</ele>
        <time>2018-05-19T09:22:38Z</time>
      </trkpt>
      <trkpt lat="43.16469" lon="2.87086">
        <ele>62.7</ele>
        <time>2018-05-19T09:22:43Z</time>
      </trkpt>
      <trkpt lat="43.16457" lon="2.87078">
        <ele>59.9</ele>
        <time>2018-05-19T09:22:48Z</time>
      </trkpt>
      <trkpt lat="43.16451" lon="2.87066">
        <ele>59.9</ele>
        <time>2018-05-19T09:22:53Z</time>
      </trkpt>
      <trkpt lat="43.16447" lon="2.87061">
        <ele>59.8</ele>
        <time>2018-05-19T09:22:58Z</time>
      </trkpt>
      <trkpt lat="43.16447" lon="2.87061">
        <ele>59.8</ele>
        <time>2018-05-19T09:23:03Z</time>
      </trkpt>
      <trkpt lat="43.16447" lon="2.87061">
        <ele>59.8</ele>
        <time>2018-05-19T09:23:08Z</time>
      </trkpt>
      <trkpt lat="43.16447" lon="2.87061">
        <ele>59.8</ele>
        <time>2018-05-19T09:23:13Z</time>
      </trkpt>
      <trkpt lat="43.16442" lon="2.8705">
        <ele>59.6</ele>
        <time>2018-05-19T09:23:23Z</time>
      </trkpt>
      <trkpt lat="43.16434" lon="2.87038">
        <ele>59.3</ele>
        <time>2018-05-19T09:23:28Z</time>
      </trkpt>
      <trkpt lat="43.16418" lon="2.87017">
        <ele>58.6</ele>
        <time>2018-05-19T09:23:33Z</time>
      </trkpt>
      <trkpt lat="43.16396" lon="2.86992">
        <ele>56</ele>
        <time>2018-05-19T09:23:38Z</time>
      </trkpt>
      <trkpt lat="43.16381" lon="2.86992">
        <ele>55.5</ele>
        <time>2018-05-19T09:23:43Z</time>
      </trkpt>
      <trkpt lat="43.16369" lon="2.86986">
        <ele>55.2</ele>
        <time>2018-05-19T09:23:48Z</time>
      </trkpt>
      <trkpt lat="43.1636" lon="2.86978">
        <ele>54.9</ele>
        <time>2018-05-19T09:23:53Z</time>
      </trkpt>
      <trkpt lat="43.1636" lon="2.86978">
        <ele>54.9</ele>
        <time>2018-05-19T09:23:58Z</time>
      </trkpt>
      <trkpt lat="43.1636" lon="2.86978">
        <ele>54.9</ele>
        <time>2018-05-19T09:24:03Z</time>
      </trkpt>
      <trkpt lat="43.1636" lon="2.86978">
        <ele>54.9</ele>
        <time>2018-05-19T09:24:08Z</time>
      </trkpt>
      <trkpt lat="43.1636" lon="2.86978">
        <ele>54.9</ele>
        <time>2018-05-19T09:24:13Z</time>
      </trkpt>
      <trkpt lat="43.16365" lon="2.86978">
        <ele>54.9</ele>
        <time>2018-05-19T09:25:33Z</time>
      </trkpt>
      <trkpt lat="43.16365" lon="2.86978">
        <ele>54.9</ele>
        <time>2018-05-19T09:25:38Z</time>
      </trkpt>
      <trkpt lat="43.16368" lon="2.86973">
        <ele>54.9</ele>
        <time>2018-05-19T09:25:43Z</time>
      </trkpt>
      <trkpt lat="43.16368" lon="2.86973">
        <ele>54.9</ele>
        <time>2018-05-19T09:25:48Z</time>
      </trkpt>
      <trkpt lat="43.16368" lon="2.86973">
        <ele>54.9</ele>
        <time>2018-05-19T09:25:53Z</time>
      </trkpt>
      <trkpt lat="43.16368" lon="2.86973">
        <ele>54.9</ele>
        <time>2018-05-19T09:25:58Z</time>
      </trkpt>
      <trkpt lat="43.16361" lon="2.86974">
        <ele>54.8</ele>
        <time>2018-05-19T09:26:03Z</time>
      </trkpt>
      <trkpt lat="43.16361" lon="2.86975">
        <ele>54.8</ele>
        <time>2018-05-19T09:26:08Z</time>
      </trkpt>
      <trkpt lat="43.16361" lon="2.86975">
        <ele>54.8</ele>
        <time>2018-05-19T09:26:13Z</time>
      </trkpt>
      <trkpt lat="43.16361" lon="2.86975">
        <ele>54.8</ele>
        <time>2018-05-19T09:26:18Z</time>
      </trkpt>
      <trkpt lat="43.16356" lon="2.86975">
        <ele>54.8</ele>
        <time>2018-05-19T09:26:23Z</time>
      </trkpt>
      <trkpt lat="43.16356" lon="2.86975">
        <ele>54.8</ele>
        <time>2018-05-19T09:26:28Z</time>
      </trkpt>
      <trkpt lat="43.16356" lon="2.86975">
        <ele>54.8</ele>
        <time>2018-05-19T09:26:33Z</time>
      </trkpt>
      <trkpt lat="43.16356" lon="2.86975">
        <ele>54.8</ele>
        <time>2018-05-19T09:26:38Z</time>
      </trkpt>
      <trkpt lat="43.16356" lon="2.86975">
        <ele>54.8</ele>
        <time>2018-05-19T09:26:43Z</time>
      </trkpt>
      <trkpt lat="43.16352" lon="2.86978">
        <ele>54.9</ele>
        <time>2018-05-19T09:27:58Z</time>
      </trkpt>
      <trkpt lat="43.16341" lon="2.86972">
        <ele>54.7</ele>
        <time>2018-05-19T09:28:03Z</time>
      </trkpt>
      <trkpt lat="43.16327" lon="2.86967">
        <ele>53.1</ele>
        <time>2018-05-19T09:28:08Z</time>
      </trkpt>
      <trkpt lat="43.16318" lon="2.86961">
        <ele>52.7</ele>
        <time>2018-05-19T09:28:13Z</time>
      </trkpt>
      <trkpt lat="43.16318" lon="2.86961">
        <ele>52.7</ele>
        <time>2018-05-19T09:28:18Z</time>
      </trkpt>
      <trkpt lat="43.16318" lon="2.86961">
        <ele>52.7</ele>
        <time>2018-05-19T09:28:23Z</time>
      </trkpt>
      <trkpt lat="43.16318" lon="2.86961">
        <ele>52.7</ele>
        <time>2018-05-19T09:28:28Z</time>
      </trkpt>
      <trkpt lat="43.16318" lon="2.86961">
        <ele>52.7</ele>
        <time>2018-05-19T09:28:33Z</time>
      </trkpt>
      <trkpt lat="43.16313" lon="2.86958">
        <ele>52.5</ele>
        <time>2018-05-19T09:29:03Z</time>
      </trkpt>
      <trkpt lat="43.16305" lon="2.86947">
        <ele>52.2</ele>
        <time>2018-05-19T09:29:08Z</time>
      </trkpt>
      <trkpt lat="43.16299" lon="2.86942">
        <ele>52.1</ele>
        <time>2018-05-19T09:29:13Z</time>
      </trkpt>
      <trkpt lat="43.16299" lon="2.86942">
        <ele>52.1</ele>
        <time>2018-05-19T09:29:18Z</time>
      </trkpt>
      <trkpt lat="43.16299" lon="2.86942">
        <ele>52.1</ele>
        <time>2018-05-19T09:29:23Z</time>
      </trkpt>
      <trkpt lat="43.16293" lon="2.86939">
        <ele>52</ele>
        <time>2018-05-19T09:29:33Z</time>
      </trkpt>
      <trkpt lat="43.16289" lon="2.86935">
        <ele>51.9</ele>
        <time>2018-05-19T09:29:48Z</time>
      </trkpt>
      <trkpt lat="43.16283" lon="2.86929">
        <ele>51.8</ele>
        <time>2018-05-19T09:29:53Z</time>
      </trkpt>
      <trkpt lat="43.16264" lon="2.86918">
        <ele>51.4</ele>
        <time>2018-05-19T09:29:58Z</time>
      </trkpt>
      <trkpt lat="43.16247" lon="2.86903">
        <ele>50.1</ele>
        <time>2018-05-19T09:30:03Z</time>
      </trkpt>
      <trkpt lat="43.16248" lon="2.86879">
        <ele>49.4</ele>
        <time>2018-05-19T09:30:08Z</time>
      </trkpt>
      <trkpt lat="43.16258" lon="2.86855">
        <ele>49.5</ele>
        <time>2018-05-19T09:30:13Z</time>
      </trkpt>
      <trkpt lat="43.16268" lon="2.86834">
        <ele>49.3</ele>
        <time>2018-05-19T09:30:18Z</time>
      </trkpt>
      <trkpt lat="43.16276" lon="2.86814">
        <ele>48.3</ele>
        <time>2018-05-19T09:30:23Z</time>
      </trkpt>
      <trkpt lat="43.16278" lon="2.86807">
        <ele>48.2</ele>
        <time>2018-05-19T09:30:28Z</time>
      </trkpt>
      <trkpt lat="43.16292" lon="2.86814">
        <ele>48.1</ele>
        <time>2018-05-19T09:30:33Z</time>
      </trkpt>
      <trkpt lat="43.16301" lon="2.86804">
        <ele>48</ele>
        <time>2018-05-19T09:30:38Z</time>
      </trkpt>
      <trkpt lat="43.16316" lon="2.86783">
        <ele>47.8</ele>
        <time>2018-05-19T09:30:43Z</time>
      </trkpt>
      <trkpt lat="43.16327" lon="2.86768">
        <ele>47.5</ele>
        <time>2018-05-19T09:30:48Z</time>
      </trkpt>
      <trkpt lat="43.16344" lon="2.86743">
        <ele>46.7</ele>
        <time>2018-05-19T09:30:53Z</time>
      </trkpt>
      <trkpt lat="43.16355" lon="2.86727">
        <ele>46.5</ele>
        <time>2018-05-19T09:30:58Z</time>
      </trkpt>
      <trkpt lat="43.16377" lon="2.86714">
        <ele>46.3</ele>
        <time>2018-05-19T09:31:03Z</time>
      </trkpt>
      <trkpt lat="43.16398" lon="2.86715">
        <ele>46.3</ele>
        <time>2018-05-19T09:31:08Z</time>
      </trkpt>
      <trkpt lat="43.16414" lon="2.86715">
        <ele>46.3</ele>
        <time>2018-05-19T09:31:13Z</time>
      </trkpt>
      <trkpt lat="43.16435" lon="2.86717">
        <ele>46.9</ele>
        <time>2018-05-19T09:31:18Z</time>
      </trkpt>
      <trkpt lat="43.16451" lon="2.86713">
        <ele>47</ele>
        <time>2018-05-19T09:31:23Z</time>
      </trkpt>
      <trkpt lat="43.16473" lon="2.86705">
        <ele>47.1</ele>
        <time>2018-05-19T09:31:28Z</time>
      </trkpt>
      <trkpt lat="43.16485" lon="2.86701">
        <ele>47.2</ele>
        <time>2018-05-19T09:31:33Z</time>
      </trkpt>
      <trkpt lat="43.16509" lon="2.86701">
        <ele>48.2</ele>
        <time>2018-05-19T09:31:38Z</time>
      </trkpt>
      <trkpt lat="43.16522" lon="2.86703">
        <ele>48.3</ele>
        <time>2018-05-19T09:31:43Z</time>
      </trkpt>
      <trkpt lat="43.16539" lon="2.86709">
        <ele>48.5</ele>
        <time>2018-05-19T09:31:48Z</time>
      </trkpt>
      <trkpt lat="43.16551" lon="2.86708">
        <ele>48.5</ele>
        <time>2018-05-19T09:31:53Z</time>
      </trkpt>
      <trkpt lat="43.16565" lon="2.86674">
        <ele>47.8</ele>
        <time>2018-05-19T09:31:58Z</time>
      </trkpt>
      <trkpt lat="43.1657" lon="2.86661">
        <ele>46.5</ele>
        <time>2018-05-19T09:32:03Z</time>
      </trkpt>
      <trkpt lat="43.16582" lon="2.86639">
        <ele>46.1</ele>
        <time>2018-05-19T09:32:08Z</time>
      </trkpt>
      <trkpt lat="43.16596" lon="2.86609">
        <ele>45.8</ele>
        <time>2018-05-19T09:32:13Z</time>
      </trkpt>
      <trkpt lat="43.16606" lon="2.86588">
        <ele>45.6</ele>
        <time>2018-05-19T09:32:18Z</time>
      </trkpt>
      <trkpt lat="43.16615" lon="2.8656">
        <ele>45.4</ele>
        <time>2018-05-19T09:32:23Z</time>
      </trkpt>
      <trkpt lat="43.16621" lon="2.8653">
        <ele>45.5</ele>
        <time>2018-05-19T09:32:28Z</time>
      </trkpt>
      <trkpt lat="43.16625" lon="2.86501">
        <ele>45.5</ele>
        <time>2018-05-19T09:32:33Z</time>
      </trkpt>
      <trkpt lat="43.16632" lon="2.86464">
        <ele>45.8</ele>
        <time>2018-05-19T09:32:38Z</time>
      </trkpt>
      <trkpt lat="43.16638" lon="2.86438">
        <ele>45.8</ele>
        <time>2018-05-19T09:32:43Z</time>
      </trkpt>
      <trkpt lat="43.1664" lon="2.86418">
        <ele>45.9</ele>
        <time>2018-05-19T09:32:48Z</time>
      </trkpt>
      <trkpt lat="43.16646" lon="2.86386">
        <ele>45.1</ele>
        <time>2018-05-19T09:32:53Z</time>
      </trkpt>
      <trkpt lat="43.16652" lon="2.86357">
        <ele>44.8</ele>
        <time>2018-05-19T09:32:58Z</time>
      </trkpt>
      <trkpt lat="43.16651" lon="2.86338">
        <ele>44.8</ele>
        <time>2018-05-19T09:33:03Z</time>
      </trkpt>
      <trkpt lat="43.16652" lon="2.86315">
        <ele>43.6</ele>
        <time>2018-05-19T09:33:08Z</time>
      </trkpt>
      <trkpt lat="43.16653" lon="2.86295">
        <ele>43</ele>
        <time>2018-05-19T09:33:13Z</time>
      </trkpt>
      <trkpt lat="43.1665" lon="2.86266">
        <ele>42.5</ele>
        <time>2018-05-19T09:33:18Z</time>
      </trkpt>
      <trkpt lat="43.16643" lon="2.8623">
        <ele>41.8</ele>
        <time>2018-05-19T09:33:23Z</time>
      </trkpt>
      <trkpt lat="43.16635" lon="2.86199">
        <ele>41.7</ele>
        <time>2018-05-19T09:33:28Z</time>
      </trkpt>
      <trkpt lat="43.16631" lon="2.86168">
        <ele>41.6</ele>
        <time>2018-05-19T09:33:33Z</time>
      </trkpt>
      <trkpt lat="43.16626" lon="2.86137">
        <ele>41.7</ele>
        <time>2018-05-19T09:33:38Z</time>
      </trkpt>
      <trkpt lat="43.1662" lon="2.86111">
        <ele>41.7</ele>
        <time>2018-05-19T09:33:43Z</time>
      </trkpt>
      <trkpt lat="43.16613" lon="2.86074">
        <ele>42.1</ele>
        <time>2018-05-19T09:33:48Z</time>
      </trkpt>
      <trkpt lat="43.16608" lon="2.86043">
        <ele>42.3</ele>
        <time>2018-05-19T09:33:53Z</time>
      </trkpt>
      <trkpt lat="43.16605" lon="2.86015">
        <ele>42.4</ele>
        <time>2018-05-19T09:33:58Z</time>
      </trkpt>
      <trkpt lat="43.16605" lon="2.85987">
        <ele>42.5</ele>
        <time>2018-05-19T09:34:03Z</time>
      </trkpt>
      <trkpt lat="43.16605" lon="2.85964">
        <ele>42.6</ele>
        <time>2018-05-19T09:34:08Z</time>
      </trkpt>
      <trkpt lat="43.16608" lon="2.85931">
        <ele>42.5</ele>
        <time>2018-05-19T09:34:13Z</time>
      </trkpt>
      <trkpt lat="43.16612" lon="2.85909">
        <ele>41.8</ele>
        <time>2018-05-19T09:34:18Z</time>
      </trkpt>
      <trkpt lat="43.16615" lon="2.85881">
        <ele>41.5</ele>
        <time>2018-05-19T09:34:23Z</time>
      </trkpt>
      <trkpt lat="43.16619" lon="2.85862">
        <ele>41.3</ele>
        <time>2018-05-19T09:34:28Z</time>
      </trkpt>
      <trkpt lat="43.16626" lon="2.85831">
        <ele>40.7</ele>
        <time>2018-05-19T09:34:33Z</time>
      </trkpt>
      <trkpt lat="43.16631" lon="2.8581">
        <ele>40.7</ele>
        <time>2018-05-19T09:34:38Z</time>
      </trkpt>
      <trkpt lat="43.16638" lon="2.85783">
        <ele>40.8</ele>
        <time>2018-05-19T09:34:43Z</time>
      </trkpt>
      <trkpt lat="43.16642" lon="2.85764">
        <ele>40.9</ele>
        <time>2018-05-19T09:34:48Z</time>
      </trkpt>
      <trkpt lat="43.16647" lon="2.85739">
        <ele>41</ele>
        <time>2018-05-19T09:34:53Z</time>
      </trkpt>
      <trkpt lat="43.16651" lon="2.85726">
        <ele>41</ele>
        <time>2018-05-19T09:34:58Z</time>
      </trkpt>
      <trkpt lat="43.16651" lon="2.85726">
        <ele>41</ele>
        <time>2018-05-19T09:35:03Z</time>
      </trkpt>
      <trkpt lat="43.16656" lon="2.85729">
        <ele>41</ele>
        <time>2018-05-19T09:35:08Z</time>
      </trkpt>
      <trkpt lat="43.16656" lon="2.85729">
        <ele>41</ele>
        <time>2018-05-19T09:35:13Z</time>
      </trkpt>
      <trkpt lat="43.16656" lon="2.85729">
        <ele>41</ele>
        <time>2018-05-19T09:35:18Z</time>
      </trkpt>
      <trkpt lat="43.16658" lon="2.85735">
        <ele>41</ele>
        <time>2018-05-19T09:35:23Z</time>
      </trkpt>
      <trkpt lat="43.16662" lon="2.85738">
        <ele>41</ele>
        <time>2018-05-19T09:35:28Z</time>
      </trkpt>
      <trkpt lat="43.16662" lon="2.85738">
        <ele>41</ele>
        <time>2018-05-19T09:35:33Z</time>
      </trkpt>
      <trkpt lat="43.16662" lon="2.85738">
        <ele>41</ele>
        <time>2018-05-19T09:35:38Z</time>
      </trkpt>
      <trkpt lat="43.16662" lon="2.85738">
        <ele>41</ele>
        <time>2018-05-19T09:35:43Z</time>
      </trkpt>
      <trkpt lat="43.16662" lon="2.85738">
        <ele>41</ele>
        <time>2018-05-19T09:35:48Z</time>
      </trkpt>
      <trkpt lat="43.16657" lon="2.85741">
        <ele>41</ele>
        <time>2018-05-19T09:36:18Z</time>
      </trkpt>
      <trkpt lat="43.16657" lon="2.85741">
        <ele>41</ele>
        <time>2018-05-19T09:36:23Z</time>
      </trkpt>
      <trkpt lat="43.16657" lon="2.85741">
        <ele>41</ele>
        <time>2018-05-19T09:36:28Z</time>
      </trkpt>
      <trkpt lat="43.16657" lon="2.85741">
        <ele>41</ele>
        <time>2018-05-19T09:36:33Z</time>
      </trkpt>
      <trkpt lat="43.16657" lon="2.85741">
        <ele>41</ele>
        <time>2018-05-19T09:36:38Z</time>
      </trkpt>
      <trkpt lat="43.16662" lon="2.85743">
        <ele>41</ele>
        <time>2018-05-19T09:40:33Z</time>
      </trkpt>
      <trkpt lat="43.16659" lon="2.85739">
        <ele>41</ele>
        <time>2018-05-19T09:40:38Z</time>
      </trkpt>
      <trkpt lat="43.16659" lon="2.85739">
        <ele>41</ele>
        <time>2018-05-19T09:40:43Z</time>
      </trkpt>
      <trkpt lat="43.16659" lon="2.85739">
        <ele>41</ele>
        <time>2018-05-19T09:40:48Z</time>
      </trkpt>
      <trkpt lat="43.16659" lon="2.85739">
        <ele>41</ele>
        <time>2018-05-19T09:40:53Z</time>
      </trkpt>
      <trkpt lat="43.16659" lon="2.85739">
        <ele>41</ele>
        <time>2018-05-19T09:40:58Z</time>
      </trkpt>
      <trkpt lat="43.16654" lon="2.85735">
        <ele>41</ele>
        <time>2018-05-19T09:43:03Z</time>
      </trkpt>
      <trkpt lat="43.16654" lon="2.85735">
        <ele>41</ele>
        <time>2018-05-19T09:43:08Z</time>
      </trkpt>
      <trkpt lat="43.16654" lon="2.85735">
        <ele>41</ele>
        <time>2018-05-19T09:43:13Z</time>
      </trkpt>
      <trkpt lat="43.16654" lon="2.85735">
        <ele>41</ele>
        <time>2018-05-19T09:43:18Z</time>
      </trkpt>
      <trkpt lat="43.16654" lon="2.85735">
        <ele>41</ele>
        <time>2018-05-19T09:43:23Z</time>
      </trkpt>
      <trkpt lat="43.16649" lon="2.85723">
        <ele>41</ele>
        <time>2018-05-19T09:43:33Z</time>
      </trkpt>
      <trkpt lat="43.16652" lon="2.85707">
        <ele>41</ele>
        <time>2018-05-19T09:43:38Z</time>
      </trkpt>
      <trkpt lat="43.16652" lon="2.85678">
        <ele>41</ele>
        <time>2018-05-19T09:43:43Z</time>
      </trkpt>
      <trkpt lat="43.16651" lon="2.85658">
        <ele>40.9</ele>
        <time>2018-05-19T09:43:48Z</time>
      </trkpt>
      <trkpt lat="43.16655" lon="2.85625">
        <ele>40.8</ele>
        <time>2018-05-19T09:43:53Z</time>
      </trkpt>
      <trkpt lat="43.16662" lon="2.85599">
        <ele>40.9</ele>
        <time>2018-05-19T09:43:58Z</time>
      </trkpt>
      <trkpt lat="43.16667" lon="2.85582">
        <ele>40.9</ele>
        <time>2018-05-19T09:44:03Z</time>
      </trkpt>
      <trkpt lat="43.16674" lon="2.85562">
        <ele>40.2</ele>
        <time>2018-05-19T09:44:08Z</time>
      </trkpt>
      <trkpt lat="43.1668" lon="2.85542">
        <ele>39.8</ele>
        <time>2018-05-19T09:44:13Z</time>
      </trkpt>
      <trkpt lat="43.16691" lon="2.85516">
        <ele>39.5</ele>
        <time>2018-05-19T09:44:18Z</time>
      </trkpt>
      <trkpt lat="43.16698" lon="2.85502">
        <ele>39.5</ele>
        <time>2018-05-19T09:44:23Z</time>
      </trkpt>
      <trkpt lat="43.16708" lon="2.85479">
        <ele>39</ele>
        <time>2018-05-19T09:44:28Z</time>
      </trkpt>
      <trkpt lat="43.16714" lon="2.85464">
        <ele>39</ele>
        <time>2018-05-19T09:44:33Z</time>
      </trkpt>
      <trkpt lat="43.16722" lon="2.8544">
        <ele>39</ele>
        <time>2018-05-19T09:44:38Z</time>
      </trkpt>
      <trkpt lat="43.16729" lon="2.85421">
        <ele>39</ele>
        <time>2018-05-19T09:44:43Z</time>
      </trkpt>
      <trkpt lat="43.16739" lon="2.85392">
        <ele>38.9</ele>
        <time>2018-05-19T09:44:48Z</time>
      </trkpt>
      <trkpt lat="43.16746" lon="2.85374">
        <ele>38.8</ele>
        <time>2018-05-19T09:44:53Z</time>
      </trkpt>
      <trkpt lat="43.16754" lon="2.85347">
        <ele>39.1</ele>
        <time>2018-05-19T09:44:58Z</time>
      </trkpt>
      <trkpt lat="43.16762" lon="2.8533">
        <ele>38.8</ele>
        <time>2018-05-19T09:45:03Z</time>
      </trkpt>
      <trkpt lat="43.16773" lon="2.85308">
        <ele>38.6</ele>
        <time>2018-05-19T09:45:08Z</time>
      </trkpt>
      <trkpt lat="43.16785" lon="2.85283">
        <ele>38.4</ele>
        <time>2018-05-19T09:45:13Z</time>
      </trkpt>
      <trkpt lat="43.16794" lon="2.85266">
        <ele>38.4</ele>
        <time>2018-05-19T09:45:18Z</time>
      </trkpt>
      <trkpt lat="43.16805" lon="2.8524">
        <ele>38.3</ele>
        <time>2018-05-19T09:45:23Z</time>
      </trkpt>
      <trkpt lat="43.16814" lon="2.85221">
        <ele>38.5</ele>
        <time>2018-05-19T09:45:28Z</time>
      </trkpt>
      <trkpt lat="43.16827" lon="2.85193">
        <ele>39</ele>
        <time>2018-05-19T09:45:33Z</time>
      </trkpt>
      <trkpt lat="43.16832" lon="2.85172">
        <ele>39.7</ele>
        <time>2018-05-19T09:45:38Z</time>
      </trkpt>
      <trkpt lat="43.16847" lon="2.85143">
        <ele>39.3</ele>
        <time>2018-05-19T09:45:43Z</time>
      </trkpt>
      <trkpt lat="43.16859" lon="2.85125">
        <ele>39</ele>
        <time>2018-05-19T09:45:48Z</time>
      </trkpt>
      <trkpt lat="43.16872" lon="2.85101">
        <ele>38.8</ele>
        <time>2018-05-19T09:45:53Z</time>
      </trkpt>
      <trkpt lat="43.1688" lon="2.85082">
        <ele>38.5</ele>
        <time>2018-05-19T09:45:58Z</time>
      </trkpt>
      <trkpt lat="43.16893" lon="2.85056">
        <ele>38.6</ele>
        <time>2018-05-19T09:46:03Z</time>
      </trkpt>
      <trkpt lat="43.16902" lon="2.85038">
        <ele>38.6</ele>
        <time>2018-05-19T09:46:08Z</time>
      </trkpt>
      <trkpt lat="43.16916" lon="2.85011">
        <ele>38.8</ele>
        <time>2018-05-19T09:46:13Z</time>
      </trkpt>
      <trkpt lat="43.16924" lon="2.84991">
        <ele>39.2</ele>
        <time>2018-05-19T09:46:18Z</time>
      </trkpt>
      <trkpt lat="43.16931" lon="2.84961">
        <ele>39.7</ele>
        <time>2018-05-19T09:46:23Z</time>
      </trkpt>
      <trkpt lat="43.16936" lon="2.84941">
        <ele>40.1</ele>
        <time>2018-05-19T09:46:28Z</time>
      </trkpt>
      <trkpt lat="43.16943" lon="2.84912">
        <ele>40.4</ele>
        <time>2018-05-19T09:46:33Z</time>
      </trkpt>
      <trkpt lat="43.16946" lon="2.84895">
        <ele>40.1</ele>
        <time>2018-05-19T09:46:38Z</time>
      </trkpt>
      <trkpt lat="43.16948" lon="2.84866">
        <ele>39.7</ele>
        <time>2018-05-19T09:46:43Z</time>
      </trkpt>
      <trkpt lat="43.16957" lon="2.84851">
        <ele>39.6</ele>
        <time>2018-05-19T09:46:48Z</time>
      </trkpt>
      <trkpt lat="43.16975" lon="2.84835">
        <ele>39.4</ele>
        <time>2018-05-19T09:46:53Z</time>
      </trkpt>
      <trkpt lat="43.16987" lon="2.84833">
        <ele>38.4</ele>
        <time>2018-05-19T09:46:58Z</time>
      </trkpt>
      <trkpt lat="43.17006" lon="2.84832">
        <ele>39.2</ele>
        <time>2018-05-19T09:47:03Z</time>
      </trkpt>
      <trkpt lat="43.1702" lon="2.84832">
        <ele>39.5</ele>
        <time>2018-05-19T09:47:08Z</time>
      </trkpt>
      <trkpt lat="43.17042" lon="2.84829">
        <ele>40.2</ele>
        <time>2018-05-19T09:47:13Z</time>
      </trkpt>
      <trkpt lat="43.17055" lon="2.84823">
        <ele>40.7</ele>
        <time>2018-05-19T09:47:18Z</time>
      </trkpt>
      <trkpt lat="43.17069" lon="2.84806">
        <ele>40.7</ele>
        <time>2018-05-19T09:47:23Z</time>
      </trkpt>
      <trkpt lat="43.17075" lon="2.84791">
        <ele>40.5</ele>
        <time>2018-05-19T09:47:28Z</time>
      </trkpt>
      <trkpt lat="43.1708" lon="2.84764">
        <ele>40.5</ele>
        <time>2018-05-19T09:47:33Z</time>
      </trkpt>
      <trkpt lat="43.17085" lon="2.84744">
        <ele>41.3</ele>
        <time>2018-05-19T09:47:38Z</time>
      </trkpt>
      <trkpt lat="43.17091" lon="2.84718">
        <ele>41.7</ele>
        <time>2018-05-19T09:47:43Z</time>
      </trkpt>
      <trkpt lat="43.17094" lon="2.84701">
        <ele>41.6</ele>
        <time>2018-05-19T09:47:48Z</time>
      </trkpt>
      <trkpt lat="43.17102" lon="2.84673">
        <ele>41.2</ele>
        <time>2018-05-19T09:47:53Z</time>
      </trkpt>
      <trkpt lat="43.17108" lon="2.84653">
        <ele>40.2</ele>
        <time>2018-05-19T09:47:58Z</time>
      </trkpt>
      <trkpt lat="43.17115" lon="2.84622">
        <ele>40.1</ele>
        <time>2018-05-19T09:48:03Z</time>
      </trkpt>
      <trkpt lat="43.17122" lon="2.84603">
        <ele>40</ele>
        <time>2018-05-19T09:48:08Z</time>
      </trkpt>
      <trkpt lat="43.17134" lon="2.84581">
        <ele>38.8</ele>
        <time>2018-05-19T09:48:13Z</time>
      </trkpt>
      <trkpt lat="43.17154" lon="2.84558">
        <ele>38.9</ele>
        <time>2018-05-19T09:48:18Z</time>
      </trkpt>
      <trkpt lat="43.17173" lon="2.84545">
        <ele>39.6</ele>
        <time>2018-05-19T09:48:23Z</time>
      </trkpt>
      <trkpt lat="43.17195" lon="2.84537">
        <ele>39.5</ele>
        <time>2018-05-19T09:48:28Z</time>
      </trkpt>
      <trkpt lat="43.17209" lon="2.8453">
        <ele>39.5</ele>
        <time>2018-05-19T09:48:33Z</time>
      </trkpt>
      <trkpt lat="43.17229" lon="2.84522">
        <ele>39.5</ele>
        <time>2018-05-19T09:48:38Z</time>
      </trkpt>
      <trkpt lat="43.17245" lon="2.84514">
        <ele>39.4</ele>
        <time>2018-05-19T09:48:43Z</time>
      </trkpt>
      <trkpt lat="43.17267" lon="2.84496">
        <ele>39</ele>
        <time>2018-05-19T09:48:48Z</time>
      </trkpt>
      <trkpt lat="43.1729" lon="2.84483">
        <ele>39.2</ele>
        <time>2018-05-19T09:48:53Z</time>
      </trkpt>
      <trkpt lat="43.17315" lon="2.8447">
        <ele>39.4</ele>
        <time>2018-05-19T09:48:58Z</time>
      </trkpt>
      <trkpt lat="43.17335" lon="2.84461">
        <ele>39.5</ele>
        <time>2018-05-19T09:49:03Z</time>
      </trkpt>
      <trkpt lat="43.17364" lon="2.8444">
        <ele>38.8</ele>
        <time>2018-05-19T09:49:08Z</time>
      </trkpt>
      <trkpt lat="43.17392" lon="2.84423">
        <ele>38.2</ele>
        <time>2018-05-19T09:49:13Z</time>
      </trkpt>
      <trkpt lat="43.17421" lon="2.84406">
        <ele>37.4</ele>
        <time>2018-05-19T09:49:18Z</time>
      </trkpt>
      <trkpt lat="43.17443" lon="2.84393">
        <ele>37.8</ele>
        <time>2018-05-19T09:49:23Z</time>
      </trkpt>
      <trkpt lat="43.17462" lon="2.84378">
        <ele>38.1</ele>
        <time>2018-05-19T09:49:28Z</time>
      </trkpt>
      <trkpt lat="43.17477" lon="2.84368">
        <ele>38.1</ele>
        <time>2018-05-19T09:49:33Z</time>
      </trkpt>
      <trkpt lat="43.17493" lon="2.84355">
        <ele>38.1</ele>
        <time>2018-05-19T09:49:38Z</time>
      </trkpt>
      <trkpt lat="43.17502" lon="2.84347">
        <ele>38.6</ele>
        <time>2018-05-19T09:49:43Z</time>
      </trkpt>
      <trkpt lat="43.17512" lon="2.84339">
        <ele>38.6</ele>
        <time>2018-05-19T09:49:48Z</time>
      </trkpt>
      <trkpt lat="43.17525" lon="2.84329">
        <ele>37.9</ele>
        <time>2018-05-19T09:49:53Z</time>
      </trkpt>
      <trkpt lat="43.17534" lon="2.84322">
        <ele>37.9</ele>
        <time>2018-05-19T09:49:58Z</time>
      </trkpt>
      <trkpt lat="43.17549" lon="2.8431">
        <ele>38</ele>
        <time>2018-05-19T09:50:03Z</time>
      </trkpt>
      <trkpt lat="43.17561" lon="2.84302">
        <ele>37.9</ele>
        <time>2018-05-19T09:50:08Z</time>
      </trkpt>
      <trkpt lat="43.17582" lon="2.84286">
        <ele>37.8</ele>
        <time>2018-05-19T09:50:13Z</time>
      </trkpt>
      <trkpt lat="43.17597" lon="2.84274">
        <ele>38</ele>
        <time>2018-05-19T09:50:18Z</time>
      </trkpt>
      <trkpt lat="43.17616" lon="2.84257">
        <ele>38</ele>
        <time>2018-05-19T09:50:23Z</time>
      </trkpt>
      <trkpt lat="43.17636" lon="2.84239">
        <ele>36.8</ele>
        <time>2018-05-19T09:50:28Z</time>
      </trkpt>
      <trkpt lat="43.17649" lon="2.84225">
        <ele>36.8</ele>
        <time>2018-05-19T09:50:33Z</time>
      </trkpt>
      <trkpt lat="43.17669" lon="2.84206">
        <ele>38.5</ele>
        <time>2018-05-19T09:50:38Z</time>
      </trkpt>
      <trkpt lat="43.17684" lon="2.84194">
        <ele>38.4</ele>
        <time>2018-05-19T09:50:43Z</time>
      </trkpt>
      <trkpt lat="43.17704" lon="2.84176">
        <ele>38.7</ele>
        <time>2018-05-19T09:50:48Z</time>
      </trkpt>
      <trkpt lat="43.17717" lon="2.84162">
        <ele>36.5</ele>
        <time>2018-05-19T09:50:53Z</time>
      </trkpt>
      <trkpt lat="43.17735" lon="2.84146">
        <ele>36.7</ele>
        <time>2018-05-19T09:50:58Z</time>
      </trkpt>
      <trkpt lat="43.17748" lon="2.84135">
        <ele>36.3</ele>
        <time>2018-05-19T09:51:03Z</time>
      </trkpt>
      <trkpt lat="43.17768" lon="2.8412">
        <ele>37.6</ele>
        <time>2018-05-19T09:51:08Z</time>
      </trkpt>
      <trkpt lat="43.17781" lon="2.84112">
        <ele>37.6</ele>
        <time>2018-05-19T09:51:13Z</time>
      </trkpt>
      <trkpt lat="43.17804" lon="2.84103">
        <ele>37.8</ele>
        <time>2018-05-19T09:51:18Z</time>
      </trkpt>
      <trkpt lat="43.17825" lon="2.84097">
        <ele>37.6</ele>
        <time>2018-05-19T09:51:23Z</time>
      </trkpt>
      <trkpt lat="43.17846" lon="2.84089">
        <ele>38.4</ele>
        <time>2018-05-19T09:51:28Z</time>
      </trkpt>
      <trkpt lat="43.17867" lon="2.84085">
        <ele>39.1</ele>
        <time>2018-05-19T09:51:33Z</time>
      </trkpt>
      <trkpt lat="43.17888" lon="2.84091">
        <ele>39.2</ele>
        <time>2018-05-19T09:51:38Z</time>
      </trkpt>
      <trkpt lat="43.17908" lon="2.84095">
        <ele>38.6</ele>
        <time>2018-05-19T09:51:43Z</time>
      </trkpt>
      <trkpt lat="43.17922" lon="2.84096">
        <ele>38.4</ele>
        <time>2018-05-19T09:51:48Z</time>
      </trkpt>
      <trkpt lat="43.17943" lon="2.84104">
        <ele>39.3</ele>
        <time>2018-05-19T09:51:53Z</time>
      </trkpt>
      <trkpt lat="43.17955" lon="2.84109">
        <ele>39.5</ele>
        <time>2018-05-19T09:51:58Z</time>
      </trkpt>
      <trkpt lat="43.17972" lon="2.84118">
        <ele>39.6</ele>
        <time>2018-05-19T09:52:03Z</time>
      </trkpt>
      <trkpt lat="43.17983" lon="2.84125">
        <ele>39.7</ele>
        <time>2018-05-19T09:52:08Z</time>
      </trkpt>
      <trkpt lat="43.18001" lon="2.84136">
        <ele>38.3</ele>
        <time>2018-05-19T09:52:13Z</time>
      </trkpt>
      <trkpt lat="43.18014" lon="2.84145">
        <ele>38.6</ele>
        <time>2018-05-19T09:52:18Z</time>
      </trkpt>
      <trkpt lat="43.18035" lon="2.84164">
        <ele>38.1</ele>
        <time>2018-05-19T09:52:23Z</time>
      </trkpt>
      <trkpt lat="43.18057" lon="2.84185">
        <ele>42.4</ele>
        <time>2018-05-19T09:52:28Z</time>
      </trkpt>
      <trkpt lat="43.18072" lon="2.84194">
        <ele>42.2</ele>
        <time>2018-05-19T09:52:33Z</time>
      </trkpt>
      <trkpt lat="43.18095" lon="2.84213">
        <ele>38.9</ele>
        <time>2018-05-19T09:52:38Z</time>
      </trkpt>
      <trkpt lat="43.1811" lon="2.84222">
        <ele>38.8</ele>
        <time>2018-05-19T09:52:43Z</time>
      </trkpt>
      <trkpt lat="43.18135" lon="2.84239">
        <ele>38.1</ele>
        <time>2018-05-19T09:52:48Z</time>
      </trkpt>
      <trkpt lat="43.18154" lon="2.84257">
        <ele>40.8</ele>
        <time>2018-05-19T09:52:53Z</time>
      </trkpt>
      <trkpt lat="43.18168" lon="2.84264">
        <ele>38</ele>
        <time>2018-05-19T09:52:58Z</time>
      </trkpt>
      <trkpt lat="43.18189" lon="2.84277">
        <ele>38.8</ele>
        <time>2018-05-19T09:53:03Z</time>
      </trkpt>
      <trkpt lat="43.18202" lon="2.84287">
        <ele>39</ele>
        <time>2018-05-19T09:53:08Z</time>
      </trkpt>
      <trkpt lat="43.18223" lon="2.84305">
        <ele>39.1</ele>
        <time>2018-05-19T09:53:13Z</time>
      </trkpt>
      <trkpt lat="43.18237" lon="2.84316">
        <ele>39</ele>
        <time>2018-05-19T09:53:18Z</time>
      </trkpt>
      <trkpt lat="43.18264" lon="2.84335">
        <ele>39.1</ele>
        <time>2018-05-19T09:53:23Z</time>
      </trkpt>
      <trkpt lat="43.18286" lon="2.8435">
        <ele>39.1</ele>
        <time>2018-05-19T09:53:28Z</time>
      </trkpt>
      <trkpt lat="43.18307" lon="2.84359">
        <ele>38.8</ele>
        <time>2018-05-19T09:53:33Z</time>
      </trkpt>
      <trkpt lat="43.18329" lon="2.8437">
        <ele>38.8</ele>
        <time>2018-05-19T09:53:38Z</time>
      </trkpt>
      <trkpt lat="43.18351" lon="2.84377">
        <ele>37.1</ele>
        <time>2018-05-19T09:53:43Z</time>
      </trkpt>
      <trkpt lat="43.18371" lon="2.84386">
        <ele>37.1</ele>
        <time>2018-05-19T09:53:48Z</time>
      </trkpt>
      <trkpt lat="43.18391" lon="2.84397">
        <ele>37.1</ele>
        <time>2018-05-19T09:53:53Z</time>
      </trkpt>
      <trkpt lat="43.18411" lon="2.84404">
        <ele>37.4</ele>
        <time>2018-05-19T09:53:58Z</time>
      </trkpt>
      <trkpt lat="43.18434" lon="2.84417">
        <ele>36.5</ele>
        <time>2018-05-19T09:54:03Z</time>
      </trkpt>
      <trkpt lat="43.18447" lon="2.84419">
        <ele>38.2</ele>
        <time>2018-05-19T09:54:08Z</time>
      </trkpt>
      <trkpt lat="43.18465" lon="2.84394">
        <ele>35.2</ele>
        <time>2018-05-19T09:54:13Z</time>
      </trkpt>
      <trkpt lat="43.18467" lon="2.84372">
        <ele>34.6</ele>
        <time>2018-05-19T09:54:18Z</time>
      </trkpt>
      <trkpt lat="43.18458" lon="2.84346">
        <ele>34.1</ele>
        <time>2018-05-19T09:54:23Z</time>
      </trkpt>
      <trkpt lat="43.18455" lon="2.84318">
        <ele>32.3</ele>
        <time>2018-05-19T09:54:28Z</time>
      </trkpt>
      <trkpt lat="43.18457" lon="2.84301">
        <ele>32.3</ele>
        <time>2018-05-19T09:54:33Z</time>
      </trkpt>
      <trkpt lat="43.1846" lon="2.84276">
        <ele>32.2</ele>
        <time>2018-05-19T09:54:38Z</time>
      </trkpt>
      <trkpt lat="43.18462" lon="2.84258">
        <ele>32.2</ele>
        <time>2018-05-19T09:54:43Z</time>
      </trkpt>
      <trkpt lat="43.18467" lon="2.84228">
        <ele>33.9</ele>
        <time>2018-05-19T09:54:48Z</time>
      </trkpt>
      <trkpt lat="43.18471" lon="2.84212">
        <ele>34.4</ele>
        <time>2018-05-19T09:54:53Z</time>
      </trkpt>
      <trkpt lat="43.18474" lon="2.84193">
        <ele>35</ele>
        <time>2018-05-19T09:54:58Z</time>
      </trkpt>
      <trkpt lat="43.18475" lon="2.84184">
        <ele>35.3</ele>
        <time>2018-05-19T09:55:03Z</time>
      </trkpt>
      <trkpt lat="43.18475" lon="2.84167">
        <ele>35.6</ele>
        <time>2018-05-19T09:55:08Z</time>
      </trkpt>
      <trkpt lat="43.18476" lon="2.84142">
        <ele>37.4</ele>
        <time>2018-05-19T09:55:13Z</time>
      </trkpt>
      <trkpt lat="43.18479" lon="2.84123">
        <ele>37.5</ele>
        <time>2018-05-19T09:55:18Z</time>
      </trkpt>
      <trkpt lat="43.18482" lon="2.84096">
        <ele>37.7</ele>
        <time>2018-05-19T09:55:23Z</time>
      </trkpt>
      <trkpt lat="43.18483" lon="2.8408">
        <ele>37.8</ele>
        <time>2018-05-19T09:55:28Z</time>
      </trkpt>
      <trkpt lat="43.18486" lon="2.84055">
        <ele>37.6</ele>
        <time>2018-05-19T09:55:33Z</time>
      </trkpt>
      <trkpt lat="43.18487" lon="2.84037">
        <ele>37.5</ele>
        <time>2018-05-19T09:55:38Z</time>
      </trkpt>
      <trkpt lat="43.18489" lon="2.84023">
        <ele>37.3</ele>
        <time>2018-05-19T09:55:43Z</time>
      </trkpt>
      <trkpt lat="43.18484" lon="2.84011">
        <ele>37.3</ele>
        <time>2018-05-19T09:55:48Z</time>
      </trkpt>
      <trkpt lat="43.18484" lon="2.84011">
        <ele>37.3</ele>
        <time>2018-05-19T09:55:53Z</time>
      </trkpt>
      <trkpt lat="43.18484" lon="2.84011">
        <ele>37.3</ele>
        <time>2018-05-19T09:55:58Z</time>
      </trkpt>
      <trkpt lat="43.18484" lon="2.84011">
        <ele>37.3</ele>
        <time>2018-05-19T09:56:03Z</time>
      </trkpt>
      <trkpt lat="43.18484" lon="2.84011">
        <ele>37.3</ele>
        <time>2018-05-19T09:56:08Z</time>
      </trkpt>
      <trkpt lat="43.18475" lon="2.84005">
        <ele>37.3</ele>
        <time>2018-05-19T09:56:23Z</time>
      </trkpt>
      <trkpt lat="43.18457" lon="2.84002">
        <ele>37.3</ele>
        <time>2018-05-19T09:56:28Z</time>
      </trkpt>
      <trkpt lat="43.18421" lon="2.83994">
        <ele>36.8</ele>
        <time>2018-05-19T09:56:33Z</time>
      </trkpt>
      <trkpt lat="43.18399" lon="2.83986">
        <ele>36.2</ele>
        <time>2018-05-19T09:56:38Z</time>
      </trkpt>
      <trkpt lat="43.18381" lon="2.8398">
        <ele>36</ele>
        <time>2018-05-19T09:56:43Z</time>
      </trkpt>
      <trkpt lat="43.18354" lon="2.8397">
        <ele>35.8</ele>
        <time>2018-05-19T09:56:48Z</time>
      </trkpt>
      <trkpt lat="43.18336" lon="2.83966">
        <ele>35.7</ele>
        <time>2018-05-19T09:56:53Z</time>
      </trkpt>
      <trkpt lat="43.18315" lon="2.83959">
        <ele>36.3</ele>
        <time>2018-05-19T09:56:58Z</time>
      </trkpt>
      <trkpt lat="43.18298" lon="2.83956">
        <ele>36.4</ele>
        <time>2018-05-19T09:57:03Z</time>
      </trkpt>
      <trkpt lat="43.18277" lon="2.8395">
        <ele>36.6</ele>
        <time>2018-05-19T09:57:08Z</time>
      </trkpt>
      <trkpt lat="43.18254" lon="2.83943">
        <ele>36.8</ele>
        <time>2018-05-19T09:57:13Z</time>
      </trkpt>
      <trkpt lat="43.18239" lon="2.83937">
        <ele>37.7</ele>
        <time>2018-05-19T09:57:18Z</time>
      </trkpt>
      <trkpt lat="43.18219" lon="2.83932">
        <ele>37.9</ele>
        <time>2018-05-19T09:57:23Z</time>
      </trkpt>
      <trkpt lat="43.1821" lon="2.83925">
        <ele>38.1</ele>
        <time>2018-05-19T09:57:28Z</time>
      </trkpt>
      <trkpt lat="43.18192" lon="2.8392">
        <ele>38.6</ele>
        <time>2018-05-19T09:57:33Z</time>
      </trkpt>
      <trkpt lat="43.1818" lon="2.83914">
        <ele>39.3</ele>
        <time>2018-05-19T09:57:38Z</time>
      </trkpt>
      <trkpt lat="43.18165" lon="2.83904">
        <ele>39.9</ele>
        <time>2018-05-19T09:57:43Z</time>
      </trkpt>
      <trkpt lat="43.18156" lon="2.8389">
        <ele>39.8</ele>
        <time>2018-05-19T09:57:48Z</time>
      </trkpt>
      <trkpt lat="43.18138" lon="2.83871">
        <ele>39.8</ele>
        <time>2018-05-19T09:57:53Z</time>
      </trkpt>
      <trkpt lat="43.18126" lon="2.83865">
        <ele>39.8</ele>
        <time>2018-05-19T09:57:58Z</time>
      </trkpt>
      <trkpt lat="43.18114" lon="2.83864">
        <ele>39.8</ele>
        <time>2018-05-19T09:58:03Z</time>
      </trkpt>
      <trkpt lat="43.18103" lon="2.8386">
        <ele>39.8</ele>
        <time>2018-05-19T09:58:08Z</time>
      </trkpt>
      <trkpt lat="43.18079" lon="2.83855">
        <ele>39.6</ele>
        <time>2018-05-19T09:58:13Z</time>
      </trkpt>
      <trkpt lat="43.1806" lon="2.83847">
        <ele>39.6</ele>
        <time>2018-05-19T09:58:18Z</time>
      </trkpt>
      <trkpt lat="43.18046" lon="2.83841">
        <ele>39.7</ele>
        <time>2018-05-19T09:58:23Z</time>
      </trkpt>
      <trkpt lat="43.18029" lon="2.83827">
        <ele>40.9</ele>
        <time>2018-05-19T09:58:28Z</time>
      </trkpt>
      <trkpt lat="43.18021" lon="2.8382">
        <ele>41</ele>
        <time>2018-05-19T09:58:33Z</time>
      </trkpt>
      <trkpt lat="43.18011" lon="2.83812">
        <ele>41</ele>
        <time>2018-05-19T09:58:38Z</time>
      </trkpt>
      <trkpt lat="43.17996" lon="2.83795">
        <ele>40.8</ele>
        <time>2018-05-19T09:58:43Z</time>
      </trkpt>
      <trkpt lat="43.17985" lon="2.83786">
        <ele>40.8</ele>
        <time>2018-05-19T09:58:48Z</time>
      </trkpt>
      <trkpt lat="43.1797" lon="2.83767">
        <ele>40.8</ele>
        <time>2018-05-19T09:58:53Z</time>
      </trkpt>
      <trkpt lat="43.17964" lon="2.8375">
        <ele>40.8</ele>
        <time>2018-05-19T09:58:58Z</time>
      </trkpt>
      <trkpt lat="43.17961" lon="2.83744">
        <ele>40.7</ele>
        <time>2018-05-19T09:59:03Z</time>
      </trkpt>
      <trkpt lat="43.17957" lon="2.83729">
        <ele>40.6</ele>
        <time>2018-05-19T09:59:08Z</time>
      </trkpt>
      <trkpt lat="43.17948" lon="2.83704">
        <ele>40.4</ele>
        <time>2018-05-19T09:59:13Z</time>
      </trkpt>
      <trkpt lat="43.17935" lon="2.83678">
        <ele>39.9</ele>
        <time>2018-05-19T09:59:18Z</time>
      </trkpt>
      <trkpt lat="43.17925" lon="2.83658">
        <ele>39</ele>
        <time>2018-05-19T09:59:23Z</time>
      </trkpt>
      <trkpt lat="43.17912" lon="2.83619">
        <ele>38.1</ele>
        <time>2018-05-19T09:59:28Z</time>
      </trkpt>
      <trkpt lat="43.17897" lon="2.83593">
        <ele>38</ele>
        <time>2018-05-19T09:59:33Z</time>
      </trkpt>
      <trkpt lat="43.17882" lon="2.83576">
        <ele>37.8</ele>
        <time>2018-05-19T09:59:38Z</time>
      </trkpt>
      <trkpt lat="43.17863" lon="2.83559">
        <ele>37.8</ele>
        <time>2018-05-19T09:59:43Z</time>
      </trkpt>
      <trkpt lat="43.1785" lon="2.83548">
        <ele>37.8</ele>
        <time>2018-05-19T09:59:48Z</time>
      </trkpt>
      <trkpt lat="43.1783" lon="2.83535">
        <ele>38.5</ele>
        <time>2018-05-19T09:59:53Z</time>
      </trkpt>
      <trkpt lat="43.17819" lon="2.83525">
        <ele>38.5</ele>
        <time>2018-05-19T09:59:58Z</time>
      </trkpt>
      <trkpt lat="43.1781" lon="2.83505">
        <ele>38.5</ele>
        <time>2018-05-19T10:00:03Z</time>
      </trkpt>
      <trkpt lat="43.17798" lon="2.835">
        <ele>38.7</ele>
        <time>2018-05-19T10:00:08Z</time>
      </trkpt>
      <trkpt lat="43.17783" lon="2.83495">
        <ele>38.8</ele>
        <time>2018-05-19T10:00:13Z</time>
      </trkpt>
      <trkpt lat="43.17776" lon="2.83493">
        <ele>38.9</ele>
        <time>2018-05-19T10:00:18Z</time>
      </trkpt>
      <trkpt lat="43.17761" lon="2.83485">
        <ele>39.2</ele>
        <time>2018-05-19T10:00:23Z</time>
      </trkpt>
      <trkpt lat="43.17741" lon="2.83482">
        <ele>39.3</ele>
        <time>2018-05-19T10:00:28Z</time>
      </trkpt>
      <trkpt lat="43.17725" lon="2.83479">
        <ele>39</ele>
        <time>2018-05-19T10:00:33Z</time>
      </trkpt>
      <trkpt lat="43.17701" lon="2.83476">
        <ele>38.9</ele>
        <time>2018-05-19T10:00:38Z</time>
      </trkpt>
      <trkpt lat="43.17686" lon="2.83474">
        <ele>38.8</ele>
        <time>2018-05-19T10:00:43Z</time>
      </trkpt>
      <trkpt lat="43.17662" lon="2.8347">
        <ele>39</ele>
        <time>2018-05-19T10:00:48Z</time>
      </trkpt>
      <trkpt lat="43.1764" lon="2.83466">
        <ele>39.2</ele>
        <time>2018-05-19T10:00:53Z</time>
      </trkpt>
      <trkpt lat="43.17622" lon="2.83462">
        <ele>39.3</ele>
        <time>2018-05-19T10:00:58Z</time>
      </trkpt>
      <trkpt lat="43.17595" lon="2.83461">
        <ele>39.5</ele>
        <time>2018-05-19T10:01:03Z</time>
      </trkpt>
      <trkpt lat="43.17578" lon="2.83456">
        <ele>39.8</ele>
        <time>2018-05-19T10:01:08Z</time>
      </trkpt>
      <trkpt lat="43.17557" lon="2.83445">
        <ele>39.8</ele>
        <time>2018-05-19T10:01:13Z</time>
      </trkpt>
      <trkpt lat="43.17535" lon="2.83441">
        <ele>39.7</ele>
        <time>2018-05-19T10:01:18Z</time>
      </trkpt>
      <trkpt lat="43.17512" lon="2.83438">
        <ele>39.5</ele>
        <time>2018-05-19T10:01:23Z</time>
      </trkpt>
      <trkpt lat="43.17497" lon="2.83434">
        <ele>39.3</ele>
        <time>2018-05-19T10:01:28Z</time>
      </trkpt>
      <trkpt lat="43.17472" lon="2.83429">
        <ele>39.4</ele>
        <time>2018-05-19T10:01:33Z</time>
      </trkpt>
      <trkpt lat="43.17454" lon="2.83426">
        <ele>39.5</ele>
        <time>2018-05-19T10:01:38Z</time>
      </trkpt>
      <trkpt lat="43.17428" lon="2.8342">
        <ele>39.8</ele>
        <time>2018-05-19T10:01:43Z</time>
      </trkpt>
      <trkpt lat="43.17411" lon="2.83417">
        <ele>39.8</ele>
        <time>2018-05-19T10:01:48Z</time>
      </trkpt>
      <trkpt lat="43.17388" lon="2.83412">
        <ele>39.8</ele>
        <time>2018-05-19T10:01:53Z</time>
      </trkpt>
      <trkpt lat="43.17373" lon="2.8341">
        <ele>39.6</ele>
        <time>2018-05-19T10:01:58Z</time>
      </trkpt>
      <trkpt lat="43.1735" lon="2.83405">
        <ele>39.4</ele>
        <time>2018-05-19T10:02:03Z</time>
      </trkpt>
      <trkpt lat="43.17334" lon="2.83403">
        <ele>39.3</ele>
        <time>2018-05-19T10:02:08Z</time>
      </trkpt>
      <trkpt lat="43.17308" lon="2.83396">
        <ele>38.7</ele>
        <time>2018-05-19T10:02:13Z</time>
      </trkpt>
      <trkpt lat="43.17291" lon="2.83394">
        <ele>38.5</ele>
        <time>2018-05-19T10:02:18Z</time>
      </trkpt>
      <trkpt lat="43.17268" lon="2.83389">
        <ele>38.3</ele>
        <time>2018-05-19T10:02:23Z</time>
      </trkpt>
      <trkpt lat="43.17247" lon="2.83379">
        <ele>37.7</ele>
        <time>2018-05-19T10:02:28Z</time>
      </trkpt>
      <trkpt lat="43.17226" lon="2.83362">
        <ele>37.6</ele>
        <time>2018-05-19T10:02:33Z</time>
      </trkpt>
      <trkpt lat="43.17211" lon="2.83348">
        <ele>37.7</ele>
        <time>2018-05-19T10:02:38Z</time>
      </trkpt>
      <trkpt lat="43.17189" lon="2.83329">
        <ele>37.8</ele>
        <time>2018-05-19T10:02:43Z</time>
      </trkpt>
      <trkpt lat="43.17175" lon="2.83316">
        <ele>37.9</ele>
        <time>2018-05-19T10:02:48Z</time>
      </trkpt>
      <trkpt lat="43.17155" lon="2.833">
        <ele>38</ele>
        <time>2018-05-19T10:02:53Z</time>
      </trkpt>
      <trkpt lat="43.17142" lon="2.83289">
        <ele>38</ele>
        <time>2018-05-19T10:02:58Z</time>
      </trkpt>
      <trkpt lat="43.17122" lon="2.83271">
        <ele>38</ele>
        <time>2018-05-19T10:03:03Z</time>
      </trkpt>
      <trkpt lat="43.17108" lon="2.83263">
        <ele>38</ele>
        <time>2018-05-19T10:03:08Z</time>
      </trkpt>
      <trkpt lat="43.17086" lon="2.83254">
        <ele>38</ele>
        <time>2018-05-19T10:03:13Z</time>
      </trkpt>
      <trkpt lat="43.17076" lon="2.83252">
        <ele>38.2</ele>
        <time>2018-05-19T10:03:18Z</time>
      </trkpt>
      <trkpt lat="43.17065" lon="2.8325">
        <ele>38.3</ele>
        <time>2018-05-19T10:03:23Z</time>
      </trkpt>
      <trkpt lat="43.1706" lon="2.8325">
        <ele>38.4</ele>
        <time>2018-05-19T10:03:28Z</time>
      </trkpt>
      <trkpt lat="43.17054" lon="2.8325">
        <ele>38.3</ele>
        <time>2018-05-19T10:03:33Z</time>
      </trkpt>
      <trkpt lat="43.17039" lon="2.83252">
        <ele>38.7</ele>
        <time>2018-05-19T10:03:38Z</time>
      </trkpt>
      <trkpt lat="43.17026" lon="2.83253">
        <ele>38.8</ele>
        <time>2018-05-19T10:03:43Z</time>
      </trkpt>
      <trkpt lat="43.17002" lon="2.83257">
        <ele>39</ele>
        <time>2018-05-19T10:03:48Z</time>
      </trkpt>
      <trkpt lat="43.16979" lon="2.83261">
        <ele>39.6</ele>
        <time>2018-05-19T10:03:53Z</time>
      </trkpt>
      <trkpt lat="43.16964" lon="2.83264">
        <ele>39.8</ele>
        <time>2018-05-19T10:03:58Z</time>
      </trkpt>
      <trkpt lat="43.1694" lon="2.83268">
        <ele>40</ele>
        <time>2018-05-19T10:04:03Z</time>
      </trkpt>
      <trkpt lat="43.16925" lon="2.83269">
        <ele>40</ele>
        <time>2018-05-19T10:04:08Z</time>
      </trkpt>
      <trkpt lat="43.16906" lon="2.83265">
        <ele>40.9</ele>
        <time>2018-05-19T10:04:13Z</time>
      </trkpt>
      <trkpt lat="43.16895" lon="2.83262">
        <ele>41.2</ele>
        <time>2018-05-19T10:04:18Z</time>
      </trkpt>
      <trkpt lat="43.1688" lon="2.83256">
        <ele>41.5</ele>
        <time>2018-05-19T10:04:23Z</time>
      </trkpt>
      <trkpt lat="43.16871" lon="2.83251">
        <ele>41.8</ele>
        <time>2018-05-19T10:04:28Z</time>
      </trkpt>
      <trkpt lat="43.16857" lon="2.83245">
        <ele>41.7</ele>
        <time>2018-05-19T10:04:33Z</time>
      </trkpt>
      <trkpt lat="43.16848" lon="2.83242">
        <ele>42</ele>
        <time>2018-05-19T10:04:38Z</time>
      </trkpt>
      <trkpt lat="43.16834" lon="2.83236">
        <ele>42.2</ele>
        <time>2018-05-19T10:04:43Z</time>
      </trkpt>
      <trkpt lat="43.16825" lon="2.83231">
        <ele>42.7</ele>
        <time>2018-05-19T10:04:48Z</time>
      </trkpt>
      <trkpt lat="43.16812" lon="2.83223">
        <ele>42.6</ele>
        <time>2018-05-19T10:04:53Z</time>
      </trkpt>
      <trkpt lat="43.16803" lon="2.83217">
        <ele>42.5</ele>
        <time>2018-05-19T10:04:58Z</time>
      </trkpt>
      <trkpt lat="43.16795" lon="2.83211">
        <ele>42.5</ele>
        <time>2018-05-19T10:05:03Z</time>
      </trkpt>
      <trkpt lat="43.1678" lon="2.832">
        <ele>42.5</ele>
        <time>2018-05-19T10:05:08Z</time>
      </trkpt>
      <trkpt lat="43.16771" lon="2.83192">
        <ele>42.6</ele>
        <time>2018-05-19T10:05:13Z</time>
      </trkpt>
      <trkpt lat="43.16758" lon="2.83182">
        <ele>42.7</ele>
        <time>2018-05-19T10:05:18Z</time>
      </trkpt>
      <trkpt lat="43.1675" lon="2.83175">
        <ele>43</ele>
        <time>2018-05-19T10:05:23Z</time>
      </trkpt>
      <trkpt lat="43.16734" lon="2.83163">
        <ele>42.9</ele>
        <time>2018-05-19T10:05:28Z</time>
      </trkpt>
      <trkpt lat="43.16721" lon="2.83155">
        <ele>42.9</ele>
        <time>2018-05-19T10:05:33Z</time>
      </trkpt>
      <trkpt lat="43.16706" lon="2.83143">
        <ele>42.9</ele>
        <time>2018-05-19T10:05:38Z</time>
      </trkpt>
      <trkpt lat="43.16695" lon="2.83133">
        <ele>42.9</ele>
        <time>2018-05-19T10:05:43Z</time>
      </trkpt>
      <trkpt lat="43.16676" lon="2.8312">
        <ele>43</ele>
        <time>2018-05-19T10:05:48Z</time>
      </trkpt>
      <trkpt lat="43.16664" lon="2.8311">
        <ele>44.5</ele>
        <time>2018-05-19T10:05:53Z</time>
      </trkpt>
      <trkpt lat="43.16642" lon="2.83092">
        <ele>44.7</ele>
        <time>2018-05-19T10:05:58Z</time>
      </trkpt>
      <trkpt lat="43.16627" lon="2.83079">
        <ele>44.5</ele>
        <time>2018-05-19T10:06:03Z</time>
      </trkpt>
      <trkpt lat="43.16604" lon="2.83059">
        <ele>45</ele>
        <time>2018-05-19T10:06:08Z</time>
      </trkpt>
      <trkpt lat="43.16583" lon="2.83042">
        <ele>47.2</ele>
        <time>2018-05-19T10:06:13Z</time>
      </trkpt>
      <trkpt lat="43.16564" lon="2.83022">
        <ele>47.1</ele>
        <time>2018-05-19T10:06:18Z</time>
      </trkpt>
      <trkpt lat="43.16544" lon="2.83003">
        <ele>47.5</ele>
        <time>2018-05-19T10:06:23Z</time>
      </trkpt>
      <trkpt lat="43.16529" lon="2.82988">
        <ele>46.4</ele>
        <time>2018-05-19T10:06:28Z</time>
      </trkpt>
      <trkpt lat="43.16509" lon="2.82971">
        <ele>46.6</ele>
        <time>2018-05-19T10:06:33Z</time>
      </trkpt>
      <trkpt lat="43.16496" lon="2.8296">
        <ele>49</ele>
        <time>2018-05-19T10:06:38Z</time>
      </trkpt>
      <trkpt lat="43.16479" lon="2.82945">
        <ele>48.9</ele>
        <time>2018-05-19T10:06:43Z</time>
      </trkpt>
      <trkpt lat="43.16468" lon="2.82936">
        <ele>49</ele>
        <time>2018-05-19T10:06:48Z</time>
      </trkpt>
      <trkpt lat="43.16453" lon="2.82919">
        <ele>49.3</ele>
        <time>2018-05-19T10:06:53Z</time>
      </trkpt>
      <trkpt lat="43.16443" lon="2.82908">
        <ele>47.4</ele>
        <time>2018-05-19T10:06:58Z</time>
      </trkpt>
      <trkpt lat="43.1643" lon="2.8289">
        <ele>47.3</ele>
        <time>2018-05-19T10:07:03Z</time>
      </trkpt>
      <trkpt lat="43.1642" lon="2.82877">
        <ele>47</ele>
        <time>2018-05-19T10:07:08Z</time>
      </trkpt>
      <trkpt lat="43.16406" lon="2.8286">
        <ele>49.5</ele>
        <time>2018-05-19T10:07:13Z</time>
      </trkpt>
      <trkpt lat="43.16397" lon="2.82848">
        <ele>49.4</ele>
        <time>2018-05-19T10:07:18Z</time>
      </trkpt>
      <trkpt lat="43.16383" lon="2.8283">
        <ele>48.5</ele>
        <time>2018-05-19T10:07:23Z</time>
      </trkpt>
      <trkpt lat="43.16374" lon="2.82819">
        <ele>49</ele>
        <time>2018-05-19T10:07:28Z</time>
      </trkpt>
      <trkpt lat="43.1636" lon="2.82801">
        <ele>49.4</ele>
        <time>2018-05-19T10:07:33Z</time>
      </trkpt>
      <trkpt lat="43.16352" lon="2.82789">
        <ele>49.3</ele>
        <time>2018-05-19T10:07:38Z</time>
      </trkpt>
      <trkpt lat="43.16341" lon="2.8277">
        <ele>49.4</ele>
        <time>2018-05-19T10:07:43Z</time>
      </trkpt>
      <trkpt lat="43.16334" lon="2.82757">
        <ele>49.7</ele>
        <time>2018-05-19T10:07:48Z</time>
      </trkpt>
      <trkpt lat="43.16322" lon="2.82737">
        <ele>50.3</ele>
        <time>2018-05-19T10:07:53Z</time>
      </trkpt>
      <trkpt lat="43.16313" lon="2.82724">
        <ele>50.5</ele>
        <time>2018-05-19T10:07:58Z</time>
      </trkpt>
      <trkpt lat="43.16301" lon="2.82703">
        <ele>50.5</ele>
        <time>2018-05-19T10:08:03Z</time>
      </trkpt>
      <trkpt lat="43.16293" lon="2.82691">
        <ele>50.6</ele>
        <time>2018-05-19T10:08:08Z</time>
      </trkpt>
      <trkpt lat="43.16279" lon="2.82675">
        <ele>50.9</ele>
        <time>2018-05-19T10:08:13Z</time>
      </trkpt>
      <trkpt lat="43.16267" lon="2.82666">
        <ele>50.6</ele>
        <time>2018-05-19T10:08:18Z</time>
      </trkpt>
      <trkpt lat="43.16247" lon="2.82656">
        <ele>52</ele>
        <time>2018-05-19T10:08:23Z</time>
      </trkpt>
      <trkpt lat="43.16232" lon="2.8265">
        <ele>52.1</ele>
        <time>2018-05-19T10:08:28Z</time>
      </trkpt>
      <trkpt lat="43.16216" lon="2.82639">
        <ele>52.2</ele>
        <time>2018-05-19T10:08:33Z</time>
      </trkpt>
      <trkpt lat="43.16208" lon="2.82631">
        <ele>52.2</ele>
        <time>2018-05-19T10:08:38Z</time>
      </trkpt>
      <trkpt lat="43.16192" lon="2.82616">
        <ele>52.5</ele>
        <time>2018-05-19T10:08:43Z</time>
      </trkpt>
      <trkpt lat="43.16181" lon="2.82607">
        <ele>52.8</ele>
        <time>2018-05-19T10:08:48Z</time>
      </trkpt>
      <trkpt lat="43.16169" lon="2.82592">
        <ele>53.4</ele>
        <time>2018-05-19T10:08:53Z</time>
      </trkpt>
      <trkpt lat="43.1616" lon="2.82581">
        <ele>54.4</ele>
        <time>2018-05-19T10:08:58Z</time>
      </trkpt>
      <trkpt lat="43.16149" lon="2.82565">
        <ele>55</ele>
        <time>2018-05-19T10:09:03Z</time>
      </trkpt>
      <trkpt lat="43.16142" lon="2.82556">
        <ele>55.2</ele>
        <time>2018-05-19T10:09:08Z</time>
      </trkpt>
      <trkpt lat="43.16134" lon="2.82544">
        <ele>55.3</ele>
        <time>2018-05-19T10:09:13Z</time>
      </trkpt>
      <trkpt lat="43.16127" lon="2.82533">
        <ele>55.5</ele>
        <time>2018-05-19T10:09:18Z</time>
      </trkpt>
      <trkpt lat="43.1612" lon="2.82524">
        <ele>55.6</ele>
        <time>2018-05-19T10:09:23Z</time>
      </trkpt>
      <trkpt lat="43.16107" lon="2.82512">
        <ele>55.9</ele>
        <time>2018-05-19T10:09:28Z</time>
      </trkpt>
      <trkpt lat="43.16099" lon="2.82504">
        <ele>56.2</ele>
        <time>2018-05-19T10:09:33Z</time>
      </trkpt>
      <trkpt lat="43.16087" lon="2.82493">
        <ele>56.4</ele>
        <time>2018-05-19T10:09:38Z</time>
      </trkpt>
      <trkpt lat="43.1608" lon="2.82484">
        <ele>57.4</ele>
        <time>2018-05-19T10:09:43Z</time>
      </trkpt>
      <trkpt lat="43.16069" lon="2.8247">
        <ele>57.6</ele>
        <time>2018-05-19T10:09:48Z</time>
      </trkpt>
      <trkpt lat="43.16061" lon="2.8246">
        <ele>57.7</ele>
        <time>2018-05-19T10:09:53Z</time>
      </trkpt>
      <trkpt lat="43.16054" lon="2.82452">
        <ele>57.8</ele>
        <time>2018-05-19T10:09:58Z</time>
      </trkpt>
      <trkpt lat="43.16044" lon="2.82441">
        <ele>57.9</ele>
        <time>2018-05-19T10:10:03Z</time>
      </trkpt>
      <trkpt lat="43.16033" lon="2.82429">
        <ele>58.3</ele>
        <time>2018-05-19T10:10:08Z</time>
      </trkpt>
      <trkpt lat="43.16027" lon="2.82421">
        <ele>58.5</ele>
        <time>2018-05-19T10:10:13Z</time>
      </trkpt>
      <trkpt lat="43.16019" lon="2.8241">
        <ele>58.7</ele>
        <time>2018-05-19T10:10:18Z</time>
      </trkpt>
      <trkpt lat="43.16011" lon="2.824">
        <ele>58.8</ele>
        <time>2018-05-19T10:10:23Z</time>
      </trkpt>
      <trkpt lat="43.16003" lon="2.82391">
        <ele>58.8</ele>
        <time>2018-05-19T10:10:28Z</time>
      </trkpt>
      <trkpt lat="43.15991" lon="2.82377">
        <ele>60.8</ele>
        <time>2018-05-19T10:10:33Z</time>
      </trkpt>
      <trkpt lat="43.15984" lon="2.82368">
        <ele>60.9</ele>
        <time>2018-05-19T10:10:38Z</time>
      </trkpt>
      <trkpt lat="43.15972" lon="2.82355">
        <ele>61.1</ele>
        <time>2018-05-19T10:10:43Z</time>
      </trkpt>
      <trkpt lat="43.15963" lon="2.82344">
        <ele>61.4</ele>
        <time>2018-05-19T10:10:48Z</time>
      </trkpt>
      <trkpt lat="43.15955" lon="2.82334">
        <ele>61.7</ele>
        <time>2018-05-19T10:10:53Z</time>
      </trkpt>
      <trkpt lat="43.15945" lon="2.82322">
        <ele>62.5</ele>
        <time>2018-05-19T10:10:58Z</time>
      </trkpt>
      <trkpt lat="43.15935" lon="2.82314">
        <ele>62.7</ele>
        <time>2018-05-19T10:11:03Z</time>
      </trkpt>
      <trkpt lat="43.15927" lon="2.82304">
        <ele>62.8</ele>
        <time>2018-05-19T10:11:08Z</time>
      </trkpt>
      <trkpt lat="43.1592" lon="2.82295">
        <ele>62.9</ele>
        <time>2018-05-19T10:11:13Z</time>
      </trkpt>
      <trkpt lat="43.15909" lon="2.82283">
        <ele>65.4</ele>
        <time>2018-05-19T10:11:18Z</time>
      </trkpt>
      <trkpt lat="43.15902" lon="2.82275">
        <ele>65.5</ele>
        <time>2018-05-19T10:11:23Z</time>
      </trkpt>
      <trkpt lat="43.1589" lon="2.82262">
        <ele>65.7</ele>
        <time>2018-05-19T10:11:28Z</time>
      </trkpt>
      <trkpt lat="43.15885" lon="2.82256">
        <ele>65.8</ele>
        <time>2018-05-19T10:11:33Z</time>
      </trkpt>
      <trkpt lat="43.15876" lon="2.82243">
        <ele>65.8</ele>
        <time>2018-05-19T10:11:38Z</time>
      </trkpt>
      <trkpt lat="43.15864" lon="2.82231">
        <ele>66</ele>
        <time>2018-05-19T10:11:43Z</time>
      </trkpt>
      <trkpt lat="43.15856" lon="2.82224">
        <ele>66.1</ele>
        <time>2018-05-19T10:11:48Z</time>
      </trkpt>
      <trkpt lat="43.15844" lon="2.82213">
        <ele>66.1</ele>
        <time>2018-05-19T10:11:53Z</time>
      </trkpt>
      <trkpt lat="43.15835" lon="2.82206">
        <ele>66</ele>
        <time>2018-05-19T10:11:58Z</time>
      </trkpt>
      <trkpt lat="43.15821" lon="2.82194">
        <ele>67.4</ele>
        <time>2018-05-19T10:12:03Z</time>
      </trkpt>
      <trkpt lat="43.15812" lon="2.82187">
        <ele>67.4</ele>
        <time>2018-05-19T10:12:08Z</time>
      </trkpt>
      <trkpt lat="43.15799" lon="2.82177">
        <ele>67.7</ele>
        <time>2018-05-19T10:12:13Z</time>
      </trkpt>
      <trkpt lat="43.1579" lon="2.8217">
        <ele>67.9</ele>
        <time>2018-05-19T10:12:18Z</time>
      </trkpt>
      <trkpt lat="43.15777" lon="2.8216">
        <ele>67.5</ele>
        <time>2018-05-19T10:12:23Z</time>
      </trkpt>
      <trkpt lat="43.15767" lon="2.82155">
        <ele>67.8</ele>
        <time>2018-05-19T10:12:28Z</time>
      </trkpt>
      <trkpt lat="43.15753" lon="2.82147">
        <ele>67.9</ele>
        <time>2018-05-19T10:12:33Z</time>
      </trkpt>
      <trkpt lat="43.15743" lon="2.82143">
        <ele>69.1</ele>
        <time>2018-05-19T10:12:38Z</time>
      </trkpt>
      <trkpt lat="43.15727" lon="2.82136">
        <ele>69.2</ele>
        <time>2018-05-19T10:12:43Z</time>
      </trkpt>
      <trkpt lat="43.15716" lon="2.82131">
        <ele>69.2</ele>
        <time>2018-05-19T10:12:48Z</time>
      </trkpt>
      <trkpt lat="43.15701" lon="2.82125">
        <ele>69.3</ele>
        <time>2018-05-19T10:12:53Z</time>
      </trkpt>
      <trkpt lat="43.1569" lon="2.8212">
        <ele>69.3</ele>
        <time>2018-05-19T10:12:58Z</time>
      </trkpt>
      <trkpt lat="43.15677" lon="2.82114">
        <ele>69.4</ele>
        <time>2018-05-19T10:13:03Z</time>
      </trkpt>
      <trkpt lat="43.15667" lon="2.82109">
        <ele>70.2</ele>
        <time>2018-05-19T10:13:08Z</time>
      </trkpt>
      <trkpt lat="43.15662" lon="2.82107">
        <ele>70.2</ele>
        <time>2018-05-19T10:13:13Z</time>
      </trkpt>
      <trkpt lat="43.15657" lon="2.82104">
        <ele>70.2</ele>
        <time>2018-05-19T10:13:18Z</time>
      </trkpt>
      <trkpt lat="43.15657" lon="2.82104">
        <ele>70.2</ele>
        <time>2018-05-19T10:13:23Z</time>
      </trkpt>
      <trkpt lat="43.15657" lon="2.82104">
        <ele>70.2</ele>
        <time>2018-05-19T10:13:28Z</time>
      </trkpt>
      <trkpt lat="43.15657" lon="2.82104">
        <ele>70.2</ele>
        <time>2018-05-19T10:13:33Z</time>
      </trkpt>
      <trkpt lat="43.15657" lon="2.82104">
        <ele>70.2</ele>
        <time>2018-05-19T10:13:38Z</time>
      </trkpt>
      <trkpt lat="43.15653" lon="2.82104">
        <ele>70.3</ele>
        <time>2018-05-19T10:13:43Z</time>
      </trkpt>
      <trkpt lat="43.15648" lon="2.82102">
        <ele>70.3</ele>
        <time>2018-05-19T10:13:48Z</time>
      </trkpt>
      <trkpt lat="43.15643" lon="2.82102">
        <ele>70.4</ele>
        <time>2018-05-19T10:13:53Z</time>
      </trkpt>
      <trkpt lat="43.15637" lon="2.82098">
        <ele>70.5</ele>
        <time>2018-05-19T10:13:58Z</time>
      </trkpt>
      <trkpt lat="43.15621" lon="2.8209">
        <ele>70.7</ele>
        <time>2018-05-19T10:14:03Z</time>
      </trkpt>
      <trkpt lat="43.1561" lon="2.82083">
        <ele>70.7</ele>
        <time>2018-05-19T10:14:08Z</time>
      </trkpt>
      <trkpt lat="43.15591" lon="2.82075">
        <ele>71.3</ele>
        <time>2018-05-19T10:14:13Z</time>
      </trkpt>
      <trkpt lat="43.15579" lon="2.82071">
        <ele>71.9</ele>
        <time>2018-05-19T10:14:18Z</time>
      </trkpt>
      <trkpt lat="43.15563" lon="2.82064">
        <ele>71.9</ele>
        <time>2018-05-19T10:14:23Z</time>
      </trkpt>
      <trkpt lat="43.15553" lon="2.82058">
        <ele>71.9</ele>
        <time>2018-05-19T10:14:28Z</time>
      </trkpt>
      <trkpt lat="43.15536" lon="2.82049">
        <ele>71.9</ele>
        <time>2018-05-19T10:14:33Z</time>
      </trkpt>
      <trkpt lat="43.15524" lon="2.82044">
        <ele>72</ele>
        <time>2018-05-19T10:14:38Z</time>
      </trkpt>
      <trkpt lat="43.15505" lon="2.82038">
        <ele>71.9</ele>
        <time>2018-05-19T10:14:43Z</time>
      </trkpt>
      <trkpt lat="43.15492" lon="2.82033">
        <ele>72.9</ele>
        <time>2018-05-19T10:14:48Z</time>
      </trkpt>
      <trkpt lat="43.15473" lon="2.82025">
        <ele>73</ele>
        <time>2018-05-19T10:14:53Z</time>
      </trkpt>
      <trkpt lat="43.15461" lon="2.8202">
        <ele>73.2</ele>
        <time>2018-05-19T10:14:58Z</time>
      </trkpt>
      <trkpt lat="43.15441" lon="2.82012">
        <ele>73.5</ele>
        <time>2018-05-19T10:15:03Z</time>
      </trkpt>
      <trkpt lat="43.15428" lon="2.82007">
        <ele>73.7</ele>
        <time>2018-05-19T10:15:08Z</time>
      </trkpt>
      <trkpt lat="43.15412" lon="2.82002">
        <ele>74.3</ele>
        <time>2018-05-19T10:15:13Z</time>
      </trkpt>
      <trkpt lat="43.15401" lon="2.81998">
        <ele>74</ele>
        <time>2018-05-19T10:15:18Z</time>
      </trkpt>
      <trkpt lat="43.15387" lon="2.81991">
        <ele>74.1</ele>
        <time>2018-05-19T10:15:23Z</time>
      </trkpt>
      <trkpt lat="43.15377" lon="2.81986">
        <ele>74.2</ele>
        <time>2018-05-19T10:15:28Z</time>
      </trkpt>
      <trkpt lat="43.15363" lon="2.81978">
        <ele>74.4</ele>
        <time>2018-05-19T10:15:33Z</time>
      </trkpt>
      <trkpt lat="43.15354" lon="2.81973">
        <ele>74.6</ele>
        <time>2018-05-19T10:15:38Z</time>
      </trkpt>
      <trkpt lat="43.15338" lon="2.81967">
        <ele>74.6</ele>
        <time>2018-05-19T10:15:43Z</time>
      </trkpt>
      <trkpt lat="43.15325" lon="2.81961">
        <ele>75.9</ele>
        <time>2018-05-19T10:15:48Z</time>
      </trkpt>
      <trkpt lat="43.15306" lon="2.8195">
        <ele>75.8</ele>
        <time>2018-05-19T10:15:53Z</time>
      </trkpt>
      <trkpt lat="43.15293" lon="2.81941">
        <ele>75.8</ele>
        <time>2018-05-19T10:15:58Z</time>
      </trkpt>
      <trkpt lat="43.15276" lon="2.81932">
        <ele>75.9</ele>
        <time>2018-05-19T10:16:03Z</time>
      </trkpt>
      <trkpt lat="43.15262" lon="2.81922">
        <ele>75.9</ele>
        <time>2018-05-19T10:16:08Z</time>
      </trkpt>
      <trkpt lat="43.1524" lon="2.81909">
        <ele>75.1</ele>
        <time>2018-05-19T10:16:13Z</time>
      </trkpt>
      <trkpt lat="43.15216" lon="2.81898">
        <ele>74.2</ele>
        <time>2018-05-19T10:16:18Z</time>
      </trkpt>
      <trkpt lat="43.15194" lon="2.81887">
        <ele>73.8</ele>
        <time>2018-05-19T10:16:23Z</time>
      </trkpt>
      <trkpt lat="43.15171" lon="2.81874">
        <ele>73.7</ele>
        <time>2018-05-19T10:16:28Z</time>
      </trkpt>
      <trkpt lat="43.15146" lon="2.81859">
        <ele>73.3</ele>
        <time>2018-05-19T10:16:33Z</time>
      </trkpt>
      <trkpt lat="43.15119" lon="2.81844">
        <ele>73.4</ele>
        <time>2018-05-19T10:16:38Z</time>
      </trkpt>
      <trkpt lat="43.15097" lon="2.81832">
        <ele>73.5</ele>
        <time>2018-05-19T10:16:43Z</time>
      </trkpt>
      <trkpt lat="43.15073" lon="2.81819">
        <ele>73.2</ele>
        <time>2018-05-19T10:16:48Z</time>
      </trkpt>
      <trkpt lat="43.15052" lon="2.81806">
        <ele>72.7</ele>
        <time>2018-05-19T10:16:53Z</time>
      </trkpt>
      <trkpt lat="43.15033" lon="2.81796">
        <ele>72.5</ele>
        <time>2018-05-19T10:16:58Z</time>
      </trkpt>
      <trkpt lat="43.15011" lon="2.81782">
        <ele>72.2</ele>
        <time>2018-05-19T10:17:03Z</time>
      </trkpt>
      <trkpt lat="43.14981" lon="2.8177">
        <ele>71.7</ele>
        <time>2018-05-19T10:17:08Z</time>
      </trkpt>
      <trkpt lat="43.14962" lon="2.81755">
        <ele>71.8</ele>
        <time>2018-05-19T10:17:13Z</time>
      </trkpt>
      <trkpt lat="43.14949" lon="2.81747">
        <ele>71.3</ele>
        <time>2018-05-19T10:17:18Z</time>
      </trkpt>
      <trkpt lat="43.1493" lon="2.81736">
        <ele>71.5</ele>
        <time>2018-05-19T10:17:23Z</time>
      </trkpt>
      <trkpt lat="43.14908" lon="2.81724">
        <ele>71.5</ele>
        <time>2018-05-19T10:17:28Z</time>
      </trkpt>
      <trkpt lat="43.14884" lon="2.81713">
        <ele>71.3</ele>
        <time>2018-05-19T10:17:33Z</time>
      </trkpt>
      <trkpt lat="43.14867" lon="2.81704">
        <ele>71.2</ele>
        <time>2018-05-19T10:17:38Z</time>
      </trkpt>
      <trkpt lat="43.14847" lon="2.81692">
        <ele>71.1</ele>
        <time>2018-05-19T10:17:43Z</time>
      </trkpt>
      <trkpt lat="43.1483" lon="2.81682">
        <ele>71.2</ele>
        <time>2018-05-19T10:17:48Z</time>
      </trkpt>
      <trkpt lat="43.14805" lon="2.81668">
        <ele>71.4</ele>
        <time>2018-05-19T10:17:53Z</time>
      </trkpt>
      <trkpt lat="43.14788" lon="2.8166">
        <ele>70.9</ele>
        <time>2018-05-19T10:17:58Z</time>
      </trkpt>
      <trkpt lat="43.14764" lon="2.81643">
        <ele>71</ele>
        <time>2018-05-19T10:18:03Z</time>
      </trkpt>
      <trkpt lat="43.14746" lon="2.81628">
        <ele>71.4</ele>
        <time>2018-05-19T10:18:08Z</time>
      </trkpt>
      <trkpt lat="43.14726" lon="2.81609">
        <ele>71.2</ele>
        <time>2018-05-19T10:18:13Z</time>
      </trkpt>
      <trkpt lat="43.14711" lon="2.8159">
        <ele>71.3</ele>
        <time>2018-05-19T10:18:18Z</time>
      </trkpt>
      <trkpt lat="43.14692" lon="2.8157">
        <ele>70.5</ele>
        <time>2018-05-19T10:18:23Z</time>
      </trkpt>
      <trkpt lat="43.14676" lon="2.81554">
        <ele>70.4</ele>
        <time>2018-05-19T10:18:28Z</time>
      </trkpt>
      <trkpt lat="43.14657" lon="2.81541">
        <ele>71.7</ele>
        <time>2018-05-19T10:18:33Z</time>
      </trkpt>
      <trkpt lat="43.14632" lon="2.81531">
        <ele>71.8</ele>
        <time>2018-05-19T10:18:38Z</time>
      </trkpt>
      <trkpt lat="43.14614" lon="2.81524">
        <ele>71.9</ele>
        <time>2018-05-19T10:18:43Z</time>
      </trkpt>
      <trkpt lat="43.14596" lon="2.81516">
        <ele>72</ele>
        <time>2018-05-19T10:18:48Z</time>
      </trkpt>
      <trkpt lat="43.14582" lon="2.81513">
        <ele>72</ele>
        <time>2018-05-19T10:18:53Z</time>
      </trkpt>
      <trkpt lat="43.14562" lon="2.815">
        <ele>71.8</ele>
        <time>2018-05-19T10:18:58Z</time>
      </trkpt>
      <trkpt lat="43.14551" lon="2.81494">
        <ele>69.7</ele>
        <time>2018-05-19T10:19:03Z</time>
      </trkpt>
      <trkpt lat="43.14541" lon="2.81487">
        <ele>69.4</ele>
        <time>2018-05-19T10:19:08Z</time>
      </trkpt>
      <trkpt lat="43.14529" lon="2.81482">
        <ele>69.2</ele>
        <time>2018-05-19T10:19:13Z</time>
      </trkpt>
      <trkpt lat="43.14511" lon="2.81473">
        <ele>69.1</ele>
        <time>2018-05-19T10:19:18Z</time>
      </trkpt>
      <trkpt lat="43.14507" lon="2.81457">
        <ele>68.6</ele>
        <time>2018-05-19T10:19:23Z</time>
      </trkpt>
      <trkpt lat="43.14509" lon="2.81426">
        <ele>67.6</ele>
        <time>2018-05-19T10:19:28Z</time>
      </trkpt>
      <trkpt lat="43.14513" lon="2.81407">
        <ele>66.8</ele>
        <time>2018-05-19T10:19:33Z</time>
      </trkpt>
      <trkpt lat="43.14516" lon="2.8138">
        <ele>66.6</ele>
        <time>2018-05-19T10:19:38Z</time>
      </trkpt>
      <trkpt lat="43.14517" lon="2.81363">
        <ele>66.6</ele>
        <time>2018-05-19T10:19:43Z</time>
      </trkpt>
      <trkpt lat="43.14517" lon="2.81342">
        <ele>66.7</ele>
        <time>2018-05-19T10:19:48Z</time>
      </trkpt>
      <trkpt lat="43.14517" lon="2.81328">
        <ele>67.2</ele>
        <time>2018-05-19T10:19:53Z</time>
      </trkpt>
      <trkpt lat="43.14517" lon="2.81306">
        <ele>67.4</ele>
        <time>2018-05-19T10:19:58Z</time>
      </trkpt>
      <trkpt lat="43.14519" lon="2.81286">
        <ele>67.6</ele>
        <time>2018-05-19T10:20:03Z</time>
      </trkpt>
      <trkpt lat="43.14521" lon="2.81262">
        <ele>67.8</ele>
        <time>2018-05-19T10:20:08Z</time>
      </trkpt>
      <trkpt lat="43.14524" lon="2.81246">
        <ele>69.3</ele>
        <time>2018-05-19T10:20:13Z</time>
      </trkpt>
      <trkpt lat="43.14527" lon="2.8123">
        <ele>69.6</ele>
        <time>2018-05-19T10:20:18Z</time>
      </trkpt>
      <trkpt lat="43.14526" lon="2.81215">
        <ele>70</ele>
        <time>2018-05-19T10:20:23Z</time>
      </trkpt>
      <trkpt lat="43.14524" lon="2.81198">
        <ele>70.3</ele>
        <time>2018-05-19T10:20:28Z</time>
      </trkpt>
      <trkpt lat="43.1452" lon="2.81184">
        <ele>70.5</ele>
        <time>2018-05-19T10:20:33Z</time>
      </trkpt>
      <trkpt lat="43.1452" lon="2.81184">
        <ele>70.5</ele>
        <time>2018-05-19T10:20:38Z</time>
      </trkpt>
      <trkpt lat="43.1452" lon="2.81184">
        <ele>70.5</ele>
        <time>2018-05-19T10:20:43Z</time>
      </trkpt>
      <trkpt lat="43.14524" lon="2.81187">
        <ele>70.5</ele>
        <time>2018-05-19T10:20:48Z</time>
      </trkpt>
      <trkpt lat="43.14524" lon="2.81187">
        <ele>70.5</ele>
        <time>2018-05-19T10:20:53Z</time>
      </trkpt>
      <trkpt lat="43.14524" lon="2.81187">
        <ele>70.5</ele>
        <time>2018-05-19T10:20:58Z</time>
      </trkpt>
      <trkpt lat="43.14524" lon="2.81187">
        <ele>70.5</ele>
        <time>2018-05-19T10:21:03Z</time>
      </trkpt>
      <trkpt lat="43.14524" lon="2.81187">
        <ele>70.5</ele>
        <time>2018-05-19T10:21:08Z</time>
      </trkpt>
      <trkpt lat="43.14527" lon="2.81183">
        <ele>70.6</ele>
        <time>2018-05-19T10:21:18Z</time>
      </trkpt>
      <trkpt lat="43.14527" lon="2.81176">
        <ele>70.7</ele>
        <time>2018-05-19T10:21:23Z</time>
      </trkpt>
      <trkpt lat="43.14527" lon="2.81176">
        <ele>70.7</ele>
        <time>2018-05-19T10:21:28Z</time>
      </trkpt>
      <trkpt lat="43.14527" lon="2.81176">
        <ele>70.7</ele>
        <time>2018-05-19T10:21:33Z</time>
      </trkpt>
      <trkpt lat="43.14527" lon="2.81176">
        <ele>70.7</ele>
        <time>2018-05-19T10:21:38Z</time>
      </trkpt>
      <trkpt lat="43.14531" lon="2.8118">
        <ele>70.7</ele>
        <time>2018-05-19T10:21:43Z</time>
      </trkpt>
      <trkpt lat="43.14531" lon="2.8118">
        <ele>70.7</ele>
        <time>2018-05-19T10:21:48Z</time>
      </trkpt>
      <trkpt lat="43.14531" lon="2.8118">
        <ele>70.7</ele>
        <time>2018-05-19T10:21:53Z</time>
      </trkpt>
      <trkpt lat="43.14531" lon="2.8118">
        <ele>70.7</ele>
        <time>2018-05-19T10:21:58Z</time>
      </trkpt>
      <trkpt lat="43.14531" lon="2.8118">
        <ele>70.7</ele>
        <time>2018-05-19T10:22:03Z</time>
      </trkpt>
      <trkpt lat="43.14528" lon="2.81186">
        <ele>70.6</ele>
        <time>2018-05-19T10:23:03Z</time>
      </trkpt>
      <trkpt lat="43.14525" lon="2.81191">
        <ele>70.5</ele>
        <time>2018-05-19T10:23:08Z</time>
      </trkpt>
      <trkpt lat="43.14525" lon="2.81191">
        <ele>70.5</ele>
        <time>2018-05-19T10:23:13Z</time>
      </trkpt>
      <trkpt lat="43.14525" lon="2.81191">
        <ele>70.5</ele>
        <time>2018-05-19T10:23:18Z</time>
      </trkpt>
      <trkpt lat="43.14525" lon="2.81191">
        <ele>70.5</ele>
        <time>2018-05-19T10:23:23Z</time>
      </trkpt>
      <trkpt lat="43.1453" lon="2.81188">
        <ele>70.5</ele>
        <time>2018-05-19T10:23:28Z</time>
      </trkpt>
      <trkpt lat="43.1453" lon="2.81188">
        <ele>70.5</ele>
        <time>2018-05-19T10:23:33Z</time>
      </trkpt>
      <trkpt lat="43.14531" lon="2.81181">
        <ele>70.6</ele>
        <time>2018-05-19T10:23:38Z</time>
      </trkpt>
      <trkpt lat="43.14531" lon="2.81181">
        <ele>70.6</ele>
        <time>2018-05-19T10:23:43Z</time>
      </trkpt>
      <trkpt lat="43.14531" lon="2.81181">
        <ele>70.6</ele>
        <time>2018-05-19T10:23:48Z</time>
      </trkpt>
      <trkpt lat="43.14531" lon="2.81181">
        <ele>70.6</ele>
        <time>2018-05-19T10:23:53Z</time>
      </trkpt>
      <trkpt lat="43.14526" lon="2.81181">
        <ele>70.6</ele>
        <time>2018-05-19T10:23:58Z</time>
      </trkpt>
      <trkpt lat="43.14526" lon="2.81181">
        <ele>70.6</ele>
        <time>2018-05-19T10:24:03Z</time>
      </trkpt>
      <trkpt lat="43.14526" lon="2.81181">
        <ele>70.6</ele>
        <time>2018-05-19T10:24:08Z</time>
      </trkpt>
      <trkpt lat="43.14526" lon="2.81181">
        <ele>70.6</ele>
        <time>2018-05-19T10:24:13Z</time>
      </trkpt>
      <trkpt lat="43.14526" lon="2.81181">
        <ele>70.6</ele>
        <time>2018-05-19T10:24:18Z</time>
      </trkpt>
      <trkpt lat="43.14527" lon="2.81175">
        <ele>70.7</ele>
        <time>2018-05-19T10:25:33Z</time>
      </trkpt>
      <trkpt lat="43.14527" lon="2.81175">
        <ele>70.7</ele>
        <time>2018-05-19T10:25:38Z</time>
      </trkpt>
      <trkpt lat="43.14527" lon="2.81175">
        <ele>70.7</ele>
        <time>2018-05-19T10:25:43Z</time>
      </trkpt>
      <trkpt lat="43.14522" lon="2.81174">
        <ele>70.7</ele>
        <time>2018-05-19T10:25:48Z</time>
      </trkpt>
      <trkpt lat="43.14522" lon="2.81174">
        <ele>70.7</ele>
        <time>2018-05-19T10:25:53Z</time>
      </trkpt>
      <trkpt lat="43.14522" lon="2.81174">
        <ele>70.7</ele>
        <time>2018-05-19T10:25:58Z</time>
      </trkpt>
      <trkpt lat="43.14522" lon="2.81174">
        <ele>70.7</ele>
        <time>2018-05-19T10:26:03Z</time>
      </trkpt>
      <trkpt lat="43.14522" lon="2.81174">
        <ele>70.7</ele>
        <time>2018-05-19T10:26:08Z</time>
      </trkpt>
      <trkpt lat="43.14521" lon="2.81167">
        <ele>70.7</ele>
        <time>2018-05-19T10:26:53Z</time>
      </trkpt>
      <trkpt lat="43.14518" lon="2.81153">
        <ele>72.3</ele>
        <time>2018-05-19T10:26:58Z</time>
      </trkpt>
      <trkpt lat="43.14515" lon="2.81138">
        <ele>72.5</ele>
        <time>2018-05-19T10:27:03Z</time>
      </trkpt>
      <trkpt lat="43.14511" lon="2.81118">
        <ele>72.8</ele>
        <time>2018-05-19T10:27:08Z</time>
      </trkpt>
      <trkpt lat="43.14509" lon="2.81104">
        <ele>72.7</ele>
        <time>2018-05-19T10:27:13Z</time>
      </trkpt>
      <trkpt lat="43.14506" lon="2.8108">
        <ele>73</ele>
        <time>2018-05-19T10:27:18Z</time>
      </trkpt>
      <trkpt lat="43.14501" lon="2.81065">
        <ele>74.2</ele>
        <time>2018-05-19T10:27:23Z</time>
      </trkpt>
      <trkpt lat="43.14496" lon="2.81046">
        <ele>73.1</ele>
        <time>2018-05-19T10:27:27Z</time>
      </trkpt>
      <trkpt lat="43.14495" lon="2.81032">
        <ele>73.5</ele>
        <time>2018-05-19T10:27:33Z</time>
      </trkpt>
      <trkpt lat="43.14491" lon="2.8101">
        <ele>74.6</ele>
        <time>2018-05-19T10:27:38Z</time>
      </trkpt>
      <trkpt lat="43.14488" lon="2.80997">
        <ele>75.4</ele>
        <time>2018-05-19T10:27:43Z</time>
      </trkpt>
      <trkpt lat="43.14487" lon="2.80977">
        <ele>75.1</ele>
        <time>2018-05-19T10:27:48Z</time>
      </trkpt>
      <trkpt lat="43.14484" lon="2.80965">
        <ele>75</ele>
        <time>2018-05-19T10:27:53Z</time>
      </trkpt>
      <trkpt lat="43.14481" lon="2.80945">
        <ele>75.2</ele>
        <time>2018-05-19T10:27:58Z</time>
      </trkpt>
      <trkpt lat="43.1448" lon="2.8093">
        <ele>75.4</ele>
        <time>2018-05-19T10:28:03Z</time>
      </trkpt>
      <trkpt lat="43.14479" lon="2.80906">
        <ele>76</ele>
        <time>2018-05-19T10:28:08Z</time>
      </trkpt>
      <trkpt lat="43.14479" lon="2.80889">
        <ele>75.9</ele>
        <time>2018-05-19T10:28:13Z</time>
      </trkpt>
      <trkpt lat="43.14479" lon="2.80861">
        <ele>76.1</ele>
        <time>2018-05-19T10:28:18Z</time>
      </trkpt>
      <trkpt lat="43.14482" lon="2.80844">
        <ele>76.6</ele>
        <time>2018-05-19T10:28:23Z</time>
      </trkpt>
      <trkpt lat="43.14489" lon="2.8082">
        <ele>77.6</ele>
        <time>2018-05-19T10:28:28Z</time>
      </trkpt>
      <trkpt lat="43.14492" lon="2.80802">
        <ele>77.6</ele>
        <time>2018-05-19T10:28:33Z</time>
      </trkpt>
      <trkpt lat="43.14499" lon="2.80778">
        <ele>77.9</ele>
        <time>2018-05-19T10:28:38Z</time>
      </trkpt>
      <trkpt lat="43.14504" lon="2.80762">
        <ele>80.4</ele>
        <time>2018-05-19T10:28:43Z</time>
      </trkpt>
      <trkpt lat="43.14509" lon="2.8074">
        <ele>81.8</ele>
        <time>2018-05-19T10:28:48Z</time>
      </trkpt>
      <trkpt lat="43.14513" lon="2.80724">
        <ele>83.5</ele>
        <time>2018-05-19T10:28:53Z</time>
      </trkpt>
      <trkpt lat="43.14519" lon="2.80699">
        <ele>84.4</ele>
        <time>2018-05-19T10:28:58Z</time>
      </trkpt>
      <trkpt lat="43.14522" lon="2.80682">
        <ele>84.3</ele>
        <time>2018-05-19T10:29:03Z</time>
      </trkpt>
      <trkpt lat="43.14526" lon="2.8066">
        <ele>84.5</ele>
        <time>2018-05-19T10:29:08Z</time>
      </trkpt>
      <trkpt lat="43.1453" lon="2.80649">
        <ele>85.2</ele>
        <time>2018-05-19T10:29:13Z</time>
      </trkpt>
      <trkpt lat="43.14536" lon="2.80627">
        <ele>85.6</ele>
        <time>2018-05-19T10:29:18Z</time>
      </trkpt>
      <trkpt lat="43.14539" lon="2.80612">
        <ele>85.6</ele>
        <time>2018-05-19T10:29:23Z</time>
      </trkpt>
      <trkpt lat="43.14543" lon="2.80588">
        <ele>85.5</ele>
        <time>2018-05-19T10:29:28Z</time>
      </trkpt>
      <trkpt lat="43.14547" lon="2.80571">
        <ele>83.8</ele>
        <time>2018-05-19T10:29:33Z</time>
      </trkpt>
      <trkpt lat="43.14557" lon="2.80552">
        <ele>83.9</ele>
        <time>2018-05-19T10:29:38Z</time>
      </trkpt>
      <trkpt lat="43.14567" lon="2.80539">
        <ele>83.7</ele>
        <time>2018-05-19T10:29:43Z</time>
      </trkpt>
      <trkpt lat="43.14577" lon="2.80519">
        <ele>83.3</ele>
        <time>2018-05-19T10:29:48Z</time>
      </trkpt>
      <trkpt lat="43.14585" lon="2.80506">
        <ele>84.6</ele>
        <time>2018-05-19T10:29:53Z</time>
      </trkpt>
      <trkpt lat="43.146" lon="2.80488">
        <ele>84.1</ele>
        <time>2018-05-19T10:29:58Z</time>
      </trkpt>
      <trkpt lat="43.14609" lon="2.80475">
        <ele>84.5</ele>
        <time>2018-05-19T10:30:03Z</time>
      </trkpt>
      <trkpt lat="43.14623" lon="2.80457">
        <ele>84.7</ele>
        <time>2018-05-19T10:30:08Z</time>
      </trkpt>
      <trkpt lat="43.14633" lon="2.80446">
        <ele>84.8</ele>
        <time>2018-05-19T10:30:13Z</time>
      </trkpt>
      <trkpt lat="43.14646" lon="2.80429">
        <ele>84.8</ele>
        <time>2018-05-19T10:30:18Z</time>
      </trkpt>
      <trkpt lat="43.14653" lon="2.8042">
        <ele>84.9</ele>
        <time>2018-05-19T10:30:23Z</time>
      </trkpt>
      <trkpt lat="43.14666" lon="2.804">
        <ele>84.5</ele>
        <time>2018-05-19T10:30:28Z</time>
      </trkpt>
      <trkpt lat="43.14673" lon="2.80382">
        <ele>84.2</ele>
        <time>2018-05-19T10:30:33Z</time>
      </trkpt>
      <trkpt lat="43.14683" lon="2.80357">
        <ele>84</ele>
        <time>2018-05-19T10:30:38Z</time>
      </trkpt>
      <trkpt lat="43.14693" lon="2.8034">
        <ele>83.9</ele>
        <time>2018-05-19T10:30:43Z</time>
      </trkpt>
      <trkpt lat="43.14713" lon="2.80327">
        <ele>85.2</ele>
        <time>2018-05-19T10:30:48Z</time>
      </trkpt>
      <trkpt lat="43.14727" lon="2.80322">
        <ele>85</ele>
        <time>2018-05-19T10:30:53Z</time>
      </trkpt>
      <trkpt lat="43.14747" lon="2.80315">
        <ele>84.8</ele>
        <time>2018-05-19T10:30:58Z</time>
      </trkpt>
      <trkpt lat="43.14763" lon="2.80312">
        <ele>84.1</ele>
        <time>2018-05-19T10:31:03Z</time>
      </trkpt>
      <trkpt lat="43.14791" lon="2.80304">
        <ele>84</ele>
        <time>2018-05-19T10:31:08Z</time>
      </trkpt>
      <trkpt lat="43.14819" lon="2.80298">
        <ele>83.7</ele>
        <time>2018-05-19T10:31:13Z</time>
      </trkpt>
      <trkpt lat="43.14846" lon="2.80291">
        <ele>82.2</ele>
        <time>2018-05-19T10:31:18Z</time>
      </trkpt>
      <trkpt lat="43.14871" lon="2.80283">
        <ele>82.1</ele>
        <time>2018-05-19T10:31:23Z</time>
      </trkpt>
      <trkpt lat="43.14891" lon="2.80274">
        <ele>82</ele>
        <time>2018-05-19T10:31:28Z</time>
      </trkpt>
      <trkpt lat="43.14915" lon="2.80247">
        <ele>82.7</ele>
        <time>2018-05-19T10:31:33Z</time>
      </trkpt>
      <trkpt lat="43.14923" lon="2.80223">
        <ele>82.1</ele>
        <time>2018-05-19T10:31:38Z</time>
      </trkpt>
      <trkpt lat="43.14932" lon="2.80194">
        <ele>82.6</ele>
        <time>2018-05-19T10:31:43Z</time>
      </trkpt>
      <trkpt lat="43.14938" lon="2.80165">
        <ele>82.7</ele>
        <time>2018-05-19T10:31:48Z</time>
      </trkpt>
      <trkpt lat="43.1494" lon="2.80137">
        <ele>81.8</ele>
        <time>2018-05-19T10:31:53Z</time>
      </trkpt>
      <trkpt lat="43.14944" lon="2.80105">
        <ele>81.1</ele>
        <time>2018-05-19T10:31:58Z</time>
      </trkpt>
      <trkpt lat="43.14946" lon="2.80082">
        <ele>80.6</ele>
        <time>2018-05-19T10:32:03Z</time>
      </trkpt>
      <trkpt lat="43.14954" lon="2.80052">
        <ele>80.5</ele>
        <time>2018-05-19T10:32:08Z</time>
      </trkpt>
      <trkpt lat="43.14955" lon="2.80036">
        <ele>80.6</ele>
        <time>2018-05-19T10:32:13Z</time>
      </trkpt>
      <trkpt lat="43.14958" lon="2.80014">
        <ele>80.8</ele>
        <time>2018-05-19T10:32:18Z</time>
      </trkpt>
      <trkpt lat="43.14959" lon="2.8">
        <ele>82.4</ele>
        <time>2018-05-19T10:32:23Z</time>
      </trkpt>
      <trkpt lat="43.14961" lon="2.79976">
        <ele>82.7</ele>
        <time>2018-05-19T10:32:28Z</time>
      </trkpt>
      <trkpt lat="43.14962" lon="2.79963">
        <ele>82.9</ele>
        <time>2018-05-19T10:32:33Z</time>
      </trkpt>
      <trkpt lat="43.14963" lon="2.79942">
        <ele>83.3</ele>
        <time>2018-05-19T10:32:38Z</time>
      </trkpt>
      <trkpt lat="43.14965" lon="2.79927">
        <ele>83.4</ele>
        <time>2018-05-19T10:32:43Z</time>
      </trkpt>
      <trkpt lat="43.14963" lon="2.799">
        <ele>85.5</ele>
        <time>2018-05-19T10:32:48Z</time>
      </trkpt>
      <trkpt lat="43.14964" lon="2.79886">
        <ele>85.8</ele>
        <time>2018-05-19T10:32:53Z</time>
      </trkpt>
      <trkpt lat="43.14965" lon="2.79869">
        <ele>86</ele>
        <time>2018-05-19T10:32:58Z</time>
      </trkpt>
      <trkpt lat="43.14965" lon="2.79854">
        <ele>86.2</ele>
        <time>2018-05-19T10:33:03Z</time>
      </trkpt>
      <trkpt lat="43.14964" lon="2.7983">
        <ele>87.3</ele>
        <time>2018-05-19T10:33:08Z</time>
      </trkpt>
      <trkpt lat="43.14964" lon="2.79814">
        <ele>87.4</ele>
        <time>2018-05-19T10:33:13Z</time>
      </trkpt>
      <trkpt lat="43.14964" lon="2.79787">
        <ele>87.4</ele>
        <time>2018-05-19T10:33:18Z</time>
      </trkpt>
      <trkpt lat="43.14963" lon="2.79767">
        <ele>87.4</ele>
        <time>2018-05-19T10:33:23Z</time>
      </trkpt>
      <trkpt lat="43.14961" lon="2.79737">
        <ele>86.4</ele>
        <time>2018-05-19T10:33:28Z</time>
      </trkpt>
      <trkpt lat="43.1496" lon="2.79715">
        <ele>86.1</ele>
        <time>2018-05-19T10:33:33Z</time>
      </trkpt>
      <trkpt lat="43.14956" lon="2.79679">
        <ele>85.6</ele>
        <time>2018-05-19T10:33:38Z</time>
      </trkpt>
      <trkpt lat="43.14949" lon="2.79651">
        <ele>83.5</ele>
        <time>2018-05-19T10:33:43Z</time>
      </trkpt>
      <trkpt lat="43.1494" lon="2.79618">
        <ele>83</ele>
        <time>2018-05-19T10:33:48Z</time>
      </trkpt>
      <trkpt lat="43.14931" lon="2.79589">
        <ele>83.6</ele>
        <time>2018-05-19T10:33:53Z</time>
      </trkpt>
      <trkpt lat="43.14927" lon="2.7957">
        <ele>81.5</ele>
        <time>2018-05-19T10:33:58Z</time>
      </trkpt>
      <trkpt lat="43.14923" lon="2.79549">
        <ele>79.8</ele>
        <time>2018-05-19T10:34:03Z</time>
      </trkpt>
      <trkpt lat="43.14919" lon="2.79537">
        <ele>79.3</ele>
        <time>2018-05-19T10:34:08Z</time>
      </trkpt>
      <trkpt lat="43.14909" lon="2.79514">
        <ele>82.5</ele>
        <time>2018-05-19T10:34:13Z</time>
      </trkpt>
      <trkpt lat="43.149" lon="2.79497">
        <ele>80.8</ele>
        <time>2018-05-19T10:34:18Z</time>
      </trkpt>
      <trkpt lat="43.14885" lon="2.79473">
        <ele>81.8</ele>
        <time>2018-05-19T10:34:23Z</time>
      </trkpt>
      <trkpt lat="43.14872" lon="2.79448">
        <ele>81.8</ele>
        <time>2018-05-19T10:34:28Z</time>
      </trkpt>
      <trkpt lat="43.14861" lon="2.79425">
        <ele>81.7</ele>
        <time>2018-05-19T10:34:33Z</time>
      </trkpt>
      <trkpt lat="43.14856" lon="2.79422">
        <ele>81.8</ele>
        <time>2018-05-19T10:34:38Z</time>
      </trkpt>
      <trkpt lat="43.14856" lon="2.79422">
        <ele>81.8</ele>
        <time>2018-05-19T10:34:43Z</time>
      </trkpt>
      <trkpt lat="43.14844" lon="2.79411">
        <ele>80.7</ele>
        <time>2018-05-19T10:54:28Z</time>
      </trkpt>
      <trkpt lat="43.14842" lon="2.79409">
        <ele>80.7</ele>
        <time>2018-05-19T10:56:48Z</time>
      </trkpt>
      <trkpt lat="43.14849" lon="2.79403">
        <ele>80</ele>
        <time>2018-05-19T11:14:53Z</time>
      </trkpt>
      <trkpt lat="43.14854" lon="2.79389">
        <ele>79.3</ele>
        <time>2018-05-19T11:14:58Z</time>
      </trkpt>
      <trkpt lat="43.14857" lon="2.79373">
        <ele>78.9</ele>
        <time>2018-05-19T11:15:03Z</time>
      </trkpt>
      <trkpt lat="43.14858" lon="2.79358">
        <ele>78.7</ele>
        <time>2018-05-19T11:15:08Z</time>
      </trkpt>
      <trkpt lat="43.14856" lon="2.79329">
        <ele>78.5</ele>
        <time>2018-05-19T11:15:13Z</time>
      </trkpt>
      <trkpt lat="43.14854" lon="2.79306">
        <ele>78.6</ele>
        <time>2018-05-19T11:15:18Z</time>
      </trkpt>
      <trkpt lat="43.14855" lon="2.79271">
        <ele>79.3</ele>
        <time>2018-05-19T11:15:23Z</time>
      </trkpt>
      <trkpt lat="43.14856" lon="2.79247">
        <ele>80.3</ele>
        <time>2018-05-19T11:15:27Z</time>
      </trkpt>
      <trkpt lat="43.1485" lon="2.79216">
        <ele>80.3</ele>
        <time>2018-05-19T11:15:33Z</time>
      </trkpt>
      <trkpt lat="43.14846" lon="2.79199">
        <ele>80.6</ele>
        <time>2018-05-19T11:15:38Z</time>
      </trkpt>
      <trkpt lat="43.14835" lon="2.79178">
        <ele>81.8</ele>
        <time>2018-05-19T11:15:43Z</time>
      </trkpt>
      <trkpt lat="43.1482" lon="2.79156">
        <ele>85.2</ele>
        <time>2018-05-19T11:15:48Z</time>
      </trkpt>
      <trkpt lat="43.14816" lon="2.79142">
        <ele>86.1</ele>
        <time>2018-05-19T11:15:53Z</time>
      </trkpt>
      <trkpt lat="43.1481" lon="2.79125">
        <ele>86.8</ele>
        <time>2018-05-19T11:15:58Z</time>
      </trkpt>
      <trkpt lat="43.14801" lon="2.79117">
        <ele>87.2</ele>
        <time>2018-05-19T11:16:03Z</time>
      </trkpt>
      <trkpt lat="43.14802" lon="2.79102">
        <ele>87.3</ele>
        <time>2018-05-19T11:16:08Z</time>
      </trkpt>
      <trkpt lat="43.14807" lon="2.79089">
        <ele>87</ele>
        <time>2018-05-19T11:16:13Z</time>
      </trkpt>
      <trkpt lat="43.14812" lon="2.79076">
        <ele>88.3</ele>
        <time>2018-05-19T11:16:18Z</time>
      </trkpt>
      <trkpt lat="43.14814" lon="2.7907">
        <ele>88.3</ele>
        <time>2018-05-19T11:16:23Z</time>
      </trkpt>
      <trkpt lat="43.14816" lon="2.79063">
        <ele>88.5</ele>
        <time>2018-05-19T11:16:28Z</time>
      </trkpt>
      <trkpt lat="43.14823" lon="2.79049">
        <ele>88.9</ele>
        <time>2018-05-19T11:16:33Z</time>
      </trkpt>
      <trkpt lat="43.14827" lon="2.7903">
        <ele>89.4</ele>
        <time>2018-05-19T11:16:38Z</time>
      </trkpt>
      <trkpt lat="43.14828" lon="2.79021">
        <ele>89.4</ele>
        <time>2018-05-19T11:16:43Z</time>
      </trkpt>
      <trkpt lat="43.14829" lon="2.79007">
        <ele>89.3</ele>
        <time>2018-05-19T11:16:48Z</time>
      </trkpt>
      <trkpt lat="43.14824" lon="2.78992">
        <ele>89.9</ele>
        <time>2018-05-19T11:16:53Z</time>
      </trkpt>
      <trkpt lat="43.1482" lon="2.7897">
        <ele>90.4</ele>
        <time>2018-05-19T11:16:58Z</time>
      </trkpt>
      <trkpt lat="43.14822" lon="2.78956">
        <ele>90.4</ele>
        <time>2018-05-19T11:17:03Z</time>
      </trkpt>
      <trkpt lat="43.14831" lon="2.78935">
        <ele>89.6</ele>
        <time>2018-05-19T11:17:08Z</time>
      </trkpt>
      <trkpt lat="43.14838" lon="2.7892">
        <ele>87</ele>
        <time>2018-05-19T11:17:13Z</time>
      </trkpt>
      <trkpt lat="43.1485" lon="2.78896">
        <ele>85.9</ele>
        <time>2018-05-19T11:17:18Z</time>
      </trkpt>
      <trkpt lat="43.14855" lon="2.7888">
        <ele>85.7</ele>
        <time>2018-05-19T11:17:23Z</time>
      </trkpt>
      <trkpt lat="43.14859" lon="2.78857">
        <ele>85.9</ele>
        <time>2018-05-19T11:17:28Z</time>
      </trkpt>
      <trkpt lat="43.1486" lon="2.78843">
        <ele>86.3</ele>
        <time>2018-05-19T11:17:33Z</time>
      </trkpt>
      <trkpt lat="43.1486" lon="2.78829">
        <ele>87.9</ele>
        <time>2018-05-19T11:17:38Z</time>
      </trkpt>
      <trkpt lat="43.14861" lon="2.78815">
        <ele>87.9</ele>
        <time>2018-05-19T11:17:43Z</time>
      </trkpt>
      <trkpt lat="43.14862" lon="2.78798">
        <ele>88</ele>
        <time>2018-05-19T11:17:48Z</time>
      </trkpt>
      <trkpt lat="43.14861" lon="2.78784">
        <ele>88.2</ele>
        <time>2018-05-19T11:17:53Z</time>
      </trkpt>
      <trkpt lat="43.14854" lon="2.78763">
        <ele>89.2</ele>
        <time>2018-05-19T11:17:58Z</time>
      </trkpt>
      <trkpt lat="43.14851" lon="2.78749">
        <ele>91.8</ele>
        <time>2018-05-19T11:18:03Z</time>
      </trkpt>
      <trkpt lat="43.14854" lon="2.78737">
        <ele>91.9</ele>
        <time>2018-05-19T11:18:08Z</time>
      </trkpt>
      <trkpt lat="43.14857" lon="2.78722">
        <ele>92.2</ele>
        <time>2018-05-19T11:18:13Z</time>
      </trkpt>
      <trkpt lat="43.14864" lon="2.78701">
        <ele>92.7</ele>
        <time>2018-05-19T11:18:18Z</time>
      </trkpt>
      <trkpt lat="43.14867" lon="2.78687">
        <ele>93.2</ele>
        <time>2018-05-19T11:18:23Z</time>
      </trkpt>
      <trkpt lat="43.14868" lon="2.78674">
        <ele>93.6</ele>
        <time>2018-05-19T11:18:28Z</time>
      </trkpt>
      <trkpt lat="43.14869" lon="2.78657">
        <ele>96.9</ele>
        <time>2018-05-19T11:18:33Z</time>
      </trkpt>
      <trkpt lat="43.14868" lon="2.78641">
        <ele>97.3</ele>
        <time>2018-05-19T11:18:38Z</time>
      </trkpt>
      <trkpt lat="43.14867" lon="2.78629">
        <ele>97.6</ele>
        <time>2018-05-19T11:18:43Z</time>
      </trkpt>
      <trkpt lat="43.14866" lon="2.78609">
        <ele>98.3</ele>
        <time>2018-05-19T11:18:48Z</time>
      </trkpt>
      <trkpt lat="43.14867" lon="2.78594">
        <ele>98.8</ele>
        <time>2018-05-19T11:18:53Z</time>
      </trkpt>
      <trkpt lat="43.14865" lon="2.78581">
        <ele>101.9</ele>
        <time>2018-05-19T11:18:58Z</time>
      </trkpt>
      <trkpt lat="43.14863" lon="2.78566">
        <ele>102.1</ele>
        <time>2018-05-19T11:19:03Z</time>
      </trkpt>
      <trkpt lat="43.14862" lon="2.78551">
        <ele>102.4</ele>
        <time>2018-05-19T11:19:08Z</time>
      </trkpt>
      <trkpt lat="43.14862" lon="2.78534">
        <ele>103</ele>
        <time>2018-05-19T11:19:13Z</time>
      </trkpt>
      <trkpt lat="43.14863" lon="2.78526">
        <ele>103.3</ele>
        <time>2018-05-19T11:19:18Z</time>
      </trkpt>
      <trkpt lat="43.14863" lon="2.7851">
        <ele>103.9</ele>
        <time>2018-05-19T11:19:23Z</time>
      </trkpt>
      <trkpt lat="43.14861" lon="2.78496">
        <ele>107.8</ele>
        <time>2018-05-19T11:19:28Z</time>
      </trkpt>
      <trkpt lat="43.14858" lon="2.78483">
        <ele>108.1</ele>
        <time>2018-05-19T11:19:33Z</time>
      </trkpt>
      <trkpt lat="43.14858" lon="2.78469">
        <ele>108.3</ele>
        <time>2018-05-19T11:19:38Z</time>
      </trkpt>
      <trkpt lat="43.14859" lon="2.7846">
        <ele>108.4</ele>
        <time>2018-05-19T11:19:43Z</time>
      </trkpt>
      <trkpt lat="43.14861" lon="2.78446">
        <ele>108.9</ele>
        <time>2018-05-19T11:19:48Z</time>
      </trkpt>
      <trkpt lat="43.14865" lon="2.7843">
        <ele>109.4</ele>
        <time>2018-05-19T11:19:53Z</time>
      </trkpt>
      <trkpt lat="43.14865" lon="2.78423">
        <ele>109.6</ele>
        <time>2018-05-19T11:19:58Z</time>
      </trkpt>
      <trkpt lat="43.14865" lon="2.78402">
        <ele>112.4</ele>
        <time>2018-05-19T11:20:03Z</time>
      </trkpt>
      <trkpt lat="43.14863" lon="2.78394">
        <ele>112.5</ele>
        <time>2018-05-19T11:20:08Z</time>
      </trkpt>
      <trkpt lat="43.14863" lon="2.78381">
        <ele>112.5</ele>
        <time>2018-05-19T11:20:13Z</time>
      </trkpt>
      <trkpt lat="43.14861" lon="2.78375">
        <ele>112.6</ele>
        <time>2018-05-19T11:20:18Z</time>
      </trkpt>
      <trkpt lat="43.14858" lon="2.78361">
        <ele>112.8</ele>
        <time>2018-05-19T11:20:23Z</time>
      </trkpt>
      <trkpt lat="43.14858" lon="2.78353">
        <ele>112.9</ele>
        <time>2018-05-19T11:20:28Z</time>
      </trkpt>
      <trkpt lat="43.14855" lon="2.78341">
        <ele>113.1</ele>
        <time>2018-05-19T11:20:33Z</time>
      </trkpt>
      <trkpt lat="43.14854" lon="2.78333">
        <ele>114.2</ele>
        <time>2018-05-19T11:20:38Z</time>
      </trkpt>
      <trkpt lat="43.14852" lon="2.78326">
        <ele>114.2</ele>
        <time>2018-05-19T11:20:43Z</time>
      </trkpt>
      <trkpt lat="43.14852" lon="2.78312">
        <ele>114.3</ele>
        <time>2018-05-19T11:20:48Z</time>
      </trkpt>
      <trkpt lat="43.14853" lon="2.78304">
        <ele>114.4</ele>
        <time>2018-05-19T11:20:53Z</time>
      </trkpt>
      <trkpt lat="43.14856" lon="2.7829">
        <ele>114.5</ele>
        <time>2018-05-19T11:20:58Z</time>
      </trkpt>
      <trkpt lat="43.14856" lon="2.78276">
        <ele>114.7</ele>
        <time>2018-05-19T11:21:03Z</time>
      </trkpt>
      <trkpt lat="43.14855" lon="2.78268">
        <ele>114.7</ele>
        <time>2018-05-19T11:21:08Z</time>
      </trkpt>
      <trkpt lat="43.14855" lon="2.78254">
        <ele>114.8</ele>
        <time>2018-05-19T11:21:12Z</time>
      </trkpt>
      <trkpt lat="43.14853" lon="2.78241">
        <ele>116.3</ele>
        <time>2018-05-19T11:21:18Z</time>
      </trkpt>
      <trkpt lat="43.14853" lon="2.78234">
        <ele>116.4</ele>
        <time>2018-05-19T11:21:23Z</time>
      </trkpt>
      <trkpt lat="43.14853" lon="2.78219">
        <ele>116.8</ele>
        <time>2018-05-19T11:21:28Z</time>
      </trkpt>
      <trkpt lat="43.14851" lon="2.78205">
        <ele>117.1</ele>
        <time>2018-05-19T11:21:33Z</time>
      </trkpt>
      <trkpt lat="43.1485" lon="2.78198">
        <ele>117.3</ele>
        <time>2018-05-19T11:21:38Z</time>
      </trkpt>
      <trkpt lat="43.14848" lon="2.78183">
        <ele>117.6</ele>
        <time>2018-05-19T11:21:43Z</time>
      </trkpt>
      <trkpt lat="43.14847" lon="2.78169">
        <ele>117.8</ele>
        <time>2018-05-19T11:21:48Z</time>
      </trkpt>
      <trkpt lat="43.14846" lon="2.78162">
        <ele>119.1</ele>
        <time>2018-05-19T11:21:53Z</time>
      </trkpt>
      <trkpt lat="43.14846" lon="2.78147">
        <ele>119.7</ele>
        <time>2018-05-19T11:21:57Z</time>
      </trkpt>
      <trkpt lat="43.14845" lon="2.78132">
        <ele>120.3</ele>
        <time>2018-05-19T11:22:03Z</time>
      </trkpt>
      <trkpt lat="43.14844" lon="2.78125">
        <ele>120.5</ele>
        <time>2018-05-19T11:22:08Z</time>
      </trkpt>
      <trkpt lat="43.14841" lon="2.7811">
        <ele>121</ele>
        <time>2018-05-19T11:22:13Z</time>
      </trkpt>
      <trkpt lat="43.14842" lon="2.78101">
        <ele>121.2</ele>
        <time>2018-05-19T11:22:18Z</time>
      </trkpt>
      <trkpt lat="43.14844" lon="2.78087">
        <ele>121.6</ele>
        <time>2018-05-19T11:22:23Z</time>
      </trkpt>
      <trkpt lat="43.14844" lon="2.78071">
        <ele>122.5</ele>
        <time>2018-05-19T11:22:28Z</time>
      </trkpt>
      <trkpt lat="43.14843" lon="2.78057">
        <ele>122.7</ele>
        <time>2018-05-19T11:22:33Z</time>
      </trkpt>
      <trkpt lat="43.14843" lon="2.78049">
        <ele>122.8</ele>
        <time>2018-05-19T11:22:38Z</time>
      </trkpt>
      <trkpt lat="43.14841" lon="2.78028">
        <ele>122.8</ele>
        <time>2018-05-19T11:22:43Z</time>
      </trkpt>
      <trkpt lat="43.14841" lon="2.78013">
        <ele>122.6</ele>
        <time>2018-05-19T11:22:48Z</time>
      </trkpt>
      <trkpt lat="43.14839" lon="2.78005">
        <ele>122.4</ele>
        <time>2018-05-19T11:22:52Z</time>
      </trkpt>
      <trkpt lat="43.14835" lon="2.7799">
        <ele>122.8</ele>
        <time>2018-05-19T11:22:58Z</time>
      </trkpt>
      <trkpt lat="43.14831" lon="2.77975">
        <ele>124.1</ele>
        <time>2018-05-19T11:23:03Z</time>
      </trkpt>
      <trkpt lat="43.14829" lon="2.77967">
        <ele>124.4</ele>
        <time>2018-05-19T11:23:08Z</time>
      </trkpt>
      <trkpt lat="43.14825" lon="2.77953">
        <ele>124.7</ele>
        <time>2018-05-19T11:23:13Z</time>
      </trkpt>
      <trkpt lat="43.14822" lon="2.77937">
        <ele>124.7</ele>
        <time>2018-05-19T11:23:18Z</time>
      </trkpt>
      <trkpt lat="43.1482" lon="2.7793">
        <ele>124.7</ele>
        <time>2018-05-19T11:23:23Z</time>
      </trkpt>
      <trkpt lat="43.14816" lon="2.77915">
        <ele>124.5</ele>
        <time>2018-05-19T11:23:28Z</time>
      </trkpt>
      <trkpt lat="43.14809" lon="2.779">
        <ele>124.6</ele>
        <time>2018-05-19T11:23:33Z</time>
      </trkpt>
      <trkpt lat="43.14807" lon="2.77893">
        <ele>124.6</ele>
        <time>2018-05-19T11:23:38Z</time>
      </trkpt>
      <trkpt lat="43.14804" lon="2.77878">
        <ele>124.6</ele>
        <time>2018-05-19T11:23:43Z</time>
      </trkpt>
      <trkpt lat="43.14802" lon="2.77871">
        <ele>124.6</ele>
        <time>2018-05-19T11:23:47Z</time>
      </trkpt>
      <trkpt lat="43.14797" lon="2.77859">
        <ele>124.5</ele>
        <time>2018-05-19T11:23:53Z</time>
      </trkpt>
      <trkpt lat="43.14797" lon="2.77859">
        <ele>124.5</ele>
        <time>2018-05-19T11:23:57Z</time>
      </trkpt>
      <trkpt lat="43.14797" lon="2.77859">
        <ele>124.5</ele>
        <time>2018-05-19T11:24:03Z</time>
      </trkpt>
      <trkpt lat="43.14797" lon="2.77859">
        <ele>124.5</ele>
        <time>2018-05-19T11:24:07Z</time>
      </trkpt>
      <trkpt lat="43.14797" lon="2.77859">
        <ele>124.5</ele>
        <time>2018-05-19T11:24:13Z</time>
      </trkpt>
      <trkpt lat="43.14794" lon="2.77855">
        <ele>124.5</ele>
        <time>2018-05-19T11:24:38Z</time>
      </trkpt>
      <trkpt lat="43.14792" lon="2.77838">
        <ele>124.5</ele>
        <time>2018-05-19T11:24:42Z</time>
      </trkpt>
      <trkpt lat="43.14783" lon="2.7781">
        <ele>123.5</ele>
        <time>2018-05-19T11:24:48Z</time>
      </trkpt>
      <trkpt lat="43.14775" lon="2.77783">
        <ele>123.2</ele>
        <time>2018-05-19T11:24:52Z</time>
      </trkpt>
      <trkpt lat="43.14767" lon="2.7775">
        <ele>121.8</ele>
        <time>2018-05-19T11:24:58Z</time>
      </trkpt>
      <trkpt lat="43.14758" lon="2.77714">
        <ele>121.2</ele>
        <time>2018-05-19T11:25:02Z</time>
      </trkpt>
      <trkpt lat="43.14746" lon="2.77677">
        <ele>120.4</ele>
        <time>2018-05-19T11:25:08Z</time>
      </trkpt>
      <trkpt lat="43.14743" lon="2.77646">
        <ele>121</ele>
        <time>2018-05-19T11:25:12Z</time>
      </trkpt>
      <trkpt lat="43.14741" lon="2.77612">
        <ele>121</ele>
        <time>2018-05-19T11:25:18Z</time>
      </trkpt>
      <trkpt lat="43.14739" lon="2.77583">
        <ele>117.7</ele>
        <time>2018-05-19T11:25:23Z</time>
      </trkpt>
      <trkpt lat="43.14731" lon="2.77557">
        <ele>119.1</ele>
        <time>2018-05-19T11:25:28Z</time>
      </trkpt>
      <trkpt lat="43.14718" lon="2.77532">
        <ele>119.4</ele>
        <time>2018-05-19T11:25:33Z</time>
      </trkpt>
      <trkpt lat="43.14709" lon="2.77518">
        <ele>119.8</ele>
        <time>2018-05-19T11:25:37Z</time>
      </trkpt>
      <trkpt lat="43.14698" lon="2.77502">
        <ele>120.7</ele>
        <time>2018-05-19T11:25:43Z</time>
      </trkpt>
      <trkpt lat="43.14691" lon="2.77488">
        <ele>119.2</ele>
        <time>2018-05-19T11:25:47Z</time>
      </trkpt>
      <trkpt lat="43.14677" lon="2.7747">
        <ele>119.3</ele>
        <time>2018-05-19T11:25:53Z</time>
      </trkpt>
      <trkpt lat="43.14661" lon="2.77447">
        <ele>123.5</ele>
        <time>2018-05-19T11:25:58Z</time>
      </trkpt>
      <trkpt lat="43.14644" lon="2.77423">
        <ele>122.8</ele>
        <time>2018-05-19T11:26:03Z</time>
      </trkpt>
      <trkpt lat="43.14633" lon="2.77392">
        <ele>119.7</ele>
        <time>2018-05-19T11:26:07Z</time>
      </trkpt>
      <trkpt lat="43.14628" lon="2.77355">
        <ele>119.3</ele>
        <time>2018-05-19T11:26:13Z</time>
      </trkpt>
      <trkpt lat="43.14625" lon="2.7731">
        <ele>119.7</ele>
        <time>2018-05-19T11:26:18Z</time>
      </trkpt>
      <trkpt lat="43.14623" lon="2.77274">
        <ele>120.2</ele>
        <time>2018-05-19T11:26:23Z</time>
      </trkpt>
      <trkpt lat="43.14588" lon="2.77237">
        <ele>120.1</ele>
        <time>2018-05-19T11:26:28Z</time>
      </trkpt>
      <trkpt lat="43.14557" lon="2.77213">
        <ele>118.3</ele>
        <time>2018-05-19T11:26:33Z</time>
      </trkpt>
      <trkpt lat="43.14539" lon="2.77175">
        <ele>117.7</ele>
        <time>2018-05-19T11:26:38Z</time>
      </trkpt>
      <trkpt lat="43.14534" lon="2.77127">
        <ele>115.5</ele>
        <time>2018-05-19T11:26:42Z</time>
      </trkpt>
      <trkpt lat="43.1453" lon="2.77082">
        <ele>113.2</ele>
        <time>2018-05-19T11:26:48Z</time>
      </trkpt>
      <trkpt lat="43.14528" lon="2.77038">
        <ele>113.2</ele>
        <time>2018-05-19T11:26:53Z</time>
      </trkpt>
      <trkpt lat="43.14527" lon="2.76995">
        <ele>110.4</ele>
        <time>2018-05-19T11:26:58Z</time>
      </trkpt>
      <trkpt lat="43.14527" lon="2.76951">
        <ele>110.2</ele>
        <time>2018-05-19T11:27:02Z</time>
      </trkpt>
      <trkpt lat="43.14524" lon="2.76906">
        <ele>106.4</ele>
        <time>2018-05-19T11:27:08Z</time>
      </trkpt>
      <trkpt lat="43.14526" lon="2.76858">
        <ele>106.6</ele>
        <time>2018-05-19T11:27:12Z</time>
      </trkpt>
      <trkpt lat="43.14527" lon="2.7681">
        <ele>104.3</ele>
        <time>2018-05-19T11:27:18Z</time>
      </trkpt>
      <trkpt lat="43.14531" lon="2.76765">
        <ele>103.8</ele>
        <time>2018-05-19T11:27:23Z</time>
      </trkpt>
      <trkpt lat="43.14536" lon="2.76725">
        <ele>102.6</ele>
        <time>2018-05-19T11:27:28Z</time>
      </trkpt>
      <trkpt lat="43.14543" lon="2.76681">
        <ele>102.6</ele>
        <time>2018-05-19T11:27:33Z</time>
      </trkpt>
      <trkpt lat="43.14542" lon="2.76633">
        <ele>100</ele>
        <time>2018-05-19T11:27:37Z</time>
      </trkpt>
      <trkpt lat="43.1454" lon="2.76586">
        <ele>98.8</ele>
        <time>2018-05-19T11:27:43Z</time>
      </trkpt>
      <trkpt lat="43.14537" lon="2.76534">
        <ele>96.1</ele>
        <time>2018-05-19T11:27:47Z</time>
      </trkpt>
      <trkpt lat="43.14533" lon="2.76487">
        <ele>93.3</ele>
        <time>2018-05-19T11:27:53Z</time>
      </trkpt>
      <trkpt lat="43.14534" lon="2.76443">
        <ele>92.4</ele>
        <time>2018-05-19T11:27:57Z</time>
      </trkpt>
      <trkpt lat="43.14533" lon="2.76401">
        <ele>89.6</ele>
        <time>2018-05-19T11:28:03Z</time>
      </trkpt>
      <trkpt lat="43.14537" lon="2.76354">
        <ele>89.3</ele>
        <time>2018-05-19T11:28:08Z</time>
      </trkpt>
      <trkpt lat="43.14549" lon="2.76323">
        <ele>87.4</ele>
        <time>2018-05-19T11:28:13Z</time>
      </trkpt>
      <trkpt lat="43.14571" lon="2.7629">
        <ele>86.7</ele>
        <time>2018-05-19T11:28:18Z</time>
      </trkpt>
      <trkpt lat="43.14597" lon="2.76257">
        <ele>86.9</ele>
        <time>2018-05-19T11:28:23Z</time>
      </trkpt>
      <trkpt lat="43.14623" lon="2.76227">
        <ele>84.5</ele>
        <time>2018-05-19T11:28:28Z</time>
      </trkpt>
      <trkpt lat="43.14651" lon="2.76211">
        <ele>84.3</ele>
        <time>2018-05-19T11:28:32Z</time>
      </trkpt>
      <trkpt lat="43.14682" lon="2.76206">
        <ele>83.8</ele>
        <time>2018-05-19T11:28:38Z</time>
      </trkpt>
      <trkpt lat="43.14711" lon="2.76202">
        <ele>83.5</ele>
        <time>2018-05-19T11:28:43Z</time>
      </trkpt>
      <trkpt lat="43.14734" lon="2.76199">
        <ele>83.1</ele>
        <time>2018-05-19T11:28:48Z</time>
      </trkpt>
      <trkpt lat="43.14767" lon="2.76199">
        <ele>81.6</ele>
        <time>2018-05-19T11:28:52Z</time>
      </trkpt>
      <trkpt lat="43.14792" lon="2.76212">
        <ele>81.6</ele>
        <time>2018-05-19T11:28:58Z</time>
      </trkpt>
      <trkpt lat="43.14812" lon="2.76233">
        <ele>81.5</ele>
        <time>2018-05-19T11:29:02Z</time>
      </trkpt>
      <trkpt lat="43.14831" lon="2.76258">
        <ele>82.7</ele>
        <time>2018-05-19T11:29:08Z</time>
      </trkpt>
      <trkpt lat="43.14856" lon="2.76262">
        <ele>81.2</ele>
        <time>2018-05-19T11:29:13Z</time>
      </trkpt>
      <trkpt lat="43.14852" lon="2.76259">
        <ele>81.2</ele>
        <time>2018-05-19T11:29:18Z</time>
      </trkpt>
      <trkpt lat="43.14851" lon="2.76266">
        <ele>81.3</ele>
        <time>2018-05-19T11:29:23Z</time>
      </trkpt>
      <trkpt lat="43.14851" lon="2.76266">
        <ele>81.3</ele>
        <time>2018-05-19T11:29:27Z</time>
      </trkpt>
      <trkpt lat="43.14851" lon="2.76266">
        <ele>81.3</ele>
        <time>2018-05-19T11:29:33Z</time>
      </trkpt>
      <trkpt lat="43.14851" lon="2.76266">
        <ele>81.3</ele>
        <time>2018-05-19T11:29:37Z</time>
      </trkpt>
      <trkpt lat="43.14859" lon="2.7627">
        <ele>81.3</ele>
        <time>2018-05-19T11:30:18Z</time>
      </trkpt>
      <trkpt lat="43.14881" lon="2.76262">
        <ele>80.7</ele>
        <time>2018-05-19T11:30:22Z</time>
      </trkpt>
      <trkpt lat="43.14897" lon="2.76256">
        <ele>80.1</ele>
        <time>2018-05-19T11:30:28Z</time>
      </trkpt>
      <trkpt lat="43.14923" lon="2.76247">
        <ele>79.7</ele>
        <time>2018-05-19T11:30:32Z</time>
      </trkpt>
      <trkpt lat="43.14939" lon="2.76241">
        <ele>80.7</ele>
        <time>2018-05-19T11:30:38Z</time>
      </trkpt>
      <trkpt lat="43.14962" lon="2.76234">
        <ele>81.3</ele>
        <time>2018-05-19T11:30:42Z</time>
      </trkpt>
      <trkpt lat="43.14977" lon="2.76235">
        <ele>81.4</ele>
        <time>2018-05-19T11:30:48Z</time>
      </trkpt>
      <trkpt lat="43.15006" lon="2.76241">
        <ele>81</ele>
        <time>2018-05-19T11:30:53Z</time>
      </trkpt>
      <trkpt lat="43.15033" lon="2.76245">
        <ele>80.8</ele>
        <time>2018-05-19T11:30:58Z</time>
      </trkpt>
      <trkpt lat="43.15063" lon="2.7625">
        <ele>80.1</ele>
        <time>2018-05-19T11:31:03Z</time>
      </trkpt>
      <trkpt lat="43.15092" lon="2.76257">
        <ele>78.7</ele>
        <time>2018-05-19T11:31:07Z</time>
      </trkpt>
      <trkpt lat="43.15121" lon="2.76263">
        <ele>78.5</ele>
        <time>2018-05-19T11:31:13Z</time>
      </trkpt>
      <trkpt lat="43.1515" lon="2.76264">
        <ele>78.6</ele>
        <time>2018-05-19T11:31:18Z</time>
      </trkpt>
      <trkpt lat="43.15178" lon="2.76247">
        <ele>78.3</ele>
        <time>2018-05-19T11:31:23Z</time>
      </trkpt>
      <trkpt lat="43.15205" lon="2.76216">
        <ele>77.3</ele>
        <time>2018-05-19T11:31:27Z</time>
      </trkpt>
      <trkpt lat="43.1523" lon="2.76193">
        <ele>77</ele>
        <time>2018-05-19T11:31:33Z</time>
      </trkpt>
      <trkpt lat="43.15253" lon="2.76172">
        <ele>76.3</ele>
        <time>2018-05-19T11:31:38Z</time>
      </trkpt>
      <trkpt lat="43.15279" lon="2.76148">
        <ele>75.9</ele>
        <time>2018-05-19T11:31:43Z</time>
      </trkpt>
      <trkpt lat="43.15301" lon="2.76127">
        <ele>75.5</ele>
        <time>2018-05-19T11:31:48Z</time>
      </trkpt>
      <trkpt lat="43.15331" lon="2.76104">
        <ele>75.3</ele>
        <time>2018-05-19T11:31:53Z</time>
      </trkpt>
      <trkpt lat="43.15357" lon="2.76095">
        <ele>73.3</ele>
        <time>2018-05-19T11:31:58Z</time>
      </trkpt>
      <trkpt lat="43.15392" lon="2.76092">
        <ele>72.5</ele>
        <time>2018-05-19T11:32:02Z</time>
      </trkpt>
      <trkpt lat="43.15422" lon="2.76075">
        <ele>71.8</ele>
        <time>2018-05-19T11:32:08Z</time>
      </trkpt>
      <trkpt lat="43.15448" lon="2.76049">
        <ele>71.4</ele>
        <time>2018-05-19T11:32:13Z</time>
      </trkpt>
      <trkpt lat="43.15469" lon="2.76014">
        <ele>71.4</ele>
        <time>2018-05-19T11:32:18Z</time>
      </trkpt>
      <trkpt lat="43.15488" lon="2.75979">
        <ele>72.3</ele>
        <time>2018-05-19T11:32:22Z</time>
      </trkpt>
      <trkpt lat="43.15507" lon="2.75945">
        <ele>69.1</ele>
        <time>2018-05-19T11:32:28Z</time>
      </trkpt>
      <trkpt lat="43.15526" lon="2.75911">
        <ele>69.2</ele>
        <time>2018-05-19T11:32:33Z</time>
      </trkpt>
      <trkpt lat="43.15547" lon="2.75877">
        <ele>68.4</ele>
        <time>2018-05-19T11:32:38Z</time>
      </trkpt>
      <trkpt lat="43.15562" lon="2.75847">
        <ele>67.7</ele>
        <time>2018-05-19T11:32:43Z</time>
      </trkpt>
      <trkpt lat="43.15583" lon="2.75815">
        <ele>66.7</ele>
        <time>2018-05-19T11:32:47Z</time>
      </trkpt>
      <trkpt lat="43.156" lon="2.75784">
        <ele>65.3</ele>
        <time>2018-05-19T11:32:53Z</time>
      </trkpt>
      <trkpt lat="43.15621" lon="2.75751">
        <ele>64.9</ele>
        <time>2018-05-19T11:32:57Z</time>
      </trkpt>
      <trkpt lat="43.15638" lon="2.75722">
        <ele>64.3</ele>
        <time>2018-05-19T11:33:03Z</time>
      </trkpt>
      <trkpt lat="43.15638" lon="2.75684">
        <ele>64.4</ele>
        <time>2018-05-19T11:33:07Z</time>
      </trkpt>
      <trkpt lat="43.15626" lon="2.75654">
        <ele>63.8</ele>
        <time>2018-05-19T11:33:13Z</time>
      </trkpt>
      <trkpt lat="43.15616" lon="2.75624">
        <ele>63.6</ele>
        <time>2018-05-19T11:33:18Z</time>
      </trkpt>
      <trkpt lat="43.15602" lon="2.75595">
        <ele>63.6</ele>
        <time>2018-05-19T11:33:23Z</time>
      </trkpt>
      <trkpt lat="43.1559" lon="2.75569">
        <ele>63.2</ele>
        <time>2018-05-19T11:33:28Z</time>
      </trkpt>
      <trkpt lat="43.15576" lon="2.75541">
        <ele>63.7</ele>
        <time>2018-05-19T11:33:33Z</time>
      </trkpt>
      <trkpt lat="43.15564" lon="2.75511">
        <ele>63.4</ele>
        <time>2018-05-19T11:33:38Z</time>
      </trkpt>
      <trkpt lat="43.15552" lon="2.75481">
        <ele>62.6</ele>
        <time>2018-05-19T11:33:43Z</time>
      </trkpt>
      <trkpt lat="43.15541" lon="2.7545">
        <ele>62.4</ele>
        <time>2018-05-19T11:33:48Z</time>
      </trkpt>
      <trkpt lat="43.15531" lon="2.75419">
        <ele>62.3</ele>
        <time>2018-05-19T11:33:52Z</time>
      </trkpt>
      <trkpt lat="43.15523" lon="2.75389">
        <ele>62.1</ele>
        <time>2018-05-19T11:33:58Z</time>
      </trkpt>
      <trkpt lat="43.15512" lon="2.75368">
        <ele>62.2</ele>
        <time>2018-05-19T11:34:02Z</time>
      </trkpt>
      <trkpt lat="43.15495" lon="2.7534">
        <ele>63</ele>
        <time>2018-05-19T11:34:08Z</time>
      </trkpt>
      <trkpt lat="43.15483" lon="2.75313">
        <ele>62.6</ele>
        <time>2018-05-19T11:34:12Z</time>
      </trkpt>
      <trkpt lat="43.15475" lon="2.75283">
        <ele>62.3</ele>
        <time>2018-05-19T11:34:18Z</time>
      </trkpt>
      <trkpt lat="43.15466" lon="2.75257">
        <ele>62.2</ele>
        <time>2018-05-19T11:34:23Z</time>
      </trkpt>
      <trkpt lat="43.15458" lon="2.7523">
        <ele>62.2</ele>
        <time>2018-05-19T11:34:28Z</time>
      </trkpt>
      <trkpt lat="43.15452" lon="2.752">
        <ele>62.4</ele>
        <time>2018-05-19T11:34:33Z</time>
      </trkpt>
      <trkpt lat="43.15447" lon="2.7518">
        <ele>62.6</ele>
        <time>2018-05-19T11:34:37Z</time>
      </trkpt>
      <trkpt lat="43.1544" lon="2.7515">
        <ele>63.4</ele>
        <time>2018-05-19T11:34:43Z</time>
      </trkpt>
      <trkpt lat="43.15435" lon="2.75122">
        <ele>63.6</ele>
        <time>2018-05-19T11:34:47Z</time>
      </trkpt>
      <trkpt lat="43.15432" lon="2.75094">
        <ele>64.1</ele>
        <time>2018-05-19T11:34:53Z</time>
      </trkpt>
      <trkpt lat="43.15426" lon="2.75063">
        <ele>64</ele>
        <time>2018-05-19T11:34:57Z</time>
      </trkpt>
      <trkpt lat="43.15421" lon="2.75028">
        <ele>63.6</ele>
        <time>2018-05-19T11:35:03Z</time>
      </trkpt>
      <trkpt lat="43.15413" lon="2.74993">
        <ele>64</ele>
        <time>2018-05-19T11:35:08Z</time>
      </trkpt>
      <trkpt lat="43.15405" lon="2.74966">
        <ele>63.9</ele>
        <time>2018-05-19T11:35:13Z</time>
      </trkpt>
      <trkpt lat="43.15393" lon="2.7493">
        <ele>63.7</ele>
        <time>2018-05-19T11:35:18Z</time>
      </trkpt>
      <trkpt lat="43.15383" lon="2.74901">
        <ele>63.9</ele>
        <time>2018-05-19T11:35:23Z</time>
      </trkpt>
      <trkpt lat="43.15374" lon="2.74874">
        <ele>64</ele>
        <time>2018-05-19T11:35:28Z</time>
      </trkpt>
      <trkpt lat="43.15365" lon="2.74852">
        <ele>64.1</ele>
        <time>2018-05-19T11:35:33Z</time>
      </trkpt>
      <trkpt lat="43.15355" lon="2.74817">
        <ele>64.6</ele>
        <time>2018-05-19T11:35:38Z</time>
      </trkpt>
      <trkpt lat="43.15348" lon="2.74794">
        <ele>64.8</ele>
        <time>2018-05-19T11:35:43Z</time>
      </trkpt>
      <trkpt lat="43.15337" lon="2.7477">
        <ele>65.2</ele>
        <time>2018-05-19T11:35:48Z</time>
      </trkpt>
      <trkpt lat="43.15322" lon="2.7474">
        <ele>65.9</ele>
        <time>2018-05-19T11:35:53Z</time>
      </trkpt>
      <trkpt lat="43.15312" lon="2.74715">
        <ele>65.7</ele>
        <time>2018-05-19T11:35:58Z</time>
      </trkpt>
      <trkpt lat="43.15304" lon="2.74694">
        <ele>65.6</ele>
        <time>2018-05-19T11:36:03Z</time>
      </trkpt>
      <trkpt lat="43.15296" lon="2.74667">
        <ele>65.5</ele>
        <time>2018-05-19T11:36:08Z</time>
      </trkpt>
      <trkpt lat="43.15287" lon="2.74636">
        <ele>65</ele>
        <time>2018-05-19T11:36:13Z</time>
      </trkpt>
      <trkpt lat="43.15283" lon="2.74613">
        <ele>65.1</ele>
        <time>2018-05-19T11:36:18Z</time>
      </trkpt>
      <trkpt lat="43.15278" lon="2.74579">
        <ele>65.4</ele>
        <time>2018-05-19T11:36:23Z</time>
      </trkpt>
      <trkpt lat="43.15273" lon="2.74553">
        <ele>65.4</ele>
        <time>2018-05-19T11:36:27Z</time>
      </trkpt>
      <trkpt lat="43.15262" lon="2.74523">
        <ele>65.6</ele>
        <time>2018-05-19T11:36:33Z</time>
      </trkpt>
      <trkpt lat="43.1525" lon="2.74496">
        <ele>66.2</ele>
        <time>2018-05-19T11:36:37Z</time>
      </trkpt>
      <trkpt lat="43.15243" lon="2.74476">
        <ele>66.6</ele>
        <time>2018-05-19T11:36:43Z</time>
      </trkpt>
      <trkpt lat="43.1523" lon="2.74448">
        <ele>66.7</ele>
        <time>2018-05-19T11:36:48Z</time>
      </trkpt>
      <trkpt lat="43.15221" lon="2.74427">
        <ele>66.7</ele>
        <time>2018-05-19T11:36:53Z</time>
      </trkpt>
      <trkpt lat="43.15211" lon="2.74401">
        <ele>66.9</ele>
        <time>2018-05-19T11:36:58Z</time>
      </trkpt>
      <trkpt lat="43.15198" lon="2.74368">
        <ele>67.2</ele>
        <time>2018-05-19T11:37:02Z</time>
      </trkpt>
      <trkpt lat="43.15186" lon="2.74337">
        <ele>67.4</ele>
        <time>2018-05-19T11:37:08Z</time>
      </trkpt>
      <trkpt lat="43.15177" lon="2.74314">
        <ele>67.6</ele>
        <time>2018-05-19T11:37:12Z</time>
      </trkpt>
      <trkpt lat="43.15165" lon="2.74287">
        <ele>68.3</ele>
        <time>2018-05-19T11:37:18Z</time>
      </trkpt>
      <trkpt lat="43.15158" lon="2.7427">
        <ele>68.3</ele>
        <time>2018-05-19T11:37:22Z</time>
      </trkpt>
      <trkpt lat="43.15151" lon="2.74243">
        <ele>68.2</ele>
        <time>2018-05-19T11:37:28Z</time>
      </trkpt>
      <trkpt lat="43.15145" lon="2.74225">
        <ele>68.2</ele>
        <time>2018-05-19T11:37:32Z</time>
      </trkpt>
      <trkpt lat="43.15136" lon="2.74202">
        <ele>68.2</ele>
        <time>2018-05-19T11:37:38Z</time>
      </trkpt>
      <trkpt lat="43.1513" lon="2.74187">
        <ele>68.2</ele>
        <time>2018-05-19T11:37:43Z</time>
      </trkpt>
      <trkpt lat="43.15122" lon="2.74167">
        <ele>67.8</ele>
        <time>2018-05-19T11:37:48Z</time>
      </trkpt>
      <trkpt lat="43.15116" lon="2.74151">
        <ele>67.8</ele>
        <time>2018-05-19T11:37:53Z</time>
      </trkpt>
      <trkpt lat="43.15107" lon="2.74126">
        <ele>67.8</ele>
        <time>2018-05-19T11:37:57Z</time>
      </trkpt>
      <trkpt lat="43.151" lon="2.74109">
        <ele>67.8</ele>
        <time>2018-05-19T11:38:03Z</time>
      </trkpt>
      <trkpt lat="43.1509" lon="2.74083">
        <ele>67.9</ele>
        <time>2018-05-19T11:38:07Z</time>
      </trkpt>
      <trkpt lat="43.15083" lon="2.74065">
        <ele>68.6</ele>
        <time>2018-05-19T11:38:13Z</time>
      </trkpt>
      <trkpt lat="43.15071" lon="2.74038">
        <ele>68.9</ele>
        <time>2018-05-19T11:38:18Z</time>
      </trkpt>
      <trkpt lat="43.15064" lon="2.7402">
        <ele>68.8</ele>
        <time>2018-05-19T11:38:23Z</time>
      </trkpt>
      <trkpt lat="43.15053" lon="2.73995">
        <ele>68.5</ele>
        <time>2018-05-19T11:38:28Z</time>
      </trkpt>
      <trkpt lat="43.15044" lon="2.73977">
        <ele>68.6</ele>
        <time>2018-05-19T11:38:33Z</time>
      </trkpt>
      <trkpt lat="43.15039" lon="2.73948">
        <ele>68.5</ele>
        <time>2018-05-19T11:38:38Z</time>
      </trkpt>
      <trkpt lat="43.15037" lon="2.73929">
        <ele>68.4</ele>
        <time>2018-05-19T11:38:43Z</time>
      </trkpt>
      <trkpt lat="43.15035" lon="2.739">
        <ele>68.1</ele>
        <time>2018-05-19T11:38:48Z</time>
      </trkpt>
      <trkpt lat="43.15034" lon="2.73884">
        <ele>68.1</ele>
        <time>2018-05-19T11:38:52Z</time>
      </trkpt>
      <trkpt lat="43.15032" lon="2.73859">
        <ele>68.1</ele>
        <time>2018-05-19T11:38:58Z</time>
      </trkpt>
      <trkpt lat="43.15032" lon="2.73841">
        <ele>68.2</ele>
        <time>2018-05-19T11:39:02Z</time>
      </trkpt>
      <trkpt lat="43.15022" lon="2.73816">
        <ele>67.9</ele>
        <time>2018-05-19T11:39:08Z</time>
      </trkpt>
      <trkpt lat="43.15016" lon="2.738">
        <ele>67.8</ele>
        <time>2018-05-19T11:39:12Z</time>
      </trkpt>
      <trkpt lat="43.15007" lon="2.73773">
        <ele>67.4</ele>
        <time>2018-05-19T11:39:18Z</time>
      </trkpt>
      <trkpt lat="43.15001" lon="2.73755">
        <ele>67.1</ele>
        <time>2018-05-19T11:39:23Z</time>
      </trkpt>
      <trkpt lat="43.14991" lon="2.73725">
        <ele>67.9</ele>
        <time>2018-05-19T11:39:28Z</time>
      </trkpt>
      <trkpt lat="43.14984" lon="2.73706">
        <ele>68.2</ele>
        <time>2018-05-19T11:39:33Z</time>
      </trkpt>
      <trkpt lat="43.14973" lon="2.73677">
        <ele>68.4</ele>
        <time>2018-05-19T11:39:37Z</time>
      </trkpt>
      <trkpt lat="43.14967" lon="2.73657">
        <ele>68.9</ele>
        <time>2018-05-19T11:39:43Z</time>
      </trkpt>
      <trkpt lat="43.14957" lon="2.73631">
        <ele>69</ele>
        <time>2018-05-19T11:39:48Z</time>
      </trkpt>
      <trkpt lat="43.14951" lon="2.73615">
        <ele>69.1</ele>
        <time>2018-05-19T11:39:53Z</time>
      </trkpt>
      <trkpt lat="43.14942" lon="2.73588">
        <ele>69.3</ele>
        <time>2018-05-19T11:39:58Z</time>
      </trkpt>
      <trkpt lat="43.14936" lon="2.73569">
        <ele>69.4</ele>
        <time>2018-05-19T11:40:03Z</time>
      </trkpt>
      <trkpt lat="43.14928" lon="2.73541">
        <ele>69.3</ele>
        <time>2018-05-19T11:40:08Z</time>
      </trkpt>
      <trkpt lat="43.14923" lon="2.73523">
        <ele>69.4</ele>
        <time>2018-05-19T11:40:13Z</time>
      </trkpt>
      <trkpt lat="43.14916" lon="2.735">
        <ele>70</ele>
        <time>2018-05-19T11:40:18Z</time>
      </trkpt>
      <trkpt lat="43.14911" lon="2.73483">
        <ele>71.4</ele>
        <time>2018-05-19T11:40:23Z</time>
      </trkpt>
      <trkpt lat="43.14902" lon="2.7346">
        <ele>72.2</ele>
        <time>2018-05-19T11:40:28Z</time>
      </trkpt>
      <trkpt lat="43.14898" lon="2.73447">
        <ele>72.4</ele>
        <time>2018-05-19T11:40:32Z</time>
      </trkpt>
      <trkpt lat="43.1489" lon="2.73431">
        <ele>72.6</ele>
        <time>2018-05-19T11:40:38Z</time>
      </trkpt>
      <trkpt lat="43.14887" lon="2.73418">
        <ele>72.7</ele>
        <time>2018-05-19T11:40:42Z</time>
      </trkpt>
      <trkpt lat="43.14884" lon="2.73398">
        <ele>72.7</ele>
        <time>2018-05-19T11:40:48Z</time>
      </trkpt>
      <trkpt lat="43.14882" lon="2.73385">
        <ele>72.7</ele>
        <time>2018-05-19T11:40:52Z</time>
      </trkpt>
      <trkpt lat="43.14879" lon="2.73365">
        <ele>72.6</ele>
        <time>2018-05-19T11:40:58Z</time>
      </trkpt>
      <trkpt lat="43.14876" lon="2.73351">
        <ele>72.5</ele>
        <time>2018-05-19T11:41:03Z</time>
      </trkpt>
      <trkpt lat="43.14872" lon="2.73327">
        <ele>72.3</ele>
        <time>2018-05-19T11:41:08Z</time>
      </trkpt>
      <trkpt lat="43.14868" lon="2.73306">
        <ele>72.4</ele>
        <time>2018-05-19T11:41:13Z</time>
      </trkpt>
      <trkpt lat="43.1486" lon="2.73276">
        <ele>72.6</ele>
        <time>2018-05-19T11:41:18Z</time>
      </trkpt>
      <trkpt lat="43.14856" lon="2.73256">
        <ele>72.9</ele>
        <time>2018-05-19T11:41:23Z</time>
      </trkpt>
      <trkpt lat="43.14846" lon="2.73227">
        <ele>73.1</ele>
        <time>2018-05-19T11:41:28Z</time>
      </trkpt>
      <trkpt lat="43.1484" lon="2.73206">
        <ele>73</ele>
        <time>2018-05-19T11:41:33Z</time>
      </trkpt>
      <trkpt lat="43.14834" lon="2.73178">
        <ele>73</ele>
        <time>2018-05-19T11:41:37Z</time>
      </trkpt>
      <trkpt lat="43.14829" lon="2.7316">
        <ele>72.9</ele>
        <time>2018-05-19T11:41:43Z</time>
      </trkpt>
      <trkpt lat="43.14824" lon="2.73136">
        <ele>72.5</ele>
        <time>2018-05-19T11:41:48Z</time>
      </trkpt>
      <trkpt lat="43.14815" lon="2.73111">
        <ele>71.9</ele>
        <time>2018-05-19T11:41:53Z</time>
      </trkpt>
      <trkpt lat="43.14808" lon="2.73093">
        <ele>71.6</ele>
        <time>2018-05-19T11:41:58Z</time>
      </trkpt>
      <trkpt lat="43.14798" lon="2.73064">
        <ele>70.9</ele>
        <time>2018-05-19T11:42:02Z</time>
      </trkpt>
      <trkpt lat="43.14789" lon="2.73037">
        <ele>71.1</ele>
        <time>2018-05-19T11:42:08Z</time>
      </trkpt>
      <trkpt lat="43.14785" lon="2.73015">
        <ele>71.2</ele>
        <time>2018-05-19T11:42:12Z</time>
      </trkpt>
      <trkpt lat="43.1478" lon="2.72986">
        <ele>70.8</ele>
        <time>2018-05-19T11:42:18Z</time>
      </trkpt>
      <trkpt lat="43.14776" lon="2.7295">
        <ele>70.5</ele>
        <time>2018-05-19T11:42:22Z</time>
      </trkpt>
      <trkpt lat="43.14773" lon="2.72926">
        <ele>70.6</ele>
        <time>2018-05-19T11:42:28Z</time>
      </trkpt>
      <trkpt lat="43.14769" lon="2.72896">
        <ele>71</ele>
        <time>2018-05-19T11:42:32Z</time>
      </trkpt>
      <trkpt lat="43.14772" lon="2.72859">
        <ele>71.2</ele>
        <time>2018-05-19T11:42:38Z</time>
      </trkpt>
      <trkpt lat="43.14772" lon="2.72837">
        <ele>71.5</ele>
        <time>2018-05-19T11:42:43Z</time>
      </trkpt>
      <trkpt lat="43.14771" lon="2.72805">
        <ele>71.3</ele>
        <time>2018-05-19T11:42:48Z</time>
      </trkpt>
      <trkpt lat="43.14769" lon="2.72784">
        <ele>71.1</ele>
        <time>2018-05-19T11:42:53Z</time>
      </trkpt>
      <trkpt lat="43.14767" lon="2.72757">
        <ele>71.3</ele>
        <time>2018-05-19T11:42:57Z</time>
      </trkpt>
      <trkpt lat="43.14768" lon="2.72741">
        <ele>70.5</ele>
        <time>2018-05-19T11:43:03Z</time>
      </trkpt>
      <trkpt lat="43.14768" lon="2.72727">
        <ele>70.1</ele>
        <time>2018-05-19T11:43:07Z</time>
      </trkpt>
      <trkpt lat="43.14771" lon="2.72722">
        <ele>69.9</ele>
        <time>2018-05-19T11:43:13Z</time>
      </trkpt>
      <trkpt lat="43.14775" lon="2.727">
        <ele>69.5</ele>
        <time>2018-05-19T11:43:18Z</time>
      </trkpt>
      <trkpt lat="43.14781" lon="2.72687">
        <ele>69.3</ele>
        <time>2018-05-19T11:43:23Z</time>
      </trkpt>
      <trkpt lat="43.14797" lon="2.72664">
        <ele>67.4</ele>
        <time>2018-05-19T11:43:28Z</time>
      </trkpt>
      <trkpt lat="43.14808" lon="2.72653">
        <ele>67.1</ele>
        <time>2018-05-19T11:43:33Z</time>
      </trkpt>
      <trkpt lat="43.14825" lon="2.72637">
        <ele>66.6</ele>
        <time>2018-05-19T11:43:38Z</time>
      </trkpt>
      <trkpt lat="43.14823" lon="2.72616">
        <ele>66</ele>
        <time>2018-05-19T11:43:42Z</time>
      </trkpt>
      <trkpt lat="43.14809" lon="2.72587">
        <ele>65.6</ele>
        <time>2018-05-19T11:43:48Z</time>
      </trkpt>
      <trkpt lat="43.14796" lon="2.72565">
        <ele>63.7</ele>
        <time>2018-05-19T11:43:52Z</time>
      </trkpt>
      <trkpt lat="43.14792" lon="2.7256">
        <ele>63.7</ele>
        <time>2018-05-19T11:43:58Z</time>
      </trkpt>
      <trkpt lat="43.14792" lon="2.7256">
        <ele>63.7</ele>
        <time>2018-05-19T11:44:03Z</time>
      </trkpt>
      <trkpt lat="43.14784" lon="2.72566">
        <ele>64.2</ele>
        <time>2018-05-19T11:44:08Z</time>
      </trkpt>
      <trkpt lat="43.14778" lon="2.7258">
        <ele>64.8</ele>
        <time>2018-05-19T11:44:12Z</time>
      </trkpt>
      <trkpt lat="43.14773" lon="2.72592">
        <ele>67.2</ele>
        <time>2018-05-19T11:44:18Z</time>
      </trkpt>
      <trkpt lat="43.14768" lon="2.72594">
        <ele>67.3</ele>
        <time>2018-05-19T11:44:23Z</time>
      </trkpt>
      <trkpt lat="43.14758" lon="2.72596">
        <ele>67.5</ele>
        <time>2018-05-19T11:44:28Z</time>
      </trkpt>
      <trkpt lat="43.14746" lon="2.72594">
        <ele>68.3</ele>
        <time>2018-05-19T11:44:33Z</time>
      </trkpt>
      <trkpt lat="43.14732" lon="2.72592">
        <ele>68.4</ele>
        <time>2018-05-19T11:44:37Z</time>
      </trkpt>
      <trkpt lat="43.14729" lon="2.726">
        <ele>68.4</ele>
        <time>2018-05-19T11:44:43Z</time>
      </trkpt>
      <trkpt lat="43.14728" lon="2.72613">
        <ele>68.6</ele>
        <time>2018-05-19T11:44:47Z</time>
      </trkpt>
      <trkpt lat="43.14727" lon="2.7262">
        <ele>68.7</ele>
        <time>2018-05-19T11:44:53Z</time>
      </trkpt>
      <trkpt lat="43.14695" lon="2.72634">
        <ele>68.9</ele>
        <time>2018-05-19T11:58:53Z</time>
      </trkpt>
      <trkpt lat="43.14695" lon="2.72634">
        <ele>68.9</ele>
        <time>2018-05-19T11:58:58Z</time>
      </trkpt>
      <trkpt lat="43.14695" lon="2.72634">
        <ele>68.9</ele>
        <time>2018-05-19T11:59:03Z</time>
      </trkpt>
      <trkpt lat="43.14695" lon="2.72634">
        <ele>68.9</ele>
        <time>2018-05-19T11:59:07Z</time>
      </trkpt>
      <trkpt lat="43.14695" lon="2.72634">
        <ele>68.9</ele>
        <time>2018-05-19T11:59:13Z</time>
      </trkpt>
      <trkpt lat="43.14692" lon="2.7264">
        <ele>69</ele>
        <time>2018-05-19T11:59:17Z</time>
      </trkpt>
      <trkpt lat="43.14692" lon="2.7264">
        <ele>69</ele>
        <time>2018-05-19T11:59:23Z</time>
      </trkpt>
      <trkpt lat="43.14687" lon="2.72625">
        <ele>68.7</ele>
        <time>2018-05-19T11:59:27Z</time>
      </trkpt>
      <trkpt lat="43.1468" lon="2.72608">
        <ele>68.2</ele>
        <time>2018-05-19T11:59:33Z</time>
      </trkpt>
      <trkpt lat="43.14677" lon="2.72588">
        <ele>67.7</ele>
        <time>2018-05-19T11:59:37Z</time>
      </trkpt>
      <trkpt lat="43.14675" lon="2.72561">
        <ele>65.6</ele>
        <time>2018-05-19T11:59:43Z</time>
      </trkpt>
      <trkpt lat="43.14675" lon="2.72546">
        <ele>64.9</ele>
        <time>2018-05-19T11:59:48Z</time>
      </trkpt>
      <trkpt lat="43.14658" lon="2.72531">
        <ele>63.6</ele>
        <time>2018-05-19T11:59:53Z</time>
      </trkpt>
      <trkpt lat="43.14638" lon="2.72524">
        <ele>63.6</ele>
        <time>2018-05-19T11:59:58Z</time>
      </trkpt>
      <trkpt lat="43.14617" lon="2.72508">
        <ele>63.6</ele>
        <time>2018-05-19T12:00:02Z</time>
      </trkpt>
      <trkpt lat="43.14608" lon="2.72483">
        <ele>63</ele>
        <time>2018-05-19T12:00:08Z</time>
      </trkpt>
      <trkpt lat="43.14609" lon="2.72453">
        <ele>63.4</ele>
        <time>2018-05-19T12:00:12Z</time>
      </trkpt>
      <trkpt lat="43.14615" lon="2.72428">
        <ele>63.7</ele>
        <time>2018-05-19T12:00:18Z</time>
      </trkpt>
      <trkpt lat="43.14618" lon="2.72414">
        <ele>64.9</ele>
        <time>2018-05-19T12:00:22Z</time>
      </trkpt>
      <trkpt lat="43.1462" lon="2.72394">
        <ele>64.9</ele>
        <time>2018-05-19T12:00:28Z</time>
      </trkpt>
      <trkpt lat="43.14616" lon="2.72381">
        <ele>65.1</ele>
        <time>2018-05-19T12:00:33Z</time>
      </trkpt>
      <trkpt lat="43.14614" lon="2.72368">
        <ele>65.3</ele>
        <time>2018-05-19T12:00:38Z</time>
      </trkpt>
      <trkpt lat="43.14612" lon="2.72349">
        <ele>65.7</ele>
        <time>2018-05-19T12:00:43Z</time>
      </trkpt>
      <trkpt lat="43.1461" lon="2.72334">
        <ele>66</ele>
        <time>2018-05-19T12:00:48Z</time>
      </trkpt>
      <trkpt lat="43.14608" lon="2.72311">
        <ele>66.2</ele>
        <time>2018-05-19T12:00:53Z</time>
      </trkpt>
      <trkpt lat="43.14608" lon="2.72295">
        <ele>66</ele>
        <time>2018-05-19T12:00:58Z</time>
      </trkpt>
      <trkpt lat="43.14607" lon="2.72267">
        <ele>66.2</ele>
        <time>2018-05-19T12:01:03Z</time>
      </trkpt>
      <trkpt lat="43.14606" lon="2.72249">
        <ele>65.4</ele>
        <time>2018-05-19T12:01:07Z</time>
      </trkpt>
      <trkpt lat="43.14603" lon="2.72222">
        <ele>64.9</ele>
        <time>2018-05-19T12:01:13Z</time>
      </trkpt>
      <trkpt lat="43.14601" lon="2.72201">
        <ele>64.5</ele>
        <time>2018-05-19T12:01:17Z</time>
      </trkpt>
      <trkpt lat="43.14601" lon="2.72167">
        <ele>64.7</ele>
        <time>2018-05-19T12:01:23Z</time>
      </trkpt>
      <trkpt lat="43.14599" lon="2.72146">
        <ele>63.3</ele>
        <time>2018-05-19T12:01:28Z</time>
      </trkpt>
      <trkpt lat="43.14595" lon="2.72114">
        <ele>62.7</ele>
        <time>2018-05-19T12:01:33Z</time>
      </trkpt>
      <trkpt lat="43.14589" lon="2.72093">
        <ele>63.3</ele>
        <time>2018-05-19T12:01:38Z</time>
      </trkpt>
      <trkpt lat="43.14582" lon="2.72063">
        <ele>64.6</ele>
        <time>2018-05-19T12:01:42Z</time>
      </trkpt>
      <trkpt lat="43.14576" lon="2.72043">
        <ele>64.5</ele>
        <time>2018-05-19T12:01:48Z</time>
      </trkpt>
      <trkpt lat="43.14565" lon="2.72015">
        <ele>63.9</ele>
        <time>2018-05-19T12:01:53Z</time>
      </trkpt>
      <trkpt lat="43.14557" lon="2.71998">
        <ele>62.2</ele>
        <time>2018-05-19T12:01:58Z</time>
      </trkpt>
      <trkpt lat="43.14542" lon="2.71974">
        <ele>62.6</ele>
        <time>2018-05-19T12:02:03Z</time>
      </trkpt>
      <trkpt lat="43.14531" lon="2.71959">
        <ele>62.7</ele>
        <time>2018-05-19T12:02:08Z</time>
      </trkpt>
      <trkpt lat="43.14513" lon="2.71938">
        <ele>63</ele>
        <time>2018-05-19T12:02:12Z</time>
      </trkpt>
      <trkpt lat="43.14495" lon="2.71922">
        <ele>65.6</ele>
        <time>2018-05-19T12:02:18Z</time>
      </trkpt>
      <trkpt lat="43.14479" lon="2.71912">
        <ele>64.3</ele>
        <time>2018-05-19T12:02:23Z</time>
      </trkpt>
      <trkpt lat="43.14458" lon="2.71894">
        <ele>64.7</ele>
        <time>2018-05-19T12:02:28Z</time>
      </trkpt>
      <trkpt lat="43.14445" lon="2.71881">
        <ele>64.6</ele>
        <time>2018-05-19T12:02:33Z</time>
      </trkpt>
      <trkpt lat="43.1443" lon="2.71865">
        <ele>64</ele>
        <time>2018-05-19T12:02:37Z</time>
      </trkpt>
      <trkpt lat="43.14419" lon="2.7186">
        <ele>63.8</ele>
        <time>2018-05-19T12:02:43Z</time>
      </trkpt>
      <trkpt lat="43.144" lon="2.71857">
        <ele>66.6</ele>
        <time>2018-05-19T12:02:47Z</time>
      </trkpt>
      <trkpt lat="43.14385" lon="2.71852">
        <ele>67.1</ele>
        <time>2018-05-19T12:02:53Z</time>
      </trkpt>
      <trkpt lat="43.14364" lon="2.71845">
        <ele>67.5</ele>
        <time>2018-05-19T12:02:58Z</time>
      </trkpt>
      <trkpt lat="43.14349" lon="2.71837">
        <ele>67.2</ele>
        <time>2018-05-19T12:03:03Z</time>
      </trkpt>
      <trkpt lat="43.14331" lon="2.71824">
        <ele>66</ele>
        <time>2018-05-19T12:03:07Z</time>
      </trkpt>
      <trkpt lat="43.14319" lon="2.71814">
        <ele>66</ele>
        <time>2018-05-19T12:03:13Z</time>
      </trkpt>
      <trkpt lat="43.14304" lon="2.71795">
        <ele>65.7</ele>
        <time>2018-05-19T12:03:18Z</time>
      </trkpt>
      <trkpt lat="43.14289" lon="2.7177">
        <ele>65</ele>
        <time>2018-05-19T12:03:23Z</time>
      </trkpt>
      <trkpt lat="43.1427" lon="2.71748">
        <ele>60.7</ele>
        <time>2018-05-19T12:03:28Z</time>
      </trkpt>
      <trkpt lat="43.1426" lon="2.71735">
        <ele>60.7</ele>
        <time>2018-05-19T12:03:32Z</time>
      </trkpt>
      <trkpt lat="43.1424" lon="2.71717">
        <ele>62.1</ele>
        <time>2018-05-19T12:03:38Z</time>
      </trkpt>
      <trkpt lat="43.14225" lon="2.71708">
        <ele>62</ele>
        <time>2018-05-19T12:03:43Z</time>
      </trkpt>
      <trkpt lat="43.14204" lon="2.717">
        <ele>62.2</ele>
        <time>2018-05-19T12:03:48Z</time>
      </trkpt>
      <trkpt lat="43.14191" lon="2.71702">
        <ele>62.6</ele>
        <time>2018-05-19T12:03:52Z</time>
      </trkpt>
      <trkpt lat="43.14173" lon="2.71707">
        <ele>63.3</ele>
        <time>2018-05-19T12:03:58Z</time>
      </trkpt>
      <trkpt lat="43.14161" lon="2.71711">
        <ele>67</ele>
        <time>2018-05-19T12:04:02Z</time>
      </trkpt>
      <trkpt lat="43.14144" lon="2.7171">
        <ele>67.2</ele>
        <time>2018-05-19T12:04:08Z</time>
      </trkpt>
      <trkpt lat="43.14133" lon="2.71707">
        <ele>67.4</ele>
        <time>2018-05-19T12:04:13Z</time>
      </trkpt>
      <trkpt lat="43.1412" lon="2.71691">
        <ele>67.1</ele>
        <time>2018-05-19T12:04:18Z</time>
      </trkpt>
      <trkpt lat="43.14111" lon="2.71681">
        <ele>67.1</ele>
        <time>2018-05-19T12:04:23Z</time>
      </trkpt>
      <trkpt lat="43.14111" lon="2.71681">
        <ele>67.1</ele>
        <time>2018-05-19T12:04:28Z</time>
      </trkpt>
      <trkpt lat="43.14111" lon="2.71681">
        <ele>67.1</ele>
        <time>2018-05-19T12:04:33Z</time>
      </trkpt>
      <trkpt lat="43.14111" lon="2.71681">
        <ele>67.1</ele>
        <time>2018-05-19T12:04:37Z</time>
      </trkpt>
      <trkpt lat="43.14116" lon="2.71684">
        <ele>67</ele>
        <time>2018-05-19T12:07:12Z</time>
      </trkpt>
      <trkpt lat="43.14106" lon="2.71675">
        <ele>67.1</ele>
        <time>2018-05-19T12:09:18Z</time>
      </trkpt>
      <trkpt lat="43.14089" lon="2.7166">
        <ele>64.9</ele>
        <time>2018-05-19T12:09:23Z</time>
      </trkpt>
      <trkpt lat="43.14076" lon="2.71649">
        <ele>66.3</ele>
        <time>2018-05-19T12:09:28Z</time>
      </trkpt>
      <trkpt lat="43.1407" lon="2.71643">
        <ele>66.1</ele>
        <time>2018-05-19T12:09:33Z</time>
      </trkpt>
      <trkpt lat="43.1407" lon="2.71643">
        <ele>66.1</ele>
        <time>2018-05-19T12:09:37Z</time>
      </trkpt>
      <trkpt lat="43.1407" lon="2.71643">
        <ele>66.1</ele>
        <time>2018-05-19T12:09:43Z</time>
      </trkpt>
      <trkpt lat="43.14067" lon="2.71639">
        <ele>65.9</ele>
        <time>2018-05-19T12:10:13Z</time>
      </trkpt>
      <trkpt lat="43.14062" lon="2.71638">
        <ele>66</ele>
        <time>2018-05-19T12:10:18Z</time>
      </trkpt>
      <trkpt lat="43.14052" lon="2.71629">
        <ele>65.8</ele>
        <time>2018-05-19T12:10:22Z</time>
      </trkpt>
      <trkpt lat="43.14031" lon="2.71614">
        <ele>65.7</ele>
        <time>2018-05-19T12:10:28Z</time>
      </trkpt>
      <trkpt lat="43.14019" lon="2.71603">
        <ele>65.4</ele>
        <time>2018-05-19T12:10:32Z</time>
      </trkpt>
      <trkpt lat="43.13999" lon="2.71588">
        <ele>65.4</ele>
        <time>2018-05-19T12:10:38Z</time>
      </trkpt>
      <trkpt lat="43.13986" lon="2.71578">
        <ele>64.2</ele>
        <time>2018-05-19T12:10:42Z</time>
      </trkpt>
      <trkpt lat="43.13969" lon="2.71565">
        <ele>64.6</ele>
        <time>2018-05-19T12:10:48Z</time>
      </trkpt>
      <trkpt lat="43.1395" lon="2.71556">
        <ele>65.2</ele>
        <time>2018-05-19T12:10:53Z</time>
      </trkpt>
      <trkpt lat="43.13933" lon="2.71541">
        <ele>65.1</ele>
        <time>2018-05-19T12:10:58Z</time>
      </trkpt>
      <trkpt lat="43.13913" lon="2.71526">
        <ele>68.2</ele>
        <time>2018-05-19T12:11:03Z</time>
      </trkpt>
      <trkpt lat="43.139" lon="2.7152">
        <ele>68.2</ele>
        <time>2018-05-19T12:11:08Z</time>
      </trkpt>
      <trkpt lat="43.13885" lon="2.71506">
        <ele>68.4</ele>
        <time>2018-05-19T12:11:13Z</time>
      </trkpt>
      <trkpt lat="43.13875" lon="2.71496">
        <ele>64.6</ele>
        <time>2018-05-19T12:11:17Z</time>
      </trkpt>
      <trkpt lat="43.13855" lon="2.71482">
        <ele>65.1</ele>
        <time>2018-05-19T12:11:23Z</time>
      </trkpt>
      <trkpt lat="43.13836" lon="2.71471">
        <ele>65.1</ele>
        <time>2018-05-19T12:11:27Z</time>
      </trkpt>
      <trkpt lat="43.13822" lon="2.71466">
        <ele>66.9</ele>
        <time>2018-05-19T12:11:33Z</time>
      </trkpt>
      <trkpt lat="43.13802" lon="2.71461">
        <ele>66.9</ele>
        <time>2018-05-19T12:11:38Z</time>
      </trkpt>
      <trkpt lat="43.1379" lon="2.71461">
        <ele>67.1</ele>
        <time>2018-05-19T12:11:43Z</time>
      </trkpt>
      <trkpt lat="43.13768" lon="2.71464">
        <ele>67.7</ele>
        <time>2018-05-19T12:11:48Z</time>
      </trkpt>
      <trkpt lat="43.13753" lon="2.71457">
        <ele>67.5</ele>
        <time>2018-05-19T12:11:52Z</time>
      </trkpt>
      <trkpt lat="43.1373" lon="2.71443">
        <ele>68.8</ele>
        <time>2018-05-19T12:11:58Z</time>
      </trkpt>
      <trkpt lat="43.13718" lon="2.71434">
        <ele>68.9</ele>
        <time>2018-05-19T12:12:02Z</time>
      </trkpt>
      <trkpt lat="43.137" lon="2.71422">
        <ele>69.2</ele>
        <time>2018-05-19T12:12:08Z</time>
      </trkpt>
      <trkpt lat="43.13688" lon="2.71415">
        <ele>66.8</ele>
        <time>2018-05-19T12:12:12Z</time>
      </trkpt>
      <trkpt lat="43.13671" lon="2.71402">
        <ele>67.2</ele>
        <time>2018-05-19T12:12:18Z</time>
      </trkpt>
      <trkpt lat="43.13659" lon="2.71392">
        <ele>68.3</ele>
        <time>2018-05-19T12:12:22Z</time>
      </trkpt>
      <trkpt lat="43.13642" lon="2.71365">
        <ele>67.7</ele>
        <time>2018-05-19T12:12:28Z</time>
      </trkpt>
      <trkpt lat="43.13628" lon="2.71351">
        <ele>67.7</ele>
        <time>2018-05-19T12:12:33Z</time>
      </trkpt>
      <trkpt lat="43.13612" lon="2.71333">
        <ele>66.3</ele>
        <time>2018-05-19T12:12:38Z</time>
      </trkpt>
      <trkpt lat="43.13601" lon="2.7132">
        <ele>66.5</ele>
        <time>2018-05-19T12:12:43Z</time>
      </trkpt>
      <trkpt lat="43.13588" lon="2.71293">
        <ele>66.1</ele>
        <time>2018-05-19T12:12:47Z</time>
      </trkpt>
      <trkpt lat="43.1358" lon="2.71272">
        <ele>66.9</ele>
        <time>2018-05-19T12:12:53Z</time>
      </trkpt>
      <trkpt lat="43.13577" lon="2.71245">
        <ele>65.8</ele>
        <time>2018-05-19T12:12:58Z</time>
      </trkpt>
      <trkpt lat="43.13573" lon="2.71233">
        <ele>65.5</ele>
        <time>2018-05-19T12:13:03Z</time>
      </trkpt>
      <trkpt lat="43.13564" lon="2.71214">
        <ele>65.2</ele>
        <time>2018-05-19T12:13:07Z</time>
      </trkpt>
      <trkpt lat="43.13557" lon="2.712">
        <ele>65</ele>
        <time>2018-05-19T12:13:13Z</time>
      </trkpt>
      <trkpt lat="43.13547" lon="2.71178">
        <ele>64.8</ele>
        <time>2018-05-19T12:13:18Z</time>
      </trkpt>
      <trkpt lat="43.13543" lon="2.71164">
        <ele>63.4</ele>
        <time>2018-05-19T12:13:23Z</time>
      </trkpt>
      <trkpt lat="43.13535" lon="2.7115">
        <ele>63.4</ele>
        <time>2018-05-19T12:13:28Z</time>
      </trkpt>
      <trkpt lat="43.13521" lon="2.71128">
        <ele>63.3</ele>
        <time>2018-05-19T12:13:32Z</time>
      </trkpt>
      <trkpt lat="43.13511" lon="2.71118">
        <ele>63.2</ele>
        <time>2018-05-19T12:13:38Z</time>
      </trkpt>
      <trkpt lat="43.13492" lon="2.71113">
        <ele>64.9</ele>
        <time>2018-05-19T12:13:42Z</time>
      </trkpt>
      <trkpt lat="43.13479" lon="2.71105">
        <ele>64.9</ele>
        <time>2018-05-19T12:13:48Z</time>
      </trkpt>
      <trkpt lat="43.13465" lon="2.71093">
        <ele>65.1</ele>
        <time>2018-05-19T12:13:52Z</time>
      </trkpt>
      <trkpt lat="43.13461" lon="2.71077">
        <ele>63.8</ele>
        <time>2018-05-19T12:13:58Z</time>
      </trkpt>
      <trkpt lat="43.13453" lon="2.71066">
        <ele>63.9</ele>
        <time>2018-05-19T12:14:03Z</time>
      </trkpt>
      <trkpt lat="43.13436" lon="2.71057">
        <ele>64.2</ele>
        <time>2018-05-19T12:14:08Z</time>
      </trkpt>
      <trkpt lat="43.13424" lon="2.7105">
        <ele>64.2</ele>
        <time>2018-05-19T12:14:13Z</time>
      </trkpt>
      <trkpt lat="43.13407" lon="2.71043">
        <ele>66</ele>
        <time>2018-05-19T12:14:18Z</time>
      </trkpt>
      <trkpt lat="43.13399" lon="2.71037">
        <ele>66</ele>
        <time>2018-05-19T12:14:23Z</time>
      </trkpt>
      <trkpt lat="43.13393" lon="2.71036">
        <ele>66.1</ele>
        <time>2018-05-19T12:14:28Z</time>
      </trkpt>
      <trkpt lat="43.13388" lon="2.71034">
        <ele>66.2</ele>
        <time>2018-05-19T12:14:33Z</time>
      </trkpt>
      <trkpt lat="43.13397" lon="2.71023">
        <ele>65.8</ele>
        <time>2018-05-19T12:14:38Z</time>
      </trkpt>
      <trkpt lat="43.13402" lon="2.71018">
        <ele>65.5</ele>
        <time>2018-05-19T12:14:43Z</time>
      </trkpt>
      <trkpt lat="43.13411" lon="2.71008">
        <ele>64.8</ele>
        <time>2018-05-19T12:14:47Z</time>
      </trkpt>
      <trkpt lat="43.13424" lon="2.70989">
        <ele>63.5</ele>
        <time>2018-05-19T12:14:53Z</time>
      </trkpt>
      <trkpt lat="43.13426" lon="2.70967">
        <ele>63.2</ele>
        <time>2018-05-19T12:14:58Z</time>
      </trkpt>
      <trkpt lat="43.13407" lon="2.70948">
        <ele>64.3</ele>
        <time>2018-05-19T12:15:03Z</time>
      </trkpt>
      <trkpt lat="43.1339" lon="2.70926">
        <ele>64.2</ele>
        <time>2018-05-19T12:15:08Z</time>
      </trkpt>
      <trkpt lat="43.13377" lon="2.70909">
        <ele>63.2</ele>
        <time>2018-05-19T12:15:12Z</time>
      </trkpt>
      <trkpt lat="43.13363" lon="2.70886">
        <ele>63</ele>
        <time>2018-05-19T12:15:18Z</time>
      </trkpt>
      <trkpt lat="43.13348" lon="2.70858">
        <ele>62.7</ele>
        <time>2018-05-19T12:15:22Z</time>
      </trkpt>
      <trkpt lat="43.13336" lon="2.70834">
        <ele>62.1</ele>
        <time>2018-05-19T12:15:28Z</time>
      </trkpt>
      <trkpt lat="43.13323" lon="2.70808">
        <ele>62.3</ele>
        <time>2018-05-19T12:15:32Z</time>
      </trkpt>
      <trkpt lat="43.13312" lon="2.70782">
        <ele>62.4</ele>
        <time>2018-05-19T12:15:38Z</time>
      </trkpt>
      <trkpt lat="43.13308" lon="2.70758">
        <ele>62.3</ele>
        <time>2018-05-19T12:15:42Z</time>
      </trkpt>
      <trkpt lat="43.13315" lon="2.70731">
        <ele>61.6</ele>
        <time>2018-05-19T12:15:48Z</time>
      </trkpt>
      <trkpt lat="43.13326" lon="2.70695">
        <ele>61.1</ele>
        <time>2018-05-19T12:15:53Z</time>
      </trkpt>
      <trkpt lat="43.13325" lon="2.70655">
        <ele>60.6</ele>
        <time>2018-05-19T12:16:03Z</time>
      </trkpt>
      <trkpt lat="43.13325" lon="2.70655">
        <ele>60.6</ele>
        <time>2018-05-19T12:16:07Z</time>
      </trkpt>
      <trkpt lat="43.13325" lon="2.70655">
        <ele>60.6</ele>
        <time>2018-05-19T12:16:13Z</time>
      </trkpt>
      <trkpt lat="43.13322" lon="2.70643">
        <ele>60.8</ele>
        <time>2018-05-19T12:17:33Z</time>
      </trkpt>
      <trkpt lat="43.13318" lon="2.70616">
        <ele>61.1</ele>
        <time>2018-05-19T12:17:38Z</time>
      </trkpt>
      <trkpt lat="43.13324" lon="2.70607">
        <ele>61.1</ele>
        <time>2018-05-19T12:17:43Z</time>
      </trkpt>
      <trkpt lat="43.13338" lon="2.70592">
        <ele>60.8</ele>
        <time>2018-05-19T12:17:47Z</time>
      </trkpt>
      <trkpt lat="43.13347" lon="2.70575">
        <ele>61.1</ele>
        <time>2018-05-19T12:17:53Z</time>
      </trkpt>
      <trkpt lat="43.13347" lon="2.70548">
        <ele>61.2</ele>
        <time>2018-05-19T12:17:58Z</time>
      </trkpt>
      <trkpt lat="43.13345" lon="2.70528">
        <ele>61.2</ele>
        <time>2018-05-19T12:18:03Z</time>
      </trkpt>
      <trkpt lat="43.1334" lon="2.70498">
        <ele>61.3</ele>
        <time>2018-05-19T12:18:07Z</time>
      </trkpt>
      <trkpt lat="43.13339" lon="2.7047">
        <ele>61.9</ele>
        <time>2018-05-19T12:18:13Z</time>
      </trkpt>
      <trkpt lat="43.13338" lon="2.70445">
        <ele>62.5</ele>
        <time>2018-05-19T12:18:18Z</time>
      </trkpt>
      <trkpt lat="43.13338" lon="2.70414">
        <ele>63.7</ele>
        <time>2018-05-19T12:18:23Z</time>
      </trkpt>
      <trkpt lat="43.13336" lon="2.70384">
        <ele>62.7</ele>
        <time>2018-05-19T12:18:28Z</time>
      </trkpt>
      <trkpt lat="43.13325" lon="2.70354">
        <ele>62.6</ele>
        <time>2018-05-19T12:18:32Z</time>
      </trkpt>
      <trkpt lat="43.13311" lon="2.70343">
        <ele>62.6</ele>
        <time>2018-05-19T12:18:38Z</time>
      </trkpt>
      <trkpt lat="43.13315" lon="2.7033">
        <ele>62.4</ele>
        <time>2018-05-19T12:18:42Z</time>
      </trkpt>
      <trkpt lat="43.13323" lon="2.70323">
        <ele>62.3</ele>
        <time>2018-05-19T12:18:48Z</time>
      </trkpt>
      <trkpt lat="43.13327" lon="2.70317">
        <ele>62.4</ele>
        <time>2018-05-19T12:18:53Z</time>
      </trkpt>
      <trkpt lat="43.13327" lon="2.70317">
        <ele>62.4</ele>
        <time>2018-05-19T12:18:58Z</time>
      </trkpt>
      <trkpt lat="43.13327" lon="2.70317">
        <ele>62.4</ele>
        <time>2018-05-19T12:19:03Z</time>
      </trkpt>
      <trkpt lat="43.13327" lon="2.70317">
        <ele>62.4</ele>
        <time>2018-05-19T12:19:08Z</time>
      </trkpt>
      <trkpt lat="43.13327" lon="2.70317">
        <ele>62.4</ele>
        <time>2018-05-19T12:19:13Z</time>
      </trkpt>
      <trkpt lat="43.13333" lon="2.70306">
        <ele>62.6</ele>
        <time>2018-05-19T12:19:27Z</time>
      </trkpt>
      <trkpt lat="43.13342" lon="2.70291">
        <ele>62.7</ele>
        <time>2018-05-19T12:19:33Z</time>
      </trkpt>
      <trkpt lat="43.13357" lon="2.70266">
        <ele>62.9</ele>
        <time>2018-05-19T12:19:38Z</time>
      </trkpt>
      <trkpt lat="43.13368" lon="2.70247">
        <ele>63.3</ele>
        <time>2018-05-19T12:19:43Z</time>
      </trkpt>
      <trkpt lat="43.13378" lon="2.70221">
        <ele>63.2</ele>
        <time>2018-05-19T12:19:47Z</time>
      </trkpt>
      <trkpt lat="43.13383" lon="2.7019">
        <ele>63.2</ele>
        <time>2018-05-19T12:19:53Z</time>
      </trkpt>
      <trkpt lat="43.13384" lon="2.70168">
        <ele>63.3</ele>
        <time>2018-05-19T12:19:58Z</time>
      </trkpt>
      <trkpt lat="43.13388" lon="2.70134">
        <ele>63.4</ele>
        <time>2018-05-19T12:20:03Z</time>
      </trkpt>
      <trkpt lat="43.13391" lon="2.70113">
        <ele>63.4</ele>
        <time>2018-05-19T12:20:08Z</time>
      </trkpt>
      <trkpt lat="43.13395" lon="2.7009">
        <ele>63.3</ele>
        <time>2018-05-19T12:20:12Z</time>
      </trkpt>
      <trkpt lat="43.134" lon="2.70077">
        <ele>63</ele>
        <time>2018-05-19T12:20:18Z</time>
      </trkpt>
      <trkpt lat="43.13405" lon="2.70073">
        <ele>63</ele>
        <time>2018-05-19T12:20:22Z</time>
      </trkpt>
      <trkpt lat="43.13417" lon="2.7007">
        <ele>63</ele>
        <time>2018-05-19T12:20:28Z</time>
      </trkpt>
      <trkpt lat="43.13433" lon="2.70064">
        <ele>62.8</ele>
        <time>2018-05-19T12:20:32Z</time>
      </trkpt>
      <trkpt lat="43.13445" lon="2.70057">
        <ele>62.8</ele>
        <time>2018-05-19T12:20:38Z</time>
      </trkpt>
      <trkpt lat="43.13454" lon="2.70049">
        <ele>62.8</ele>
        <time>2018-05-19T12:20:43Z</time>
      </trkpt>
      <trkpt lat="43.13454" lon="2.7005">
        <ele>62.8</ele>
        <time>2018-05-19T12:21:33Z</time>
      </trkpt>
      <trkpt lat="43.13471" lon="2.70045">
        <ele>62.8</ele>
        <time>2018-05-19T12:21:38Z</time>
      </trkpt>
      <trkpt lat="43.13484" lon="2.70035">
        <ele>62.8</ele>
        <time>2018-05-19T12:21:42Z</time>
      </trkpt>
      <trkpt lat="43.13503" lon="2.70022">
        <ele>64.5</ele>
        <time>2018-05-19T12:21:48Z</time>
      </trkpt>
      <trkpt lat="43.13516" lon="2.70014">
        <ele>64.8</ele>
        <time>2018-05-19T12:21:52Z</time>
      </trkpt>
      <trkpt lat="43.13534" lon="2.70003">
        <ele>65.8</ele>
        <time>2018-05-19T12:21:58Z</time>
      </trkpt>
      <trkpt lat="43.13553" lon="2.69994">
        <ele>69.8</ele>
        <time>2018-05-19T12:22:02Z</time>
      </trkpt>
      <trkpt lat="43.13566" lon="2.69991">
        <ele>70.7</ele>
        <time>2018-05-19T12:22:08Z</time>
      </trkpt>
      <trkpt lat="43.13586" lon="2.69997">
        <ele>72.5</ele>
        <time>2018-05-19T12:22:13Z</time>
      </trkpt>
      <trkpt lat="43.13599" lon="2.69996">
        <ele>73.5</ele>
        <time>2018-05-19T12:22:18Z</time>
      </trkpt>
      <trkpt lat="43.13616" lon="2.6999">
        <ele>74.2</ele>
        <time>2018-05-19T12:22:23Z</time>
      </trkpt>
      <trkpt lat="43.13626" lon="2.69979">
        <ele>74.6</ele>
        <time>2018-05-19T12:22:28Z</time>
      </trkpt>
      <trkpt lat="43.13641" lon="2.69957">
        <ele>75.4</ele>
        <time>2018-05-19T12:22:33Z</time>
      </trkpt>
      <trkpt lat="43.13651" lon="2.69943">
        <ele>76</ele>
        <time>2018-05-19T12:22:37Z</time>
      </trkpt>
      <trkpt lat="43.13668" lon="2.69926">
        <ele>77.6</ele>
        <time>2018-05-19T12:22:43Z</time>
      </trkpt>
      <trkpt lat="43.1368" lon="2.69913">
        <ele>78.2</ele>
        <time>2018-05-19T12:22:47Z</time>
      </trkpt>
      <trkpt lat="43.13683" lon="2.69888">
        <ele>78.3</ele>
        <time>2018-05-19T12:22:53Z</time>
      </trkpt>
      <trkpt lat="43.13681" lon="2.69869">
        <ele>78.3</ele>
        <time>2018-05-19T12:22:58Z</time>
      </trkpt>
      <trkpt lat="43.13674" lon="2.69846">
        <ele>78.2</ele>
        <time>2018-05-19T12:23:03Z</time>
      </trkpt>
      <trkpt lat="43.1367" lon="2.69832">
        <ele>78</ele>
        <time>2018-05-19T12:23:08Z</time>
      </trkpt>
      <trkpt lat="43.1366" lon="2.6981">
        <ele>78.2</ele>
        <time>2018-05-19T12:23:13Z</time>
      </trkpt>
      <trkpt lat="43.13651" lon="2.69799">
        <ele>78.3</ele>
        <time>2018-05-19T12:23:18Z</time>
      </trkpt>
      <trkpt lat="43.13643" lon="2.69789">
        <ele>78.3</ele>
        <time>2018-05-19T12:23:22Z</time>
      </trkpt>
      <trkpt lat="43.13633" lon="2.69779">
        <ele>78.4</ele>
        <time>2018-05-19T12:23:28Z</time>
      </trkpt>
      <trkpt lat="43.13624" lon="2.6976">
        <ele>78.5</ele>
        <time>2018-05-19T12:23:32Z</time>
      </trkpt>
      <trkpt lat="43.13619" lon="2.69742">
        <ele>78.6</ele>
        <time>2018-05-19T12:23:38Z</time>
      </trkpt>
      <trkpt lat="43.13613" lon="2.69715">
        <ele>78.7</ele>
        <time>2018-05-19T12:23:42Z</time>
      </trkpt>
      <trkpt lat="43.13605" lon="2.697">
        <ele>78.9</ele>
        <time>2018-05-19T12:23:48Z</time>
      </trkpt>
      <trkpt lat="43.13592" lon="2.69682">
        <ele>79.3</ele>
        <time>2018-05-19T12:23:52Z</time>
      </trkpt>
      <trkpt lat="43.1358" lon="2.69659">
        <ele>79.5</ele>
        <time>2018-05-19T12:23:58Z</time>
      </trkpt>
      <trkpt lat="43.13575" lon="2.69639">
        <ele>78.8</ele>
        <time>2018-05-19T12:24:02Z</time>
      </trkpt>
      <trkpt lat="43.13566" lon="2.69605">
        <ele>78.5</ele>
        <time>2018-05-19T12:24:07Z</time>
      </trkpt>
      <trkpt lat="43.13563" lon="2.69573">
        <ele>78.1</ele>
        <time>2018-05-19T12:24:12Z</time>
      </trkpt>
      <trkpt lat="43.13554" lon="2.69546">
        <ele>77.7</ele>
        <time>2018-05-19T12:24:17Z</time>
      </trkpt>
      <trkpt lat="43.13548" lon="2.69524">
        <ele>77.5</ele>
        <time>2018-05-19T12:24:23Z</time>
      </trkpt>
      <trkpt lat="43.13545" lon="2.69487">
        <ele>77.6</ele>
        <time>2018-05-19T12:24:27Z</time>
      </trkpt>
      <trkpt lat="43.13546" lon="2.69463">
        <ele>77.8</ele>
        <time>2018-05-19T12:24:33Z</time>
      </trkpt>
      <trkpt lat="43.13538" lon="2.69432">
        <ele>77.9</ele>
        <time>2018-05-19T12:24:37Z</time>
      </trkpt>
      <trkpt lat="43.13531" lon="2.69413">
        <ele>78.5</ele>
        <time>2018-05-19T12:24:43Z</time>
      </trkpt>
      <trkpt lat="43.13518" lon="2.69385">
        <ele>78.5</ele>
        <time>2018-05-19T12:24:47Z</time>
      </trkpt>
      <trkpt lat="43.1351" lon="2.69366">
        <ele>78.5</ele>
        <time>2018-05-19T12:24:53Z</time>
      </trkpt>
      <trkpt lat="43.13496" lon="2.69338">
        <ele>77.7</ele>
        <time>2018-05-19T12:24:57Z</time>
      </trkpt>
      <trkpt lat="43.13487" lon="2.69319">
        <ele>77.3</ele>
        <time>2018-05-19T12:25:02Z</time>
      </trkpt>
      <trkpt lat="43.13474" lon="2.69295">
        <ele>76.9</ele>
        <time>2018-05-19T12:25:08Z</time>
      </trkpt>
      <trkpt lat="43.13464" lon="2.69279">
        <ele>76.8</ele>
        <time>2018-05-19T12:25:12Z</time>
      </trkpt>
      <trkpt lat="43.13446" lon="2.69254">
        <ele>76.5</ele>
        <time>2018-05-19T12:25:18Z</time>
      </trkpt>
      <trkpt lat="43.13435" lon="2.69237">
        <ele>76.5</ele>
        <time>2018-05-19T12:25:22Z</time>
      </trkpt>
      <trkpt lat="43.13417" lon="2.69213">
        <ele>76.6</ele>
        <time>2018-05-19T12:25:28Z</time>
      </trkpt>
      <trkpt lat="43.13401" lon="2.69193">
        <ele>76.3</ele>
        <time>2018-05-19T12:25:32Z</time>
      </trkpt>
      <trkpt lat="43.1339" lon="2.69176">
        <ele>76.3</ele>
        <time>2018-05-19T12:25:38Z</time>
      </trkpt>
      <trkpt lat="43.13376" lon="2.69147">
        <ele>76.1</ele>
        <time>2018-05-19T12:25:42Z</time>
      </trkpt>
      <trkpt lat="43.13372" lon="2.69127">
        <ele>76</ele>
        <time>2018-05-19T12:25:47Z</time>
      </trkpt>
      <trkpt lat="43.13366" lon="2.69097">
        <ele>75.8</ele>
        <time>2018-05-19T12:25:52Z</time>
      </trkpt>
      <trkpt lat="43.13364" lon="2.69078">
        <ele>75.7</ele>
        <time>2018-05-19T12:25:57Z</time>
      </trkpt>
      <trkpt lat="43.13364" lon="2.69054">
        <ele>75.9</ele>
        <time>2018-05-19T12:26:03Z</time>
      </trkpt>
      <trkpt lat="43.13366" lon="2.69036">
        <ele>76</ele>
        <time>2018-05-19T12:26:07Z</time>
      </trkpt>
      <trkpt lat="43.13368" lon="2.69006">
        <ele>76.1</ele>
        <time>2018-05-19T12:26:13Z</time>
      </trkpt>
      <trkpt lat="43.1337" lon="2.68987">
        <ele>77</ele>
        <time>2018-05-19T12:26:17Z</time>
      </trkpt>
      <trkpt lat="43.13372" lon="2.68959">
        <ele>77.2</ele>
        <time>2018-05-19T12:26:23Z</time>
      </trkpt>
      <trkpt lat="43.13374" lon="2.6894">
        <ele>77.4</ele>
        <time>2018-05-19T12:26:28Z</time>
      </trkpt>
      <trkpt lat="43.13376" lon="2.68911">
        <ele>77.7</ele>
        <time>2018-05-19T12:26:32Z</time>
      </trkpt>
      <trkpt lat="43.13376" lon="2.68891">
        <ele>77.6</ele>
        <time>2018-05-19T12:26:37Z</time>
      </trkpt>
      <trkpt lat="43.13374" lon="2.68862">
        <ele>77.4</ele>
        <time>2018-05-19T12:26:42Z</time>
      </trkpt>
      <trkpt lat="43.13373" lon="2.68842">
        <ele>77.3</ele>
        <time>2018-05-19T12:26:48Z</time>
      </trkpt>
      <trkpt lat="43.13374" lon="2.68814">
        <ele>77.8</ele>
        <time>2018-05-19T12:26:52Z</time>
      </trkpt>
      <trkpt lat="43.13376" lon="2.68795">
        <ele>78</ele>
        <time>2018-05-19T12:26:58Z</time>
      </trkpt>
      <trkpt lat="43.13373" lon="2.68767">
        <ele>78.3</ele>
        <time>2018-05-19T12:27:02Z</time>
      </trkpt>
      <trkpt lat="43.13369" lon="2.68749">
        <ele>79.2</ele>
        <time>2018-05-19T12:27:08Z</time>
      </trkpt>
      <trkpt lat="43.13364" lon="2.68722">
        <ele>79.2</ele>
        <time>2018-05-19T12:27:12Z</time>
      </trkpt>
      <trkpt lat="43.1336" lon="2.68703">
        <ele>79.3</ele>
        <time>2018-05-19T12:27:18Z</time>
      </trkpt>
      <trkpt lat="43.13355" lon="2.68674">
        <ele>79.5</ele>
        <time>2018-05-19T12:27:22Z</time>
      </trkpt>
      <trkpt lat="43.13352" lon="2.68655">
        <ele>79.9</ele>
        <time>2018-05-19T12:27:27Z</time>
      </trkpt>
      <trkpt lat="43.13347" lon="2.68626">
        <ele>79.9</ele>
        <time>2018-05-19T12:27:33Z</time>
      </trkpt>
      <trkpt lat="43.13343" lon="2.6861">
        <ele>79.7</ele>
        <time>2018-05-19T12:27:37Z</time>
      </trkpt>
      <trkpt lat="43.13335" lon="2.68583">
        <ele>79.1</ele>
        <time>2018-05-19T12:27:43Z</time>
      </trkpt>
      <trkpt lat="43.13332" lon="2.68563">
        <ele>79.1</ele>
        <time>2018-05-19T12:27:47Z</time>
      </trkpt>
      <trkpt lat="43.13329" lon="2.68534">
        <ele>79.2</ele>
        <time>2018-05-19T12:27:53Z</time>
      </trkpt>
      <trkpt lat="43.13328" lon="2.68517">
        <ele>79.5</ele>
        <time>2018-05-19T12:27:57Z</time>
      </trkpt>
      <trkpt lat="43.13326" lon="2.6849">
        <ele>79.7</ele>
        <time>2018-05-19T12:28:03Z</time>
      </trkpt>
      <trkpt lat="43.13326" lon="2.68471">
        <ele>79.5</ele>
        <time>2018-05-19T12:28:07Z</time>
      </trkpt>
      <trkpt lat="43.13326" lon="2.68442">
        <ele>79.6</ele>
        <time>2018-05-19T12:28:12Z</time>
      </trkpt>
      <trkpt lat="43.13328" lon="2.68425">
        <ele>79.8</ele>
        <time>2018-05-19T12:28:17Z</time>
      </trkpt>
      <trkpt lat="43.13329" lon="2.68398">
        <ele>80.1</ele>
        <time>2018-05-19T12:28:22Z</time>
      </trkpt>
      <trkpt lat="43.13328" lon="2.68382">
        <ele>80.3</ele>
        <time>2018-05-19T12:28:28Z</time>
      </trkpt>
      <trkpt lat="43.13321" lon="2.68361">
        <ele>80.6</ele>
        <time>2018-05-19T12:28:32Z</time>
      </trkpt>
      <trkpt lat="43.13318" lon="2.68347">
        <ele>80.8</ele>
        <time>2018-05-19T12:28:38Z</time>
      </trkpt>
      <trkpt lat="43.13314" lon="2.68321">
        <ele>81.4</ele>
        <time>2018-05-19T12:28:42Z</time>
      </trkpt>
      <trkpt lat="43.1331" lon="2.68304">
        <ele>81.3</ele>
        <time>2018-05-19T12:28:48Z</time>
      </trkpt>
      <trkpt lat="43.13304" lon="2.6828">
        <ele>81.4</ele>
        <time>2018-05-19T12:28:52Z</time>
      </trkpt>
      <trkpt lat="43.133" lon="2.68263">
        <ele>81.5</ele>
        <time>2018-05-19T12:28:58Z</time>
      </trkpt>
      <trkpt lat="43.13295" lon="2.68238">
        <ele>82</ele>
        <time>2018-05-19T12:29:02Z</time>
      </trkpt>
      <trkpt lat="43.13292" lon="2.68221">
        <ele>81.9</ele>
        <time>2018-05-19T12:29:07Z</time>
      </trkpt>
      <trkpt lat="43.13288" lon="2.68194">
        <ele>82</ele>
        <time>2018-05-19T12:29:12Z</time>
      </trkpt>
      <trkpt lat="43.13287" lon="2.68177">
        <ele>81.9</ele>
        <time>2018-05-19T12:29:18Z</time>
      </trkpt>
      <trkpt lat="43.13286" lon="2.68152">
        <ele>82.6</ele>
        <time>2018-05-19T12:29:23Z</time>
      </trkpt>
      <trkpt lat="43.13286" lon="2.68137">
        <ele>82.7</ele>
        <time>2018-05-19T12:29:27Z</time>
      </trkpt>
      <trkpt lat="43.13286" lon="2.6811">
        <ele>82.9</ele>
        <time>2018-05-19T12:29:33Z</time>
      </trkpt>
      <trkpt lat="43.13285" lon="2.68091">
        <ele>82.9</ele>
        <time>2018-05-19T12:29:37Z</time>
      </trkpt>
      <trkpt lat="43.13284" lon="2.68067">
        <ele>84.1</ele>
        <time>2018-05-19T12:29:43Z</time>
      </trkpt>
      <trkpt lat="43.13283" lon="2.68048">
        <ele>84.3</ele>
        <time>2018-05-19T12:29:47Z</time>
      </trkpt>
      <trkpt lat="43.13288" lon="2.6802">
        <ele>84.9</ele>
        <time>2018-05-19T12:29:52Z</time>
      </trkpt>
      <trkpt lat="43.1329" lon="2.68002">
        <ele>85.1</ele>
        <time>2018-05-19T12:29:58Z</time>
      </trkpt>
      <trkpt lat="43.13288" lon="2.67975">
        <ele>86.4</ele>
        <time>2018-05-19T12:30:02Z</time>
      </trkpt>
      <trkpt lat="43.13286" lon="2.67958">
        <ele>86.5</ele>
        <time>2018-05-19T12:30:08Z</time>
      </trkpt>
      <trkpt lat="43.13284" lon="2.67931">
        <ele>86.4</ele>
        <time>2018-05-19T12:30:12Z</time>
      </trkpt>
      <trkpt lat="43.13282" lon="2.67916">
        <ele>87</ele>
        <time>2018-05-19T12:30:18Z</time>
      </trkpt>
      <trkpt lat="43.1328" lon="2.67893">
        <ele>87.2</ele>
        <time>2018-05-19T12:30:22Z</time>
      </trkpt>
      <trkpt lat="43.13279" lon="2.67877">
        <ele>87.3</ele>
        <time>2018-05-19T12:30:28Z</time>
      </trkpt>
      <trkpt lat="43.13276" lon="2.67853">
        <ele>87.1</ele>
        <time>2018-05-19T12:30:32Z</time>
      </trkpt>
      <trkpt lat="43.13273" lon="2.67838">
        <ele>86.7</ele>
        <time>2018-05-19T12:30:38Z</time>
      </trkpt>
      <trkpt lat="43.1327" lon="2.67814">
        <ele>87.5</ele>
        <time>2018-05-19T12:30:42Z</time>
      </trkpt>
      <trkpt lat="43.13267" lon="2.67798">
        <ele>87.9</ele>
        <time>2018-05-19T12:30:48Z</time>
      </trkpt>
      <trkpt lat="43.13263" lon="2.67773">
        <ele>87.6</ele>
        <time>2018-05-19T12:30:52Z</time>
      </trkpt>
      <trkpt lat="43.13262" lon="2.67756">
        <ele>86.8</ele>
        <time>2018-05-19T12:30:58Z</time>
      </trkpt>
      <trkpt lat="43.1326" lon="2.67729">
        <ele>88.1</ele>
        <time>2018-05-19T12:31:03Z</time>
      </trkpt>
      <trkpt lat="43.13258" lon="2.67712">
        <ele>88.6</ele>
        <time>2018-05-19T12:31:07Z</time>
      </trkpt>
      <trkpt lat="43.13257" lon="2.67688">
        <ele>88.2</ele>
        <time>2018-05-19T12:31:13Z</time>
      </trkpt>
      <trkpt lat="43.13254" lon="2.6767">
        <ele>86.8</ele>
        <time>2018-05-19T12:31:17Z</time>
      </trkpt>
      <trkpt lat="43.13252" lon="2.67646">
        <ele>88.4</ele>
        <time>2018-05-19T12:31:23Z</time>
      </trkpt>
      <trkpt lat="43.13252" lon="2.6763">
        <ele>88.9</ele>
        <time>2018-05-19T12:31:27Z</time>
      </trkpt>
      <trkpt lat="43.13252" lon="2.67609">
        <ele>88.7</ele>
        <time>2018-05-19T12:31:32Z</time>
      </trkpt>
      <trkpt lat="43.13253" lon="2.67593">
        <ele>87.5</ele>
        <time>2018-05-19T12:31:37Z</time>
      </trkpt>
      <trkpt lat="43.13254" lon="2.67566">
        <ele>87.9</ele>
        <time>2018-05-19T12:31:42Z</time>
      </trkpt>
      <trkpt lat="43.13254" lon="2.67548">
        <ele>88.5</ele>
        <time>2018-05-19T12:31:48Z</time>
      </trkpt>
      <trkpt lat="43.13255" lon="2.67523">
        <ele>88.1</ele>
        <time>2018-05-19T12:31:52Z</time>
      </trkpt>
      <trkpt lat="43.13255" lon="2.67506">
        <ele>87</ele>
        <time>2018-05-19T12:31:58Z</time>
      </trkpt>
      <trkpt lat="43.13254" lon="2.67479">
        <ele>87.4</ele>
        <time>2018-05-19T12:32:02Z</time>
      </trkpt>
      <trkpt lat="43.13252" lon="2.6746">
        <ele>87.7</ele>
        <time>2018-05-19T12:32:08Z</time>
      </trkpt>
      <trkpt lat="43.13247" lon="2.67432">
        <ele>87</ele>
        <time>2018-05-19T12:32:12Z</time>
      </trkpt>
      <trkpt lat="43.13242" lon="2.67414">
        <ele>87.8</ele>
        <time>2018-05-19T12:32:18Z</time>
      </trkpt>
      <trkpt lat="43.13238" lon="2.6739">
        <ele>89</ele>
        <time>2018-05-19T12:32:22Z</time>
      </trkpt>
      <trkpt lat="43.13237" lon="2.67374">
        <ele>89.4</ele>
        <time>2018-05-19T12:32:27Z</time>
      </trkpt>
      <trkpt lat="43.13238" lon="2.67355">
        <ele>89.6</ele>
        <time>2018-05-19T12:32:33Z</time>
      </trkpt>
      <trkpt lat="43.13239" lon="2.67342">
        <ele>89.5</ele>
        <time>2018-05-19T12:32:37Z</time>
      </trkpt>
      <trkpt lat="43.13239" lon="2.67321">
        <ele>90.4</ele>
        <time>2018-05-19T12:32:43Z</time>
      </trkpt>
      <trkpt lat="43.1324" lon="2.67312">
        <ele>90.7</ele>
        <time>2018-05-19T12:32:47Z</time>
      </trkpt>
      <trkpt lat="43.1324" lon="2.67294">
        <ele>91</ele>
        <time>2018-05-19T12:32:53Z</time>
      </trkpt>
      <trkpt lat="43.1324" lon="2.67277">
        <ele>90.9</ele>
        <time>2018-05-19T12:32:58Z</time>
      </trkpt>
      <trkpt lat="43.1324" lon="2.67268">
        <ele>90.6</ele>
        <time>2018-05-19T12:33:03Z</time>
      </trkpt>
      <trkpt lat="43.13239" lon="2.67246">
        <ele>90.6</ele>
        <time>2018-05-19T12:33:07Z</time>
      </trkpt>
      <trkpt lat="43.13239" lon="2.67232">
        <ele>91.3</ele>
        <time>2018-05-19T12:33:12Z</time>
      </trkpt>
      <trkpt lat="43.13239" lon="2.67211">
        <ele>92</ele>
        <time>2018-05-19T12:33:18Z</time>
      </trkpt>
      <trkpt lat="43.13238" lon="2.67198">
        <ele>92.1</ele>
        <time>2018-05-19T12:33:22Z</time>
      </trkpt>
      <trkpt lat="43.13236" lon="2.67178">
        <ele>91.7</ele>
        <time>2018-05-19T12:33:28Z</time>
      </trkpt>
      <trkpt lat="43.13235" lon="2.67164">
        <ele>92</ele>
        <time>2018-05-19T12:33:32Z</time>
      </trkpt>
      <trkpt lat="43.13234" lon="2.67145">
        <ele>92.8</ele>
        <time>2018-05-19T12:33:38Z</time>
      </trkpt>
      <trkpt lat="43.13234" lon="2.67132">
        <ele>93.1</ele>
        <time>2018-05-19T12:33:42Z</time>
      </trkpt>
      <trkpt lat="43.13232" lon="2.67111">
        <ele>93.2</ele>
        <time>2018-05-19T12:33:48Z</time>
      </trkpt>
      <trkpt lat="43.13231" lon="2.67097">
        <ele>93.1</ele>
        <time>2018-05-19T12:33:52Z</time>
      </trkpt>
      <trkpt lat="43.13227" lon="2.67077">
        <ele>93.3</ele>
        <time>2018-05-19T12:33:58Z</time>
      </trkpt>
      <trkpt lat="43.13224" lon="2.67061">
        <ele>93.7</ele>
        <time>2018-05-19T12:34:03Z</time>
      </trkpt>
      <trkpt lat="43.13221" lon="2.67045">
        <ele>93.9</ele>
        <time>2018-05-19T12:34:08Z</time>
      </trkpt>
      <trkpt lat="43.13217" lon="2.67021">
        <ele>93.9</ele>
        <time>2018-05-19T12:34:13Z</time>
      </trkpt>
      <trkpt lat="43.13215" lon="2.67007">
        <ele>94</ele>
        <time>2018-05-19T12:34:17Z</time>
      </trkpt>
      <trkpt lat="43.13211" lon="2.66983">
        <ele>94.2</ele>
        <time>2018-05-19T12:34:23Z</time>
      </trkpt>
      <trkpt lat="43.13207" lon="2.66968">
        <ele>94.3</ele>
        <time>2018-05-19T12:34:28Z</time>
      </trkpt>
      <trkpt lat="43.13204" lon="2.66947">
        <ele>94.4</ele>
        <time>2018-05-19T12:34:33Z</time>
      </trkpt>
      <trkpt lat="43.13201" lon="2.66934">
        <ele>94.6</ele>
        <time>2018-05-19T12:34:38Z</time>
      </trkpt>
      <trkpt lat="43.13195" lon="2.66908">
        <ele>94.4</ele>
        <time>2018-05-19T12:34:43Z</time>
      </trkpt>
      <trkpt lat="43.13193" lon="2.66892">
        <ele>94.2</ele>
        <time>2018-05-19T12:34:47Z</time>
      </trkpt>
      <trkpt lat="43.13194" lon="2.66869">
        <ele>93.9</ele>
        <time>2018-05-19T12:34:53Z</time>
      </trkpt>
      <trkpt lat="43.13192" lon="2.6685">
        <ele>93.9</ele>
        <time>2018-05-19T12:34:58Z</time>
      </trkpt>
      <trkpt lat="43.13189" lon="2.66824">
        <ele>94</ele>
        <time>2018-05-19T12:35:02Z</time>
      </trkpt>
      <trkpt lat="43.13188" lon="2.66807">
        <ele>93.9</ele>
        <time>2018-05-19T12:35:07Z</time>
      </trkpt>
      <trkpt lat="43.13185" lon="2.66782">
        <ele>94.1</ele>
        <time>2018-05-19T12:35:13Z</time>
      </trkpt>
      <trkpt lat="43.13183" lon="2.66765">
        <ele>94.5</ele>
        <time>2018-05-19T12:35:18Z</time>
      </trkpt>
      <trkpt lat="43.13179" lon="2.6674">
        <ele>95</ele>
        <time>2018-05-19T12:35:22Z</time>
      </trkpt>
      <trkpt lat="43.13176" lon="2.66724">
        <ele>94.7</ele>
        <time>2018-05-19T12:35:28Z</time>
      </trkpt>
      <trkpt lat="43.13171" lon="2.66702">
        <ele>94.5</ele>
        <time>2018-05-19T12:35:32Z</time>
      </trkpt>
      <trkpt lat="43.13168" lon="2.66687">
        <ele>94.6</ele>
        <time>2018-05-19T12:35:38Z</time>
      </trkpt>
      <trkpt lat="43.13164" lon="2.66667">
        <ele>95.3</ele>
        <time>2018-05-19T12:35:43Z</time>
      </trkpt>
      <trkpt lat="43.13162" lon="2.66655">
        <ele>95.6</ele>
        <time>2018-05-19T12:35:47Z</time>
      </trkpt>
      <trkpt lat="43.13159" lon="2.66633">
        <ele>95.8</ele>
        <time>2018-05-19T12:35:52Z</time>
      </trkpt>
      <trkpt lat="43.13156" lon="2.66619">
        <ele>95.6</ele>
        <time>2018-05-19T12:35:58Z</time>
      </trkpt>
      <trkpt lat="43.13151" lon="2.66594">
        <ele>94.8</ele>
        <time>2018-05-19T12:36:03Z</time>
      </trkpt>
      <trkpt lat="43.13148" lon="2.66578">
        <ele>94.4</ele>
        <time>2018-05-19T12:36:07Z</time>
      </trkpt>
      <trkpt lat="43.13145" lon="2.66553">
        <ele>95</ele>
        <time>2018-05-19T12:36:13Z</time>
      </trkpt>
      <trkpt lat="43.13144" lon="2.66537">
        <ele>95.1</ele>
        <time>2018-05-19T12:36:17Z</time>
      </trkpt>
      <trkpt lat="43.13148" lon="2.66512">
        <ele>94.9</ele>
        <time>2018-05-19T12:36:23Z</time>
      </trkpt>
      <trkpt lat="43.13151" lon="2.66492">
        <ele>95</ele>
        <time>2018-05-19T12:36:28Z</time>
      </trkpt>
      <trkpt lat="43.13155" lon="2.66462">
        <ele>95.5</ele>
        <time>2018-05-19T12:36:33Z</time>
      </trkpt>
      <trkpt lat="43.13155" lon="2.66446">
        <ele>95.6</ele>
        <time>2018-05-19T12:36:38Z</time>
      </trkpt>
      <trkpt lat="43.13157" lon="2.66418">
        <ele>95.4</ele>
        <time>2018-05-19T12:36:43Z</time>
      </trkpt>
      <trkpt lat="43.13156" lon="2.66404">
        <ele>95.8</ele>
        <time>2018-05-19T12:36:48Z</time>
      </trkpt>
      <trkpt lat="43.13154" lon="2.66382">
        <ele>96.1</ele>
        <time>2018-05-19T12:36:52Z</time>
      </trkpt>
      <trkpt lat="43.13153" lon="2.66366">
        <ele>96.2</ele>
        <time>2018-05-19T12:36:58Z</time>
      </trkpt>
      <trkpt lat="43.13152" lon="2.66345">
        <ele>96.2</ele>
        <time>2018-05-19T12:37:02Z</time>
      </trkpt>
      <trkpt lat="43.1315" lon="2.66331">
        <ele>96.5</ele>
        <time>2018-05-19T12:37:08Z</time>
      </trkpt>
      <trkpt lat="43.13146" lon="2.66311">
        <ele>96.7</ele>
        <time>2018-05-19T12:37:12Z</time>
      </trkpt>
      <trkpt lat="43.13144" lon="2.66297">
        <ele>96.9</ele>
        <time>2018-05-19T12:37:18Z</time>
      </trkpt>
      <trkpt lat="43.13141" lon="2.66276">
        <ele>97</ele>
        <time>2018-05-19T12:37:22Z</time>
      </trkpt>
      <trkpt lat="43.13138" lon="2.66262">
        <ele>97.1</ele>
        <time>2018-05-19T12:37:28Z</time>
      </trkpt>
      <trkpt lat="43.13135" lon="2.66243">
        <ele>97.7</ele>
        <time>2018-05-19T12:37:32Z</time>
      </trkpt>
      <trkpt lat="43.13134" lon="2.66229">
        <ele>97.8</ele>
        <time>2018-05-19T12:37:37Z</time>
      </trkpt>
      <trkpt lat="43.1313" lon="2.66208">
        <ele>98</ele>
        <time>2018-05-19T12:37:42Z</time>
      </trkpt>
      <trkpt lat="43.13128" lon="2.66193">
        <ele>98.1</ele>
        <time>2018-05-19T12:37:47Z</time>
      </trkpt>
      <trkpt lat="43.13123" lon="2.66172">
        <ele>98.2</ele>
        <time>2018-05-19T12:37:53Z</time>
      </trkpt>
      <trkpt lat="43.13119" lon="2.66158">
        <ele>98.9</ele>
        <time>2018-05-19T12:37:58Z</time>
      </trkpt>
      <trkpt lat="43.13114" lon="2.66139">
        <ele>99.1</ele>
        <time>2018-05-19T12:38:03Z</time>
      </trkpt>
      <trkpt lat="43.13111" lon="2.66126">
        <ele>99.2</ele>
        <time>2018-05-19T12:38:07Z</time>
      </trkpt>
      <trkpt lat="43.13105" lon="2.66108">
        <ele>99.4</ele>
        <time>2018-05-19T12:38:13Z</time>
      </trkpt>
      <trkpt lat="43.13101" lon="2.66096">
        <ele>99.6</ele>
        <time>2018-05-19T12:38:17Z</time>
      </trkpt>
      <trkpt lat="43.13095" lon="2.66077">
        <ele>100.5</ele>
        <time>2018-05-19T12:38:23Z</time>
      </trkpt>
      <trkpt lat="43.13092" lon="2.66065">
        <ele>100.8</ele>
        <time>2018-05-19T12:38:28Z</time>
      </trkpt>
      <trkpt lat="43.13087" lon="2.66044">
        <ele>101.3</ele>
        <time>2018-05-19T12:38:33Z</time>
      </trkpt>
      <trkpt lat="43.13083" lon="2.66031">
        <ele>102.2</ele>
        <time>2018-05-19T12:38:37Z</time>
      </trkpt>
      <trkpt lat="43.13079" lon="2.66017">
        <ele>102.6</ele>
        <time>2018-05-19T12:38:42Z</time>
      </trkpt>
      <trkpt lat="43.13071" lon="2.66">
        <ele>102.8</ele>
        <time>2018-05-19T12:38:48Z</time>
      </trkpt>
      <trkpt lat="43.13067" lon="2.65987">
        <ele>104.7</ele>
        <time>2018-05-19T12:38:52Z</time>
      </trkpt>
      <trkpt lat="43.1306" lon="2.65972">
        <ele>105.4</ele>
        <time>2018-05-19T12:38:58Z</time>
      </trkpt>
      <trkpt lat="43.13057" lon="2.65958">
        <ele>105.8</ele>
        <time>2018-05-19T12:39:02Z</time>
      </trkpt>
      <trkpt lat="43.13053" lon="2.65945">
        <ele>106.2</ele>
        <time>2018-05-19T12:39:08Z</time>
      </trkpt>
      <trkpt lat="43.1305" lon="2.65931">
        <ele>106.5</ele>
        <time>2018-05-19T12:39:12Z</time>
      </trkpt>
      <trkpt lat="43.13049" lon="2.65914">
        <ele>108.2</ele>
        <time>2018-05-19T12:39:17Z</time>
      </trkpt>
      <trkpt lat="43.13047" lon="2.65905">
        <ele>108.2</ele>
        <time>2018-05-19T12:39:22Z</time>
      </trkpt>
      <trkpt lat="43.13044" lon="2.65888">
        <ele>108.4</ele>
        <time>2018-05-19T12:39:27Z</time>
      </trkpt>
      <trkpt lat="43.1304" lon="2.65872">
        <ele>108.5</ele>
        <time>2018-05-19T12:39:33Z</time>
      </trkpt>
      <trkpt lat="43.13036" lon="2.65857">
        <ele>108.7</ele>
        <time>2018-05-19T12:39:37Z</time>
      </trkpt>
      <trkpt lat="43.13033" lon="2.65843">
        <ele>108.8</ele>
        <time>2018-05-19T12:39:43Z</time>
      </trkpt>
      <trkpt lat="43.1303" lon="2.65836">
        <ele>108.9</ele>
        <time>2018-05-19T12:39:47Z</time>
      </trkpt>
      <trkpt lat="43.13024" lon="2.65823">
        <ele>110</ele>
        <time>2018-05-19T12:39:53Z</time>
      </trkpt>
      <trkpt lat="43.13017" lon="2.6581">
        <ele>110.2</ele>
        <time>2018-05-19T12:39:58Z</time>
      </trkpt>
      <trkpt lat="43.13011" lon="2.65799">
        <ele>110.4</ele>
        <time>2018-05-19T12:40:03Z</time>
      </trkpt>
      <trkpt lat="43.13003" lon="2.65783">
        <ele>110.7</ele>
        <time>2018-05-19T12:40:07Z</time>
      </trkpt>
      <trkpt lat="43.12996" lon="2.65771">
        <ele>110.8</ele>
        <time>2018-05-19T12:40:13Z</time>
      </trkpt>
      <trkpt lat="43.12992" lon="2.65763">
        <ele>111</ele>
        <time>2018-05-19T12:40:17Z</time>
      </trkpt>
      <trkpt lat="43.12986" lon="2.65747">
        <ele>111.6</ele>
        <time>2018-05-19T12:40:22Z</time>
      </trkpt>
      <trkpt lat="43.12982" lon="2.65729">
        <ele>111.3</ele>
        <time>2018-05-19T12:40:28Z</time>
      </trkpt>
      <trkpt lat="43.12978" lon="2.65718">
        <ele>111.2</ele>
        <time>2018-05-19T12:40:33Z</time>
      </trkpt>
      <trkpt lat="43.12971" lon="2.65699">
        <ele>111.2</ele>
        <time>2018-05-19T12:40:38Z</time>
      </trkpt>
      <trkpt lat="43.12968" lon="2.65687">
        <ele>111.1</ele>
        <time>2018-05-19T12:40:42Z</time>
      </trkpt>
      <trkpt lat="43.12962" lon="2.65664">
        <ele>110.5</ele>
        <time>2018-05-19T12:40:48Z</time>
      </trkpt>
      <trkpt lat="43.12956" lon="2.6565">
        <ele>110.2</ele>
        <time>2018-05-19T12:40:52Z</time>
      </trkpt>
      <trkpt lat="43.12945" lon="2.65623">
        <ele>109.7</ele>
        <time>2018-05-19T12:40:58Z</time>
      </trkpt>
      <trkpt lat="43.12923" lon="2.65589">
        <ele>107.9</ele>
        <time>2018-05-19T12:41:02Z</time>
      </trkpt>
      <trkpt lat="43.1292" lon="2.65545">
        <ele>108.3</ele>
        <time>2018-05-19T12:41:08Z</time>
      </trkpt>
      <trkpt lat="43.12925" lon="2.65515">
        <ele>108.3</ele>
        <time>2018-05-19T12:41:12Z</time>
      </trkpt>
      <trkpt lat="43.12929" lon="2.6549">
        <ele>108.6</ele>
        <time>2018-05-19T12:41:17Z</time>
      </trkpt>
      <trkpt lat="43.12925" lon="2.65474">
        <ele>109</ele>
        <time>2018-05-19T12:41:23Z</time>
      </trkpt>
      <trkpt lat="43.12924" lon="2.65454">
        <ele>109.4</ele>
        <time>2018-05-19T12:41:27Z</time>
      </trkpt>
      <trkpt lat="43.12925" lon="2.65442">
        <ele>109.8</ele>
        <time>2018-05-19T12:41:33Z</time>
      </trkpt>
      <trkpt lat="43.12927" lon="2.65426">
        <ele>110.2</ele>
        <time>2018-05-19T12:41:37Z</time>
      </trkpt>
      <trkpt lat="43.12928" lon="2.65403">
        <ele>111.3</ele>
        <time>2018-05-19T12:41:43Z</time>
      </trkpt>
      <trkpt lat="43.12928" lon="2.65389">
        <ele>111.6</ele>
        <time>2018-05-19T12:41:47Z</time>
      </trkpt>
      <trkpt lat="43.12926" lon="2.65369">
        <ele>112.2</ele>
        <time>2018-05-19T12:41:53Z</time>
      </trkpt>
      <trkpt lat="43.12926" lon="2.65356">
        <ele>112.8</ele>
        <time>2018-05-19T12:41:58Z</time>
      </trkpt>
      <trkpt lat="43.12922" lon="2.65337">
        <ele>114.2</ele>
        <time>2018-05-19T12:42:03Z</time>
      </trkpt>
      <trkpt lat="43.1292" lon="2.65324">
        <ele>115</ele>
        <time>2018-05-19T12:42:07Z</time>
      </trkpt>
      <trkpt lat="43.12918" lon="2.65308">
        <ele>115.3</ele>
        <time>2018-05-19T12:42:12Z</time>
      </trkpt>
      <trkpt lat="43.12918" lon="2.65299">
        <ele>115.5</ele>
        <time>2018-05-19T12:42:17Z</time>
      </trkpt>
      <trkpt lat="43.12915" lon="2.65285">
        <ele>117.2</ele>
        <time>2018-05-19T12:42:23Z</time>
      </trkpt>
      <trkpt lat="43.12915" lon="2.65285">
        <ele>117.2</ele>
        <time>2018-05-19T12:42:28Z</time>
      </trkpt>
      <trkpt lat="43.12915" lon="2.65285">
        <ele>117.2</ele>
        <time>2018-05-19T12:42:33Z</time>
      </trkpt>
      <trkpt lat="43.12915" lon="2.65285">
        <ele>117.2</ele>
        <time>2018-05-19T12:42:38Z</time>
      </trkpt>
      <trkpt lat="43.1291" lon="2.65283">
        <ele>117.3</ele>
        <time>2018-05-19T12:43:48Z</time>
      </trkpt>
      <trkpt lat="43.12912" lon="2.65266">
        <ele>118</ele>
        <time>2018-05-19T12:43:53Z</time>
      </trkpt>
      <trkpt lat="43.12912" lon="2.65249">
        <ele>119.2</ele>
        <time>2018-05-19T12:43:58Z</time>
      </trkpt>
      <trkpt lat="43.12912" lon="2.65228">
        <ele>119.6</ele>
        <time>2018-05-19T12:44:03Z</time>
      </trkpt>
      <trkpt lat="43.12911" lon="2.65213">
        <ele>119.9</ele>
        <time>2018-05-19T12:44:07Z</time>
      </trkpt>
      <trkpt lat="43.12908" lon="2.65189">
        <ele>120.3</ele>
        <time>2018-05-19T12:44:12Z</time>
      </trkpt>
      <trkpt lat="43.12906" lon="2.65174">
        <ele>120.6</ele>
        <time>2018-05-19T12:44:17Z</time>
      </trkpt>
      <trkpt lat="43.12912" lon="2.65153">
        <ele>121</ele>
        <time>2018-05-19T12:44:22Z</time>
      </trkpt>
      <trkpt lat="43.12915" lon="2.65139">
        <ele>121</ele>
        <time>2018-05-19T12:44:28Z</time>
      </trkpt>
      <trkpt lat="43.12911" lon="2.6512">
        <ele>121</ele>
        <time>2018-05-19T12:44:32Z</time>
      </trkpt>
      <trkpt lat="43.129" lon="2.65116">
        <ele>121</ele>
        <time>2018-05-19T12:44:38Z</time>
      </trkpt>
      <trkpt lat="43.12885" lon="2.65106">
        <ele>121</ele>
        <time>2018-05-19T12:44:42Z</time>
      </trkpt>
      <trkpt lat="43.12886" lon="2.65098">
        <ele>121</ele>
        <time>2018-05-19T12:44:48Z</time>
      </trkpt>
      <trkpt lat="43.12885" lon="2.65091">
        <ele>121</ele>
        <time>2018-05-19T12:44:52Z</time>
      </trkpt>
      <trkpt lat="43.1288" lon="2.65089">
        <ele>121</ele>
        <time>2018-05-19T12:44:58Z</time>
      </trkpt>
      <trkpt lat="43.1288" lon="2.65089">
        <ele>121</ele>
        <time>2018-05-19T12:45:02Z</time>
      </trkpt>
      <trkpt lat="43.1288" lon="2.65089">
        <ele>121</ele>
        <time>2018-05-19T12:45:08Z</time>
      </trkpt>
      <trkpt lat="43.1288" lon="2.65089">
        <ele>121</ele>
        <time>2018-05-19T12:45:12Z</time>
      </trkpt>
      <trkpt lat="43.1288" lon="2.65089">
        <ele>121</ele>
        <time>2018-05-19T12:45:17Z</time>
      </trkpt>
      <trkpt lat="43.12868" lon="2.65074">
        <ele>120.8</ele>
        <time>2018-05-19T12:45:27Z</time>
      </trkpt>
      <trkpt lat="43.12847" lon="2.65071">
        <ele>120.8</ele>
        <time>2018-05-19T12:45:33Z</time>
      </trkpt>
      <trkpt lat="43.12823" lon="2.65067">
        <ele>120</ele>
        <time>2018-05-19T12:45:37Z</time>
      </trkpt>
      <trkpt lat="43.12792" lon="2.65063">
        <ele>119.3</ele>
        <time>2018-05-19T12:45:43Z</time>
      </trkpt>
      <trkpt lat="43.1277" lon="2.6506">
        <ele>119</ele>
        <time>2018-05-19T12:45:47Z</time>
      </trkpt>
      <trkpt lat="43.12749" lon="2.6505">
        <ele>118</ele>
        <time>2018-05-19T12:45:53Z</time>
      </trkpt>
      <trkpt lat="43.1273" lon="2.65034">
        <ele>118</ele>
        <time>2018-05-19T12:45:58Z</time>
      </trkpt>
      <trkpt lat="43.12718" lon="2.65019">
        <ele>118</ele>
        <time>2018-05-19T12:46:02Z</time>
      </trkpt>
      <trkpt lat="43.12696" lon="2.65">
        <ele>118.5</ele>
        <time>2018-05-19T12:46:07Z</time>
      </trkpt>
      <trkpt lat="43.12677" lon="2.64984">
        <ele>118.4</ele>
        <time>2018-05-19T12:46:12Z</time>
      </trkpt>
      <trkpt lat="43.12664" lon="2.64971">
        <ele>117.7</ele>
        <time>2018-05-19T12:46:18Z</time>
      </trkpt>
      <trkpt lat="43.12644" lon="2.64952">
        <ele>117.6</ele>
        <time>2018-05-19T12:46:22Z</time>
      </trkpt>
      <trkpt lat="43.12633" lon="2.64938">
        <ele>117.6</ele>
        <time>2018-05-19T12:46:28Z</time>
      </trkpt>
      <trkpt lat="43.12615" lon="2.64918">
        <ele>117.7</ele>
        <time>2018-05-19T12:46:32Z</time>
      </trkpt>
      <trkpt lat="43.12605" lon="2.64904">
        <ele>118.6</ele>
        <time>2018-05-19T12:46:38Z</time>
      </trkpt>
      <trkpt lat="43.12591" lon="2.64882">
        <ele>118.9</ele>
        <time>2018-05-19T12:46:42Z</time>
      </trkpt>
      <trkpt lat="43.12584" lon="2.64865">
        <ele>119.2</ele>
        <time>2018-05-19T12:46:48Z</time>
      </trkpt>
      <trkpt lat="43.12574" lon="2.64839">
        <ele>119.3</ele>
        <time>2018-05-19T12:46:52Z</time>
      </trkpt>
      <trkpt lat="43.12573" lon="2.64819">
        <ele>119.3</ele>
        <time>2018-05-19T12:46:58Z</time>
      </trkpt>
      <trkpt lat="43.12575" lon="2.64791">
        <ele>118.8</ele>
        <time>2018-05-19T12:47:02Z</time>
      </trkpt>
      <trkpt lat="43.12576" lon="2.6477">
        <ele>118.5</ele>
        <time>2018-05-19T12:47:07Z</time>
      </trkpt>
      <trkpt lat="43.12577" lon="2.64738">
        <ele>117.9</ele>
        <time>2018-05-19T12:47:13Z</time>
      </trkpt>
      <trkpt lat="43.12577" lon="2.64716">
        <ele>117.6</ele>
        <time>2018-05-19T12:47:17Z</time>
      </trkpt>
      <trkpt lat="43.12578" lon="2.64681">
        <ele>116.8</ele>
        <time>2018-05-19T12:47:23Z</time>
      </trkpt>
      <trkpt lat="43.12579" lon="2.64648">
        <ele>116.1</ele>
        <time>2018-05-19T12:47:27Z</time>
      </trkpt>
      <trkpt lat="43.12581" lon="2.64616">
        <ele>115.9</ele>
        <time>2018-05-19T12:47:33Z</time>
      </trkpt>
      <trkpt lat="43.12582" lon="2.64581">
        <ele>115</ele>
        <time>2018-05-19T12:47:37Z</time>
      </trkpt>
      <trkpt lat="43.12583" lon="2.64547">
        <ele>115.2</ele>
        <time>2018-05-19T12:47:42Z</time>
      </trkpt>
      <trkpt lat="43.12585" lon="2.6451">
        <ele>115.3</ele>
        <time>2018-05-19T12:47:47Z</time>
      </trkpt>
      <trkpt lat="43.12587" lon="2.64473">
        <ele>114.7</ele>
        <time>2018-05-19T12:47:52Z</time>
      </trkpt>
      <trkpt lat="43.12588" lon="2.64437">
        <ele>114</ele>
        <time>2018-05-19T12:47:58Z</time>
      </trkpt>
      <trkpt lat="43.12589" lon="2.64403">
        <ele>112.7</ele>
        <time>2018-05-19T12:48:02Z</time>
      </trkpt>
      <trkpt lat="43.12591" lon="2.64369">
        <ele>111.8</ele>
        <time>2018-05-19T12:48:08Z</time>
      </trkpt>
      <trkpt lat="43.12593" lon="2.64332">
        <ele>109.5</ele>
        <time>2018-05-19T12:48:13Z</time>
      </trkpt>
      <trkpt lat="43.12596" lon="2.64291">
        <ele>109.6</ele>
        <time>2018-05-19T12:48:18Z</time>
      </trkpt>
      <trkpt lat="43.12594" lon="2.64242">
        <ele>107.3</ele>
        <time>2018-05-19T12:48:22Z</time>
      </trkpt>
      <trkpt lat="43.12578" lon="2.64196">
        <ele>105.1</ele>
        <time>2018-05-19T12:48:28Z</time>
      </trkpt>
      <trkpt lat="43.12549" lon="2.64184">
        <ele>105</ele>
        <time>2018-05-19T12:48:32Z</time>
      </trkpt>
      <trkpt lat="43.12518" lon="2.642">
        <ele>104.4</ele>
        <time>2018-05-19T12:48:37Z</time>
      </trkpt>
      <trkpt lat="43.12482" lon="2.64199">
        <ele>102.3</ele>
        <time>2018-05-19T12:48:42Z</time>
      </trkpt>
      <trkpt lat="43.12445" lon="2.64172">
        <ele>101.7</ele>
        <time>2018-05-19T12:48:47Z</time>
      </trkpt>
      <trkpt lat="43.12401" lon="2.64171">
        <ele>99.3</ele>
        <time>2018-05-19T12:48:52Z</time>
      </trkpt>
      <trkpt lat="43.12359" lon="2.64178">
        <ele>97.1</ele>
        <time>2018-05-19T12:48:58Z</time>
      </trkpt>
      <trkpt lat="43.12326" lon="2.64168">
        <ele>94.7</ele>
        <time>2018-05-19T12:49:03Z</time>
      </trkpt>
      <trkpt lat="43.12305" lon="2.64156">
        <ele>92.2</ele>
        <time>2018-05-19T12:49:07Z</time>
      </trkpt>
      <trkpt lat="43.12283" lon="2.64153">
        <ele>90.8</ele>
        <time>2018-05-19T12:49:13Z</time>
      </trkpt>
      <trkpt lat="43.12257" lon="2.64143">
        <ele>89.6</ele>
        <time>2018-05-19T12:49:17Z</time>
      </trkpt>
      <trkpt lat="43.12225" lon="2.64141">
        <ele>86.2</ele>
        <time>2018-05-19T12:49:23Z</time>
      </trkpt>
      <trkpt lat="43.12211" lon="2.64137">
        <ele>86</ele>
        <time>2018-05-19T12:49:27Z</time>
      </trkpt>
      <trkpt lat="43.12204" lon="2.64138">
        <ele>85.9</ele>
        <time>2018-05-19T12:49:33Z</time>
      </trkpt>
      <trkpt lat="43.12204" lon="2.64138">
        <ele>85.9</ele>
        <time>2018-05-19T12:49:37Z</time>
      </trkpt>
      <trkpt lat="43.12199" lon="2.64137">
        <ele>85.8</ele>
        <time>2018-05-19T12:49:42Z</time>
      </trkpt>
      <trkpt lat="43.12189" lon="2.64128">
        <ele>85.6</ele>
        <time>2018-05-19T12:49:48Z</time>
      </trkpt>
      <trkpt lat="43.12186" lon="2.64122">
        <ele>85.5</ele>
        <time>2018-05-19T12:49:52Z</time>
      </trkpt>
      <trkpt lat="43.12186" lon="2.64129">
        <ele>85.6</ele>
        <time>2018-05-19T12:49:58Z</time>
      </trkpt>
      <trkpt lat="43.12186" lon="2.64129">
        <ele>85.6</ele>
        <time>2018-05-19T12:50:02Z</time>
      </trkpt>
      <trkpt lat="43.12186" lon="2.64129">
        <ele>85.6</ele>
        <time>2018-05-19T12:50:08Z</time>
      </trkpt>
      <trkpt lat="43.12186" lon="2.64129">
        <ele>85.6</ele>
        <time>2018-05-19T12:50:12Z</time>
      </trkpt>
      <trkpt lat="43.12186" lon="2.64129">
        <ele>85.6</ele>
        <time>2018-05-19T12:50:18Z</time>
      </trkpt>
      <trkpt lat="43.12177" lon="2.64127">
        <ele>85.5</ele>
        <time>2018-05-19T12:51:17Z</time>
      </trkpt>
      <trkpt lat="43.12168" lon="2.64117">
        <ele>85.3</ele>
        <time>2018-05-19T12:51:22Z</time>
      </trkpt>
      <trkpt lat="43.12153" lon="2.64097">
        <ele>84.6</ele>
        <time>2018-05-19T12:51:27Z</time>
      </trkpt>
      <trkpt lat="43.12141" lon="2.64084">
        <ele>84.7</ele>
        <time>2018-05-19T12:51:32Z</time>
      </trkpt>
      <trkpt lat="43.12126" lon="2.64062">
        <ele>84.3</ele>
        <time>2018-05-19T12:51:38Z</time>
      </trkpt>
      <trkpt lat="43.12117" lon="2.64046">
        <ele>84.3</ele>
        <time>2018-05-19T12:51:43Z</time>
      </trkpt>
      <trkpt lat="43.12097" lon="2.64036">
        <ele>84.3</ele>
        <time>2018-05-19T12:51:48Z</time>
      </trkpt>
      <trkpt lat="43.12087" lon="2.64034">
        <ele>84.3</ele>
        <time>2018-05-19T12:51:53Z</time>
      </trkpt>
      <trkpt lat="43.12076" lon="2.6403">
        <ele>86.3</ele>
        <time>2018-05-19T12:51:58Z</time>
      </trkpt>
      <trkpt lat="43.12072" lon="2.64028">
        <ele>86.4</ele>
        <time>2018-05-19T12:52:03Z</time>
      </trkpt>
      <trkpt lat="43.12068" lon="2.64023">
        <ele>86.3</ele>
        <time>2018-05-19T12:52:08Z</time>
      </trkpt>
      <trkpt lat="43.12057" lon="2.64019">
        <ele>86.7</ele>
        <time>2018-05-19T12:52:12Z</time>
      </trkpt>
      <trkpt lat="43.1205" lon="2.64018">
        <ele>87.1</ele>
        <time>2018-05-19T12:52:17Z</time>
      </trkpt>
      <trkpt lat="43.12038" lon="2.64015">
        <ele>87.7</ele>
        <time>2018-05-19T12:52:22Z</time>
      </trkpt>
      <trkpt lat="43.12027" lon="2.64012">
        <ele>88.3</ele>
        <time>2018-05-19T12:52:28Z</time>
      </trkpt>
      <trkpt lat="43.12017" lon="2.6401">
        <ele>89</ele>
        <time>2018-05-19T12:52:33Z</time>
      </trkpt>
      <trkpt lat="43.12005" lon="2.64005">
        <ele>90.1</ele>
        <time>2018-05-19T12:52:37Z</time>
      </trkpt>
      <trkpt lat="43.11991" lon="2.63997">
        <ele>91.3</ele>
        <time>2018-05-19T12:52:43Z</time>
      </trkpt>
      <trkpt lat="43.11985" lon="2.63994">
        <ele>91.6</ele>
        <time>2018-05-19T12:52:47Z</time>
      </trkpt>
      <trkpt lat="43.11975" lon="2.63989">
        <ele>91.9</ele>
        <time>2018-05-19T12:52:53Z</time>
      </trkpt>
      <trkpt lat="43.1197" lon="2.63987">
        <ele>92.1</ele>
        <time>2018-05-19T12:52:58Z</time>
      </trkpt>
      <trkpt lat="43.11971" lon="2.63986">
        <ele>92</ele>
        <time>2018-05-19T12:53:18Z</time>
      </trkpt>
      <trkpt lat="43.1196" lon="2.63979">
        <ele>92.4</ele>
        <time>2018-05-19T12:53:22Z</time>
      </trkpt>
      <trkpt lat="43.11948" lon="2.63966">
        <ele>92.6</ele>
        <time>2018-05-19T12:53:28Z</time>
      </trkpt>
      <trkpt lat="43.11938" lon="2.63955">
        <ele>92.6</ele>
        <time>2018-05-19T12:53:32Z</time>
      </trkpt>
      <trkpt lat="43.11931" lon="2.63947">
        <ele>92.6</ele>
        <time>2018-05-19T12:53:38Z</time>
      </trkpt>
      <trkpt lat="43.11917" lon="2.63937">
        <ele>92.7</ele>
        <time>2018-05-19T12:53:42Z</time>
      </trkpt>
      <trkpt lat="43.11907" lon="2.63933">
        <ele>95</ele>
        <time>2018-05-19T12:53:48Z</time>
      </trkpt>
      <trkpt lat="43.11891" lon="2.63926">
        <ele>95.6</ele>
        <time>2018-05-19T12:53:52Z</time>
      </trkpt>
      <trkpt lat="43.1188" lon="2.63921">
        <ele>96.1</ele>
        <time>2018-05-19T12:53:58Z</time>
      </trkpt>
      <trkpt lat="43.11861" lon="2.63913">
        <ele>95.5</ele>
        <time>2018-05-19T12:54:02Z</time>
      </trkpt>
      <trkpt lat="43.11847" lon="2.63908">
        <ele>96.3</ele>
        <time>2018-05-19T12:54:07Z</time>
      </trkpt>
      <trkpt lat="43.11824" lon="2.63901">
        <ele>97.9</ele>
        <time>2018-05-19T12:54:13Z</time>
      </trkpt>
      <trkpt lat="43.11812" lon="2.63892">
        <ele>97.8</ele>
        <time>2018-05-19T12:54:17Z</time>
      </trkpt>
      <trkpt lat="43.1179" lon="2.63866">
        <ele>97.8</ele>
        <time>2018-05-19T12:54:23Z</time>
      </trkpt>
      <trkpt lat="43.11776" lon="2.63845">
        <ele>97.8</ele>
        <time>2018-05-19T12:54:27Z</time>
      </trkpt>
      <trkpt lat="43.11755" lon="2.63825">
        <ele>97.8</ele>
        <time>2018-05-19T12:54:33Z</time>
      </trkpt>
      <trkpt lat="43.11741" lon="2.63812">
        <ele>97.4</ele>
        <time>2018-05-19T12:54:37Z</time>
      </trkpt>
      <trkpt lat="43.1172" lon="2.63796">
        <ele>97.1</ele>
        <time>2018-05-19T12:54:42Z</time>
      </trkpt>
      <trkpt lat="43.11699" lon="2.63783">
        <ele>96.9</ele>
        <time>2018-05-19T12:54:48Z</time>
      </trkpt>
      <trkpt lat="43.11677" lon="2.63772">
        <ele>96.6</ele>
        <time>2018-05-19T12:54:52Z</time>
      </trkpt>
      <trkpt lat="43.11652" lon="2.63761">
        <ele>96</ele>
        <time>2018-05-19T12:54:58Z</time>
      </trkpt>
      <trkpt lat="43.11637" lon="2.63752">
        <ele>96</ele>
        <time>2018-05-19T12:55:02Z</time>
      </trkpt>
      <trkpt lat="43.1162" lon="2.63742">
        <ele>96.3</ele>
        <time>2018-05-19T12:55:08Z</time>
      </trkpt>
      <trkpt lat="43.11596" lon="2.63733">
        <ele>96.3</ele>
        <time>2018-05-19T12:55:12Z</time>
      </trkpt>
      <trkpt lat="43.11584" lon="2.63725">
        <ele>96.3</ele>
        <time>2018-05-19T12:55:18Z</time>
      </trkpt>
      <trkpt lat="43.11555" lon="2.63711">
        <ele>96.5</ele>
        <time>2018-05-19T12:55:22Z</time>
      </trkpt>
      <trkpt lat="43.11538" lon="2.63697">
        <ele>96.5</ele>
        <time>2018-05-19T12:55:28Z</time>
      </trkpt>
      <trkpt lat="43.11523" lon="2.63688">
        <ele>96.4</ele>
        <time>2018-05-19T12:55:32Z</time>
      </trkpt>
      <trkpt lat="43.11504" lon="2.63674">
        <ele>96.2</ele>
        <time>2018-05-19T12:55:38Z</time>
      </trkpt>
      <trkpt lat="43.11491" lon="2.63665">
        <ele>96.4</ele>
        <time>2018-05-19T12:55:42Z</time>
      </trkpt>
      <trkpt lat="43.1147" lon="2.63651">
        <ele>96.8</ele>
        <time>2018-05-19T12:55:47Z</time>
      </trkpt>
      <trkpt lat="43.11457" lon="2.6364">
        <ele>97</ele>
        <time>2018-05-19T12:55:53Z</time>
      </trkpt>
      <trkpt lat="43.11435" lon="2.63625">
        <ele>97.3</ele>
        <time>2018-05-19T12:55:57Z</time>
      </trkpt>
      <trkpt lat="43.11415" lon="2.63612">
        <ele>97.6</ele>
        <time>2018-05-19T12:56:03Z</time>
      </trkpt>
      <trkpt lat="43.114" lon="2.63599">
        <ele>97.7</ele>
        <time>2018-05-19T12:56:07Z</time>
      </trkpt>
      <trkpt lat="43.1138" lon="2.63581">
        <ele>98.2</ele>
        <time>2018-05-19T12:56:13Z</time>
      </trkpt>
      <trkpt lat="43.11366" lon="2.6357">
        <ele>98</ele>
        <time>2018-05-19T12:56:17Z</time>
      </trkpt>
      <trkpt lat="43.11345" lon="2.63553">
        <ele>97.9</ele>
        <time>2018-05-19T12:56:23Z</time>
      </trkpt>
      <trkpt lat="43.11333" lon="2.63542">
        <ele>97.2</ele>
        <time>2018-05-19T12:56:27Z</time>
      </trkpt>
      <trkpt lat="43.11315" lon="2.63528">
        <ele>97.2</ele>
        <time>2018-05-19T12:56:32Z</time>
      </trkpt>
      <trkpt lat="43.11294" lon="2.63512">
        <ele>97.2</ele>
        <time>2018-05-19T12:56:37Z</time>
      </trkpt>
      <trkpt lat="43.11278" lon="2.63493">
        <ele>97.7</ele>
        <time>2018-05-19T12:56:42Z</time>
      </trkpt>
      <trkpt lat="43.11268" lon="2.63477">
        <ele>97.7</ele>
        <time>2018-05-19T12:56:48Z</time>
      </trkpt>
      <trkpt lat="43.11252" lon="2.6345">
        <ele>97.9</ele>
        <time>2018-05-19T12:56:52Z</time>
      </trkpt>
      <trkpt lat="43.11239" lon="2.63432">
        <ele>98</ele>
        <time>2018-05-19T12:56:58Z</time>
      </trkpt>
      <trkpt lat="43.11222" lon="2.63408">
        <ele>98.5</ele>
        <time>2018-05-19T12:57:02Z</time>
      </trkpt>
      <trkpt lat="43.11212" lon="2.63394">
        <ele>98.7</ele>
        <time>2018-05-19T12:57:08Z</time>
      </trkpt>
      <trkpt lat="43.11194" lon="2.63373">
        <ele>98.8</ele>
        <time>2018-05-19T12:57:12Z</time>
      </trkpt>
      <trkpt lat="43.11183" lon="2.6336">
        <ele>98.8</ele>
        <time>2018-05-19T12:57:17Z</time>
      </trkpt>
      <trkpt lat="43.11162" lon="2.63347">
        <ele>98.4</ele>
        <time>2018-05-19T12:57:22Z</time>
      </trkpt>
      <trkpt lat="43.11145" lon="2.63342">
        <ele>98.2</ele>
        <time>2018-05-19T12:57:27Z</time>
      </trkpt>
      <trkpt lat="43.1112" lon="2.63336">
        <ele>97.8</ele>
        <time>2018-05-19T12:57:33Z</time>
      </trkpt>
      <trkpt lat="43.11103" lon="2.63331">
        <ele>98.5</ele>
        <time>2018-05-19T12:57:37Z</time>
      </trkpt>
      <trkpt lat="43.1108" lon="2.63323">
        <ele>97.1</ele>
        <time>2018-05-19T12:57:43Z</time>
      </trkpt>
      <trkpt lat="43.11069" lon="2.63317">
        <ele>96.4</ele>
        <time>2018-05-19T12:57:47Z</time>
      </trkpt>
      <trkpt lat="43.11051" lon="2.63312">
        <ele>95.6</ele>
        <time>2018-05-19T12:57:53Z</time>
      </trkpt>
      <trkpt lat="43.11031" lon="2.63313">
        <ele>94.9</ele>
        <time>2018-05-19T12:57:57Z</time>
      </trkpt>
      <trkpt lat="43.1099" lon="2.63357">
        <ele>91.1</ele>
        <time>2018-05-19T12:58:03Z</time>
      </trkpt>
      <trkpt lat="43.10968" lon="2.63391">
        <ele>90</ele>
        <time>2018-05-19T12:58:07Z</time>
      </trkpt>
      <trkpt lat="43.10956" lon="2.63406">
        <ele>89.6</ele>
        <time>2018-05-19T12:58:12Z</time>
      </trkpt>
      <trkpt lat="43.10939" lon="2.63389">
        <ele>89.5</ele>
        <time>2018-05-19T12:58:17Z</time>
      </trkpt>
      <trkpt lat="43.10927" lon="2.63379">
        <ele>89.5</ele>
        <time>2018-05-19T12:58:22Z</time>
      </trkpt>
      <trkpt lat="43.10907" lon="2.63362">
        <ele>89.5</ele>
        <time>2018-05-19T12:58:28Z</time>
      </trkpt>
      <trkpt lat="43.10892" lon="2.63349">
        <ele>89.6</ele>
        <time>2018-05-19T12:58:32Z</time>
      </trkpt>
      <trkpt lat="43.1087" lon="2.63333">
        <ele>89.5</ele>
        <time>2018-05-19T12:58:38Z</time>
      </trkpt>
      <trkpt lat="43.10853" lon="2.6331">
        <ele>89.6</ele>
        <time>2018-05-19T12:58:42Z</time>
      </trkpt>
      <trkpt lat="43.10844" lon="2.63291">
        <ele>89.5</ele>
        <time>2018-05-19T12:58:48Z</time>
      </trkpt>
      <trkpt lat="43.10829" lon="2.6327">
        <ele>91.8</ele>
        <time>2018-05-19T12:58:53Z</time>
      </trkpt>
      <trkpt lat="43.1082" lon="2.63269">
        <ele>92.1</ele>
        <time>2018-05-19T12:58:57Z</time>
      </trkpt>
      <trkpt lat="43.1081" lon="2.63273">
        <ele>92.9</ele>
        <time>2018-05-19T12:59:02Z</time>
      </trkpt>
      <trkpt lat="43.10805" lon="2.63277">
        <ele>93.3</ele>
        <time>2018-05-19T12:59:07Z</time>
      </trkpt>
      <trkpt lat="43.10794" lon="2.63284">
        <ele>94.1</ele>
        <time>2018-05-19T12:59:13Z</time>
      </trkpt>
      <trkpt lat="43.10786" lon="2.63291">
        <ele>94.8</ele>
        <time>2018-05-19T12:59:17Z</time>
      </trkpt>
      <trkpt lat="43.10781" lon="2.63296">
        <ele>95.3</ele>
        <time>2018-05-19T12:59:23Z</time>
      </trkpt>
      <trkpt lat="43.10781" lon="2.63296">
        <ele>95.3</ele>
        <time>2018-05-19T12:59:27Z</time>
      </trkpt>
      <trkpt lat="43.10781" lon="2.63296">
        <ele>95.3</ele>
        <time>2018-05-19T12:59:33Z</time>
      </trkpt>
      <trkpt lat="43.10781" lon="2.63296">
        <ele>95.3</ele>
        <time>2018-05-19T12:59:37Z</time>
      </trkpt>
      <trkpt lat="43.10781" lon="2.63296">
        <ele>95.3</ele>
        <time>2018-05-19T12:59:43Z</time>
      </trkpt>
      <trkpt lat="43.10786" lon="2.63296">
        <ele>95</ele>
        <time>2018-05-19T13:00:12Z</time>
      </trkpt>
      <trkpt lat="43.10789" lon="2.63302">
        <ele>95</ele>
        <time>2018-05-19T13:00:18Z</time>
      </trkpt>
      <trkpt lat="43.10789" lon="2.63302">
        <ele>95</ele>
        <time>2018-05-19T13:00:22Z</time>
      </trkpt>
      <trkpt lat="43.10789" lon="2.63302">
        <ele>95</ele>
        <time>2018-05-19T13:00:28Z</time>
      </trkpt>
      <trkpt lat="43.10789" lon="2.63302">
        <ele>95</ele>
        <time>2018-05-19T13:00:32Z</time>
      </trkpt>
      <trkpt lat="43.10789" lon="2.63302">
        <ele>95</ele>
        <time>2018-05-19T13:00:38Z</time>
      </trkpt>
      <trkpt lat="43.10784" lon="2.63296">
        <ele>95.1</ele>
        <time>2018-05-19T13:00:47Z</time>
      </trkpt>
      <trkpt lat="43.10784" lon="2.63296">
        <ele>95.1</ele>
        <time>2018-05-19T13:00:52Z</time>
      </trkpt>
      <trkpt lat="43.10784" lon="2.63296">
        <ele>95.1</ele>
        <time>2018-05-19T13:00:57Z</time>
      </trkpt>
      <trkpt lat="43.10784" lon="2.63296">
        <ele>95.1</ele>
        <time>2018-05-19T13:01:03Z</time>
      </trkpt>
      <trkpt lat="43.10779" lon="2.63292">
        <ele>95.3</ele>
        <time>2018-05-19T13:01:07Z</time>
      </trkpt>
      <trkpt lat="43.10779" lon="2.63292">
        <ele>95.3</ele>
        <time>2018-05-19T13:01:13Z</time>
      </trkpt>
      <trkpt lat="43.10779" lon="2.63292">
        <ele>95.3</ele>
        <time>2018-05-19T13:01:17Z</time>
      </trkpt>
      <trkpt lat="43.10779" lon="2.63292">
        <ele>95.3</ele>
        <time>2018-05-19T13:01:23Z</time>
      </trkpt>
      <trkpt lat="43.10779" lon="2.63292">
        <ele>95.3</ele>
        <time>2018-05-19T13:01:27Z</time>
      </trkpt>
      <trkpt lat="43.10783" lon="2.6329">
        <ele>94.9</ele>
        <time>2018-05-19T13:01:32Z</time>
      </trkpt>
      <trkpt lat="43.10783" lon="2.6329">
        <ele>94.9</ele>
        <time>2018-05-19T13:01:37Z</time>
      </trkpt>
      <trkpt lat="43.10783" lon="2.6329">
        <ele>94.9</ele>
        <time>2018-05-19T13:01:42Z</time>
      </trkpt>
      <trkpt lat="43.10783" lon="2.6329">
        <ele>94.9</ele>
        <time>2018-05-19T13:01:48Z</time>
      </trkpt>
      <trkpt lat="43.10783" lon="2.6329">
        <ele>94.9</ele>
        <time>2018-05-19T13:01:52Z</time>
      </trkpt>
      <trkpt lat="43.10783" lon="2.63296">
        <ele>95.2</ele>
        <time>2018-05-19T13:02:08Z</time>
      </trkpt>
      <trkpt lat="43.10772" lon="2.633">
        <ele>96.1</ele>
        <time>2018-05-19T13:02:12Z</time>
      </trkpt>
      <trkpt lat="43.10766" lon="2.633">
        <ele>96.5</ele>
        <time>2018-05-19T13:02:18Z</time>
      </trkpt>
      <trkpt lat="43.10757" lon="2.63296">
        <ele>96.6</ele>
        <time>2018-05-19T13:02:22Z</time>
      </trkpt>
      <trkpt lat="43.10747" lon="2.6329">
        <ele>103.7</ele>
        <time>2018-05-19T13:02:27Z</time>
      </trkpt>
      <trkpt lat="43.10747" lon="2.63297">
        <ele>104.3</ele>
        <time>2018-05-19T13:02:32Z</time>
      </trkpt>
      <trkpt lat="43.1075" lon="2.6331">
        <ele>98.4</ele>
        <time>2018-05-19T13:02:37Z</time>
      </trkpt>
      <trkpt lat="43.10753" lon="2.63316">
        <ele>99.3</ele>
        <time>2018-05-19T13:02:43Z</time>
      </trkpt>
      <trkpt lat="43.10755" lon="2.63324">
        <ele>100.7</ele>
        <time>2018-05-19T13:02:47Z</time>
      </trkpt>
      <trkpt lat="43.10755" lon="2.63339">
        <ele>102.6</ele>
        <time>2018-05-19T13:02:53Z</time>
      </trkpt>
      <trkpt lat="43.1076" lon="2.63353">
        <ele>101</ele>
        <time>2018-05-19T13:02:57Z</time>
      </trkpt>
      <trkpt lat="43.10761" lon="2.6336">
        <ele>100.7</ele>
        <time>2018-05-19T13:03:03Z</time>
      </trkpt>
      <trkpt lat="43.10764" lon="2.63374">
        <ele>100.5</ele>
        <time>2018-05-19T13:03:08Z</time>
      </trkpt>
      <trkpt lat="43.10769" lon="2.63386">
        <ele>100.7</ele>
        <time>2018-05-19T13:03:13Z</time>
      </trkpt>
      <trkpt lat="43.10768" lon="2.63393">
        <ele>101.1</ele>
        <time>2018-05-19T13:03:17Z</time>
      </trkpt>
      <trkpt lat="43.10757" lon="2.63409">
        <ele>104.1</ele>
        <time>2018-05-19T13:03:22Z</time>
      </trkpt>
      <trkpt lat="43.10752" lon="2.63413">
        <ele>105.8</ele>
        <time>2018-05-19T13:03:28Z</time>
      </trkpt>
      <trkpt lat="43.10742" lon="2.63414">
        <ele>108.3</ele>
        <time>2018-05-19T13:03:32Z</time>
      </trkpt>
      <trkpt lat="43.10729" lon="2.63409">
        <ele>109.8</ele>
        <time>2018-05-19T13:03:38Z</time>
      </trkpt>
      <trkpt lat="43.10715" lon="2.63399">
        <ele>111.1</ele>
        <time>2018-05-19T13:03:42Z</time>
      </trkpt>
      <trkpt lat="43.10713" lon="2.63391">
        <ele>111.3</ele>
        <time>2018-05-19T13:03:48Z</time>
      </trkpt>
      <trkpt lat="43.1071" lon="2.63377">
        <ele>111.4</ele>
        <time>2018-05-19T13:03:52Z</time>
      </trkpt>
      <trkpt lat="43.10703" lon="2.63366">
        <ele>111.9</ele>
        <time>2018-05-19T13:03:58Z</time>
      </trkpt>
      <trkpt lat="43.10694" lon="2.63357">
        <ele>112.7</ele>
        <time>2018-05-19T13:04:02Z</time>
      </trkpt>
      <trkpt lat="43.10692" lon="2.63351">
        <ele>113.1</ele>
        <time>2018-05-19T13:04:07Z</time>
      </trkpt>
      <trkpt lat="43.10689" lon="2.63336">
        <ele>113.7</ele>
        <time>2018-05-19T13:04:12Z</time>
      </trkpt>
      <trkpt lat="43.10687" lon="2.63331">
        <ele>111.6</ele>
        <time>2018-05-19T13:04:17Z</time>
      </trkpt>
      <trkpt lat="43.10684" lon="2.63325">
        <ele>111.7</ele>
        <time>2018-05-19T13:04:23Z</time>
      </trkpt>
      <trkpt lat="43.10681" lon="2.63319">
        <ele>111.6</ele>
        <time>2018-05-19T13:04:27Z</time>
      </trkpt>
      <trkpt lat="43.10679" lon="2.63304">
        <ele>109.8</ele>
        <time>2018-05-19T13:04:33Z</time>
      </trkpt>
      <trkpt lat="43.10679" lon="2.63295">
        <ele>109</ele>
        <time>2018-05-19T13:04:37Z</time>
      </trkpt>
      <trkpt lat="43.10676" lon="2.63279">
        <ele>108.1</ele>
        <time>2018-05-19T13:04:43Z</time>
      </trkpt>
      <trkpt lat="43.10673" lon="2.63261">
        <ele>108.1</ele>
        <time>2018-05-19T13:04:47Z</time>
      </trkpt>
      <trkpt lat="43.10669" lon="2.63249">
        <ele>108.1</ele>
        <time>2018-05-19T13:04:52Z</time>
      </trkpt>
      <trkpt lat="43.10665" lon="2.63238">
        <ele>111.4</ele>
        <time>2018-05-19T13:04:58Z</time>
      </trkpt>
      <trkpt lat="43.10657" lon="2.63221">
        <ele>112.8</ele>
        <time>2018-05-19T13:05:02Z</time>
      </trkpt>
      <trkpt lat="43.10648" lon="2.63202">
        <ele>113</ele>
        <time>2018-05-19T13:05:07Z</time>
      </trkpt>
      <trkpt lat="43.1064" lon="2.63187">
        <ele>113.1</ele>
        <time>2018-05-19T13:05:12Z</time>
      </trkpt>
      <trkpt lat="43.10627" lon="2.63166">
        <ele>112.8</ele>
        <time>2018-05-19T13:05:18Z</time>
      </trkpt>
      <trkpt lat="43.10617" lon="2.63152">
        <ele>114.5</ele>
        <time>2018-05-19T13:05:22Z</time>
      </trkpt>
      <trkpt lat="43.10606" lon="2.63131">
        <ele>115</ele>
        <time>2018-05-19T13:05:28Z</time>
      </trkpt>
      <trkpt lat="43.10597" lon="2.63118">
        <ele>115.3</ele>
        <time>2018-05-19T13:05:32Z</time>
      </trkpt>
      <trkpt lat="43.10584" lon="2.63098">
        <ele>117</ele>
        <time>2018-05-19T13:05:38Z</time>
      </trkpt>
      <trkpt lat="43.10575" lon="2.63082">
        <ele>122.3</ele>
        <time>2018-05-19T13:05:42Z</time>
      </trkpt>
      <trkpt lat="43.10563" lon="2.63059">
        <ele>125</ele>
        <time>2018-05-19T13:05:48Z</time>
      </trkpt>
      <trkpt lat="43.10556" lon="2.63045">
        <ele>125.4</ele>
        <time>2018-05-19T13:05:52Z</time>
      </trkpt>
      <trkpt lat="43.10546" lon="2.63025">
        <ele>125.5</ele>
        <time>2018-05-19T13:05:57Z</time>
      </trkpt>
      <trkpt lat="43.10541" lon="2.63013">
        <ele>126.1</ele>
        <time>2018-05-19T13:06:02Z</time>
      </trkpt>
      <trkpt lat="43.10531" lon="2.62993">
        <ele>121.4</ele>
        <time>2018-05-19T13:06:07Z</time>
      </trkpt>
      <trkpt lat="43.10524" lon="2.62981">
        <ele>122.1</ele>
        <time>2018-05-19T13:06:13Z</time>
      </trkpt>
      <trkpt lat="43.10517" lon="2.62962">
        <ele>120.8</ele>
        <time>2018-05-19T13:06:17Z</time>
      </trkpt>
      <trkpt lat="43.10512" lon="2.62949">
        <ele>120</ele>
        <time>2018-05-19T13:06:23Z</time>
      </trkpt>
      <trkpt lat="43.10506" lon="2.62931">
        <ele>120.5</ele>
        <time>2018-05-19T13:06:27Z</time>
      </trkpt>
      <trkpt lat="43.10501" lon="2.62919">
        <ele>122.3</ele>
        <time>2018-05-19T13:06:33Z</time>
      </trkpt>
      <trkpt lat="43.10495" lon="2.629">
        <ele>127.7</ele>
        <time>2018-05-19T13:06:37Z</time>
      </trkpt>
      <trkpt lat="43.10491" lon="2.62885">
        <ele>129.1</ele>
        <time>2018-05-19T13:06:42Z</time>
      </trkpt>
      <trkpt lat="43.10488" lon="2.62872">
        <ele>129.1</ele>
        <time>2018-05-19T13:06:48Z</time>
      </trkpt>
      <trkpt lat="43.10486" lon="2.6285">
        <ele>126.7</ele>
        <time>2018-05-19T13:06:53Z</time>
      </trkpt>
      <trkpt lat="43.10484" lon="2.62838">
        <ele>125.4</ele>
        <time>2018-05-19T13:06:58Z</time>
      </trkpt>
      <trkpt lat="43.10479" lon="2.62815">
        <ele>125.3</ele>
        <time>2018-05-19T13:07:03Z</time>
      </trkpt>
      <trkpt lat="43.10477" lon="2.62799">
        <ele>126.1</ele>
        <time>2018-05-19T13:07:08Z</time>
      </trkpt>
      <trkpt lat="43.10476" lon="2.62776">
        <ele>125.1</ele>
        <time>2018-05-19T13:07:13Z</time>
      </trkpt>
      <trkpt lat="43.10475" lon="2.62761">
        <ele>123.9</ele>
        <time>2018-05-19T13:07:18Z</time>
      </trkpt>
      <trkpt lat="43.1047" lon="2.62741">
        <ele>121.5</ele>
        <time>2018-05-19T13:07:23Z</time>
      </trkpt>
      <trkpt lat="43.10467" lon="2.62734">
        <ele>122.3</ele>
        <time>2018-05-19T13:07:28Z</time>
      </trkpt>
      <trkpt lat="43.10461" lon="2.62713">
        <ele>123</ele>
        <time>2018-05-19T13:07:33Z</time>
      </trkpt>
      <trkpt lat="43.10451" lon="2.62694">
        <ele>124.1</ele>
        <time>2018-05-19T13:07:38Z</time>
      </trkpt>
      <trkpt lat="43.10441" lon="2.62668">
        <ele>126.8</ele>
        <time>2018-05-19T13:07:43Z</time>
      </trkpt>
      <trkpt lat="43.10436" lon="2.62637">
        <ele>122.6</ele>
        <time>2018-05-19T13:07:48Z</time>
      </trkpt>
      <trkpt lat="43.10433" lon="2.6261">
        <ele>122.3</ele>
        <time>2018-05-19T13:07:53Z</time>
      </trkpt>
      <trkpt lat="43.10431" lon="2.62591">
        <ele>124.5</ele>
        <time>2018-05-19T13:07:58Z</time>
      </trkpt>
      <trkpt lat="43.10423" lon="2.62563">
        <ele>122.4</ele>
        <time>2018-05-19T13:08:03Z</time>
      </trkpt>
      <trkpt lat="43.10418" lon="2.62546">
        <ele>120.6</ele>
        <time>2018-05-19T13:08:08Z</time>
      </trkpt>
      <trkpt lat="43.10412" lon="2.6252">
        <ele>134.9</ele>
        <time>2018-05-19T13:08:13Z</time>
      </trkpt>
      <trkpt lat="43.10408" lon="2.62501">
        <ele>132.3</ele>
        <time>2018-05-19T13:08:17Z</time>
      </trkpt>
      <trkpt lat="43.10401" lon="2.62475">
        <ele>133.6</ele>
        <time>2018-05-19T13:08:23Z</time>
      </trkpt>
      <trkpt lat="43.104" lon="2.62458">
        <ele>133.6</ele>
        <time>2018-05-19T13:08:27Z</time>
      </trkpt>
      <trkpt lat="43.10401" lon="2.6243">
        <ele>131.8</ele>
        <time>2018-05-19T13:08:32Z</time>
      </trkpt>
      <trkpt lat="43.10403" lon="2.62412">
        <ele>127.6</ele>
        <time>2018-05-19T13:08:38Z</time>
      </trkpt>
      <trkpt lat="43.10408" lon="2.62385">
        <ele>127.3</ele>
        <time>2018-05-19T13:08:42Z</time>
      </trkpt>
      <trkpt lat="43.10412" lon="2.6237">
        <ele>126.8</ele>
        <time>2018-05-19T13:08:48Z</time>
      </trkpt>
      <trkpt lat="43.10412" lon="2.6235">
        <ele>126</ele>
        <time>2018-05-19T13:08:52Z</time>
      </trkpt>
      <trkpt lat="43.10412" lon="2.62336">
        <ele>125.3</ele>
        <time>2018-05-19T13:08:58Z</time>
      </trkpt>
      <trkpt lat="43.10411" lon="2.62312">
        <ele>121.4</ele>
        <time>2018-05-19T13:09:02Z</time>
      </trkpt>
      <trkpt lat="43.10412" lon="2.62298">
        <ele>120.3</ele>
        <time>2018-05-19T13:09:08Z</time>
      </trkpt>
      <trkpt lat="43.10403" lon="2.62283">
        <ele>119.3</ele>
        <time>2018-05-19T13:09:13Z</time>
      </trkpt>
      <trkpt lat="43.10393" lon="2.62282">
        <ele>119</ele>
        <time>2018-05-19T13:09:18Z</time>
      </trkpt>
      <trkpt lat="43.1037" lon="2.62295">
        <ele>118.4</ele>
        <time>2018-05-19T13:09:22Z</time>
      </trkpt>
      <trkpt lat="43.10358" lon="2.62309">
        <ele>118.7</ele>
        <time>2018-05-19T13:09:27Z</time>
      </trkpt>
      <trkpt lat="43.10345" lon="2.62335">
        <ele>123</ele>
        <time>2018-05-19T13:09:32Z</time>
      </trkpt>
      <trkpt lat="43.10338" lon="2.62349">
        <ele>124</ele>
        <time>2018-05-19T13:09:37Z</time>
      </trkpt>
      <trkpt lat="43.10328" lon="2.62371">
        <ele>122.8</ele>
        <time>2018-05-19T13:09:43Z</time>
      </trkpt>
      <trkpt lat="43.10322" lon="2.62384">
        <ele>124.4</ele>
        <time>2018-05-19T13:09:47Z</time>
      </trkpt>
      <trkpt lat="43.10308" lon="2.62401">
        <ele>125.3</ele>
        <time>2018-05-19T13:09:53Z</time>
      </trkpt>
      <trkpt lat="43.103" lon="2.62414">
        <ele>124.6</ele>
        <time>2018-05-19T13:09:57Z</time>
      </trkpt>
      <trkpt lat="43.10286" lon="2.62433">
        <ele>132</ele>
        <time>2018-05-19T13:10:03Z</time>
      </trkpt>
      <trkpt lat="43.10277" lon="2.62446">
        <ele>131.9</ele>
        <time>2018-05-19T13:10:07Z</time>
      </trkpt>
      <trkpt lat="43.10262" lon="2.62464">
        <ele>133.2</ele>
        <time>2018-05-19T13:10:13Z</time>
      </trkpt>
      <trkpt lat="43.10251" lon="2.62476">
        <ele>134.2</ele>
        <time>2018-05-19T13:10:17Z</time>
      </trkpt>
      <trkpt lat="43.10237" lon="2.62491">
        <ele>130</ele>
        <time>2018-05-19T13:10:22Z</time>
      </trkpt>
      <trkpt lat="43.10227" lon="2.62498">
        <ele>128.8</ele>
        <time>2018-05-19T13:10:27Z</time>
      </trkpt>
      <trkpt lat="43.10211" lon="2.62506">
        <ele>140.1</ele>
        <time>2018-05-19T13:10:32Z</time>
      </trkpt>
      <trkpt lat="43.10198" lon="2.62512">
        <ele>139.5</ele>
        <time>2018-05-19T13:10:38Z</time>
      </trkpt>
      <trkpt lat="43.10173" lon="2.6252">
        <ele>137.8</ele>
        <time>2018-05-19T13:10:42Z</time>
      </trkpt>
      <trkpt lat="43.10156" lon="2.62524">
        <ele>136.8</ele>
        <time>2018-05-19T13:10:48Z</time>
      </trkpt>
      <trkpt lat="43.10142" lon="2.62527">
        <ele>138</ele>
        <time>2018-05-19T13:10:52Z</time>
      </trkpt>
      <trkpt lat="43.10122" lon="2.62533">
        <ele>139</ele>
        <time>2018-05-19T13:10:58Z</time>
      </trkpt>
      <trkpt lat="43.10107" lon="2.62535">
        <ele>139</ele>
        <time>2018-05-19T13:11:02Z</time>
      </trkpt>
      <trkpt lat="43.10088" lon="2.62535">
        <ele>138.5</ele>
        <time>2018-05-19T13:11:08Z</time>
      </trkpt>
      <trkpt lat="43.10076" lon="2.62532">
        <ele>141.5</ele>
        <time>2018-05-19T13:11:12Z</time>
      </trkpt>
      <trkpt lat="43.1006" lon="2.62528">
        <ele>142.1</ele>
        <time>2018-05-19T13:11:17Z</time>
      </trkpt>
      <trkpt lat="43.10049" lon="2.62521">
        <ele>142.4</ele>
        <time>2018-05-19T13:11:22Z</time>
      </trkpt>
      <trkpt lat="43.10027" lon="2.62511">
        <ele>143.5</ele>
        <time>2018-05-19T13:11:27Z</time>
      </trkpt>
      <trkpt lat="43.10016" lon="2.62505">
        <ele>143.3</ele>
        <time>2018-05-19T13:11:33Z</time>
      </trkpt>
      <trkpt lat="43.09998" lon="2.62491">
        <ele>143</ele>
        <time>2018-05-19T13:11:37Z</time>
      </trkpt>
      <trkpt lat="43.09989" lon="2.6248">
        <ele>143.8</ele>
        <time>2018-05-19T13:11:43Z</time>
      </trkpt>
      <trkpt lat="43.09976" lon="2.62462">
        <ele>143.8</ele>
        <time>2018-05-19T13:11:47Z</time>
      </trkpt>
      <trkpt lat="43.09968" lon="2.62448">
        <ele>143.4</ele>
        <time>2018-05-19T13:11:53Z</time>
      </trkpt>
      <trkpt lat="43.09954" lon="2.62427">
        <ele>144.2</ele>
        <time>2018-05-19T13:11:57Z</time>
      </trkpt>
      <trkpt lat="43.09946" lon="2.62412">
        <ele>136.3</ele>
        <time>2018-05-19T13:12:02Z</time>
      </trkpt>
      <trkpt lat="43.09933" lon="2.62391">
        <ele>136.3</ele>
        <time>2018-05-19T13:12:07Z</time>
      </trkpt>
      <trkpt lat="43.09925" lon="2.62378">
        <ele>134.6</ele>
        <time>2018-05-19T13:12:12Z</time>
      </trkpt>
      <trkpt lat="43.09912" lon="2.62359">
        <ele>142.5</ele>
        <time>2018-05-19T13:12:18Z</time>
      </trkpt>
      <trkpt lat="43.09904" lon="2.62346">
        <ele>140.6</ele>
        <time>2018-05-19T13:12:22Z</time>
      </trkpt>
      <trkpt lat="43.0989" lon="2.62331">
        <ele>132.3</ele>
        <time>2018-05-19T13:12:28Z</time>
      </trkpt>
      <trkpt lat="43.0988" lon="2.62324">
        <ele>132.6</ele>
        <time>2018-05-19T13:12:32Z</time>
      </trkpt>
      <trkpt lat="43.09862" lon="2.62319">
        <ele>134.1</ele>
        <time>2018-05-19T13:12:38Z</time>
      </trkpt>
      <trkpt lat="43.09848" lon="2.6232">
        <ele>136.2</ele>
        <time>2018-05-19T13:12:42Z</time>
      </trkpt>
      <trkpt lat="43.09829" lon="2.62331">
        <ele>142.8</ele>
        <time>2018-05-19T13:12:47Z</time>
      </trkpt>
      <trkpt lat="43.09818" lon="2.62343">
        <ele>147.9</ele>
        <time>2018-05-19T13:12:52Z</time>
      </trkpt>
      <trkpt lat="43.09802" lon="2.62363">
        <ele>151.2</ele>
        <time>2018-05-19T13:12:57Z</time>
      </trkpt>
      <trkpt lat="43.09785" lon="2.62384">
        <ele>152.7</ele>
        <time>2018-05-19T13:13:03Z</time>
      </trkpt>
      <trkpt lat="43.09773" lon="2.62395">
        <ele>153.1</ele>
        <time>2018-05-19T13:13:07Z</time>
      </trkpt>
      <trkpt lat="43.09764" lon="2.62406">
        <ele>153.5</ele>
        <time>2018-05-19T13:13:13Z</time>
      </trkpt>
      <trkpt lat="43.0975" lon="2.62409">
        <ele>155.5</ele>
        <time>2018-05-19T13:13:17Z</time>
      </trkpt>
      <trkpt lat="43.09739" lon="2.62399">
        <ele>157.4</ele>
        <time>2018-05-19T13:13:23Z</time>
      </trkpt>
      <trkpt lat="43.09727" lon="2.62375">
        <ele>158.7</ele>
        <time>2018-05-19T13:13:27Z</time>
      </trkpt>
      <trkpt lat="43.09723" lon="2.62356">
        <ele>158.3</ele>
        <time>2018-05-19T13:13:33Z</time>
      </trkpt>
      <trkpt lat="43.09728" lon="2.62326">
        <ele>156.9</ele>
        <time>2018-05-19T13:13:37Z</time>
      </trkpt>
      <trkpt lat="43.09733" lon="2.62307">
        <ele>158</ele>
        <time>2018-05-19T13:13:42Z</time>
      </trkpt>
      <trkpt lat="43.0974" lon="2.62278">
        <ele>157.7</ele>
        <time>2018-05-19T13:13:47Z</time>
      </trkpt>
      <trkpt lat="43.09744" lon="2.62259">
        <ele>154.5</ele>
        <time>2018-05-19T13:13:52Z</time>
      </trkpt>
      <trkpt lat="43.0975" lon="2.62236">
        <ele>146</ele>
        <time>2018-05-19T13:13:58Z</time>
      </trkpt>
      <trkpt lat="43.09754" lon="2.62219">
        <ele>144.1</ele>
        <time>2018-05-19T13:14:02Z</time>
      </trkpt>
      <trkpt lat="43.09755" lon="2.62191">
        <ele>145.5</ele>
        <time>2018-05-19T13:14:08Z</time>
      </trkpt>
      <trkpt lat="43.09753" lon="2.62172">
        <ele>150.9</ele>
        <time>2018-05-19T13:14:12Z</time>
      </trkpt>
      <trkpt lat="43.09746" lon="2.62143">
        <ele>156.8</ele>
        <time>2018-05-19T13:14:18Z</time>
      </trkpt>
      <trkpt lat="43.0974" lon="2.62126">
        <ele>156.2</ele>
        <time>2018-05-19T13:14:22Z</time>
      </trkpt>
      <trkpt lat="43.09727" lon="2.62105">
        <ele>154.9</ele>
        <time>2018-05-19T13:14:27Z</time>
      </trkpt>
      <trkpt lat="43.09707" lon="2.6208">
        <ele>147.9</ele>
        <time>2018-05-19T13:14:32Z</time>
      </trkpt>
      <trkpt lat="43.09694" lon="2.62057">
        <ele>148.7</ele>
        <time>2018-05-19T13:14:37Z</time>
      </trkpt>
      <trkpt lat="43.0968" lon="2.62032">
        <ele>147.6</ele>
        <time>2018-05-19T13:14:43Z</time>
      </trkpt>
      <trkpt lat="43.09665" lon="2.6201">
        <ele>156.3</ele>
        <time>2018-05-19T13:14:47Z</time>
      </trkpt>
      <trkpt lat="43.09655" lon="2.61994">
        <ele>152.2</ele>
        <time>2018-05-19T13:14:53Z</time>
      </trkpt>
      <trkpt lat="43.09641" lon="2.6197">
        <ele>153.8</ele>
        <time>2018-05-19T13:14:57Z</time>
      </trkpt>
      <trkpt lat="43.09631" lon="2.61956">
        <ele>154.1</ele>
        <time>2018-05-19T13:15:03Z</time>
      </trkpt>
      <trkpt lat="43.09618" lon="2.61932">
        <ele>154.8</ele>
        <time>2018-05-19T13:15:07Z</time>
      </trkpt>
      <trkpt lat="43.09609" lon="2.61916">
        <ele>150.3</ele>
        <time>2018-05-19T13:15:12Z</time>
      </trkpt>
      <trkpt lat="43.09595" lon="2.61898">
        <ele>152</ele>
        <time>2018-05-19T13:15:17Z</time>
      </trkpt>
      <trkpt lat="43.09552" lon="2.61883">
        <ele>159.8</ele>
        <time>2018-05-19T13:16:37Z</time>
      </trkpt>
      <trkpt lat="43.09536" lon="2.6188">
        <ele>159.8</ele>
        <time>2018-05-19T13:16:43Z</time>
      </trkpt>
      <trkpt lat="43.09509" lon="2.6189">
        <ele>159.4</ele>
        <time>2018-05-19T13:16:47Z</time>
      </trkpt>
      <trkpt lat="43.09487" lon="2.61909">
        <ele>152.6</ele>
        <time>2018-05-19T13:16:52Z</time>
      </trkpt>
      <trkpt lat="43.09476" lon="2.61944">
        <ele>147.6</ele>
        <time>2018-05-19T13:16:57Z</time>
      </trkpt>
      <trkpt lat="43.09471" lon="2.61971">
        <ele>146.6</ele>
        <time>2018-05-19T13:17:02Z</time>
      </trkpt>
      <trkpt lat="43.09467" lon="2.61998">
        <ele>146.6</ele>
        <time>2018-05-19T13:17:08Z</time>
      </trkpt>
      <trkpt lat="43.09467" lon="2.61998">
        <ele>146.6</ele>
        <time>2018-05-19T13:17:12Z</time>
      </trkpt>
      <trkpt lat="43.09467" lon="2.61998">
        <ele>146.6</ele>
        <time>2018-05-19T13:17:18Z</time>
      </trkpt>
      <trkpt lat="43.09467" lon="2.62012">
        <ele>147.6</ele>
        <time>2018-05-19T13:18:07Z</time>
      </trkpt>
      <trkpt lat="43.09465" lon="2.62043">
        <ele>147.4</ele>
        <time>2018-05-19T13:18:13Z</time>
      </trkpt>
      <trkpt lat="43.09463" lon="2.6207">
        <ele>147.9</ele>
        <time>2018-05-19T13:18:17Z</time>
      </trkpt>
      <trkpt lat="43.09458" lon="2.62109">
        <ele>151.6</ele>
        <time>2018-05-19T13:18:23Z</time>
      </trkpt>
      <trkpt lat="43.0945" lon="2.62142">
        <ele>151.7</ele>
        <time>2018-05-19T13:18:27Z</time>
      </trkpt>
      <trkpt lat="43.09437" lon="2.62178">
        <ele>155.3</ele>
        <time>2018-05-19T13:18:32Z</time>
      </trkpt>
      <trkpt lat="43.09421" lon="2.62213">
        <ele>158.4</ele>
        <time>2018-05-19T13:18:37Z</time>
      </trkpt>
      <trkpt lat="43.09399" lon="2.62247">
        <ele>147.9</ele>
        <time>2018-05-19T13:18:42Z</time>
      </trkpt>
      <trkpt lat="43.09376" lon="2.62279">
        <ele>152.4</ele>
        <time>2018-05-19T13:18:48Z</time>
      </trkpt>
      <trkpt lat="43.09351" lon="2.62307">
        <ele>151.6</ele>
        <time>2018-05-19T13:18:52Z</time>
      </trkpt>
      <trkpt lat="43.09328" lon="2.62336">
        <ele>148.5</ele>
        <time>2018-05-19T13:18:58Z</time>
      </trkpt>
      <trkpt lat="43.09307" lon="2.6236">
        <ele>150.1</ele>
        <time>2018-05-19T13:19:02Z</time>
      </trkpt>
      <trkpt lat="43.09278" lon="2.62384">
        <ele>149.7</ele>
        <time>2018-05-19T13:19:08Z</time>
      </trkpt>
      <trkpt lat="43.09251" lon="2.62408">
        <ele>147.9</ele>
        <time>2018-05-19T13:19:12Z</time>
      </trkpt>
      <trkpt lat="43.09221" lon="2.62428">
        <ele>152.3</ele>
        <time>2018-05-19T13:19:18Z</time>
      </trkpt>
      <trkpt lat="43.0919" lon="2.62439">
        <ele>151.2</ele>
        <time>2018-05-19T13:19:22Z</time>
      </trkpt>
      <trkpt lat="43.09156" lon="2.62443">
        <ele>148.7</ele>
        <time>2018-05-19T13:19:27Z</time>
      </trkpt>
      <trkpt lat="43.09114" lon="2.62436">
        <ele>149.4</ele>
        <time>2018-05-19T13:19:32Z</time>
      </trkpt>
      <trkpt lat="43.09081" lon="2.62413">
        <ele>141.9</ele>
        <time>2018-05-19T13:19:37Z</time>
      </trkpt>
      <trkpt lat="43.09054" lon="2.62386">
        <ele>141.6</ele>
        <time>2018-05-19T13:19:43Z</time>
      </trkpt>
      <trkpt lat="43.09033" lon="2.62347">
        <ele>140.2</ele>
        <time>2018-05-19T13:19:47Z</time>
      </trkpt>
      <trkpt lat="43.09015" lon="2.62307">
        <ele>135.2</ele>
        <time>2018-05-19T13:19:53Z</time>
      </trkpt>
      <trkpt lat="43.09" lon="2.62265">
        <ele>133.5</ele>
        <time>2018-05-19T13:19:57Z</time>
      </trkpt>
      <trkpt lat="43.08988" lon="2.62223">
        <ele>135.6</ele>
        <time>2018-05-19T13:20:03Z</time>
      </trkpt>
      <trkpt lat="43.08977" lon="2.62185">
        <ele>135.5</ele>
        <time>2018-05-19T13:20:07Z</time>
      </trkpt>
      <trkpt lat="43.08969" lon="2.62149">
        <ele>135.6</ele>
        <time>2018-05-19T13:20:12Z</time>
      </trkpt>
      <trkpt lat="43.08968" lon="2.62122">
        <ele>136</ele>
        <time>2018-05-19T13:20:17Z</time>
      </trkpt>
      <trkpt lat="43.08969" lon="2.62086">
        <ele>135.8</ele>
        <time>2018-05-19T13:20:22Z</time>
      </trkpt>
      <trkpt lat="43.08971" lon="2.62064">
        <ele>136.5</ele>
        <time>2018-05-19T13:20:28Z</time>
      </trkpt>
      <trkpt lat="43.08976" lon="2.6205">
        <ele>136.6</ele>
        <time>2018-05-19T13:20:32Z</time>
      </trkpt>
      <trkpt lat="43.08986" lon="2.62048">
        <ele>136.4</ele>
        <time>2018-05-19T13:20:38Z</time>
      </trkpt>
      <trkpt lat="43.08998" lon="2.62051">
        <ele>136</ele>
        <time>2018-05-19T13:20:42Z</time>
      </trkpt>
      <trkpt lat="43.09008" lon="2.62055">
        <ele>133.3</ele>
        <time>2018-05-19T13:20:48Z</time>
      </trkpt>
      <trkpt lat="43.09028" lon="2.62062">
        <ele>132.9</ele>
        <time>2018-05-19T13:20:52Z</time>
      </trkpt>
      <trkpt lat="43.09043" lon="2.62069">
        <ele>132.5</ele>
        <time>2018-05-19T13:20:58Z</time>
      </trkpt>
      <trkpt lat="43.09069" lon="2.62076">
        <ele>131.4</ele>
        <time>2018-05-19T13:21:02Z</time>
      </trkpt>
      <trkpt lat="43.09087" lon="2.62082">
        <ele>130</ele>
        <time>2018-05-19T13:21:07Z</time>
      </trkpt>
      <trkpt lat="43.09107" lon="2.62089">
        <ele>129.5</ele>
        <time>2018-05-19T13:21:12Z</time>
      </trkpt>
      <trkpt lat="43.09124" lon="2.62084">
        <ele>129.4</ele>
        <time>2018-05-19T13:21:17Z</time>
      </trkpt>
      <trkpt lat="43.09125" lon="2.62068">
        <ele>129.9</ele>
        <time>2018-05-19T13:21:23Z</time>
      </trkpt>
      <trkpt lat="43.09126" lon="2.62045">
        <ele>130</ele>
        <time>2018-05-19T13:21:27Z</time>
      </trkpt>
      <trkpt lat="43.09125" lon="2.62031">
        <ele>130.1</ele>
        <time>2018-05-19T13:21:33Z</time>
      </trkpt>
      <trkpt lat="43.09135" lon="2.62012">
        <ele>129.9</ele>
        <time>2018-05-19T13:21:37Z</time>
      </trkpt>
      <trkpt lat="43.09141" lon="2.61996">
        <ele>129.6</ele>
        <time>2018-05-19T13:21:43Z</time>
      </trkpt>
      <trkpt lat="43.09143" lon="2.61972">
        <ele>129.6</ele>
        <time>2018-05-19T13:21:47Z</time>
      </trkpt>
      <trkpt lat="43.09144" lon="2.61963">
        <ele>129.5</ele>
        <time>2018-05-19T13:21:52Z</time>
      </trkpt>
      <trkpt lat="43.09148" lon="2.61947">
        <ele>129.3</ele>
        <time>2018-05-19T13:21:58Z</time>
      </trkpt>
      <trkpt lat="43.09149" lon="2.61931">
        <ele>129</ele>
        <time>2018-05-19T13:22:03Z</time>
      </trkpt>
      <trkpt lat="43.09152" lon="2.61917">
        <ele>128.8</ele>
        <time>2018-05-19T13:22:08Z</time>
      </trkpt>
      <trkpt lat="43.09153" lon="2.6191">
        <ele>127.4</ele>
        <time>2018-05-19T13:22:13Z</time>
      </trkpt>
      <trkpt lat="43.09153" lon="2.6191">
        <ele>127.4</ele>
        <time>2018-05-19T13:22:18Z</time>
      </trkpt>
      <trkpt lat="43.09158" lon="2.61912">
        <ele>127.6</ele>
        <time>2018-05-19T13:22:23Z</time>
      </trkpt>
      <trkpt lat="43.0916" lon="2.61928">
        <ele>128.7</ele>
        <time>2018-05-19T13:22:28Z</time>
      </trkpt>
      <trkpt lat="43.09158" lon="2.61943">
        <ele>129.1</ele>
        <time>2018-05-19T13:22:32Z</time>
      </trkpt>
      <trkpt lat="43.09154" lon="2.61956">
        <ele>129.3</ele>
        <time>2018-05-19T13:22:37Z</time>
      </trkpt>
      <trkpt lat="43.09147" lon="2.61962">
        <ele>129.5</ele>
        <time>2018-05-19T13:22:42Z</time>
      </trkpt>
      <trkpt lat="43.09142" lon="2.61962">
        <ele>129.5</ele>
        <time>2018-05-19T13:22:47Z</time>
      </trkpt>
      <trkpt lat="43.09132" lon="2.61959">
        <ele>129.6</ele>
        <time>2018-05-19T13:22:53Z</time>
      </trkpt>
      <trkpt lat="43.09121" lon="2.61952">
        <ele>129.8</ele>
        <time>2018-05-19T13:22:57Z</time>
      </trkpt>
      <trkpt lat="43.0911" lon="2.61949">
        <ele>129.9</ele>
        <time>2018-05-19T13:23:03Z</time>
      </trkpt>
      <trkpt lat="43.09105" lon="2.61947">
        <ele>129.9</ele>
        <time>2018-05-19T13:23:07Z</time>
      </trkpt>
      <trkpt lat="43.091" lon="2.61946">
        <ele>130</ele>
        <time>2018-05-19T13:23:13Z</time>
      </trkpt>
      <trkpt lat="43.091" lon="2.61946">
        <ele>130</ele>
        <time>2018-05-19T13:23:18Z</time>
      </trkpt>
      <trkpt lat="43.09096" lon="2.61949">
        <ele>130</ele>
        <time>2018-05-19T13:23:23Z</time>
      </trkpt>
      <trkpt lat="43.09096" lon="2.61949">
        <ele>130</ele>
        <time>2018-05-19T13:23:28Z</time>
      </trkpt>
      <trkpt lat="43.09101" lon="2.61949">
        <ele>130</ele>
        <time>2018-05-19T13:23:32Z</time>
      </trkpt>
      <trkpt lat="43.09106" lon="2.6195">
        <ele>129.9</ele>
        <time>2018-05-19T13:23:37Z</time>
      </trkpt>
      <trkpt lat="43.09106" lon="2.6195">
        <ele>129.9</ele>
        <time>2018-05-19T13:23:42Z</time>
      </trkpt>
      <trkpt lat="43.09106" lon="2.6195">
        <ele>129.9</ele>
        <time>2018-05-19T13:23:48Z</time>
      </trkpt>
      <trkpt lat="43.09106" lon="2.6195">
        <ele>129.9</ele>
        <time>2018-05-19T13:23:53Z</time>
      </trkpt>
      <trkpt lat="43.09106" lon="2.6195">
        <ele>129.9</ele>
        <time>2018-05-19T13:23:57Z</time>
      </trkpt>
      <trkpt lat="43.09108" lon="2.61957">
        <ele>130</ele>
        <time>2018-05-19T13:24:12Z</time>
      </trkpt>
      <trkpt lat="43.09103" lon="2.6197">
        <ele>130.2</ele>
        <time>2018-05-19T13:24:17Z</time>
      </trkpt>
      <trkpt lat="43.09098" lon="2.61981">
        <ele>130.6</ele>
        <time>2018-05-19T13:24:22Z</time>
      </trkpt>
      <trkpt lat="43.09088" lon="2.61986">
        <ele>131</ele>
        <time>2018-05-19T13:24:27Z</time>
      </trkpt>
      <trkpt lat="43.09088" lon="2.61982">
        <ele>130.8</ele>
        <time>2018-05-19T13:41:12Z</time>
      </trkpt>
      <trkpt lat="43.09093" lon="2.61969">
        <ele>130.4</ele>
        <time>2018-05-19T13:41:17Z</time>
      </trkpt>
      <trkpt lat="43.09094" lon="2.61955">
        <ele>130.1</ele>
        <time>2018-05-19T13:41:22Z</time>
      </trkpt>
      <trkpt lat="43.09095" lon="2.6194">
        <ele>129.9</ele>
        <time>2018-05-19T13:41:27Z</time>
      </trkpt>
      <trkpt lat="43.09096" lon="2.61934">
        <ele>129.9</ele>
        <time>2018-05-19T13:41:32Z</time>
      </trkpt>
      <trkpt lat="43.09094" lon="2.61918">
        <ele>129.9</ele>
        <time>2018-05-19T13:41:37Z</time>
      </trkpt>
      <trkpt lat="43.09099" lon="2.61905">
        <ele>128.1</ele>
        <time>2018-05-19T13:41:42Z</time>
      </trkpt>
      <trkpt lat="43.09109" lon="2.61903">
        <ele>127.6</ele>
        <time>2018-05-19T13:41:47Z</time>
      </trkpt>
      <trkpt lat="43.09115" lon="2.61903">
        <ele>127.5</ele>
        <time>2018-05-19T13:41:53Z</time>
      </trkpt>
      <trkpt lat="43.09125" lon="2.61896">
        <ele>127.1</ele>
        <time>2018-05-19T13:41:57Z</time>
      </trkpt>
      <trkpt lat="43.09132" lon="2.61888">
        <ele>126.8</ele>
        <time>2018-05-19T13:42:02Z</time>
      </trkpt>
      <trkpt lat="43.09142" lon="2.6188">
        <ele>126.6</ele>
        <time>2018-05-19T13:42:07Z</time>
      </trkpt>
      <trkpt lat="43.09142" lon="2.61873">
        <ele>126.3</ele>
        <time>2018-05-19T13:42:12Z</time>
      </trkpt>
      <trkpt lat="43.09137" lon="2.61871">
        <ele>126.3</ele>
        <time>2018-05-19T13:42:17Z</time>
      </trkpt>
      <trkpt lat="43.09137" lon="2.61871">
        <ele>126.3</ele>
        <time>2018-05-19T13:42:22Z</time>
      </trkpt>
      <trkpt lat="43.09134" lon="2.61875">
        <ele>126.5</ele>
        <time>2018-05-19T13:42:27Z</time>
      </trkpt>
      <trkpt lat="43.09134" lon="2.61875">
        <ele>126.5</ele>
        <time>2018-05-19T13:42:32Z</time>
      </trkpt>
      <trkpt lat="43.09134" lon="2.61875">
        <ele>126.5</ele>
        <time>2018-05-19T13:42:37Z</time>
      </trkpt>
      <trkpt lat="43.09134" lon="2.61875">
        <ele>126.5</ele>
        <time>2018-05-19T13:42:42Z</time>
      </trkpt>
      <trkpt lat="43.09134" lon="2.61875">
        <ele>126.5</ele>
        <time>2018-05-19T13:42:47Z</time>
      </trkpt>
      <trkpt lat="43.09139" lon="2.61872">
        <ele>126.3</ele>
        <time>2018-05-19T13:43:02Z</time>
      </trkpt>
      <trkpt lat="43.09139" lon="2.61872">
        <ele>126.3</ele>
        <time>2018-05-19T13:43:07Z</time>
      </trkpt>
      <trkpt lat="43.09139" lon="2.61872">
        <ele>126.3</ele>
        <time>2018-05-19T13:43:12Z</time>
      </trkpt>
      <trkpt lat="43.09143" lon="2.6187">
        <ele>126.2</ele>
        <time>2018-05-19T13:43:17Z</time>
      </trkpt>
      <trkpt lat="43.09147" lon="2.61869">
        <ele>126.2</ele>
        <time>2018-05-19T13:43:22Z</time>
      </trkpt>
      <trkpt lat="43.0916" lon="2.61871">
        <ele>126.2</ele>
        <time>2018-05-19T13:43:27Z</time>
      </trkpt>
      <trkpt lat="43.0917" lon="2.61868">
        <ele>125.1</ele>
        <time>2018-05-19T13:43:32Z</time>
      </trkpt>
      <trkpt lat="43.09175" lon="2.61867">
        <ele>125.1</ele>
        <time>2018-05-19T13:43:37Z</time>
      </trkpt>
      <trkpt lat="43.09186" lon="2.61871">
        <ele>125.2</ele>
        <time>2018-05-19T13:43:42Z</time>
      </trkpt>
      <trkpt lat="43.09198" lon="2.61874">
        <ele>125.1</ele>
        <time>2018-05-19T13:43:47Z</time>
      </trkpt>
      <trkpt lat="43.09205" lon="2.61882">
        <ele>125.1</ele>
        <time>2018-05-19T13:43:52Z</time>
      </trkpt>
      <trkpt lat="43.09205" lon="2.61882">
        <ele>125.1</ele>
        <time>2018-05-19T13:43:57Z</time>
      </trkpt>
      <trkpt lat="43.09208" lon="2.61888">
        <ele>125.1</ele>
        <time>2018-05-19T13:44:02Z</time>
      </trkpt>
      <trkpt lat="43.09213" lon="2.61884">
        <ele>125</ele>
        <time>2018-05-19T13:44:07Z</time>
      </trkpt>
      <trkpt lat="43.09215" lon="2.61877">
        <ele>124.9</ele>
        <time>2018-05-19T13:44:12Z</time>
      </trkpt>
      <trkpt lat="43.09219" lon="2.61863">
        <ele>124.8</ele>
        <time>2018-05-19T13:44:17Z</time>
      </trkpt>
      <trkpt lat="43.0922" lon="2.61856">
        <ele>124.7</ele>
        <time>2018-05-19T13:44:22Z</time>
      </trkpt>
      <trkpt lat="43.09222" lon="2.61849">
        <ele>124.6</ele>
        <time>2018-05-19T13:44:27Z</time>
      </trkpt>
      <trkpt lat="43.09224" lon="2.61842">
        <ele>124.6</ele>
        <time>2018-05-19T13:44:32Z</time>
      </trkpt>
      <trkpt lat="43.09224" lon="2.61842">
        <ele>124.6</ele>
        <time>2018-05-19T13:44:37Z</time>
      </trkpt>
      <trkpt lat="43.09224" lon="2.61842">
        <ele>124.6</ele>
        <time>2018-05-19T13:44:42Z</time>
      </trkpt>
      <trkpt lat="43.09227" lon="2.61837">
        <ele>124.5</ele>
        <time>2018-05-19T13:44:47Z</time>
      </trkpt>
      <trkpt lat="43.0923" lon="2.61832">
        <ele>125</ele>
        <time>2018-05-19T13:44:52Z</time>
      </trkpt>
      <trkpt lat="43.0923" lon="2.61832">
        <ele>125</ele>
        <time>2018-05-19T13:44:57Z</time>
      </trkpt>
      <trkpt lat="43.09235" lon="2.61818">
        <ele>125.2</ele>
        <time>2018-05-19T13:45:02Z</time>
      </trkpt>
      <trkpt lat="43.0923" lon="2.61799">
        <ele>125.9</ele>
        <time>2018-05-19T13:45:07Z</time>
      </trkpt>
      <trkpt lat="43.09226" lon="2.61794">
        <ele>126</ele>
        <time>2018-05-19T13:45:12Z</time>
      </trkpt>
      <trkpt lat="43.09221" lon="2.61795">
        <ele>126</ele>
        <time>2018-05-19T13:45:17Z</time>
      </trkpt>
      <trkpt lat="43.09221" lon="2.61795">
        <ele>126</ele>
        <time>2018-05-19T13:45:22Z</time>
      </trkpt>
      <trkpt lat="43.09221" lon="2.61795">
        <ele>126</ele>
        <time>2018-05-19T13:45:27Z</time>
      </trkpt>
      <trkpt lat="43.09221" lon="2.61795">
        <ele>126</ele>
        <time>2018-05-19T13:45:32Z</time>
      </trkpt>
      <trkpt lat="43.09221" lon="2.61795">
        <ele>126</ele>
        <time>2018-05-19T13:45:37Z</time>
      </trkpt>
      <trkpt lat="43.09215" lon="2.61785">
        <ele>126.2</ele>
        <time>2018-05-19T13:45:42Z</time>
      </trkpt>
      <trkpt lat="43.09205" lon="2.61774">
        <ele>126.4</ele>
        <time>2018-05-19T13:45:47Z</time>
      </trkpt>
      <trkpt lat="43.09197" lon="2.61764">
        <ele>126.5</ele>
        <time>2018-05-19T13:45:52Z</time>
      </trkpt>
      <trkpt lat="43.09183" lon="2.61749">
        <ele>128.8</ele>
        <time>2018-05-19T13:45:57Z</time>
      </trkpt>
      <trkpt lat="43.09176" lon="2.61739">
        <ele>128.8</ele>
        <time>2018-05-19T13:46:02Z</time>
      </trkpt>
      <trkpt lat="43.09163" lon="2.61727">
        <ele>129.8</ele>
        <time>2018-05-19T13:46:07Z</time>
      </trkpt>
      <trkpt lat="43.09152" lon="2.61724">
        <ele>130.1</ele>
        <time>2018-05-19T13:46:12Z</time>
      </trkpt>
      <trkpt lat="43.09136" lon="2.61722">
        <ele>130.2</ele>
        <time>2018-05-19T13:46:17Z</time>
      </trkpt>
      <trkpt lat="43.09143" lon="2.61733">
        <ele>129.6</ele>
        <time>2018-05-19T15:06:42Z</time>
      </trkpt>
      <trkpt lat="43.09156" lon="2.61738">
        <ele>128.9</ele>
        <time>2018-05-19T15:06:47Z</time>
      </trkpt>
      <trkpt lat="43.09177" lon="2.61743">
        <ele>128.6</ele>
        <time>2018-05-19T15:06:52Z</time>
      </trkpt>
      <trkpt lat="43.0919" lon="2.61753">
        <ele>126.6</ele>
        <time>2018-05-19T15:06:57Z</time>
      </trkpt>
      <trkpt lat="43.09206" lon="2.61768">
        <ele>126.5</ele>
        <time>2018-05-19T15:07:02Z</time>
      </trkpt>
      <trkpt lat="43.09215" lon="2.61784">
        <ele>126.2</ele>
        <time>2018-05-19T15:07:07Z</time>
      </trkpt>
      <trkpt lat="43.09231" lon="2.61805">
        <ele>125.7</ele>
        <time>2018-05-19T15:07:12Z</time>
      </trkpt>
      <trkpt lat="43.0924" lon="2.61817">
        <ele>125.2</ele>
        <time>2018-05-19T15:07:17Z</time>
      </trkpt>
      <trkpt lat="43.09242" lon="2.61823">
        <ele>124.9</ele>
        <time>2018-05-19T15:07:22Z</time>
      </trkpt>
      <trkpt lat="43.09238" lon="2.61817">
        <ele>125.2</ele>
        <time>2018-05-19T15:07:27Z</time>
      </trkpt>
      <trkpt lat="43.09238" lon="2.61817">
        <ele>125.2</ele>
        <time>2018-05-19T15:07:32Z</time>
      </trkpt>
      <trkpt lat="43.09238" lon="2.61817">
        <ele>125.2</ele>
        <time>2018-05-19T15:07:37Z</time>
      </trkpt>
      <trkpt lat="43.09238" lon="2.61817">
        <ele>125.2</ele>
        <time>2018-05-19T15:07:42Z</time>
      </trkpt>
      <trkpt lat="43.09243" lon="2.61811">
        <ele>125.4</ele>
        <time>2018-05-19T15:07:47Z</time>
      </trkpt>
      <trkpt lat="43.09253" lon="2.61809">
        <ele>124.2</ele>
        <time>2018-05-19T15:07:52Z</time>
      </trkpt>
      <trkpt lat="43.09264" lon="2.61809">
        <ele>124.1</ele>
        <time>2018-05-19T15:07:57Z</time>
      </trkpt>
      <trkpt lat="43.09283" lon="2.61803">
        <ele>123.8</ele>
        <time>2018-05-19T15:08:02Z</time>
      </trkpt>
      <trkpt lat="43.09296" lon="2.61797">
        <ele>123.6</ele>
        <time>2018-05-19T15:08:07Z</time>
      </trkpt>
      <trkpt lat="43.09314" lon="2.61804">
        <ele>122.9</ele>
        <time>2018-05-19T15:08:12Z</time>
      </trkpt>
      <trkpt lat="43.09317" lon="2.61827">
        <ele>122.3</ele>
        <time>2018-05-19T15:08:17Z</time>
      </trkpt>
      <trkpt lat="43.09315" lon="2.61857">
        <ele>121.8</ele>
        <time>2018-05-19T15:08:22Z</time>
      </trkpt>
      <trkpt lat="43.0931" lon="2.61871">
        <ele>121.9</ele>
        <time>2018-05-19T15:08:27Z</time>
      </trkpt>
      <trkpt lat="43.09294" lon="2.61913">
        <ele>122.1</ele>
        <time>2018-05-19T15:09:52Z</time>
      </trkpt>
      <trkpt lat="43.09284" lon="2.61947">
        <ele>123.7</ele>
        <time>2018-05-19T15:09:57Z</time>
      </trkpt>
      <trkpt lat="43.09277" lon="2.61977">
        <ele>124.5</ele>
        <time>2018-05-19T15:10:02Z</time>
      </trkpt>
      <trkpt lat="43.09268" lon="2.62005">
        <ele>126.4</ele>
        <time>2018-05-19T15:10:07Z</time>
      </trkpt>
      <trkpt lat="43.09254" lon="2.62025">
        <ele>126.5</ele>
        <time>2018-05-19T15:10:12Z</time>
      </trkpt>
      <trkpt lat="43.09239" lon="2.62046">
        <ele>128</ele>
        <time>2018-05-19T15:10:17Z</time>
      </trkpt>
      <trkpt lat="43.09226" lon="2.62062">
        <ele>128.2</ele>
        <time>2018-05-19T15:10:22Z</time>
      </trkpt>
      <trkpt lat="43.09203" lon="2.62082">
        <ele>128.4</ele>
        <time>2018-05-19T15:10:27Z</time>
      </trkpt>
      <trkpt lat="43.09183" lon="2.62101">
        <ele>128.4</ele>
        <time>2018-05-19T15:10:32Z</time>
      </trkpt>
      <trkpt lat="43.09168" lon="2.62109">
        <ele>128.4</ele>
        <time>2018-05-19T15:10:37Z</time>
      </trkpt>
      <trkpt lat="43.09146" lon="2.62109">
        <ele>129.1</ele>
        <time>2018-05-19T15:10:42Z</time>
      </trkpt>
      <trkpt lat="43.09134" lon="2.62108">
        <ele>129.2</ele>
        <time>2018-05-19T15:10:47Z</time>
      </trkpt>
      <trkpt lat="43.09129" lon="2.62098">
        <ele>129.3</ele>
        <time>2018-05-19T15:10:52Z</time>
      </trkpt>
      <trkpt lat="43.09144" lon="2.62086">
        <ele>129.2</ele>
        <time>2018-05-19T15:15:37Z</time>
      </trkpt>
      <trkpt lat="43.09147" lon="2.62097">
        <ele>129.2</ele>
        <time>2018-05-19T15:15:42Z</time>
      </trkpt>
      <trkpt lat="43.09158" lon="2.62099">
        <ele>129.1</ele>
        <time>2018-05-19T15:15:47Z</time>
      </trkpt>
      <trkpt lat="43.09181" lon="2.62097">
        <ele>128.5</ele>
        <time>2018-05-19T15:15:52Z</time>
      </trkpt>
      <trkpt lat="43.09198" lon="2.62093">
        <ele>128.3</ele>
        <time>2018-05-19T15:15:57Z</time>
      </trkpt>
      <trkpt lat="43.09216" lon="2.62072">
        <ele>128.3</ele>
        <time>2018-05-19T15:16:02Z</time>
      </trkpt>
      <trkpt lat="43.09226" lon="2.62054">
        <ele>128.1</ele>
        <time>2018-05-19T15:16:07Z</time>
      </trkpt>
      <trkpt lat="43.09243" lon="2.62033">
        <ele>127.9</ele>
        <time>2018-05-19T15:16:12Z</time>
      </trkpt>
      <trkpt lat="43.0925" lon="2.62019">
        <ele>127.7</ele>
        <time>2018-05-19T15:16:17Z</time>
      </trkpt>
      <trkpt lat="43.09262" lon="2.62002">
        <ele>126.6</ele>
        <time>2018-05-19T15:16:22Z</time>
      </trkpt>
      <trkpt lat="43.09274" lon="2.61992">
        <ele>124.9</ele>
        <time>2018-05-19T15:16:27Z</time>
      </trkpt>
      <trkpt lat="43.09292" lon="2.61973">
        <ele>124</ele>
        <time>2018-05-19T15:16:32Z</time>
      </trkpt>
      <trkpt lat="43.09303" lon="2.6195">
        <ele>123.3</ele>
        <time>2018-05-19T15:16:37Z</time>
      </trkpt>
      <trkpt lat="43.09307" lon="2.61924">
        <ele>122.5</ele>
        <time>2018-05-19T15:16:42Z</time>
      </trkpt>
      <trkpt lat="43.09313" lon="2.6189">
        <ele>121.7</ele>
        <time>2018-05-19T15:16:47Z</time>
      </trkpt>
      <trkpt lat="43.09317" lon="2.61866">
        <ele>121.8</ele>
        <time>2018-05-19T15:16:52Z</time>
      </trkpt>
      <trkpt lat="43.09314" lon="2.61831">
        <ele>122.4</ele>
        <time>2018-05-19T15:16:57Z</time>
      </trkpt>
      <trkpt lat="43.09307" lon="2.61795">
        <ele>123.2</ele>
        <time>2018-05-19T15:17:02Z</time>
      </trkpt>
      <trkpt lat="43.09298" lon="2.61769">
        <ele>123.7</ele>
        <time>2018-05-19T15:17:07Z</time>
      </trkpt>
      <trkpt lat="43.09291" lon="2.61748">
        <ele>125.4</ele>
        <time>2018-05-19T15:17:12Z</time>
      </trkpt>
      <trkpt lat="43.0928" lon="2.61718">
        <ele>125.9</ele>
        <time>2018-05-19T15:17:17Z</time>
      </trkpt>
      <trkpt lat="43.09269" lon="2.61683">
        <ele>126.2</ele>
        <time>2018-05-19T15:17:22Z</time>
      </trkpt>
      <trkpt lat="43.09256" lon="2.61647">
        <ele>126.3</ele>
        <time>2018-05-19T15:17:27Z</time>
      </trkpt>
      <trkpt lat="43.09247" lon="2.61617">
        <ele>130</ele>
        <time>2018-05-19T15:17:32Z</time>
      </trkpt>
      <trkpt lat="43.09237" lon="2.61575">
        <ele>127.7</ele>
        <time>2018-05-19T15:17:37Z</time>
      </trkpt>
      <trkpt lat="43.09226" lon="2.61535">
        <ele>131.9</ele>
        <time>2018-05-19T15:17:42Z</time>
      </trkpt>
      <trkpt lat="43.09216" lon="2.61496">
        <ele>130.1</ele>
        <time>2018-05-19T15:17:47Z</time>
      </trkpt>
      <trkpt lat="43.09205" lon="2.61459">
        <ele>130.5</ele>
        <time>2018-05-19T15:17:52Z</time>
      </trkpt>
      <trkpt lat="43.09193" lon="2.61423">
        <ele>128.9</ele>
        <time>2018-05-19T15:17:57Z</time>
      </trkpt>
      <trkpt lat="43.09183" lon="2.61387">
        <ele>126.4</ele>
        <time>2018-05-19T15:18:02Z</time>
      </trkpt>
      <trkpt lat="43.0917" lon="2.61351">
        <ele>123.5</ele>
        <time>2018-05-19T15:18:07Z</time>
      </trkpt>
      <trkpt lat="43.09158" lon="2.61319">
        <ele>126.9</ele>
        <time>2018-05-19T15:18:12Z</time>
      </trkpt>
      <trkpt lat="43.09152" lon="2.61283">
        <ele>130.1</ele>
        <time>2018-05-19T15:18:17Z</time>
      </trkpt>
      <trkpt lat="43.09154" lon="2.61247">
        <ele>123.3</ele>
        <time>2018-05-19T15:18:22Z</time>
      </trkpt>
      <trkpt lat="43.09149" lon="2.61218">
        <ele>126.1</ele>
        <time>2018-05-19T15:18:27Z</time>
      </trkpt>
      <trkpt lat="43.09139" lon="2.61177">
        <ele>125.9</ele>
        <time>2018-05-19T15:18:32Z</time>
      </trkpt>
      <trkpt lat="43.09138" lon="2.61143">
        <ele>126.3</ele>
        <time>2018-05-19T15:18:37Z</time>
      </trkpt>
      <trkpt lat="43.09138" lon="2.6111">
        <ele>126.9</ele>
        <time>2018-05-19T15:18:42Z</time>
      </trkpt>
      <trkpt lat="43.09142" lon="2.6108">
        <ele>131.2</ele>
        <time>2018-05-19T15:18:47Z</time>
      </trkpt>
      <trkpt lat="43.09152" lon="2.61059">
        <ele>132</ele>
        <time>2018-05-19T15:18:52Z</time>
      </trkpt>
      <trkpt lat="43.09172" lon="2.61028">
        <ele>128.2</ele>
        <time>2018-05-19T15:18:57Z</time>
      </trkpt>
      <trkpt lat="43.09187" lon="2.6101">
        <ele>129.1</ele>
        <time>2018-05-19T15:19:02Z</time>
      </trkpt>
      <trkpt lat="43.09213" lon="2.60982">
        <ele>132.5</ele>
        <time>2018-05-19T15:19:07Z</time>
      </trkpt>
      <trkpt lat="43.09234" lon="2.60958">
        <ele>132</ele>
        <time>2018-05-19T15:19:12Z</time>
      </trkpt>
      <trkpt lat="43.09253" lon="2.60935">
        <ele>126</ele>
        <time>2018-05-19T15:19:17Z</time>
      </trkpt>
      <trkpt lat="43.09268" lon="2.60907">
        <ele>126.5</ele>
        <time>2018-05-19T15:19:22Z</time>
      </trkpt>
      <trkpt lat="43.09289" lon="2.6088">
        <ele>126.1</ele>
        <time>2018-05-19T15:19:27Z</time>
      </trkpt>
      <trkpt lat="43.09309" lon="2.60853">
        <ele>124.4</ele>
        <time>2018-05-19T15:19:32Z</time>
      </trkpt>
      <trkpt lat="43.09329" lon="2.60834">
        <ele>119.4</ele>
        <time>2018-05-19T15:19:37Z</time>
      </trkpt>
      <trkpt lat="43.09355" lon="2.60808">
        <ele>120.5</ele>
        <time>2018-05-19T15:19:42Z</time>
      </trkpt>
      <trkpt lat="43.09376" lon="2.60778">
        <ele>121.2</ele>
        <time>2018-05-19T15:19:47Z</time>
      </trkpt>
      <trkpt lat="43.09392" lon="2.60761">
        <ele>120.2</ele>
        <time>2018-05-19T15:19:52Z</time>
      </trkpt>
      <trkpt lat="43.09412" lon="2.60735">
        <ele>124.3</ele>
        <time>2018-05-19T15:19:57Z</time>
      </trkpt>
      <trkpt lat="43.09435" lon="2.6072">
        <ele>120.1</ele>
        <time>2018-05-19T15:20:02Z</time>
      </trkpt>
      <trkpt lat="43.09457" lon="2.60695">
        <ele>120.8</ele>
        <time>2018-05-19T15:20:07Z</time>
      </trkpt>
      <trkpt lat="43.09477" lon="2.60674">
        <ele>119.9</ele>
        <time>2018-05-19T15:20:12Z</time>
      </trkpt>
      <trkpt lat="43.09492" lon="2.60656">
        <ele>125.3</ele>
        <time>2018-05-19T15:20:17Z</time>
      </trkpt>
      <trkpt lat="43.09508" lon="2.60641">
        <ele>121.4</ele>
        <time>2018-05-19T15:20:22Z</time>
      </trkpt>
      <trkpt lat="43.09525" lon="2.60623">
        <ele>122.7</ele>
        <time>2018-05-19T15:20:27Z</time>
      </trkpt>
      <trkpt lat="43.09539" lon="2.60604">
        <ele>123.1</ele>
        <time>2018-05-19T15:20:32Z</time>
      </trkpt>
      <trkpt lat="43.09549" lon="2.60581">
        <ele>125</ele>
        <time>2018-05-19T15:20:37Z</time>
      </trkpt>
      <trkpt lat="43.09551" lon="2.60563">
        <ele>124.9</ele>
        <time>2018-05-19T15:20:42Z</time>
      </trkpt>
      <trkpt lat="43.09541" lon="2.60536">
        <ele>125.8</ele>
        <time>2018-05-19T15:20:47Z</time>
      </trkpt>
      <trkpt lat="43.09533" lon="2.60522">
        <ele>126.5</ele>
        <time>2018-05-19T15:20:52Z</time>
      </trkpt>
      <trkpt lat="43.09523" lon="2.605">
        <ele>126.9</ele>
        <time>2018-05-19T15:20:57Z</time>
      </trkpt>
      <trkpt lat="43.09518" lon="2.60484">
        <ele>126.9</ele>
        <time>2018-05-19T15:21:02Z</time>
      </trkpt>
      <trkpt lat="43.09509" lon="2.60461">
        <ele>125.8</ele>
        <time>2018-05-19T15:21:07Z</time>
      </trkpt>
      <trkpt lat="43.09503" lon="2.60446">
        <ele>125.3</ele>
        <time>2018-05-19T15:21:12Z</time>
      </trkpt>
      <trkpt lat="43.09494" lon="2.60421">
        <ele>132.9</ele>
        <time>2018-05-19T15:21:17Z</time>
      </trkpt>
      <trkpt lat="43.09488" lon="2.60405">
        <ele>135.4</ele>
        <time>2018-05-19T15:21:22Z</time>
      </trkpt>
      <trkpt lat="43.09481" lon="2.60379">
        <ele>139.7</ele>
        <time>2018-05-19T15:21:27Z</time>
      </trkpt>
      <trkpt lat="43.09478" lon="2.60361">
        <ele>138.9</ele>
        <time>2018-05-19T15:21:32Z</time>
      </trkpt>
      <trkpt lat="43.09474" lon="2.60333">
        <ele>132.5</ele>
        <time>2018-05-19T15:21:37Z</time>
      </trkpt>
      <trkpt lat="43.09474" lon="2.60314">
        <ele>133.6</ele>
        <time>2018-05-19T15:21:42Z</time>
      </trkpt>
      <trkpt lat="43.0947" lon="2.60284">
        <ele>134.9</ele>
        <time>2018-05-19T15:21:47Z</time>
      </trkpt>
      <trkpt lat="43.09467" lon="2.60262">
        <ele>134.4</ele>
        <time>2018-05-19T15:21:52Z</time>
      </trkpt>
      <trkpt lat="43.09467" lon="2.60228">
        <ele>132.3</ele>
        <time>2018-05-19T15:21:57Z</time>
      </trkpt>
      <trkpt lat="43.09467" lon="2.60205">
        <ele>132.4</ele>
        <time>2018-05-19T15:22:02Z</time>
      </trkpt>
      <trkpt lat="43.09464" lon="2.60171">
        <ele>132.1</ele>
        <time>2018-05-19T15:22:07Z</time>
      </trkpt>
      <trkpt lat="43.09465" lon="2.60151">
        <ele>129.7</ele>
        <time>2018-05-19T15:22:12Z</time>
      </trkpt>
      <trkpt lat="43.09464" lon="2.60119">
        <ele>129.2</ele>
        <time>2018-05-19T15:22:17Z</time>
      </trkpt>
      <trkpt lat="43.09463" lon="2.60096">
        <ele>128.8</ele>
        <time>2018-05-19T15:22:22Z</time>
      </trkpt>
      <trkpt lat="43.09463" lon="2.60067">
        <ele>125.8</ele>
        <time>2018-05-19T15:22:27Z</time>
      </trkpt>
      <trkpt lat="43.09464" lon="2.60032">
        <ele>125</ele>
        <time>2018-05-19T15:22:32Z</time>
      </trkpt>
      <trkpt lat="43.09461" lon="2.6001">
        <ele>124.5</ele>
        <time>2018-05-19T15:22:37Z</time>
      </trkpt>
      <trkpt lat="43.09455" lon="2.59977">
        <ele>123.9</ele>
        <time>2018-05-19T15:22:42Z</time>
      </trkpt>
      <trkpt lat="43.09446" lon="2.59958">
        <ele>123.8</ele>
        <time>2018-05-19T15:22:47Z</time>
      </trkpt>
      <trkpt lat="43.09424" lon="2.5994">
        <ele>123</ele>
        <time>2018-05-19T15:22:52Z</time>
      </trkpt>
      <trkpt lat="43.09406" lon="2.59925">
        <ele>123.4</ele>
        <time>2018-05-19T15:22:57Z</time>
      </trkpt>
      <trkpt lat="43.09392" lon="2.59911">
        <ele>132.1</ele>
        <time>2018-05-19T15:23:02Z</time>
      </trkpt>
      <trkpt lat="43.0937" lon="2.59904">
        <ele>136.3</ele>
        <time>2018-05-19T15:23:07Z</time>
      </trkpt>
      <trkpt lat="43.09348" lon="2.59919">
        <ele>131.5</ele>
        <time>2018-05-19T15:23:12Z</time>
      </trkpt>
      <trkpt lat="43.09338" lon="2.59936">
        <ele>130.5</ele>
        <time>2018-05-19T15:23:17Z</time>
      </trkpt>
      <trkpt lat="43.09329" lon="2.59966">
        <ele>138.4</ele>
        <time>2018-05-19T15:23:22Z</time>
      </trkpt>
      <trkpt lat="43.09324" lon="2.59984">
        <ele>135.1</ele>
        <time>2018-05-19T15:23:27Z</time>
      </trkpt>
      <trkpt lat="43.09317" lon="2.60012">
        <ele>130.7</ele>
        <time>2018-05-19T15:23:32Z</time>
      </trkpt>
      <trkpt lat="43.09312" lon="2.6003">
        <ele>131.9</ele>
        <time>2018-05-19T15:23:37Z</time>
      </trkpt>
      <trkpt lat="43.09305" lon="2.60051">
        <ele>132</ele>
        <time>2018-05-19T15:23:42Z</time>
      </trkpt>
      <trkpt lat="43.09301" lon="2.60064">
        <ele>131.7</ele>
        <time>2018-05-19T15:23:47Z</time>
      </trkpt>
      <trkpt lat="43.09292" lon="2.60084">
        <ele>128.7</ele>
        <time>2018-05-19T15:23:52Z</time>
      </trkpt>
      <trkpt lat="43.09285" lon="2.60096">
        <ele>129.2</ele>
        <time>2018-05-19T15:23:57Z</time>
      </trkpt>
      <trkpt lat="43.0927" lon="2.6011">
        <ele>129.4</ele>
        <time>2018-05-19T15:24:02Z</time>
      </trkpt>
      <trkpt lat="43.0926" lon="2.60117">
        <ele>129.2</ele>
        <time>2018-05-19T15:24:07Z</time>
      </trkpt>
      <trkpt lat="43.09243" lon="2.6012">
        <ele>129.4</ele>
        <time>2018-05-19T15:24:12Z</time>
      </trkpt>
      <trkpt lat="43.0923" lon="2.60119">
        <ele>129.3</ele>
        <time>2018-05-19T15:24:17Z</time>
      </trkpt>
      <trkpt lat="43.09212" lon="2.60115">
        <ele>129.5</ele>
        <time>2018-05-19T15:24:22Z</time>
      </trkpt>
      <trkpt lat="43.09199" lon="2.60112">
        <ele>129.7</ele>
        <time>2018-05-19T15:24:27Z</time>
      </trkpt>
      <trkpt lat="43.09177" lon="2.60106">
        <ele>130.5</ele>
        <time>2018-05-19T15:24:32Z</time>
      </trkpt>
      <trkpt lat="43.09157" lon="2.60101">
        <ele>130</ele>
        <time>2018-05-19T15:24:37Z</time>
      </trkpt>
      <trkpt lat="43.09137" lon="2.60092">
        <ele>129</ele>
        <time>2018-05-19T15:24:42Z</time>
      </trkpt>
      <trkpt lat="43.09122" lon="2.60081">
        <ele>132.8</ele>
        <time>2018-05-19T15:24:47Z</time>
      </trkpt>
      <trkpt lat="43.09107" lon="2.60058">
        <ele>132.4</ele>
        <time>2018-05-19T15:24:52Z</time>
      </trkpt>
      <trkpt lat="43.091" lon="2.60039">
        <ele>132.8</ele>
        <time>2018-05-19T15:24:57Z</time>
      </trkpt>
      <trkpt lat="43.09097" lon="2.60009">
        <ele>132.1</ele>
        <time>2018-05-19T15:25:02Z</time>
      </trkpt>
      <trkpt lat="43.091" lon="2.59986">
        <ele>134.8</ele>
        <time>2018-05-19T15:25:07Z</time>
      </trkpt>
      <trkpt lat="43.09106" lon="2.59955">
        <ele>136.6</ele>
        <time>2018-05-19T15:25:12Z</time>
      </trkpt>
      <trkpt lat="43.09113" lon="2.59936">
        <ele>136.9</ele>
        <time>2018-05-19T15:25:17Z</time>
      </trkpt>
      <trkpt lat="43.09128" lon="2.59912">
        <ele>137.9</ele>
        <time>2018-05-19T15:25:22Z</time>
      </trkpt>
      <trkpt lat="43.09137" lon="2.59895">
        <ele>138.7</ele>
        <time>2018-05-19T15:25:27Z</time>
      </trkpt>
      <trkpt lat="43.09152" lon="2.59872">
        <ele>138.1</ele>
        <time>2018-05-19T15:25:32Z</time>
      </trkpt>
      <trkpt lat="43.09161" lon="2.59859">
        <ele>137.3</ele>
        <time>2018-05-19T15:25:37Z</time>
      </trkpt>
      <trkpt lat="43.09177" lon="2.59842">
        <ele>141.9</ele>
        <time>2018-05-19T15:25:42Z</time>
      </trkpt>
      <trkpt lat="43.09187" lon="2.5983">
        <ele>139.2</ele>
        <time>2018-05-19T15:25:47Z</time>
      </trkpt>
      <trkpt lat="43.09203" lon="2.59815">
        <ele>141.4</ele>
        <time>2018-05-19T15:25:52Z</time>
      </trkpt>
      <trkpt lat="43.09213" lon="2.59805">
        <ele>142.2</ele>
        <time>2018-05-19T15:25:59Z</time>
      </trkpt>
      <trkpt lat="43.09227" lon="2.59786">
        <ele>141.7</ele>
        <time>2018-05-19T15:26:02Z</time>
      </trkpt>
      <trkpt lat="43.09238" lon="2.59772">
        <ele>140.6</ele>
        <time>2018-05-19T15:26:07Z</time>
      </trkpt>
      <trkpt lat="43.09254" lon="2.59752">
        <ele>141.1</ele>
        <time>2018-05-19T15:26:12Z</time>
      </trkpt>
      <trkpt lat="43.09263" lon="2.5974">
        <ele>142.5</ele>
        <time>2018-05-19T15:26:17Z</time>
      </trkpt>
      <trkpt lat="43.09278" lon="2.59719">
        <ele>145.6</ele>
        <time>2018-05-19T15:26:22Z</time>
      </trkpt>
      <trkpt lat="43.09288" lon="2.59703">
        <ele>146.5</ele>
        <time>2018-05-19T15:26:27Z</time>
      </trkpt>
      <trkpt lat="43.09303" lon="2.59678">
        <ele>148.2</ele>
        <time>2018-05-19T15:26:32Z</time>
      </trkpt>
      <trkpt lat="43.0931" lon="2.59657">
        <ele>146.8</ele>
        <time>2018-05-19T15:26:37Z</time>
      </trkpt>
      <trkpt lat="43.09313" lon="2.59623">
        <ele>145.4</ele>
        <time>2018-05-19T15:26:42Z</time>
      </trkpt>
      <trkpt lat="43.0931" lon="2.59601">
        <ele>145.5</ele>
        <time>2018-05-19T15:26:47Z</time>
      </trkpt>
      <trkpt lat="43.09299" lon="2.59571">
        <ele>146.2</ele>
        <time>2018-05-19T15:26:52Z</time>
      </trkpt>
      <trkpt lat="43.09283" lon="2.59557">
        <ele>144.1</ele>
        <time>2018-05-19T15:26:57Z</time>
      </trkpt>
      <trkpt lat="43.09259" lon="2.59548">
        <ele>141.9</ele>
        <time>2018-05-19T15:27:02Z</time>
      </trkpt>
      <trkpt lat="43.09238" lon="2.59544">
        <ele>136.8</ele>
        <time>2018-05-19T15:27:07Z</time>
      </trkpt>
      <trkpt lat="43.09222" lon="2.5954">
        <ele>137.4</ele>
        <time>2018-05-19T15:27:12Z</time>
      </trkpt>
      <trkpt lat="43.092" lon="2.59531">
        <ele>137.9</ele>
        <time>2018-05-19T15:27:17Z</time>
      </trkpt>
      <trkpt lat="43.09187" lon="2.59512">
        <ele>136.8</ele>
        <time>2018-05-19T15:27:22Z</time>
      </trkpt>
      <trkpt lat="43.09183" lon="2.59491">
        <ele>136.5</ele>
        <time>2018-05-19T15:27:27Z</time>
      </trkpt>
      <trkpt lat="43.0918" lon="2.59457">
        <ele>137.7</ele>
        <time>2018-05-19T15:27:32Z</time>
      </trkpt>
      <trkpt lat="43.09183" lon="2.59432">
        <ele>137.4</ele>
        <time>2018-05-19T15:27:37Z</time>
      </trkpt>
      <trkpt lat="43.09193" lon="2.59406">
        <ele>140.9</ele>
        <time>2018-05-19T15:27:42Z</time>
      </trkpt>
      <trkpt lat="43.09206" lon="2.59379">
        <ele>143.2</ele>
        <time>2018-05-19T15:27:47Z</time>
      </trkpt>
      <trkpt lat="43.0921" lon="2.59362">
        <ele>143.9</ele>
        <time>2018-05-19T15:27:52Z</time>
      </trkpt>
      <trkpt lat="43.09215" lon="2.59337">
        <ele>144.8</ele>
        <time>2018-05-19T15:27:57Z</time>
      </trkpt>
      <trkpt lat="43.09218" lon="2.59318">
        <ele>145.8</ele>
        <time>2018-05-19T15:28:02Z</time>
      </trkpt>
      <trkpt lat="43.09216" lon="2.59285">
        <ele>145.4</ele>
        <time>2018-05-19T15:28:07Z</time>
      </trkpt>
      <trkpt lat="43.09218" lon="2.59264">
        <ele>145.9</ele>
        <time>2018-05-19T15:28:12Z</time>
      </trkpt>
      <trkpt lat="43.0922" lon="2.59234">
        <ele>148</ele>
        <time>2018-05-19T15:28:17Z</time>
      </trkpt>
      <trkpt lat="43.09219" lon="2.5921">
        <ele>148.2</ele>
        <time>2018-05-19T15:28:22Z</time>
      </trkpt>
      <trkpt lat="43.09218" lon="2.5918">
        <ele>149.1</ele>
        <time>2018-05-19T15:28:27Z</time>
      </trkpt>
      <trkpt lat="43.09217" lon="2.59161">
        <ele>149.8</ele>
        <time>2018-05-19T15:28:32Z</time>
      </trkpt>
      <trkpt lat="43.09217" lon="2.59133">
        <ele>149.2</ele>
        <time>2018-05-19T15:28:37Z</time>
      </trkpt>
      <trkpt lat="43.09217" lon="2.59115">
        <ele>148.9</ele>
        <time>2018-05-19T15:28:42Z</time>
      </trkpt>
      <trkpt lat="43.09218" lon="2.59088">
        <ele>148.8</ele>
        <time>2018-05-19T15:28:47Z</time>
      </trkpt>
      <trkpt lat="43.09219" lon="2.59072">
        <ele>147</ele>
        <time>2018-05-19T15:28:52Z</time>
      </trkpt>
      <trkpt lat="43.0922" lon="2.59046">
        <ele>146.5</ele>
        <time>2018-05-19T15:28:57Z</time>
      </trkpt>
      <trkpt lat="43.0922" lon="2.59029">
        <ele>146.3</ele>
        <time>2018-05-19T15:29:02Z</time>
      </trkpt>
      <trkpt lat="43.09223" lon="2.59006">
        <ele>146.5</ele>
        <time>2018-05-19T15:29:07Z</time>
      </trkpt>
      <trkpt lat="43.09226" lon="2.58989">
        <ele>146.2</ele>
        <time>2018-05-19T15:29:12Z</time>
      </trkpt>
      <trkpt lat="43.09229" lon="2.58965">
        <ele>145.8</ele>
        <time>2018-05-19T15:29:17Z</time>
      </trkpt>
      <trkpt lat="43.09231" lon="2.5895">
        <ele>145.6</ele>
        <time>2018-05-19T15:29:22Z</time>
      </trkpt>
      <trkpt lat="43.09236" lon="2.58925">
        <ele>145.3</ele>
        <time>2018-05-19T15:29:27Z</time>
      </trkpt>
      <trkpt lat="43.09241" lon="2.58907">
        <ele>145.7</ele>
        <time>2018-05-19T15:29:32Z</time>
      </trkpt>
      <trkpt lat="43.09248" lon="2.5888">
        <ele>145.9</ele>
        <time>2018-05-19T15:29:37Z</time>
      </trkpt>
      <trkpt lat="43.09254" lon="2.58862">
        <ele>151.4</ele>
        <time>2018-05-19T15:29:42Z</time>
      </trkpt>
      <trkpt lat="43.0926" lon="2.58837">
        <ele>147.5</ele>
        <time>2018-05-19T15:29:47Z</time>
      </trkpt>
      <trkpt lat="43.09266" lon="2.58823">
        <ele>150</ele>
        <time>2018-05-19T15:29:52Z</time>
      </trkpt>
      <trkpt lat="43.09275" lon="2.58801">
        <ele>153.7</ele>
        <time>2018-05-19T15:29:57Z</time>
      </trkpt>
      <trkpt lat="43.09277" lon="2.58784">
        <ele>154.2</ele>
        <time>2018-05-19T15:30:02Z</time>
      </trkpt>
      <trkpt lat="43.09281" lon="2.58755">
        <ele>154</ele>
        <time>2018-05-19T15:30:07Z</time>
      </trkpt>
      <trkpt lat="43.09284" lon="2.58735">
        <ele>153.5</ele>
        <time>2018-05-19T15:30:12Z</time>
      </trkpt>
      <trkpt lat="43.09288" lon="2.58703">
        <ele>153.6</ele>
        <time>2018-05-19T15:30:17Z</time>
      </trkpt>
      <trkpt lat="43.09293" lon="2.58684">
        <ele>153.8</ele>
        <time>2018-05-19T15:30:22Z</time>
      </trkpt>
      <trkpt lat="43.09306" lon="2.58663">
        <ele>153.4</ele>
        <time>2018-05-19T15:30:27Z</time>
      </trkpt>
      <trkpt lat="43.09305" lon="2.58634">
        <ele>152.1</ele>
        <time>2018-05-19T15:30:32Z</time>
      </trkpt>
      <trkpt lat="43.09306" lon="2.58612">
        <ele>151.5</ele>
        <time>2018-05-19T15:30:37Z</time>
      </trkpt>
      <trkpt lat="43.09309" lon="2.58579">
        <ele>150.7</ele>
        <time>2018-05-19T15:30:42Z</time>
      </trkpt>
      <trkpt lat="43.0931" lon="2.58559">
        <ele>150.4</ele>
        <time>2018-05-19T15:30:47Z</time>
      </trkpt>
      <trkpt lat="43.09316" lon="2.58527">
        <ele>150.1</ele>
        <time>2018-05-19T15:30:52Z</time>
      </trkpt>
      <trkpt lat="43.09321" lon="2.58507">
        <ele>150</ele>
        <time>2018-05-19T15:30:57Z</time>
      </trkpt>
      <trkpt lat="43.09328" lon="2.58477">
        <ele>149.9</ele>
        <time>2018-05-19T15:31:02Z</time>
      </trkpt>
      <trkpt lat="43.09332" lon="2.58456">
        <ele>150.3</ele>
        <time>2018-05-19T15:31:07Z</time>
      </trkpt>
      <trkpt lat="43.09335" lon="2.58425">
        <ele>158.8</ele>
        <time>2018-05-19T15:31:12Z</time>
      </trkpt>
      <trkpt lat="43.09326" lon="2.58397">
        <ele>155</ele>
        <time>2018-05-19T15:31:17Z</time>
      </trkpt>
      <trkpt lat="43.09311" lon="2.58373">
        <ele>156.6</ele>
        <time>2018-05-19T15:31:22Z</time>
      </trkpt>
      <trkpt lat="43.09295" lon="2.58351">
        <ele>156.5</ele>
        <time>2018-05-19T15:31:27Z</time>
      </trkpt>
      <trkpt lat="43.09284" lon="2.58336">
        <ele>154.6</ele>
        <time>2018-05-19T15:31:32Z</time>
      </trkpt>
      <trkpt lat="43.09266" lon="2.58316">
        <ele>164.8</ele>
        <time>2018-05-19T15:31:37Z</time>
      </trkpt>
      <trkpt lat="43.09251" lon="2.58305">
        <ele>166.5</ele>
        <time>2018-05-19T15:31:42Z</time>
      </trkpt>
      <trkpt lat="43.0923" lon="2.58291">
        <ele>161.7</ele>
        <time>2018-05-19T15:31:47Z</time>
      </trkpt>
      <trkpt lat="43.09215" lon="2.58284">
        <ele>162.7</ele>
        <time>2018-05-19T15:31:52Z</time>
      </trkpt>
      <trkpt lat="43.09193" lon="2.58279">
        <ele>163.3</ele>
        <time>2018-05-19T15:31:57Z</time>
      </trkpt>
      <trkpt lat="43.09178" lon="2.58279">
        <ele>163.5</ele>
        <time>2018-05-19T15:32:02Z</time>
      </trkpt>
      <trkpt lat="43.09156" lon="2.58288">
        <ele>160.3</ele>
        <time>2018-05-19T15:32:07Z</time>
      </trkpt>
      <trkpt lat="43.09144" lon="2.58298">
        <ele>158.4</ele>
        <time>2018-05-19T15:32:12Z</time>
      </trkpt>
      <trkpt lat="43.09128" lon="2.58312">
        <ele>157.1</ele>
        <time>2018-05-19T15:32:17Z</time>
      </trkpt>
      <trkpt lat="43.09117" lon="2.58323">
        <ele>156.5</ele>
        <time>2018-05-19T15:32:22Z</time>
      </trkpt>
      <trkpt lat="43.091" lon="2.58341">
        <ele>149.9</ele>
        <time>2018-05-19T15:32:27Z</time>
      </trkpt>
      <trkpt lat="43.09091" lon="2.58355">
        <ele>149.5</ele>
        <time>2018-05-19T15:32:32Z</time>
      </trkpt>
      <trkpt lat="43.09082" lon="2.58379">
        <ele>151</ele>
        <time>2018-05-19T15:32:37Z</time>
      </trkpt>
      <trkpt lat="43.09076" lon="2.58396">
        <ele>150</ele>
        <time>2018-05-19T15:32:42Z</time>
      </trkpt>
      <trkpt lat="43.09066" lon="2.58423">
        <ele>147.6</ele>
        <time>2018-05-19T15:32:47Z</time>
      </trkpt>
      <trkpt lat="43.0906" lon="2.58442">
        <ele>147.7</ele>
        <time>2018-05-19T15:32:52Z</time>
      </trkpt>
      <trkpt lat="43.09051" lon="2.5847">
        <ele>147.4</ele>
        <time>2018-05-19T15:32:57Z</time>
      </trkpt>
      <trkpt lat="43.09045" lon="2.58488">
        <ele>147</ele>
        <time>2018-05-19T15:33:02Z</time>
      </trkpt>
      <trkpt lat="43.09029" lon="2.58508">
        <ele>148.8</ele>
        <time>2018-05-19T15:33:07Z</time>
      </trkpt>
      <trkpt lat="43.09009" lon="2.58507">
        <ele>147.1</ele>
        <time>2018-05-19T15:33:12Z</time>
      </trkpt>
      <trkpt lat="43.08995" lon="2.58497">
        <ele>145.9</ele>
        <time>2018-05-19T15:33:17Z</time>
      </trkpt>
      <trkpt lat="43.08982" lon="2.58481">
        <ele>147.8</ele>
        <time>2018-05-19T15:33:22Z</time>
      </trkpt>
      <trkpt lat="43.08979" lon="2.58466">
        <ele>148.5</ele>
        <time>2018-05-19T15:33:27Z</time>
      </trkpt>
      <trkpt lat="43.08977" lon="2.58437">
        <ele>149.5</ele>
        <time>2018-05-19T15:33:32Z</time>
      </trkpt>
      <trkpt lat="43.0898" lon="2.5841">
        <ele>151</ele>
        <time>2018-05-19T15:33:37Z</time>
      </trkpt>
      <trkpt lat="43.08984" lon="2.5839">
        <ele>150.9</ele>
        <time>2018-05-19T15:33:42Z</time>
      </trkpt>
      <trkpt lat="43.08989" lon="2.58358">
        <ele>151.7</ele>
        <time>2018-05-19T15:33:47Z</time>
      </trkpt>
      <trkpt lat="43.0899" lon="2.58335">
        <ele>153.2</ele>
        <time>2018-05-19T15:33:52Z</time>
      </trkpt>
      <trkpt lat="43.08992" lon="2.58302">
        <ele>153</ele>
        <time>2018-05-19T15:33:57Z</time>
      </trkpt>
      <trkpt lat="43.08993" lon="2.58282">
        <ele>153.2</ele>
        <time>2018-05-19T15:34:02Z</time>
      </trkpt>
      <trkpt lat="43.08994" lon="2.58252">
        <ele>154.4</ele>
        <time>2018-05-19T15:34:07Z</time>
      </trkpt>
      <trkpt lat="43.08997" lon="2.58232">
        <ele>154.4</ele>
        <time>2018-05-19T15:34:12Z</time>
      </trkpt>
      <trkpt lat="43.09004" lon="2.58207">
        <ele>160.1</ele>
        <time>2018-05-19T15:34:17Z</time>
      </trkpt>
      <trkpt lat="43.09008" lon="2.5819">
        <ele>159</ele>
        <time>2018-05-19T15:34:22Z</time>
      </trkpt>
      <trkpt lat="43.09011" lon="2.58161">
        <ele>156.9</ele>
        <time>2018-05-19T15:34:27Z</time>
      </trkpt>
      <trkpt lat="43.09012" lon="2.58141">
        <ele>160.6</ele>
        <time>2018-05-19T15:34:32Z</time>
      </trkpt>
      <trkpt lat="43.0901" lon="2.58111">
        <ele>160.9</ele>
        <time>2018-05-19T15:34:37Z</time>
      </trkpt>
      <trkpt lat="43.09006" lon="2.58093">
        <ele>156.9</ele>
        <time>2018-05-19T15:34:42Z</time>
      </trkpt>
      <trkpt lat="43.09002" lon="2.58064">
        <ele>159.1</ele>
        <time>2018-05-19T15:34:47Z</time>
      </trkpt>
      <trkpt lat="43.09003" lon="2.58045">
        <ele>161.1</ele>
        <time>2018-05-19T15:34:52Z</time>
      </trkpt>
      <trkpt lat="43.09008" lon="2.58027">
        <ele>160.7</ele>
        <time>2018-05-19T15:34:57Z</time>
      </trkpt>
      <trkpt lat="43.09015" lon="2.58">
        <ele>158.9</ele>
        <time>2018-05-19T15:35:02Z</time>
      </trkpt>
      <trkpt lat="43.0902" lon="2.57972">
        <ele>159.6</ele>
        <time>2018-05-19T15:35:07Z</time>
      </trkpt>
      <trkpt lat="43.09024" lon="2.57953">
        <ele>159.6</ele>
        <time>2018-05-19T15:35:12Z</time>
      </trkpt>
      <trkpt lat="43.09033" lon="2.57926">
        <ele>159.4</ele>
        <time>2018-05-19T15:35:17Z</time>
      </trkpt>
      <trkpt lat="43.0904" lon="2.5791">
        <ele>156</ele>
        <time>2018-05-19T15:35:22Z</time>
      </trkpt>
      <trkpt lat="43.09042" lon="2.57879">
        <ele>155.4</ele>
        <time>2018-05-19T15:35:27Z</time>
      </trkpt>
      <trkpt lat="43.09038" lon="2.57858">
        <ele>154.7</ele>
        <time>2018-05-19T15:35:32Z</time>
      </trkpt>
      <trkpt lat="43.09035" lon="2.57836">
        <ele>154.4</ele>
        <time>2018-05-19T15:35:37Z</time>
      </trkpt>
      <trkpt lat="43.09044" lon="2.57801">
        <ele>162.6</ele>
        <time>2018-05-19T15:35:42Z</time>
      </trkpt>
      <trkpt lat="43.09062" lon="2.57788">
        <ele>163.4</ele>
        <time>2018-05-19T15:35:47Z</time>
      </trkpt>
      <trkpt lat="43.09076" lon="2.57785">
        <ele>163.3</ele>
        <time>2018-05-19T15:35:52Z</time>
      </trkpt>
      <trkpt lat="43.09101" lon="2.57785">
        <ele>158.5</ele>
        <time>2018-05-19T15:35:57Z</time>
      </trkpt>
      <trkpt lat="43.09114" lon="2.57785">
        <ele>158</ele>
        <time>2018-05-19T15:36:02Z</time>
      </trkpt>
      <trkpt lat="43.09133" lon="2.57782">
        <ele>157.5</ele>
        <time>2018-05-19T15:36:07Z</time>
      </trkpt>
      <trkpt lat="43.09147" lon="2.5778">
        <ele>157.3</ele>
        <time>2018-05-19T15:36:12Z</time>
      </trkpt>
      <trkpt lat="43.0917" lon="2.57778">
        <ele>157</ele>
        <time>2018-05-19T15:36:17Z</time>
      </trkpt>
      <trkpt lat="43.09184" lon="2.57772">
        <ele>157.1</ele>
        <time>2018-05-19T15:36:22Z</time>
      </trkpt>
      <trkpt lat="43.09202" lon="2.57756">
        <ele>156.9</ele>
        <time>2018-05-19T15:36:27Z</time>
      </trkpt>
      <trkpt lat="43.09215" lon="2.57745">
        <ele>159.6</ele>
        <time>2018-05-19T15:36:32Z</time>
      </trkpt>
      <trkpt lat="43.09234" lon="2.57728">
        <ele>159.3</ele>
        <time>2018-05-19T15:36:37Z</time>
      </trkpt>
      <trkpt lat="43.09246" lon="2.57717">
        <ele>160.1</ele>
        <time>2018-05-19T15:36:42Z</time>
      </trkpt>
      <trkpt lat="43.0926" lon="2.57692">
        <ele>163.5</ele>
        <time>2018-05-19T15:36:47Z</time>
      </trkpt>
      <trkpt lat="43.09265" lon="2.57671">
        <ele>163.7</ele>
        <time>2018-05-19T15:36:52Z</time>
      </trkpt>
      <trkpt lat="43.0927" lon="2.57639">
        <ele>166.7</ele>
        <time>2018-05-19T15:36:57Z</time>
      </trkpt>
      <trkpt lat="43.09273" lon="2.57618">
        <ele>168.4</ele>
        <time>2018-05-19T15:37:02Z</time>
      </trkpt>
      <trkpt lat="43.09278" lon="2.57586">
        <ele>170.3</ele>
        <time>2018-05-19T15:37:07Z</time>
      </trkpt>
      <trkpt lat="43.09282" lon="2.57564">
        <ele>174.3</ele>
        <time>2018-05-19T15:37:12Z</time>
      </trkpt>
      <trkpt lat="43.09291" lon="2.57531">
        <ele>174.3</ele>
        <time>2018-05-19T15:37:17Z</time>
      </trkpt>
      <trkpt lat="43.09297" lon="2.5751">
        <ele>173.1</ele>
        <time>2018-05-19T15:37:22Z</time>
      </trkpt>
      <trkpt lat="43.09307" lon="2.57479">
        <ele>176.2</ele>
        <time>2018-05-19T15:37:27Z</time>
      </trkpt>
      <trkpt lat="43.09313" lon="2.57458">
        <ele>176.6</ele>
        <time>2018-05-19T15:37:32Z</time>
      </trkpt>
      <trkpt lat="43.09324" lon="2.57431">
        <ele>172.3</ele>
        <time>2018-05-19T15:37:37Z</time>
      </trkpt>
      <trkpt lat="43.09332" lon="2.57413">
        <ele>167.7</ele>
        <time>2018-05-19T15:37:42Z</time>
      </trkpt>
      <trkpt lat="43.09344" lon="2.57388">
        <ele>167.8</ele>
        <time>2018-05-19T15:37:47Z</time>
      </trkpt>
      <trkpt lat="43.09353" lon="2.57372">
        <ele>168.8</ele>
        <time>2018-05-19T15:37:52Z</time>
      </trkpt>
      <trkpt lat="43.09362" lon="2.57348">
        <ele>169.3</ele>
        <time>2018-05-19T15:37:57Z</time>
      </trkpt>
      <trkpt lat="43.09369" lon="2.57331">
        <ele>167.4</ele>
        <time>2018-05-19T15:38:02Z</time>
      </trkpt>
      <trkpt lat="43.09387" lon="2.57309">
        <ele>165.4</ele>
        <time>2018-05-19T15:38:07Z</time>
      </trkpt>
      <trkpt lat="43.09398" lon="2.57286">
        <ele>164.3</ele>
        <time>2018-05-19T15:38:12Z</time>
      </trkpt>
      <trkpt lat="43.09399" lon="2.57264">
        <ele>162.8</ele>
        <time>2018-05-19T15:38:17Z</time>
      </trkpt>
      <trkpt lat="43.09396" lon="2.57234">
        <ele>162</ele>
        <time>2018-05-19T15:38:22Z</time>
      </trkpt>
      <trkpt lat="43.09389" lon="2.57214">
        <ele>162.9</ele>
        <time>2018-05-19T15:38:27Z</time>
      </trkpt>
      <trkpt lat="43.09371" lon="2.57195">
        <ele>163.1</ele>
        <time>2018-05-19T15:38:32Z</time>
      </trkpt>
      <trkpt lat="43.09356" lon="2.57191">
        <ele>162.7</ele>
        <time>2018-05-19T15:38:37Z</time>
      </trkpt>
      <trkpt lat="43.09335" lon="2.57188">
        <ele>162</ele>
        <time>2018-05-19T15:38:42Z</time>
      </trkpt>
      <trkpt lat="43.09321" lon="2.57187">
        <ele>165</ele>
        <time>2018-05-19T15:38:47Z</time>
      </trkpt>
      <trkpt lat="43.093" lon="2.57186">
        <ele>166.6</ele>
        <time>2018-05-19T15:38:52Z</time>
      </trkpt>
      <trkpt lat="43.09286" lon="2.57184">
        <ele>167.1</ele>
        <time>2018-05-19T15:38:57Z</time>
      </trkpt>
      <trkpt lat="43.09264" lon="2.57182">
        <ele>166.4</ele>
        <time>2018-05-19T15:39:02Z</time>
      </trkpt>
      <trkpt lat="43.0925" lon="2.57181">
        <ele>167.6</ele>
        <time>2018-05-19T15:39:07Z</time>
      </trkpt>
      <trkpt lat="43.09228" lon="2.57179">
        <ele>169.3</ele>
        <time>2018-05-19T15:39:12Z</time>
      </trkpt>
      <trkpt lat="43.09213" lon="2.57177">
        <ele>170.1</ele>
        <time>2018-05-19T15:39:17Z</time>
      </trkpt>
      <trkpt lat="43.0919" lon="2.57175">
        <ele>168.7</ele>
        <time>2018-05-19T15:39:22Z</time>
      </trkpt>
      <trkpt lat="43.09173" lon="2.57173">
        <ele>165</ele>
        <time>2018-05-19T15:39:27Z</time>
      </trkpt>
      <trkpt lat="43.09149" lon="2.5717">
        <ele>167.3</ele>
        <time>2018-05-19T15:39:32Z</time>
      </trkpt>
      <trkpt lat="43.09133" lon="2.57168">
        <ele>169.2</ele>
        <time>2018-05-19T15:39:37Z</time>
      </trkpt>
      <trkpt lat="43.09113" lon="2.57172">
        <ele>169.5</ele>
        <time>2018-05-19T15:39:42Z</time>
      </trkpt>
      <trkpt lat="43.091" lon="2.5718">
        <ele>169.3</ele>
        <time>2018-05-19T15:39:47Z</time>
      </trkpt>
      <trkpt lat="43.0908" lon="2.57194">
        <ele>168.7</ele>
        <time>2018-05-19T15:39:52Z</time>
      </trkpt>
      <trkpt lat="43.09068" lon="2.57203">
        <ele>169.9</ele>
        <time>2018-05-19T15:39:57Z</time>
      </trkpt>
      <trkpt lat="43.0905" lon="2.57214">
        <ele>170.7</ele>
        <time>2018-05-19T15:40:02Z</time>
      </trkpt>
      <trkpt lat="43.09039" lon="2.57222">
        <ele>170.9</ele>
        <time>2018-05-19T15:40:07Z</time>
      </trkpt>
      <trkpt lat="43.09022" lon="2.57233">
        <ele>171.1</ele>
        <time>2018-05-19T15:40:12Z</time>
      </trkpt>
      <trkpt lat="43.09011" lon="2.57239">
        <ele>171.6</ele>
        <time>2018-05-19T15:40:17Z</time>
      </trkpt>
      <trkpt lat="43.08993" lon="2.5724">
        <ele>173.2</ele>
        <time>2018-05-19T15:40:22Z</time>
      </trkpt>
      <trkpt lat="43.08982" lon="2.57237">
        <ele>173.6</ele>
        <time>2018-05-19T15:40:27Z</time>
      </trkpt>
      <trkpt lat="43.08965" lon="2.57226">
        <ele>174.3</ele>
        <time>2018-05-19T15:40:32Z</time>
      </trkpt>
      <trkpt lat="43.08955" lon="2.57216">
        <ele>174.6</ele>
        <time>2018-05-19T15:40:37Z</time>
      </trkpt>
      <trkpt lat="43.08941" lon="2.572">
        <ele>174.7</ele>
        <time>2018-05-19T15:40:42Z</time>
      </trkpt>
      <trkpt lat="43.08934" lon="2.57186">
        <ele>174.6</ele>
        <time>2018-05-19T15:40:47Z</time>
      </trkpt>
      <trkpt lat="43.0893" lon="2.57162">
        <ele>172.9</ele>
        <time>2018-05-19T15:40:52Z</time>
      </trkpt>
      <trkpt lat="43.08932" lon="2.57145">
        <ele>171.7</ele>
        <time>2018-05-19T15:40:57Z</time>
      </trkpt>
      <trkpt lat="43.08935" lon="2.57122">
        <ele>170.9</ele>
        <time>2018-05-19T15:41:02Z</time>
      </trkpt>
      <trkpt lat="43.08937" lon="2.57106">
        <ele>171.1</ele>
        <time>2018-05-19T15:41:07Z</time>
      </trkpt>
      <trkpt lat="43.0894" lon="2.57083">
        <ele>171.5</ele>
        <time>2018-05-19T15:41:12Z</time>
      </trkpt>
      <trkpt lat="43.08944" lon="2.57066">
        <ele>171</ele>
        <time>2018-05-19T15:41:17Z</time>
      </trkpt>
      <trkpt lat="43.08952" lon="2.57043">
        <ele>170.2</ele>
        <time>2018-05-19T15:41:22Z</time>
      </trkpt>
      <trkpt lat="43.08957" lon="2.57029">
        <ele>169.9</ele>
        <time>2018-05-19T15:41:27Z</time>
      </trkpt>
      <trkpt lat="43.08961" lon="2.57004">
        <ele>169.5</ele>
        <time>2018-05-19T15:41:32Z</time>
      </trkpt>
      <trkpt lat="43.08963" lon="2.56988">
        <ele>170.3</ele>
        <time>2018-05-19T15:41:37Z</time>
      </trkpt>
      <trkpt lat="43.08966" lon="2.56963">
        <ele>170.6</ele>
        <time>2018-05-19T15:41:42Z</time>
      </trkpt>
      <trkpt lat="43.08968" lon="2.56946">
        <ele>170.7</ele>
        <time>2018-05-19T15:41:47Z</time>
      </trkpt>
      <trkpt lat="43.08971" lon="2.56919">
        <ele>170.1</ele>
        <time>2018-05-19T15:41:52Z</time>
      </trkpt>
      <trkpt lat="43.08973" lon="2.56902">
        <ele>172.3</ele>
        <time>2018-05-19T15:41:57Z</time>
      </trkpt>
      <trkpt lat="43.08977" lon="2.56878">
        <ele>172.8</ele>
        <time>2018-05-19T15:42:02Z</time>
      </trkpt>
      <trkpt lat="43.0898" lon="2.56862">
        <ele>172.4</ele>
        <time>2018-05-19T15:42:07Z</time>
      </trkpt>
      <trkpt lat="43.08985" lon="2.56837">
        <ele>169.6</ele>
        <time>2018-05-19T15:42:12Z</time>
      </trkpt>
      <trkpt lat="43.08989" lon="2.5682">
        <ele>171.9</ele>
        <time>2018-05-19T15:42:17Z</time>
      </trkpt>
      <trkpt lat="43.08994" lon="2.56797">
        <ele>174.9</ele>
        <time>2018-05-19T15:42:22Z</time>
      </trkpt>
      <trkpt lat="43.08998" lon="2.56781">
        <ele>175.1</ele>
        <time>2018-05-19T15:42:27Z</time>
      </trkpt>
      <trkpt lat="43.09004" lon="2.56757">
        <ele>168.5</ele>
        <time>2018-05-19T15:42:32Z</time>
      </trkpt>
      <trkpt lat="43.09008" lon="2.5674">
        <ele>169.2</ele>
        <time>2018-05-19T15:42:37Z</time>
      </trkpt>
      <trkpt lat="43.09017" lon="2.56715">
        <ele>169.9</ele>
        <time>2018-05-19T15:42:42Z</time>
      </trkpt>
      <trkpt lat="43.09022" lon="2.567">
        <ele>170.5</ele>
        <time>2018-05-19T15:42:47Z</time>
      </trkpt>
      <trkpt lat="43.09031" lon="2.56676">
        <ele>170.9</ele>
        <time>2018-05-19T15:42:52Z</time>
      </trkpt>
      <trkpt lat="43.09035" lon="2.5666">
        <ele>172.3</ele>
        <time>2018-05-19T15:42:57Z</time>
      </trkpt>
      <trkpt lat="43.09042" lon="2.56634">
        <ele>171.6</ele>
        <time>2018-05-19T15:43:02Z</time>
      </trkpt>
      <trkpt lat="43.09047" lon="2.56619">
        <ele>171.1</ele>
        <time>2018-05-19T15:43:07Z</time>
      </trkpt>
      <trkpt lat="43.09053" lon="2.56594">
        <ele>170</ele>
        <time>2018-05-19T15:43:12Z</time>
      </trkpt>
      <trkpt lat="43.09057" lon="2.56574">
        <ele>171.7</ele>
        <time>2018-05-19T15:43:17Z</time>
      </trkpt>
      <trkpt lat="43.0906" lon="2.56544">
        <ele>173.2</ele>
        <time>2018-05-19T15:43:22Z</time>
      </trkpt>
      <trkpt lat="43.09064" lon="2.56528">
        <ele>172.8</ele>
        <time>2018-05-19T15:43:27Z</time>
      </trkpt>
      <trkpt lat="43.09073" lon="2.56504">
        <ele>168.6</ele>
        <time>2018-05-19T15:43:32Z</time>
      </trkpt>
      <trkpt lat="43.09078" lon="2.56486">
        <ele>173.3</ele>
        <time>2018-05-19T15:43:37Z</time>
      </trkpt>
      <trkpt lat="43.09083" lon="2.56458">
        <ele>179</ele>
        <time>2018-05-19T15:43:42Z</time>
      </trkpt>
      <trkpt lat="43.09087" lon="2.5644">
        <ele>171</ele>
        <time>2018-05-19T15:43:47Z</time>
      </trkpt>
      <trkpt lat="43.09094" lon="2.56413">
        <ele>173.9</ele>
        <time>2018-05-19T15:43:52Z</time>
      </trkpt>
      <trkpt lat="43.09097" lon="2.56395">
        <ele>174</ele>
        <time>2018-05-19T15:43:57Z</time>
      </trkpt>
      <trkpt lat="43.09103" lon="2.56369">
        <ele>174.8</ele>
        <time>2018-05-19T15:44:02Z</time>
      </trkpt>
      <trkpt lat="43.09108" lon="2.5635">
        <ele>175.5</ele>
        <time>2018-05-19T15:44:07Z</time>
      </trkpt>
      <trkpt lat="43.09114" lon="2.56323">
        <ele>177.1</ele>
        <time>2018-05-19T15:44:12Z</time>
      </trkpt>
      <trkpt lat="43.09117" lon="2.56306">
        <ele>176.8</ele>
        <time>2018-05-19T15:44:17Z</time>
      </trkpt>
      <trkpt lat="43.09121" lon="2.56282">
        <ele>176.7</ele>
        <time>2018-05-19T15:44:22Z</time>
      </trkpt>
      <trkpt lat="43.09123" lon="2.56262">
        <ele>176.8</ele>
        <time>2018-05-19T15:44:27Z</time>
      </trkpt>
      <trkpt lat="43.09125" lon="2.56234">
        <ele>177.6</ele>
        <time>2018-05-19T15:44:32Z</time>
      </trkpt>
      <trkpt lat="43.09126" lon="2.56218">
        <ele>177.5</ele>
        <time>2018-05-19T15:44:37Z</time>
      </trkpt>
      <trkpt lat="43.0913" lon="2.56193">
        <ele>177.2</ele>
        <time>2018-05-19T15:44:42Z</time>
      </trkpt>
      <trkpt lat="43.09134" lon="2.56174">
        <ele>176.5</ele>
        <time>2018-05-19T15:44:47Z</time>
      </trkpt>
      <trkpt lat="43.09139" lon="2.56147">
        <ele>176.2</ele>
        <time>2018-05-19T15:44:52Z</time>
      </trkpt>
      <trkpt lat="43.09141" lon="2.56128">
        <ele>176.4</ele>
        <time>2018-05-19T15:44:57Z</time>
      </trkpt>
      <trkpt lat="43.09142" lon="2.56101">
        <ele>175.8</ele>
        <time>2018-05-19T15:45:02Z</time>
      </trkpt>
      <trkpt lat="43.09141" lon="2.56084">
        <ele>175.5</ele>
        <time>2018-05-19T15:45:07Z</time>
      </trkpt>
      <trkpt lat="43.09133" lon="2.5606">
        <ele>175.3</ele>
        <time>2018-05-19T15:45:12Z</time>
      </trkpt>
      <trkpt lat="43.09133" lon="2.56044">
        <ele>175.1</ele>
        <time>2018-05-19T15:45:17Z</time>
      </trkpt>
      <trkpt lat="43.09126" lon="2.56018">
        <ele>175</ele>
        <time>2018-05-19T15:45:22Z</time>
      </trkpt>
      <trkpt lat="43.09124" lon="2.56">
        <ele>173.6</ele>
        <time>2018-05-19T15:45:27Z</time>
      </trkpt>
      <trkpt lat="43.0912" lon="2.55975">
        <ele>172.2</ele>
        <time>2018-05-19T15:45:32Z</time>
      </trkpt>
      <trkpt lat="43.0912" lon="2.55957">
        <ele>171.6</ele>
        <time>2018-05-19T15:45:37Z</time>
      </trkpt>
      <trkpt lat="43.0912" lon="2.55933">
        <ele>170.9</ele>
        <time>2018-05-19T15:45:42Z</time>
      </trkpt>
      <trkpt lat="43.09122" lon="2.55918">
        <ele>170.7</ele>
        <time>2018-05-19T15:45:47Z</time>
      </trkpt>
      <trkpt lat="43.09122" lon="2.55887">
        <ele>170.7</ele>
        <time>2018-05-19T15:45:52Z</time>
      </trkpt>
      <trkpt lat="43.09115" lon="2.55866">
        <ele>171.1</ele>
        <time>2018-05-19T15:45:57Z</time>
      </trkpt>
      <trkpt lat="43.09098" lon="2.55852">
        <ele>171.3</ele>
        <time>2018-05-19T15:46:02Z</time>
      </trkpt>
      <trkpt lat="43.09086" lon="2.55849">
        <ele>171.4</ele>
        <time>2018-05-19T15:46:07Z</time>
      </trkpt>
      <trkpt lat="43.09065" lon="2.55854">
        <ele>170.8</ele>
        <time>2018-05-19T15:46:12Z</time>
      </trkpt>
      <trkpt lat="43.0905" lon="2.55858">
        <ele>170.6</ele>
        <time>2018-05-19T15:46:17Z</time>
      </trkpt>
      <trkpt lat="43.09029" lon="2.5586">
        <ele>170.6</ele>
        <time>2018-05-19T15:46:22Z</time>
      </trkpt>
      <trkpt lat="43.09015" lon="2.55855">
        <ele>170.5</ele>
        <time>2018-05-19T15:46:27Z</time>
      </trkpt>
      <trkpt lat="43.08999" lon="2.55837">
        <ele>171.6</ele>
        <time>2018-05-19T15:46:32Z</time>
      </trkpt>
      <trkpt lat="43.08994" lon="2.55821">
        <ele>174</ele>
        <time>2018-05-19T15:46:37Z</time>
      </trkpt>
      <trkpt lat="43.08994" lon="2.55795">
        <ele>176.7</ele>
        <time>2018-05-19T15:46:42Z</time>
      </trkpt>
      <trkpt lat="43.08996" lon="2.55777">
        <ele>176.7</ele>
        <time>2018-05-19T15:46:47Z</time>
      </trkpt>
      <trkpt lat="43.09004" lon="2.55746">
        <ele>174.5</ele>
        <time>2018-05-19T15:46:52Z</time>
      </trkpt>
      <trkpt lat="43.0901" lon="2.55727">
        <ele>177.2</ele>
        <time>2018-05-19T15:46:57Z</time>
      </trkpt>
      <trkpt lat="43.09017" lon="2.55702">
        <ele>178.3</ele>
        <time>2018-05-19T15:47:02Z</time>
      </trkpt>
      <trkpt lat="43.09023" lon="2.55686">
        <ele>178.3</ele>
        <time>2018-05-19T15:47:07Z</time>
      </trkpt>
      <trkpt lat="43.0903" lon="2.5566">
        <ele>178.7</ele>
        <time>2018-05-19T15:47:12Z</time>
      </trkpt>
      <trkpt lat="43.09035" lon="2.55642">
        <ele>179.3</ele>
        <time>2018-05-19T15:47:17Z</time>
      </trkpt>
      <trkpt lat="43.09041" lon="2.55614">
        <ele>179.6</ele>
        <time>2018-05-19T15:47:22Z</time>
      </trkpt>
      <trkpt lat="43.09045" lon="2.55598">
        <ele>179.7</ele>
        <time>2018-05-19T15:47:27Z</time>
      </trkpt>
      <trkpt lat="43.09051" lon="2.55573">
        <ele>178.6</ele>
        <time>2018-05-19T15:47:32Z</time>
      </trkpt>
      <trkpt lat="43.09055" lon="2.55556">
        <ele>178.2</ele>
        <time>2018-05-19T15:47:37Z</time>
      </trkpt>
      <trkpt lat="43.09063" lon="2.5553">
        <ele>177.1</ele>
        <time>2018-05-19T15:47:42Z</time>
      </trkpt>
      <trkpt lat="43.09072" lon="2.55514">
        <ele>175.7</ele>
        <time>2018-05-19T15:47:47Z</time>
      </trkpt>
      <trkpt lat="43.09085" lon="2.55495">
        <ele>173.2</ele>
        <time>2018-05-19T15:47:52Z</time>
      </trkpt>
      <trkpt lat="43.09092" lon="2.55484">
        <ele>173.3</ele>
        <time>2018-05-19T15:47:57Z</time>
      </trkpt>
      <trkpt lat="43.09101" lon="2.55464">
        <ele>173</ele>
        <time>2018-05-19T15:48:02Z</time>
      </trkpt>
      <trkpt lat="43.09107" lon="2.55448">
        <ele>172.4</ele>
        <time>2018-05-19T15:48:07Z</time>
      </trkpt>
      <trkpt lat="43.09114" lon="2.55421">
        <ele>171.5</ele>
        <time>2018-05-19T15:48:12Z</time>
      </trkpt>
      <trkpt lat="43.09121" lon="2.55406">
        <ele>168.7</ele>
        <time>2018-05-19T15:48:17Z</time>
      </trkpt>
      <trkpt lat="43.09131" lon="2.55383">
        <ele>168.7</ele>
        <time>2018-05-19T15:48:22Z</time>
      </trkpt>
      <trkpt lat="43.09137" lon="2.55368">
        <ele>168.6</ele>
        <time>2018-05-19T15:48:27Z</time>
      </trkpt>
      <trkpt lat="43.09145" lon="2.55342">
        <ele>168.3</ele>
        <time>2018-05-19T15:48:32Z</time>
      </trkpt>
      <trkpt lat="43.09151" lon="2.55323">
        <ele>168.1</ele>
        <time>2018-05-19T15:48:37Z</time>
      </trkpt>
      <trkpt lat="43.09157" lon="2.55299">
        <ele>168.4</ele>
        <time>2018-05-19T15:48:42Z</time>
      </trkpt>
      <trkpt lat="43.09162" lon="2.55283">
        <ele>168.7</ele>
        <time>2018-05-19T15:48:47Z</time>
      </trkpt>
      <trkpt lat="43.09172" lon="2.55258">
        <ele>170.2</ele>
        <time>2018-05-19T15:48:52Z</time>
      </trkpt>
      <trkpt lat="43.09176" lon="2.55238">
        <ele>170.2</ele>
        <time>2018-05-19T15:48:57Z</time>
      </trkpt>
      <trkpt lat="43.09183" lon="2.55212">
        <ele>170.3</ele>
        <time>2018-05-19T15:49:02Z</time>
      </trkpt>
      <trkpt lat="43.09188" lon="2.55196">
        <ele>170.2</ele>
        <time>2018-05-19T15:49:07Z</time>
      </trkpt>
      <trkpt lat="43.09195" lon="2.55171">
        <ele>170.1</ele>
        <time>2018-05-19T15:49:12Z</time>
      </trkpt>
      <trkpt lat="43.092" lon="2.55154">
        <ele>170</ele>
        <time>2018-05-19T15:49:17Z</time>
      </trkpt>
      <trkpt lat="43.09211" lon="2.55128">
        <ele>170.3</ele>
        <time>2018-05-19T15:49:22Z</time>
      </trkpt>
      <trkpt lat="43.09217" lon="2.55109">
        <ele>170.5</ele>
        <time>2018-05-19T15:49:27Z</time>
      </trkpt>
      <trkpt lat="43.09228" lon="2.55082">
        <ele>171.6</ele>
        <time>2018-05-19T15:49:32Z</time>
      </trkpt>
      <trkpt lat="43.09234" lon="2.55063">
        <ele>171.7</ele>
        <time>2018-05-19T15:49:37Z</time>
      </trkpt>
      <trkpt lat="43.09242" lon="2.55038">
        <ele>172.1</ele>
        <time>2018-05-19T15:49:42Z</time>
      </trkpt>
      <trkpt lat="43.09245" lon="2.55025">
        <ele>172.5</ele>
        <time>2018-05-19T15:49:47Z</time>
      </trkpt>
      <trkpt lat="43.09246" lon="2.5501">
        <ele>173.1</ele>
        <time>2018-05-19T15:49:52Z</time>
      </trkpt>
      <trkpt lat="43.09243" lon="2.55003">
        <ele>173.4</ele>
        <time>2018-05-19T15:49:57Z</time>
      </trkpt>
      <trkpt lat="43.09231" lon="2.54997">
        <ele>173.1</ele>
        <time>2018-05-19T15:50:02Z</time>
      </trkpt>
      <trkpt lat="43.0922" lon="2.54992">
        <ele>172.8</ele>
        <time>2018-05-19T15:50:07Z</time>
      </trkpt>
      <trkpt lat="43.09205" lon="2.54986">
        <ele>172.4</ele>
        <time>2018-05-19T15:50:12Z</time>
      </trkpt>
      <trkpt lat="43.09185" lon="2.54977">
        <ele>172</ele>
        <time>2018-05-19T15:50:17Z</time>
      </trkpt>
      <trkpt lat="43.09163" lon="2.54965">
        <ele>170.4</ele>
        <time>2018-05-19T15:50:22Z</time>
      </trkpt>
      <trkpt lat="43.09139" lon="2.54956">
        <ele>170.2</ele>
        <time>2018-05-19T15:50:27Z</time>
      </trkpt>
      <trkpt lat="43.09115" lon="2.54943">
        <ele>170</ele>
        <time>2018-05-19T15:50:32Z</time>
      </trkpt>
      <trkpt lat="43.09103" lon="2.54937">
        <ele>169.9</ele>
        <time>2018-05-19T15:50:37Z</time>
      </trkpt>
      <trkpt lat="43.09085" lon="2.54928">
        <ele>169.9</ele>
        <time>2018-05-19T15:50:42Z</time>
      </trkpt>
      <trkpt lat="43.09072" lon="2.54922">
        <ele>169.7</ele>
        <time>2018-05-19T15:50:47Z</time>
      </trkpt>
      <trkpt lat="43.09054" lon="2.54913">
        <ele>170.1</ele>
        <time>2018-05-19T15:50:52Z</time>
      </trkpt>
      <trkpt lat="43.09041" lon="2.54906">
        <ele>170.2</ele>
        <time>2018-05-19T15:50:57Z</time>
      </trkpt>
      <trkpt lat="43.0902" lon="2.54895">
        <ele>170.2</ele>
        <time>2018-05-19T15:51:02Z</time>
      </trkpt>
      <trkpt lat="43.09004" lon="2.54887">
        <ele>170.3</ele>
        <time>2018-05-19T15:51:07Z</time>
      </trkpt>
      <trkpt lat="43.08982" lon="2.54873">
        <ele>170.7</ele>
        <time>2018-05-19T15:51:12Z</time>
      </trkpt>
      <trkpt lat="43.08968" lon="2.54863">
        <ele>170.8</ele>
        <time>2018-05-19T15:51:17Z</time>
      </trkpt>
      <trkpt lat="43.08951" lon="2.54842">
        <ele>170.8</ele>
        <time>2018-05-19T15:51:22Z</time>
      </trkpt>
      <trkpt lat="43.08941" lon="2.54828">
        <ele>171</ele>
        <time>2018-05-19T15:51:27Z</time>
      </trkpt>
      <trkpt lat="43.08929" lon="2.54805">
        <ele>171</ele>
        <time>2018-05-19T15:51:32Z</time>
      </trkpt>
      <trkpt lat="43.08922" lon="2.54791">
        <ele>171</ele>
        <time>2018-05-19T15:51:37Z</time>
      </trkpt>
      <trkpt lat="43.08916" lon="2.54767">
        <ele>171.2</ele>
        <time>2018-05-19T15:51:42Z</time>
      </trkpt>
      <trkpt lat="43.08912" lon="2.54752">
        <ele>171.1</ele>
        <time>2018-05-19T15:51:47Z</time>
      </trkpt>
      <trkpt lat="43.08904" lon="2.54731">
        <ele>171.9</ele>
        <time>2018-05-19T15:51:52Z</time>
      </trkpt>
      <trkpt lat="43.08898" lon="2.54717">
        <ele>172.2</ele>
        <time>2018-05-19T15:51:57Z</time>
      </trkpt>
      <trkpt lat="43.08891" lon="2.54694">
        <ele>172.6</ele>
        <time>2018-05-19T15:52:02Z</time>
      </trkpt>
      <trkpt lat="43.08885" lon="2.54681">
        <ele>172.7</ele>
        <time>2018-05-19T15:52:07Z</time>
      </trkpt>
      <trkpt lat="43.08875" lon="2.5466">
        <ele>173.8</ele>
        <time>2018-05-19T15:52:12Z</time>
      </trkpt>
      <trkpt lat="43.0887" lon="2.54647">
        <ele>173.9</ele>
        <time>2018-05-19T15:52:17Z</time>
      </trkpt>
      <trkpt lat="43.08861" lon="2.54628">
        <ele>174.1</ele>
        <time>2018-05-19T15:52:22Z</time>
      </trkpt>
      <trkpt lat="43.08855" lon="2.54617">
        <ele>174.2</ele>
        <time>2018-05-19T15:52:27Z</time>
      </trkpt>
      <trkpt lat="43.08843" lon="2.54594">
        <ele>174.6</ele>
        <time>2018-05-19T15:52:32Z</time>
      </trkpt>
      <trkpt lat="43.08835" lon="2.54579">
        <ele>175</ele>
        <time>2018-05-19T15:52:37Z</time>
      </trkpt>
      <trkpt lat="43.08825" lon="2.54559">
        <ele>174.8</ele>
        <time>2018-05-19T15:52:42Z</time>
      </trkpt>
      <trkpt lat="43.0882" lon="2.54545">
        <ele>174.8</ele>
        <time>2018-05-19T15:52:47Z</time>
      </trkpt>
      <trkpt lat="43.08811" lon="2.54522">
        <ele>174.9</ele>
        <time>2018-05-19T15:52:52Z</time>
      </trkpt>
      <trkpt lat="43.08803" lon="2.54505">
        <ele>174.9</ele>
        <time>2018-05-19T15:52:57Z</time>
      </trkpt>
      <trkpt lat="43.08794" lon="2.5448">
        <ele>175.4</ele>
        <time>2018-05-19T15:53:02Z</time>
      </trkpt>
      <trkpt lat="43.08788" lon="2.54462">
        <ele>175.4</ele>
        <time>2018-05-19T15:53:07Z</time>
      </trkpt>
      <trkpt lat="43.0878" lon="2.54436">
        <ele>175.6</ele>
        <time>2018-05-19T15:53:12Z</time>
      </trkpt>
      <trkpt lat="43.08774" lon="2.5442">
        <ele>175.7</ele>
        <time>2018-05-19T15:53:17Z</time>
      </trkpt>
      <trkpt lat="43.08767" lon="2.54397">
        <ele>176.2</ele>
        <time>2018-05-19T15:53:22Z</time>
      </trkpt>
      <trkpt lat="43.08763" lon="2.54381">
        <ele>176.3</ele>
        <time>2018-05-19T15:53:27Z</time>
      </trkpt>
      <trkpt lat="43.08756" lon="2.54355">
        <ele>176.5</ele>
        <time>2018-05-19T15:53:32Z</time>
      </trkpt>
      <trkpt lat="43.08754" lon="2.54339">
        <ele>176.8</ele>
        <time>2018-05-19T15:53:37Z</time>
      </trkpt>
      <trkpt lat="43.0875" lon="2.54313">
        <ele>176.8</ele>
        <time>2018-05-19T15:53:42Z</time>
      </trkpt>
      <trkpt lat="43.08747" lon="2.54296">
        <ele>176.8</ele>
        <time>2018-05-19T15:53:47Z</time>
      </trkpt>
      <trkpt lat="43.08744" lon="2.54267">
        <ele>177.2</ele>
        <time>2018-05-19T15:53:52Z</time>
      </trkpt>
      <trkpt lat="43.08742" lon="2.54249">
        <ele>177.8</ele>
        <time>2018-05-19T15:53:57Z</time>
      </trkpt>
      <trkpt lat="43.08738" lon="2.54224">
        <ele>177.6</ele>
        <time>2018-05-19T15:54:02Z</time>
      </trkpt>
      <trkpt lat="43.08735" lon="2.54208">
        <ele>177.6</ele>
        <time>2018-05-19T15:54:07Z</time>
      </trkpt>
      <trkpt lat="43.0873" lon="2.54182">
        <ele>177.9</ele>
        <time>2018-05-19T15:54:12Z</time>
      </trkpt>
      <trkpt lat="43.08725" lon="2.54164">
        <ele>178.6</ele>
        <time>2018-05-19T15:54:17Z</time>
      </trkpt>
      <trkpt lat="43.08719" lon="2.54139">
        <ele>178.6</ele>
        <time>2018-05-19T15:54:22Z</time>
      </trkpt>
      <trkpt lat="43.08715" lon="2.54123">
        <ele>178.6</ele>
        <time>2018-05-19T15:54:27Z</time>
      </trkpt>
      <trkpt lat="43.08708" lon="2.54098">
        <ele>178.6</ele>
        <time>2018-05-19T15:54:32Z</time>
      </trkpt>
      <trkpt lat="43.08703" lon="2.54079">
        <ele>179.7</ele>
        <time>2018-05-19T15:54:37Z</time>
      </trkpt>
      <trkpt lat="43.08697" lon="2.54055">
        <ele>180</ele>
        <time>2018-05-19T15:54:42Z</time>
      </trkpt>
      <trkpt lat="43.08692" lon="2.5404">
        <ele>180.3</ele>
        <time>2018-05-19T15:54:47Z</time>
      </trkpt>
      <trkpt lat="43.08684" lon="2.54017">
        <ele>181.2</ele>
        <time>2018-05-19T15:54:52Z</time>
      </trkpt>
      <trkpt lat="43.08675" lon="2.54002">
        <ele>182.1</ele>
        <time>2018-05-19T15:54:57Z</time>
      </trkpt>
      <trkpt lat="43.08663" lon="2.53982">
        <ele>182.3</ele>
        <time>2018-05-19T15:55:02Z</time>
      </trkpt>
      <trkpt lat="43.08656" lon="2.53968">
        <ele>182.2</ele>
        <time>2018-05-19T15:55:07Z</time>
      </trkpt>
      <trkpt lat="43.08642" lon="2.53948">
        <ele>182.3</ele>
        <time>2018-05-19T15:55:12Z</time>
      </trkpt>
      <trkpt lat="43.08634" lon="2.53935">
        <ele>182.2</ele>
        <time>2018-05-19T15:55:17Z</time>
      </trkpt>
      <trkpt lat="43.08623" lon="2.53915">
        <ele>184.4</ele>
        <time>2018-05-19T15:55:22Z</time>
      </trkpt>
      <trkpt lat="43.08616" lon="2.53899">
        <ele>184.3</ele>
        <time>2018-05-19T15:55:27Z</time>
      </trkpt>
      <trkpt lat="43.08606" lon="2.53875">
        <ele>185.2</ele>
        <time>2018-05-19T15:55:32Z</time>
      </trkpt>
      <trkpt lat="43.08599" lon="2.53859">
        <ele>186</ele>
        <time>2018-05-19T15:55:37Z</time>
      </trkpt>
      <trkpt lat="43.08586" lon="2.5384">
        <ele>187.4</ele>
        <time>2018-05-19T15:55:42Z</time>
      </trkpt>
      <trkpt lat="43.08575" lon="2.53829">
        <ele>188.4</ele>
        <time>2018-05-19T15:55:47Z</time>
      </trkpt>
      <trkpt lat="43.08556" lon="2.53813">
        <ele>188.9</ele>
        <time>2018-05-19T15:55:52Z</time>
      </trkpt>
      <trkpt lat="43.08545" lon="2.53808">
        <ele>188.7</ele>
        <time>2018-05-19T15:55:57Z</time>
      </trkpt>
      <trkpt lat="43.08523" lon="2.53806">
        <ele>187.6</ele>
        <time>2018-05-19T15:56:02Z</time>
      </trkpt>
      <trkpt lat="43.08502" lon="2.53808">
        <ele>186.4</ele>
        <time>2018-05-19T15:56:07Z</time>
      </trkpt>
      <trkpt lat="43.08482" lon="2.53812">
        <ele>182.9</ele>
        <time>2018-05-19T15:56:12Z</time>
      </trkpt>
      <trkpt lat="43.08468" lon="2.53807">
        <ele>183.1</ele>
        <time>2018-05-19T15:56:17Z</time>
      </trkpt>
      <trkpt lat="43.08451" lon="2.53792">
        <ele>183.3</ele>
        <time>2018-05-19T15:56:22Z</time>
      </trkpt>
      <trkpt lat="43.08441" lon="2.5378">
        <ele>183.4</ele>
        <time>2018-05-19T15:56:27Z</time>
      </trkpt>
      <trkpt lat="43.08425" lon="2.53762">
        <ele>183.3</ele>
        <time>2018-05-19T15:56:32Z</time>
      </trkpt>
      <trkpt lat="43.08415" lon="2.5375">
        <ele>182.8</ele>
        <time>2018-05-19T15:56:37Z</time>
      </trkpt>
      <trkpt lat="43.08399" lon="2.53734">
        <ele>182.7</ele>
        <time>2018-05-19T15:56:42Z</time>
      </trkpt>
      <trkpt lat="43.08388" lon="2.53724">
        <ele>182.6</ele>
        <time>2018-05-19T15:56:47Z</time>
      </trkpt>
      <trkpt lat="43.08375" lon="2.53708">
        <ele>182.5</ele>
        <time>2018-05-19T15:56:52Z</time>
      </trkpt>
      <trkpt lat="43.08367" lon="2.53695">
        <ele>182.5</ele>
        <time>2018-05-19T15:56:57Z</time>
      </trkpt>
      <trkpt lat="43.08355" lon="2.53673">
        <ele>182.4</ele>
        <time>2018-05-19T15:57:02Z</time>
      </trkpt>
      <trkpt lat="43.08347" lon="2.53658">
        <ele>183.6</ele>
        <time>2018-05-19T15:57:07Z</time>
      </trkpt>
      <trkpt lat="43.08335" lon="2.53635">
        <ele>184.3</ele>
        <time>2018-05-19T15:57:12Z</time>
      </trkpt>
      <trkpt lat="43.08329" lon="2.53621">
        <ele>183</ele>
        <time>2018-05-19T15:57:17Z</time>
      </trkpt>
      <trkpt lat="43.08321" lon="2.536">
        <ele>183.5</ele>
        <time>2018-05-19T15:57:22Z</time>
      </trkpt>
      <trkpt lat="43.08315" lon="2.53587">
        <ele>183.6</ele>
        <time>2018-05-19T15:57:27Z</time>
      </trkpt>
      <trkpt lat="43.08306" lon="2.53565">
        <ele>183.4</ele>
        <time>2018-05-19T15:57:32Z</time>
      </trkpt>
      <trkpt lat="43.08302" lon="2.53548">
        <ele>183.2</ele>
        <time>2018-05-19T15:57:37Z</time>
      </trkpt>
      <trkpt lat="43.08296" lon="2.53528">
        <ele>183.1</ele>
        <time>2018-05-19T15:57:42Z</time>
      </trkpt>
      <trkpt lat="43.08291" lon="2.53517">
        <ele>183</ele>
        <time>2018-05-19T15:57:47Z</time>
      </trkpt>
      <trkpt lat="43.08281" lon="2.53495">
        <ele>183.4</ele>
        <time>2018-05-19T15:57:52Z</time>
      </trkpt>
      <trkpt lat="43.08274" lon="2.53481">
        <ele>183.4</ele>
        <time>2018-05-19T15:57:57Z</time>
      </trkpt>
      <trkpt lat="43.08265" lon="2.53459">
        <ele>183.7</ele>
        <time>2018-05-19T15:58:02Z</time>
      </trkpt>
      <trkpt lat="43.08256" lon="2.53445">
        <ele>183.8</ele>
        <time>2018-05-19T15:58:07Z</time>
      </trkpt>
      <trkpt lat="43.08246" lon="2.53426">
        <ele>183.5</ele>
        <time>2018-05-19T15:58:12Z</time>
      </trkpt>
      <trkpt lat="43.0824" lon="2.53412">
        <ele>183.9</ele>
        <time>2018-05-19T15:58:17Z</time>
      </trkpt>
      <trkpt lat="43.08229" lon="2.53391">
        <ele>183.8</ele>
        <time>2018-05-19T15:58:22Z</time>
      </trkpt>
      <trkpt lat="43.08223" lon="2.53373">
        <ele>183.9</ele>
        <time>2018-05-19T15:58:27Z</time>
      </trkpt>
      <trkpt lat="43.08211" lon="2.53348">
        <ele>184</ele>
        <time>2018-05-19T15:58:32Z</time>
      </trkpt>
      <trkpt lat="43.08204" lon="2.53335">
        <ele>184</ele>
        <time>2018-05-19T15:58:37Z</time>
      </trkpt>
      <trkpt lat="43.08194" lon="2.53314">
        <ele>185.1</ele>
        <time>2018-05-19T15:58:42Z</time>
      </trkpt>
      <trkpt lat="43.0819" lon="2.53299">
        <ele>185.3</ele>
        <time>2018-05-19T15:58:47Z</time>
      </trkpt>
      <trkpt lat="43.08179" lon="2.53274">
        <ele>185.6</ele>
        <time>2018-05-19T15:58:52Z</time>
      </trkpt>
      <trkpt lat="43.08175" lon="2.53261">
        <ele>185.8</ele>
        <time>2018-05-19T15:58:57Z</time>
      </trkpt>
      <trkpt lat="43.08172" lon="2.53248">
        <ele>186.4</ele>
        <time>2018-05-19T15:59:02Z</time>
      </trkpt>
      <trkpt lat="43.08162" lon="2.53227">
        <ele>185.7</ele>
        <time>2018-05-19T15:59:07Z</time>
      </trkpt>
      <trkpt lat="43.08157" lon="2.53214">
        <ele>185.7</ele>
        <time>2018-05-19T15:59:12Z</time>
      </trkpt>
      <trkpt lat="43.08148" lon="2.5319">
        <ele>186.1</ele>
        <time>2018-05-19T15:59:17Z</time>
      </trkpt>
      <trkpt lat="43.08145" lon="2.53174">
        <ele>186.3</ele>
        <time>2018-05-19T15:59:22Z</time>
      </trkpt>
      <trkpt lat="43.08131" lon="2.53137">
        <ele>186.6</ele>
        <time>2018-05-19T16:15:07Z</time>
      </trkpt>
      <trkpt lat="43.0812" lon="2.53154">
        <ele>186.2</ele>
        <time>2018-05-19T16:15:12Z</time>
      </trkpt>
      <trkpt lat="43.08122" lon="2.53169">
        <ele>185.4</ele>
        <time>2018-05-19T16:15:17Z</time>
      </trkpt>
      <trkpt lat="43.08135" lon="2.53191">
        <ele>185.7</ele>
        <time>2018-05-19T16:15:22Z</time>
      </trkpt>
      <trkpt lat="43.08141" lon="2.53204">
        <ele>185.6</ele>
        <time>2018-05-19T16:15:27Z</time>
      </trkpt>
      <trkpt lat="43.08152" lon="2.53228">
        <ele>185.6</ele>
        <time>2018-05-19T16:15:32Z</time>
      </trkpt>
      <trkpt lat="43.08161" lon="2.53248">
        <ele>185.8</ele>
        <time>2018-05-19T16:15:37Z</time>
      </trkpt>
      <trkpt lat="43.08164" lon="2.53256">
        <ele>185.5</ele>
        <time>2018-05-19T16:15:42Z</time>
      </trkpt>
      <trkpt lat="43.08164" lon="2.53249">
        <ele>185.9</ele>
        <time>2018-05-19T16:15:47Z</time>
      </trkpt>
      <trkpt lat="43.08162" lon="2.53234">
        <ele>185.7</ele>
        <time>2018-05-19T16:15:52Z</time>
      </trkpt>
      <trkpt lat="43.08157" lon="2.53222">
        <ele>185.7</ele>
        <time>2018-05-19T16:15:57Z</time>
      </trkpt>
      <trkpt lat="43.08149" lon="2.53213">
        <ele>185.7</ele>
        <time>2018-05-19T16:16:02Z</time>
      </trkpt>
      <trkpt lat="43.08137" lon="2.53221">
        <ele>185.4</ele>
        <time>2018-05-19T16:16:07Z</time>
      </trkpt>
      <trkpt lat="43.08131" lon="2.53234">
        <ele>185.2</ele>
        <time>2018-05-19T16:16:12Z</time>
      </trkpt>
      <trkpt lat="43.0813" lon="2.53248">
        <ele>185.1</ele>
        <time>2018-05-19T16:16:17Z</time>
      </trkpt>
      <trkpt lat="43.0813" lon="2.53248">
        <ele>185.1</ele>
        <time>2018-05-19T16:16:22Z</time>
      </trkpt>
      <trkpt lat="43.0813" lon="2.53248">
        <ele>185.1</ele>
        <time>2018-05-19T16:16:27Z</time>
      </trkpt>
      <trkpt lat="43.0813" lon="2.53232">
        <ele>185.2</ele>
        <time>2018-05-19T16:16:32Z</time>
      </trkpt>
      <trkpt lat="43.08134" lon="2.53218">
        <ele>185.4</ele>
        <time>2018-05-19T16:16:37Z</time>
      </trkpt>
      <trkpt lat="43.08141" lon="2.53206">
        <ele>185.6</ele>
        <time>2018-05-19T16:16:42Z</time>
      </trkpt>
      <trkpt lat="43.08144" lon="2.53201">
        <ele>185.7</ele>
        <time>2018-05-19T16:16:47Z</time>
      </trkpt>
      <trkpt lat="43.08144" lon="2.53194">
        <ele>185.9</ele>
        <time>2018-05-19T16:16:52Z</time>
      </trkpt>
      <trkpt lat="43.08135" lon="2.53173">
        <ele>185.9</ele>
        <time>2018-05-19T16:16:57Z</time>
      </trkpt>
      <trkpt lat="43.08128" lon="2.53149">
        <ele>186.5</ele>
        <time>2018-05-19T16:17:02Z</time>
      </trkpt>
      <trkpt lat="43.08124" lon="2.5313">
        <ele>186.4</ele>
        <time>2018-05-19T16:17:07Z</time>
      </trkpt>
      <trkpt lat="43.08123" lon="2.53107">
        <ele>186.5</ele>
        <time>2018-05-19T16:17:12Z</time>
      </trkpt>
      <trkpt lat="43.08117" lon="2.53094">
        <ele>186.4</ele>
        <time>2018-05-19T16:17:17Z</time>
      </trkpt>
      <trkpt lat="43.08107" lon="2.53099">
        <ele>186.1</ele>
        <time>2018-05-19T16:17:22Z</time>
      </trkpt>
      <trkpt lat="43.0809" lon="2.53121">
        <ele>185.8</ele>
        <time>2018-05-19T16:17:27Z</time>
      </trkpt>
      <trkpt lat="43.08083" lon="2.53137">
        <ele>184.4</ele>
        <time>2018-05-19T16:17:32Z</time>
      </trkpt>
      <trkpt lat="43.08073" lon="2.53155">
        <ele>184.3</ele>
        <time>2018-05-19T16:17:37Z</time>
      </trkpt>
      <trkpt lat="43.08066" lon="2.53165">
        <ele>184.3</ele>
        <time>2018-05-19T16:17:42Z</time>
      </trkpt>
      <trkpt lat="43.08064" lon="2.5317">
        <ele>183.9</ele>
        <time>2018-05-19T16:17:47Z</time>
      </trkpt>
      <trkpt lat="43.08058" lon="2.53181">
        <ele>183.9</ele>
        <time>2018-05-19T16:17:52Z</time>
      </trkpt>
      <trkpt lat="43.08054" lon="2.53185">
        <ele>183.9</ele>
        <time>2018-05-19T16:17:57Z</time>
      </trkpt>
      <trkpt lat="43.08046" lon="2.53196">
        <ele>183.8</ele>
        <time>2018-05-19T16:18:02Z</time>
      </trkpt>
      <trkpt lat="43.08037" lon="2.53213">
        <ele>183.7</ele>
        <time>2018-05-19T16:18:07Z</time>
      </trkpt>
      <trkpt lat="43.08031" lon="2.53229">
        <ele>183.6</ele>
        <time>2018-05-19T16:18:12Z</time>
      </trkpt>
      <trkpt lat="43.08017" lon="2.53252">
        <ele>183.4</ele>
        <time>2018-05-19T16:18:17Z</time>
      </trkpt>
      <trkpt lat="43.08007" lon="2.53267">
        <ele>183.5</ele>
        <time>2018-05-19T16:18:22Z</time>
      </trkpt>
      <trkpt lat="43.07994" lon="2.53288">
        <ele>188.1</ele>
        <time>2018-05-19T16:18:27Z</time>
      </trkpt>
      <trkpt lat="43.07989" lon="2.53304">
        <ele>188.6</ele>
        <time>2018-05-19T16:18:32Z</time>
      </trkpt>
      <trkpt lat="43.07989" lon="2.53334">
        <ele>189.5</ele>
        <time>2018-05-19T16:18:37Z</time>
      </trkpt>
      <trkpt lat="43.07993" lon="2.53354">
        <ele>191.3</ele>
        <time>2018-05-19T16:18:42Z</time>
      </trkpt>
      <trkpt lat="43.08006" lon="2.53383">
        <ele>187.2</ele>
        <time>2018-05-19T16:18:47Z</time>
      </trkpt>
      <trkpt lat="43.08015" lon="2.53406">
        <ele>188.3</ele>
        <time>2018-05-19T16:18:52Z</time>
      </trkpt>
      <trkpt lat="43.08022" lon="2.53424">
        <ele>188.7</ele>
        <time>2018-05-19T16:18:57Z</time>
      </trkpt>
      <trkpt lat="43.08031" lon="2.53448">
        <ele>188</ele>
        <time>2018-05-19T16:19:02Z</time>
      </trkpt>
      <trkpt lat="43.08039" lon="2.53456">
        <ele>187.6</ele>
        <time>2018-05-19T16:19:07Z</time>
      </trkpt>
      <trkpt lat="43.08044" lon="2.53457">
        <ele>187.4</ele>
        <time>2018-05-19T16:19:12Z</time>
      </trkpt>
      <trkpt lat="43.08044" lon="2.53457">
        <ele>187.4</ele>
        <time>2018-05-19T16:19:17Z</time>
      </trkpt>
      <trkpt lat="43.08044" lon="2.5345">
        <ele>187.4</ele>
        <time>2018-05-19T16:19:22Z</time>
      </trkpt>
      <trkpt lat="43.08044" lon="2.5345">
        <ele>187.4</ele>
        <time>2018-05-19T16:19:27Z</time>
      </trkpt>
      <trkpt lat="43.08044" lon="2.5345">
        <ele>187.4</ele>
        <time>2018-05-19T16:19:32Z</time>
      </trkpt>
      <trkpt lat="43.08044" lon="2.5345">
        <ele>187.4</ele>
        <time>2018-05-19T16:19:37Z</time>
      </trkpt>
      <trkpt lat="43.08044" lon="2.5345">
        <ele>187.4</ele>
        <time>2018-05-19T16:19:42Z</time>
      </trkpt>
      <trkpt lat="43.0805" lon="2.53464">
        <ele>187.2</ele>
        <time>2018-05-19T16:19:47Z</time>
      </trkpt>
      <trkpt lat="43.08058" lon="2.53477">
        <ele>186.7</ele>
        <time>2018-05-19T16:19:52Z</time>
      </trkpt>
      <trkpt lat="43.08069" lon="2.53502">
        <ele>186</ele>
        <time>2018-05-19T16:19:57Z</time>
      </trkpt>
      <trkpt lat="43.08079" lon="2.53514">
        <ele>186</ele>
        <time>2018-05-19T16:20:02Z</time>
      </trkpt>
      <trkpt lat="43.08077" lon="2.53505">
        <ele>185.3</ele>
        <time>2018-05-19T16:20:07Z</time>
      </trkpt>
      <trkpt lat="43.08077" lon="2.53505">
        <ele>185.3</ele>
        <time>2018-05-19T16:20:12Z</time>
      </trkpt>
      <trkpt lat="43.08077" lon="2.53505">
        <ele>185.3</ele>
        <time>2018-05-19T16:20:17Z</time>
      </trkpt>
      <trkpt lat="43.08077" lon="2.53505">
        <ele>185.3</ele>
        <time>2018-05-19T16:20:22Z</time>
      </trkpt>
      <trkpt lat="43.08082" lon="2.53506">
        <ele>185</ele>
        <time>2018-05-19T16:20:42Z</time>
      </trkpt>
      <trkpt lat="43.08082" lon="2.53506">
        <ele>185</ele>
        <time>2018-05-19T16:20:47Z</time>
      </trkpt>
      <trkpt lat="43.08082" lon="2.53506">
        <ele>185</ele>
        <time>2018-05-19T16:20:52Z</time>
      </trkpt>
      <trkpt lat="43.08082" lon="2.53506">
        <ele>185</ele>
        <time>2018-05-19T16:20:57Z</time>
      </trkpt>
      <trkpt lat="43.08082" lon="2.53506">
        <ele>185</ele>
        <time>2018-05-19T16:21:02Z</time>
      </trkpt>
      <trkpt lat="43.08086" lon="2.53509">
        <ele>184.2</ele>
        <time>2018-05-19T16:21:12Z</time>
      </trkpt>
      <trkpt lat="43.08086" lon="2.53509">
        <ele>184.2</ele>
        <time>2018-05-19T16:21:17Z</time>
      </trkpt>
      <trkpt lat="43.08086" lon="2.53509">
        <ele>184.2</ele>
        <time>2018-05-19T16:21:22Z</time>
      </trkpt>
      <trkpt lat="43.08085" lon="2.53503">
        <ele>184.1</ele>
        <time>2018-05-19T16:21:27Z</time>
      </trkpt>
      <trkpt lat="43.08079" lon="2.53502">
        <ele>184.7</ele>
        <time>2018-05-19T16:21:32Z</time>
      </trkpt>
      <trkpt lat="43.08075" lon="2.53502">
        <ele>185.3</ele>
        <time>2018-05-19T16:21:37Z</time>
      </trkpt>
      <trkpt lat="43.08075" lon="2.53502">
        <ele>185.3</ele>
        <time>2018-05-19T16:21:42Z</time>
      </trkpt>
      <trkpt lat="43.08075" lon="2.53502">
        <ele>185.3</ele>
        <time>2018-05-19T16:21:47Z</time>
      </trkpt>
      <trkpt lat="43.0808" lon="2.53502">
        <ele>184.7</ele>
        <time>2018-05-19T16:21:52Z</time>
      </trkpt>
      <trkpt lat="43.08084" lon="2.535">
        <ele>184</ele>
        <time>2018-05-19T16:21:57Z</time>
      </trkpt>
      <trkpt lat="43.08088" lon="2.53495">
        <ele>183.8</ele>
        <time>2018-05-19T16:22:02Z</time>
      </trkpt>
      <trkpt lat="43.08091" lon="2.5349">
        <ele>183.6</ele>
        <time>2018-05-19T16:22:07Z</time>
      </trkpt>
      <trkpt lat="43.08095" lon="2.53487">
        <ele>183.5</ele>
        <time>2018-05-19T16:22:12Z</time>
      </trkpt>
      <trkpt lat="43.08095" lon="2.53487">
        <ele>183.5</ele>
        <time>2018-05-19T16:22:17Z</time>
      </trkpt>
      <trkpt lat="43.081" lon="2.53487">
        <ele>183.4</ele>
        <time>2018-05-19T16:22:22Z</time>
      </trkpt>
      <trkpt lat="43.081" lon="2.53487">
        <ele>183.4</ele>
        <time>2018-05-19T16:22:27Z</time>
      </trkpt>
      <trkpt lat="43.081" lon="2.53487">
        <ele>183.4</ele>
        <time>2018-05-19T16:22:32Z</time>
      </trkpt>
      <trkpt lat="43.08104" lon="2.53483">
        <ele>183.3</ele>
        <time>2018-05-19T16:22:37Z</time>
      </trkpt>
      <trkpt lat="43.08108" lon="2.53478">
        <ele>183.2</ele>
        <time>2018-05-19T16:22:42Z</time>
      </trkpt>
      <trkpt lat="43.08112" lon="2.53474">
        <ele>183.2</ele>
        <time>2018-05-19T16:22:47Z</time>
      </trkpt>
      <trkpt lat="43.08117" lon="2.5347">
        <ele>183.1</ele>
        <time>2018-05-19T16:22:52Z</time>
      </trkpt>
      <trkpt lat="43.08112" lon="2.53474">
        <ele>183.2</ele>
        <time>2018-05-19T16:22:57Z</time>
      </trkpt>
      <trkpt lat="43.08112" lon="2.53474">
        <ele>183.2</ele>
        <time>2018-05-19T16:23:02Z</time>
      </trkpt>
      <trkpt lat="43.08111" lon="2.53471">
        <ele>183.2</ele>
      </trkpt>
      <trkpt lat="43.08078" lon="2.53503">
        <ele>185</ele>
      </trkpt>
      <trkpt lat="43.08067" lon="2.53493">
        <ele>185.8</ele>
      </trkpt>
      <trkpt lat="43.08053" lon="2.53468">
        <ele>187</ele>
      </trkpt>
      <trkpt lat="43.08041" lon="2.53457">
        <ele>187.5</ele>
      </trkpt>
      <trkpt lat="43.08032" lon="2.5345">
        <ele>187.9</ele>
      </trkpt>
      <trkpt lat="43.08022" lon="2.53425">
        <ele>188.7</ele>
      </trkpt>
      <trkpt lat="43.07991" lon="2.53328">
        <ele>187.6</ele>
      </trkpt>
      <trkpt lat="43.07991" lon="2.53303">
        <ele>188.5</ele>
      </trkpt>
      <trkpt lat="43.07996" lon="2.53284">
        <ele>187.8</ele>
      </trkpt>
      <trkpt lat="43.0801" lon="2.53255">
        <ele>183.3</ele>
      </trkpt>
      <trkpt lat="43.08043" lon="2.53205">
        <ele>183.8</ele>
      </trkpt>
      <trkpt lat="43.08046" lon="2.532">
        <ele>183.8</ele>
      </trkpt>
      <trkpt lat="43.08074" lon="2.5315">
        <ele>184.3</ele>
      </trkpt>
      <trkpt lat="43.08093" lon="2.53121">
        <ele>185.9</ele>
      </trkpt>
      <trkpt lat="43.08105" lon="2.53102">
        <ele>186.1</ele>
      </trkpt>
      <trkpt lat="43.08113" lon="2.53092">
        <ele>186.3</ele>
      </trkpt>
      <trkpt lat="43.08119" lon="2.53078">
        <ele>186.6</ele>
      </trkpt>
      <trkpt lat="43.08121" lon="2.5306">
        <ele>186.7</ele>
      </trkpt>
      <trkpt lat="43.08123" lon="2.53038">
        <ele>186.7</ele>
      </trkpt>
      <trkpt lat="43.08123" lon="2.53034">
        <ele>186.7</ele>
      </trkpt>
      <trkpt lat="43.08125" lon="2.53002">
        <ele>186.7</ele>
      </trkpt>
      <trkpt lat="43.08128" lon="2.52982">
        <ele>186.4</ele>
      </trkpt>
      <trkpt lat="43.08132" lon="2.52967">
        <ele>186.4</ele>
      </trkpt>
      <trkpt lat="43.08182" lon="2.52915">
        <ele>190.6</ele>
      </trkpt>
      <trkpt lat="43.08195" lon="2.52894">
        <ele>192.5</ele>
      </trkpt>
      <trkpt lat="43.08204" lon="2.52874">
        <ele>193.4</ele>
      </trkpt>
      <trkpt lat="43.08221" lon="2.52799">
        <ele>195.8</ele>
      </trkpt>
      <trkpt lat="43.0826" lon="2.52538">
        <ele>198.1</ele>
      </trkpt>
      <trkpt lat="43.08268" lon="2.52493">
        <ele>194.2</ele>
      </trkpt>
      <trkpt lat="43.08279" lon="2.52452">
        <ele>195.3</ele>
      </trkpt>
      <trkpt lat="43.08283" lon="2.52439">
        <ele>195.1</ele>
      </trkpt>
      <trkpt lat="43.08291" lon="2.52415">
        <ele>193.6</ele>
      </trkpt>
      <trkpt lat="43.083" lon="2.5239">
        <ele>193.9</ele>
      </trkpt>
      <trkpt lat="43.0831" lon="2.52379">
        <ele>193.9</ele>
      </trkpt>
      <trkpt lat="43.08318" lon="2.52373">
        <ele>193.9</ele>
      </trkpt>
      <trkpt lat="43.08327" lon="2.5237">
        <ele>193.8</ele>
      </trkpt>
      <trkpt lat="43.08347" lon="2.52368">
        <ele>196.6</ele>
      </trkpt>
      <trkpt lat="43.08363" lon="2.52367">
        <ele>197.1</ele>
      </trkpt>
      <trkpt lat="43.08379" lon="2.52366">
        <ele>197.7</ele>
      </trkpt>
      <trkpt lat="43.08395" lon="2.52363">
        <ele>198.1</ele>
      </trkpt>
      <trkpt lat="43.08412" lon="2.5235">
        <ele>198.5</ele>
      </trkpt>
      <trkpt lat="43.08418" lon="2.52342">
        <ele>200.9</ele>
      </trkpt>
      <trkpt lat="43.08429" lon="2.5232">
        <ele>200.3</ele>
      </trkpt>
      <trkpt lat="43.08442" lon="2.52278">
        <ele>200.2</ele>
      </trkpt>
      <trkpt lat="43.08448" lon="2.52268">
        <ele>200.2</ele>
      </trkpt>
      <trkpt lat="43.08454" lon="2.52261">
        <ele>200.5</ele>
      </trkpt>
      <trkpt lat="43.08458" lon="2.52256">
        <ele>200.8</ele>
      </trkpt>
      <trkpt lat="43.08468" lon="2.5225">
        <ele>199.4</ele>
      </trkpt>
      <trkpt lat="43.08488" lon="2.52246">
        <ele>201.5</ele>
      </trkpt>
      <trkpt lat="43.0856" lon="2.52255">
        <ele>203.8</ele>
      </trkpt>
      <trkpt lat="43.08581" lon="2.52255">
        <ele>202.6</ele>
      </trkpt>
      <trkpt lat="43.08595" lon="2.52251">
        <ele>202.2</ele>
      </trkpt>
      <trkpt lat="43.08609" lon="2.52245">
        <ele>201.2</ele>
      </trkpt>
      <trkpt lat="43.08672" lon="2.52201">
        <ele>201.2</ele>
      </trkpt>
      <trkpt lat="43.08698" lon="2.52187">
        <ele>201.3</ele>
      </trkpt>
      <trkpt lat="43.08712" lon="2.52182">
        <ele>201.3</ele>
      </trkpt>
      <trkpt lat="43.08731" lon="2.52176">
        <ele>201.5</ele>
      </trkpt>
      <trkpt lat="43.08766" lon="2.52162">
        <ele>203.2</ele>
      </trkpt>
      <trkpt lat="43.08791" lon="2.52146">
        <ele>204.2</ele>
      </trkpt>
      <trkpt lat="43.08798" lon="2.52126">
        <ele>204.7</ele>
      </trkpt>
      <trkpt lat="43.08802" lon="2.52085">
        <ele>205.5</ele>
      </trkpt>
      <trkpt lat="43.08803" lon="2.52063">
        <ele>206.1</ele>
      </trkpt>
      <trkpt lat="43.08803" lon="2.52057">
        <ele>206.1</ele>
      </trkpt>
      <trkpt lat="43.08804" lon="2.52039">
        <ele>206.2</ele>
      </trkpt>
      <trkpt lat="43.08823" lon="2.51966">
        <ele>205.9</ele>
      </trkpt>
      <trkpt lat="43.08829" lon="2.51945">
        <ele>205.6</ele>
      </trkpt>
      <trkpt lat="43.0885" lon="2.51952">
        <ele>212.1</ele>
      </trkpt>
      <trkpt lat="43.0885" lon="2.51877">
        <ele>208.5</ele>
      </trkpt>
      <trkpt lat="43.08854" lon="2.51866">
        <ele>208.3</ele>
      </trkpt>
      <trkpt lat="43.08856" lon="2.5186">
        <ele>208.1</ele>
      </trkpt>
      <trkpt lat="43.08869" lon="2.51822">
        <ele>206.4</ele>
      </trkpt>
      <trkpt lat="43.08872" lon="2.51816">
        <ele>206.6</ele>
      </trkpt>
      <trkpt lat="43.08868" lon="2.51758">
        <ele>205.7</ele>
      </trkpt>
      <trkpt lat="43.08864" lon="2.5171">
        <ele>203.9</ele>
      </trkpt>
      <trkpt lat="43.08859" lon="2.51684">
        <ele>203.1</ele>
      </trkpt>
      <trkpt lat="43.08854" lon="2.51668">
        <ele>202.4</ele>
      </trkpt>
      <trkpt lat="43.08844" lon="2.51641">
        <ele>201.5</ele>
      </trkpt>
      <trkpt lat="43.08835" lon="2.51623">
        <ele>201.4</ele>
      </trkpt>
      <trkpt lat="43.08824" lon="2.51607">
        <ele>198.4</ele>
      </trkpt>
      <trkpt lat="43.08798" lon="2.51587">
        <ele>198</ele>
      </trkpt>
      <trkpt lat="43.08771" lon="2.51567">
        <ele>197.7</ele>
      </trkpt>
      <trkpt lat="43.08756" lon="2.51557">
        <ele>197.6</ele>
      </trkpt>
      <trkpt lat="43.08731" lon="2.51536">
        <ele>196.5</ele>
      </trkpt>
      <trkpt lat="43.08674" lon="2.51463">
        <ele>196.9</ele>
      </trkpt>
      <trkpt lat="43.08634" lon="2.51413">
        <ele>197.6</ele>
      </trkpt>
      <trkpt lat="43.08619" lon="2.51387">
        <ele>197.5</ele>
      </trkpt>
      <trkpt lat="43.08549" lon="2.51225">
        <ele>197.4</ele>
      </trkpt>
      <trkpt lat="43.08537" lon="2.5119">
        <ele>197.6</ele>
      </trkpt>
      <trkpt lat="43.08534" lon="2.51162">
        <ele>198.2</ele>
      </trkpt>
      <trkpt lat="43.08533" lon="2.51103">
        <ele>198.3</ele>
      </trkpt>
      <trkpt lat="43.0853" lon="2.51079">
        <ele>198.7</ele>
      </trkpt>
      <trkpt lat="43.08517" lon="2.51045">
        <ele>198.8</ele>
      </trkpt>
      <trkpt lat="43.08401" lon="2.50777">
        <ele>202.2</ele>
      </trkpt>
      <trkpt lat="43.08398" lon="2.50755">
        <ele>202.4</ele>
      </trkpt>
      <trkpt lat="43.08385" lon="2.50488">
        <ele>203.8</ele>
      </trkpt>
      <trkpt lat="43.08387" lon="2.50442">
        <ele>204.4</ele>
      </trkpt>
      <trkpt lat="43.08392" lon="2.5042">
        <ele>204.7</ele>
      </trkpt>
      <trkpt lat="43.08398" lon="2.50393">
        <ele>205.5</ele>
      </trkpt>
      <trkpt lat="43.08401" lon="2.50374">
        <ele>205.5</ele>
      </trkpt>
      <trkpt lat="43.08401" lon="2.50355">
        <ele>205.5</ele>
      </trkpt>
      <trkpt lat="43.08399" lon="2.50338">
        <ele>205.4</ele>
      </trkpt>
      <trkpt lat="43.08385" lon="2.50265">
        <ele>206.2</ele>
      </trkpt>
      <trkpt lat="43.08362" lon="2.50153">
        <ele>207.4</ele>
      </trkpt>
      <trkpt lat="43.08358" lon="2.50113">
        <ele>207.4</ele>
      </trkpt>
      <trkpt lat="43.08359" lon="2.50048">
        <ele>207.4</ele>
      </trkpt>
      <trkpt lat="43.08362" lon="2.50002">
        <ele>207.4</ele>
      </trkpt>
      <trkpt lat="43.08391" lon="2.49788">
        <ele>211.2</ele>
      </trkpt>
      <trkpt lat="43.08419" lon="2.49611">
        <ele>210.7</ele>
      </trkpt>
      <trkpt lat="43.08448" lon="2.49469">
        <ele>211.5</ele>
      </trkpt>
      <trkpt lat="43.08465" lon="2.493">
        <ele>212.8</ele>
      </trkpt>
      <trkpt lat="43.0847" lon="2.4927">
        <ele>212.8</ele>
      </trkpt>
      <trkpt lat="43.08498" lon="2.49196">
        <ele>213.2</ele>
      </trkpt>
      <trkpt lat="43.08507" lon="2.49155">
        <ele>214.7</ele>
      </trkpt>
      <trkpt lat="43.0851" lon="2.49133">
        <ele>215.1</ele>
      </trkpt>
      <trkpt lat="43.08511" lon="2.49103">
        <ele>215</ele>
      </trkpt>
      <trkpt lat="43.08496" lon="2.48987">
        <ele>213.5</ele>
      </trkpt>
      <trkpt lat="43.08492" lon="2.48965">
        <ele>214.1</ele>
      </trkpt>
      <trkpt lat="43.0849" lon="2.48938">
        <ele>214.5</ele>
      </trkpt>
      <trkpt lat="43.08486" lon="2.48676">
        <ele>219.6</ele>
      </trkpt>
      <trkpt lat="43.08489" lon="2.48609">
        <ele>219.7</ele>
      </trkpt>
      <trkpt lat="43.08488" lon="2.48585">
        <ele>219.8</ele>
      </trkpt>
      <trkpt lat="43.08469" lon="2.4842">
        <ele>221</ele>
      </trkpt>
      <trkpt lat="43.08458" lon="2.48385">
        <ele>222.2</ele>
      </trkpt>
      <trkpt lat="43.08385" lon="2.48237">
        <ele>223.1</ele>
      </trkpt>
      <trkpt lat="43.08378" lon="2.48216">
        <ele>223</ele>
      </trkpt>
      <trkpt lat="43.08372" lon="2.48189">
        <ele>223</ele>
      </trkpt>
      <trkpt lat="43.08371" lon="2.48165">
        <ele>224.2</ele>
      </trkpt>
      <trkpt lat="43.08375" lon="2.48074">
        <ele>226.3</ele>
      </trkpt>
      <trkpt lat="43.08375" lon="2.48056">
        <ele>226.4</ele>
      </trkpt>
      <trkpt lat="43.08372" lon="2.48042">
        <ele>226.4</ele>
      </trkpt>
      <trkpt lat="43.08361" lon="2.48019">
        <ele>226.4</ele>
      </trkpt>
      <trkpt lat="43.08355" lon="2.48012">
        <ele>226.3</ele>
      </trkpt>
      <trkpt lat="43.08341" lon="2.47996">
        <ele>226.4</ele>
      </trkpt>
      <trkpt lat="43.08302" lon="2.47952">
        <ele>226.7</ele>
      </trkpt>
      <trkpt lat="43.08296" lon="2.47938">
        <ele>226.7</ele>
      </trkpt>
      <trkpt lat="43.08295" lon="2.47921">
        <ele>226.7</ele>
      </trkpt>
      <trkpt lat="43.08301" lon="2.4789">
        <ele>227.4</ele>
      </trkpt>
      <trkpt lat="43.08299" lon="2.47873">
        <ele>227.6</ele>
      </trkpt>
      <trkpt lat="43.08295" lon="2.47861">
        <ele>227.7</ele>
      </trkpt>
      <trkpt lat="43.08275" lon="2.47843">
        <ele>227.5</ele>
      </trkpt>
      <trkpt lat="43.08227" lon="2.47806">
        <ele>228.4</ele>
      </trkpt>
      <trkpt lat="43.08225" lon="2.47795">
        <ele>228.7</ele>
      </trkpt>
      <trkpt lat="43.08219" lon="2.47787">
        <ele>228.9</ele>
      </trkpt>
      <trkpt lat="43.08206" lon="2.47782">
        <ele>229</ele>
      </trkpt>
      <trkpt lat="43.08196" lon="2.47769">
        <ele>229.4</ele>
      </trkpt>
      <trkpt lat="43.08187" lon="2.47742">
        <ele>231.7</ele>
      </trkpt>
      <trkpt lat="43.08148" lon="2.47582">
        <ele>238</ele>
      </trkpt>
      <trkpt lat="43.08124" lon="2.4747">
        <ele>240.4</ele>
      </trkpt>
      <trkpt lat="43.08122" lon="2.47447">
        <ele>240.7</ele>
      </trkpt>
      <trkpt lat="43.08129" lon="2.47403">
        <ele>241.8</ele>
      </trkpt>
      <trkpt lat="43.0813" lon="2.47375">
        <ele>241.9</ele>
      </trkpt>
      <trkpt lat="43.08128" lon="2.47353">
        <ele>242.1</ele>
      </trkpt>
      <trkpt lat="43.08108" lon="2.4727">
        <ele>242</ele>
      </trkpt>
      <trkpt lat="43.08103" lon="2.47234">
        <ele>242.1</ele>
      </trkpt>
      <trkpt lat="43.081" lon="2.47181">
        <ele>242.6</ele>
      </trkpt>
      <trkpt lat="43.08098" lon="2.47159">
        <ele>243.5</ele>
      </trkpt>
      <trkpt lat="43.08099" lon="2.47154">
        <ele>243.5</ele>
      </trkpt>
      <trkpt lat="43.08101" lon="2.47126">
        <ele>244</ele>
      </trkpt>
      <trkpt lat="43.08112" lon="2.47078">
        <ele>245.6</ele>
      </trkpt>
      <trkpt lat="43.08144" lon="2.46991">
        <ele>247</ele>
      </trkpt>
      <trkpt lat="43.08151" lon="2.46954">
        <ele>247</ele>
      </trkpt>
      <trkpt lat="43.08156" lon="2.46917">
        <ele>247</ele>
      </trkpt>
      <trkpt lat="43.08157" lon="2.46858">
        <ele>248</ele>
      </trkpt>
      <trkpt lat="43.08154" lon="2.46747">
        <ele>247.9</ele>
      </trkpt>
      <trkpt lat="43.08157" lon="2.46716">
        <ele>247.9</ele>
      </trkpt>
      <trkpt lat="43.0816" lon="2.467">
        <ele>248.1</ele>
      </trkpt>
      <trkpt lat="43.08179" lon="2.46637">
        <ele>250.2</ele>
      </trkpt>
      <trkpt lat="43.08179" lon="2.46607">
        <ele>250.4</ele>
      </trkpt>
      <trkpt lat="43.08176" lon="2.46594">
        <ele>250.3</ele>
      </trkpt>
      <trkpt lat="43.08173" lon="2.46565">
        <ele>251.1</ele>
      </trkpt>
      <trkpt lat="43.08179" lon="2.46444">
        <ele>254.2</ele>
      </trkpt>
      <trkpt lat="43.08183" lon="2.46409">
        <ele>255.9</ele>
      </trkpt>
      <trkpt lat="43.08206" lon="2.46304">
        <ele>259</ele>
      </trkpt>
      <trkpt lat="43.08239" lon="2.46176">
        <ele>262.4</ele>
      </trkpt>
      <trkpt lat="43.08256" lon="2.46095">
        <ele>266.9</ele>
      </trkpt>
      <trkpt lat="43.08258" lon="2.4609">
        <ele>266.6</ele>
      </trkpt>
      <trkpt lat="43.08263" lon="2.46071">
        <ele>268.2</ele>
      </trkpt>
      <trkpt lat="43.08283" lon="2.46023">
        <ele>270.6</ele>
      </trkpt>
      <trkpt lat="43.08309" lon="2.45956">
        <ele>273</ele>
      </trkpt>
      <trkpt lat="43.08314" lon="2.45943">
        <ele>273.1</ele>
      </trkpt>
      <trkpt lat="43.08331" lon="2.45913">
        <ele>273.5</ele>
      </trkpt>
      <trkpt lat="43.08341" lon="2.459">
        <ele>275.3</ele>
      </trkpt>
      <trkpt lat="43.08347" lon="2.45897">
        <ele>275.7</ele>
      </trkpt>
      <trkpt lat="43.08354" lon="2.45898">
        <ele>276</ele>
      </trkpt>
      <trkpt lat="43.08375" lon="2.45902">
        <ele>276.6</ele>
      </trkpt>
      <trkpt lat="43.08409" lon="2.45911">
        <ele>277</ele>
      </trkpt>
      <trkpt lat="43.0842" lon="2.45912">
        <ele>277.7</ele>
      </trkpt>
      <trkpt lat="43.08452" lon="2.45907">
        <ele>279.7</ele>
      </trkpt>
      <trkpt lat="43.08508" lon="2.45893">
        <ele>284.2</ele>
      </trkpt>
      <trkpt lat="43.08521" lon="2.45886">
        <ele>284.9</ele>
      </trkpt>
      <trkpt lat="43.08538" lon="2.45872">
        <ele>285.5</ele>
      </trkpt>
      <trkpt lat="43.08544" lon="2.45862">
        <ele>285.7</ele>
      </trkpt>
      <trkpt lat="43.08562" lon="2.45823">
        <ele>287.2</ele>
      </trkpt>
      <trkpt lat="43.08642" lon="2.45698">
        <ele>295.5</ele>
      </trkpt>
      <trkpt lat="43.08647" lon="2.45688">
        <ele>295.6</ele>
      </trkpt>
      <trkpt lat="43.08661" lon="2.45642">
        <ele>296.8</ele>
      </trkpt>
      <trkpt lat="43.08673" lon="2.45609">
        <ele>301.1</ele>
      </trkpt>
      <trkpt lat="43.08691" lon="2.45576">
        <ele>301.9</ele>
      </trkpt>
      <trkpt lat="43.08717" lon="2.45537">
        <ele>304.6</ele>
      </trkpt>
      <trkpt lat="43.08733" lon="2.45493">
        <ele>307.5</ele>
      </trkpt>
      <trkpt lat="43.08745" lon="2.45481">
        <ele>307.7</ele>
      </trkpt>
      <trkpt lat="43.08771" lon="2.45465">
        <ele>308.4</ele>
      </trkpt>
      <trkpt lat="43.08812" lon="2.45449">
        <ele>308.9</ele>
      </trkpt>
      <trkpt lat="43.08857" lon="2.45435">
        <ele>312.5</ele>
      </trkpt>
      <trkpt lat="43.08866" lon="2.45431">
        <ele>313.1</ele>
      </trkpt>
      <trkpt lat="43.08875" lon="2.45427">
        <ele>313.7</ele>
      </trkpt>
      <trkpt lat="43.08886" lon="2.45419">
        <ele>314.1</ele>
      </trkpt>
      <trkpt lat="43.08895" lon="2.45407">
        <ele>311.5</ele>
      </trkpt>
      <trkpt lat="43.089" lon="2.45393">
        <ele>311.4</ele>
      </trkpt>
      <trkpt lat="43.08899" lon="2.45375">
        <ele>311.2</ele>
      </trkpt>
      <trkpt lat="43.08891" lon="2.45359">
        <ele>311.1</ele>
      </trkpt>
      <trkpt lat="43.08884" lon="2.45354">
        <ele>310.9</ele>
      </trkpt>
      <trkpt lat="43.08872" lon="2.45355">
        <ele>310.3</ele>
      </trkpt>
      <trkpt lat="43.08847" lon="2.4535">
        <ele>309.2</ele>
      </trkpt>
      <trkpt lat="43.08841" lon="2.45341">
        <ele>308.7</ele>
      </trkpt>
      <trkpt lat="43.08835" lon="2.45328">
        <ele>310.1</ele>
      </trkpt>
      <trkpt lat="43.08803" lon="2.45232">
        <ele>323.8</ele>
      </trkpt>
      <trkpt lat="43.08785" lon="2.45202">
        <ele>324.9</ele>
      </trkpt>
      <trkpt lat="43.08782" lon="2.45192">
        <ele>325</ele>
      </trkpt>
      <trkpt lat="43.08776" lon="2.45126">
        <ele>328.8</ele>
      </trkpt>
      <trkpt lat="43.08771" lon="2.45096">
        <ele>328.4</ele>
      </trkpt>
      <trkpt lat="43.08768" lon="2.45086">
        <ele>327.9</ele>
      </trkpt>
      <trkpt lat="43.08749" lon="2.45061">
        <ele>330.9</ele>
      </trkpt>
      <trkpt lat="43.08746" lon="2.45052">
        <ele>332.1</ele>
      </trkpt>
      <trkpt lat="43.08746" lon="2.45042">
        <ele>332.8</ele>
      </trkpt>
      <trkpt lat="43.08748" lon="2.45035">
        <ele>332.9</ele>
      </trkpt>
      <trkpt lat="43.08753" lon="2.45026">
        <ele>332</ele>
      </trkpt>
      <trkpt lat="43.0876" lon="2.45018">
        <ele>332.2</ele>
      </trkpt>
      <trkpt lat="43.08767" lon="2.45015">
        <ele>332.5</ele>
      </trkpt>
      <trkpt lat="43.08774" lon="2.45016">
        <ele>332.9</ele>
      </trkpt>
      <trkpt lat="43.08781" lon="2.45019">
        <ele>333.4</ele>
      </trkpt>
      <trkpt lat="43.08791" lon="2.45033">
        <ele>333.8</ele>
      </trkpt>
      <trkpt lat="43.08795" lon="2.45043">
        <ele>334</ele>
      </trkpt>
      <trkpt lat="43.08797" lon="2.45053">
        <ele>334</ele>
      </trkpt>
      <trkpt lat="43.08791" lon="2.45086">
        <ele>330.7</ele>
      </trkpt>
      <trkpt lat="43.08792" lon="2.45095">
        <ele>330.7</ele>
      </trkpt>
      <trkpt lat="43.08795" lon="2.45108">
        <ele>330.6</ele>
      </trkpt>
      <trkpt lat="43.08815" lon="2.45151">
        <ele>330</ele>
      </trkpt>
      <trkpt lat="43.0882" lon="2.45158">
        <ele>330</ele>
      </trkpt>
      <trkpt lat="43.08827" lon="2.45163">
        <ele>330</ele>
      </trkpt>
      <trkpt lat="43.08847" lon="2.45167">
        <ele>331.5</ele>
      </trkpt>
      <trkpt lat="43.08852" lon="2.45169">
        <ele>332.1</ele>
      </trkpt>
      <trkpt lat="43.08857" lon="2.45175">
        <ele>332.5</ele>
      </trkpt>
      <trkpt lat="43.08875" lon="2.45234">
        <ele>331</ele>
      </trkpt>
      <trkpt lat="43.08879" lon="2.45242">
        <ele>331.1</ele>
      </trkpt>
      <trkpt lat="43.08884" lon="2.45244">
        <ele>331.5</ele>
      </trkpt>
      <trkpt lat="43.08889" lon="2.45244">
        <ele>331.9</ele>
      </trkpt>
      <trkpt lat="43.08894" lon="2.45241">
        <ele>332.4</ele>
      </trkpt>
      <trkpt lat="43.08911" lon="2.45225">
        <ele>333.8</ele>
      </trkpt>
      <trkpt lat="43.0892" lon="2.45221">
        <ele>339.6</ele>
      </trkpt>
      <trkpt lat="43.0896" lon="2.45212">
        <ele>341.6</ele>
      </trkpt>
      <trkpt lat="43.08988" lon="2.45208">
        <ele>342.5</ele>
      </trkpt>
      <trkpt lat="43.09014" lon="2.45199">
        <ele>344.5</ele>
      </trkpt>
      <trkpt lat="43.0903" lon="2.45189">
        <ele>345.1</ele>
      </trkpt>
      <trkpt lat="43.09043" lon="2.45185">
        <ele>344.9</ele>
      </trkpt>
      <trkpt lat="43.0906" lon="2.45186">
        <ele>344.7</ele>
      </trkpt>
      <trkpt lat="43.09069" lon="2.45184">
        <ele>345.2</ele>
      </trkpt>
      <trkpt lat="43.09076" lon="2.4518">
        <ele>346.1</ele>
      </trkpt>
      <trkpt lat="43.09082" lon="2.45173">
        <ele>347.6</ele>
      </trkpt>
      <trkpt lat="43.0913" lon="2.45064">
        <ele>363.4</ele>
      </trkpt>
      <trkpt lat="43.09155" lon="2.45029">
        <ele>366.1</ele>
      </trkpt>
      <trkpt lat="43.09162" lon="2.45022">
        <ele>366.8</ele>
      </trkpt>
      <trkpt lat="43.09182" lon="2.45017">
        <ele>361.2</ele>
      </trkpt>
      <trkpt lat="43.09198" lon="2.45017">
        <ele>359.8</ele>
      </trkpt>
      <trkpt lat="43.09242" lon="2.45022">
        <ele>359.6</ele>
      </trkpt>
      <trkpt lat="43.0925" lon="2.4502">
        <ele>358.9</ele>
      </trkpt>
      <trkpt lat="43.09259" lon="2.45012">
        <ele>360</ele>
      </trkpt>
      <trkpt lat="43.09323" lon="2.44876">
        <ele>376.6</ele>
      </trkpt>
      <trkpt lat="43.09346" lon="2.44839">
        <ele>373.9</ele>
      </trkpt>
      <trkpt lat="43.09408" lon="2.44759">
        <ele>382.6</ele>
      </trkpt>
      <trkpt lat="43.09418" lon="2.44744">
        <ele>384.4</ele>
      </trkpt>
      <trkpt lat="43.09422" lon="2.44729">
        <ele>386.9</ele>
      </trkpt>
      <trkpt lat="43.09422" lon="2.44712">
        <ele>388.6</ele>
      </trkpt>
      <trkpt lat="43.09424" lon="2.44696">
        <ele>389.9</ele>
      </trkpt>
      <trkpt lat="43.0943" lon="2.44685">
        <ele>390.7</ele>
      </trkpt>
      <trkpt lat="43.09438" lon="2.44674">
        <ele>391.1</ele>
      </trkpt>
      <trkpt lat="43.09448" lon="2.44673">
        <ele>391.3</ele>
      </trkpt>
      <trkpt lat="43.09457" lon="2.44679">
        <ele>391.5</ele>
      </trkpt>
      <trkpt lat="43.09475" lon="2.44715">
        <ele>389.6</ele>
      </trkpt>
      <trkpt lat="43.09482" lon="2.44723">
        <ele>388.9</ele>
      </trkpt>
      <trkpt lat="43.09492" lon="2.44725">
        <ele>388.7</ele>
      </trkpt>
      <trkpt lat="43.09509" lon="2.44724">
        <ele>395.3</ele>
      </trkpt>
      <trkpt lat="43.09522" lon="2.44727">
        <ele>396.4</ele>
      </trkpt>
      <trkpt lat="43.09551" lon="2.44753">
        <ele>393.4</ele>
      </trkpt>
      <trkpt lat="43.09582" lon="2.44786">
        <ele>394</ele>
      </trkpt>
      <trkpt lat="43.09597" lon="2.44805">
        <ele>407.2</ele>
      </trkpt>
      <trkpt lat="43.09605" lon="2.44822">
        <ele>406.1</ele>
      </trkpt>
      <trkpt lat="43.09608" lon="2.44838">
        <ele>405.3</ele>
      </trkpt>
      <trkpt lat="43.09606" lon="2.44854">
        <ele>406.4</ele>
      </trkpt>
      <trkpt lat="43.09593" lon="2.44876">
        <ele>406.8</ele>
      </trkpt>
      <trkpt lat="43.0959" lon="2.44886">
        <ele>406.8</ele>
      </trkpt>
      <trkpt lat="43.09587" lon="2.44908">
        <ele>404.1</ele>
      </trkpt>
      <trkpt lat="43.09581" lon="2.44928">
        <ele>399</ele>
      </trkpt>
      <trkpt lat="43.09572" lon="2.4494">
        <ele>397.7</ele>
      </trkpt>
      <trkpt lat="43.09548" lon="2.44966">
        <ele>396.1</ele>
      </trkpt>
      <trkpt lat="43.09542" lon="2.44975">
        <ele>395.6</ele>
      </trkpt>
      <trkpt lat="43.09538" lon="2.44992">
        <ele>395.4</ele>
      </trkpt>
      <trkpt lat="43.0954" lon="2.45012">
        <ele>400.7</ele>
      </trkpt>
      <trkpt lat="43.09551" lon="2.45098">
        <ele>408.8</ele>
      </trkpt>
      <trkpt lat="43.09559" lon="2.45135">
        <ele>410.8</ele>
      </trkpt>
      <trkpt lat="43.09558" lon="2.45144">
        <ele>411.4</ele>
      </trkpt>
      <trkpt lat="43.0955" lon="2.4518">
        <ele>413.4</ele>
      </trkpt>
      <trkpt lat="43.0954" lon="2.45267">
        <ele>414.5</ele>
      </trkpt>
      <trkpt lat="43.09539" lon="2.4528">
        <ele>414.3</ele>
      </trkpt>
      <trkpt lat="43.09538" lon="2.45291">
        <ele>414.1</ele>
      </trkpt>
      <trkpt lat="43.09539" lon="2.45305">
        <ele>414.2</ele>
      </trkpt>
      <trkpt lat="43.09542" lon="2.45318">
        <ele>414.6</ele>
      </trkpt>
      <trkpt lat="43.09608" lon="2.45408">
        <ele>427.7</ele>
      </trkpt>
      <trkpt lat="43.09671" lon="2.45447">
        <ele>438</ele>
      </trkpt>
      <trkpt lat="43.09677" lon="2.45453">
        <ele>437.8</ele>
      </trkpt>
      <trkpt lat="43.09685" lon="2.45466">
        <ele>436.8</ele>
      </trkpt>
      <trkpt lat="43.09698" lon="2.4551">
        <ele>426.5</ele>
      </trkpt>
      <trkpt lat="43.09708" lon="2.45526">
        <ele>427.8</ele>
      </trkpt>
      <trkpt lat="43.09724" lon="2.45544">
        <ele>428.8</ele>
      </trkpt>
      <trkpt lat="43.09781" lon="2.45592">
        <ele>436</ele>
      </trkpt>
      <trkpt lat="43.09806" lon="2.4561">
        <ele>439.5</ele>
      </trkpt>
      <trkpt lat="43.09813" lon="2.45617">
        <ele>439.7</ele>
      </trkpt>
      <trkpt lat="43.09842" lon="2.45662">
        <ele>450.9</ele>
      </trkpt>
      <trkpt lat="43.09845" lon="2.45672">
        <ele>449.5</ele>
      </trkpt>
      <trkpt lat="43.09845" lon="2.45715">
        <ele>453.5</ele>
      </trkpt>
      <trkpt lat="43.09851" lon="2.45767">
        <ele>451.9</ele>
      </trkpt>
      <trkpt lat="43.09851" lon="2.45792">
        <ele>454.7</ele>
      </trkpt>
      <trkpt lat="43.09844" lon="2.45831">
        <ele>448.6</ele>
      </trkpt>
      <trkpt lat="43.09829" lon="2.45869">
        <ele>437</ele>
      </trkpt>
      <trkpt lat="43.09822" lon="2.45915">
        <ele>444.6</ele>
      </trkpt>
      <trkpt lat="43.09811" lon="2.45961">
        <ele>442.2</ele>
      </trkpt>
      <trkpt lat="43.09808" lon="2.45991">
        <ele>444</ele>
      </trkpt>
      <trkpt lat="43.09814" lon="2.46039">
        <ele>442.5</ele>
      </trkpt>
      <trkpt lat="43.09827" lon="2.46071">
        <ele>446.4</ele>
      </trkpt>
      <trkpt lat="43.09835" lon="2.46115">
        <ele>461.1</ele>
      </trkpt>
      <trkpt lat="43.0984" lon="2.46134">
        <ele>460.6</ele>
      </trkpt>
      <trkpt lat="43.09844" lon="2.46149">
        <ele>458.1</ele>
      </trkpt>
      <trkpt lat="43.09862" lon="2.46192">
        <ele>459</ele>
      </trkpt>
      <trkpt lat="43.09864" lon="2.46201">
        <ele>459.5</ele>
      </trkpt>
      <trkpt lat="43.09863" lon="2.46241">
        <ele>457.4</ele>
      </trkpt>
      <trkpt lat="43.09866" lon="2.46266">
        <ele>454.3</ele>
      </trkpt>
      <trkpt lat="43.09873" lon="2.46289">
        <ele>455</ele>
      </trkpt>
      <trkpt lat="43.09879" lon="2.46297">
        <ele>455.6</ele>
      </trkpt>
      <trkpt lat="43.099" lon="2.46315">
        <ele>458.4</ele>
      </trkpt>
      <trkpt lat="43.09908" lon="2.46321">
        <ele>459.8</ele>
      </trkpt>
      <trkpt lat="43.09914" lon="2.46326">
        <ele>461.1</ele>
      </trkpt>
      <trkpt lat="43.09923" lon="2.46337">
        <ele>464.8</ele>
      </trkpt>
      <trkpt lat="43.09941" lon="2.46363">
        <ele>468</ele>
      </trkpt>
      <trkpt lat="43.09975" lon="2.46404">
        <ele>471.4</ele>
      </trkpt>
      <trkpt lat="43.09985" lon="2.46421">
        <ele>468.6</ele>
      </trkpt>
      <trkpt lat="43.09987" lon="2.46428">
        <ele>468.1</ele>
      </trkpt>
      <trkpt lat="43.09989" lon="2.46439">
        <ele>466</ele>
      </trkpt>
      <trkpt lat="43.09991" lon="2.4645">
        <ele>464.6</ele>
      </trkpt>
      <trkpt lat="43.09993" lon="2.46502">
        <ele>469.3</ele>
      </trkpt>
      <trkpt lat="43.10002" lon="2.46558">
        <ele>482.2</ele>
      </trkpt>
      <trkpt lat="43.10004" lon="2.46619">
        <ele>478.8</ele>
      </trkpt>
      <trkpt lat="43.10006" lon="2.46628">
        <ele>478.7</ele>
      </trkpt>
      <trkpt lat="43.1001" lon="2.46639">
        <ele>478.1</ele>
      </trkpt>
      <trkpt lat="43.10016" lon="2.4665">
        <ele>477.6</ele>
      </trkpt>
      <trkpt lat="43.10025" lon="2.46656">
        <ele>478.5</ele>
      </trkpt>
      <trkpt lat="43.10051" lon="2.46672">
        <ele>473.7</ele>
      </trkpt>
      <trkpt lat="43.10059" lon="2.46673">
        <ele>474.9</ele>
      </trkpt>
      <trkpt lat="43.10081" lon="2.46668">
        <ele>482.5</ele>
      </trkpt>
      <trkpt lat="43.10111" lon="2.46655">
        <ele>488.2</ele>
      </trkpt>
      <trkpt lat="43.10137" lon="2.46649">
        <ele>488</ele>
      </trkpt>
      <trkpt lat="43.10177" lon="2.46647">
        <ele>482.9</ele>
      </trkpt>
      <trkpt lat="43.1019" lon="2.46645">
        <ele>483.1</ele>
      </trkpt>
      <trkpt lat="43.10197" lon="2.46641">
        <ele>483.2</ele>
      </trkpt>
      <trkpt lat="43.10204" lon="2.46632">
        <ele>483.7</ele>
      </trkpt>
      <trkpt lat="43.10206" lon="2.46618">
        <ele>484.7</ele>
      </trkpt>
      <trkpt lat="43.1021" lon="2.46547">
        <ele>497</ele>
      </trkpt>
      <trkpt lat="43.10213" lon="2.46534">
        <ele>497.7</ele>
      </trkpt>
      <trkpt lat="43.1022" lon="2.46522">
        <ele>498</ele>
      </trkpt>
      <trkpt lat="43.10249" lon="2.46501">
        <ele>498</ele>
      </trkpt>
      <trkpt lat="43.10281" lon="2.46484">
        <ele>500.9</ele>
      </trkpt>
      <trkpt lat="43.103" lon="2.46451">
        <ele>501.7</ele>
      </trkpt>
      <trkpt lat="43.10308" lon="2.46431">
        <ele>501.5</ele>
      </trkpt>
      <trkpt lat="43.1031" lon="2.46414">
        <ele>502.9</ele>
      </trkpt>
      <trkpt lat="43.10312" lon="2.46394">
        <ele>503.2</ele>
      </trkpt>
      <trkpt lat="43.10312" lon="2.46377">
        <ele>503.5</ele>
      </trkpt>
      <trkpt lat="43.10306" lon="2.46346">
        <ele>503.3</ele>
      </trkpt>
      <trkpt lat="43.10285" lon="2.46286">
        <ele>507.9</ele>
      </trkpt>
      <trkpt lat="43.10282" lon="2.46269">
        <ele>508.7</ele>
      </trkpt>
      <trkpt lat="43.10284" lon="2.46251">
        <ele>508.8</ele>
      </trkpt>
      <trkpt lat="43.10288" lon="2.46237">
        <ele>511</ele>
      </trkpt>
      <trkpt lat="43.10308" lon="2.46219">
        <ele>509</ele>
      </trkpt>
      <trkpt lat="43.10313" lon="2.46211">
        <ele>509.1</ele>
      </trkpt>
      <trkpt lat="43.10328" lon="2.46151">
        <ele>512</ele>
      </trkpt>
      <trkpt lat="43.10334" lon="2.46139">
        <ele>503.8</ele>
      </trkpt>
      <trkpt lat="43.10352" lon="2.4612">
        <ele>503.7</ele>
      </trkpt>
      <trkpt lat="43.10356" lon="2.46113">
        <ele>503.9</ele>
      </trkpt>
      <trkpt lat="43.10358" lon="2.46076">
        <ele>510</ele>
      </trkpt>
      <trkpt lat="43.1036" lon="2.46061">
        <ele>509.6</ele>
      </trkpt>
      <trkpt lat="43.10365" lon="2.46048">
        <ele>509.3</ele>
      </trkpt>
      <trkpt lat="43.10379" lon="2.46035">
        <ele>508.7</ele>
      </trkpt>
      <trkpt lat="43.10396" lon="2.46033">
        <ele>507.9</ele>
      </trkpt>
      <trkpt lat="43.10426" lon="2.46035">
        <ele>498.4</ele>
      </trkpt>
      <trkpt lat="43.10434" lon="2.46032">
        <ele>498</ele>
      </trkpt>
      <trkpt lat="43.10438" lon="2.46028">
        <ele>498</ele>
      </trkpt>
      <trkpt lat="43.10442" lon="2.4602">
        <ele>498.1</ele>
      </trkpt>
      <trkpt lat="43.10445" lon="2.46004">
        <ele>498.6</ele>
      </trkpt>
      <trkpt lat="43.10448" lon="2.45978">
        <ele>499.4</ele>
      </trkpt>
      <trkpt lat="43.10446" lon="2.45963">
        <ele>499.2</ele>
      </trkpt>
      <trkpt lat="43.10443" lon="2.45954">
        <ele>499.4</ele>
      </trkpt>
      <trkpt lat="43.10385" lon="2.4586">
        <ele>498.9</ele>
      </trkpt>
      <trkpt lat="43.10378" lon="2.45857">
        <ele>499.1</ele>
      </trkpt>
      <trkpt lat="43.10366" lon="2.45856">
        <ele>499.4</ele>
      </trkpt>
      <trkpt lat="43.10356" lon="2.45861">
        <ele>499.8</ele>
      </trkpt>
      <trkpt lat="43.10347" lon="2.45865">
        <ele>500.2</ele>
      </trkpt>
      <trkpt lat="43.10333" lon="2.45868">
        <ele>506</ele>
      </trkpt>
      <trkpt lat="43.10326" lon="2.45866">
        <ele>506.1</ele>
      </trkpt>
      <trkpt lat="43.10304" lon="2.45845">
        <ele>506.4</ele>
      </trkpt>
      <trkpt lat="43.10289" lon="2.45836">
        <ele>508.2</ele>
      </trkpt>
      <trkpt lat="43.10283" lon="2.45831">
        <ele>505.9</ele>
      </trkpt>
      <trkpt lat="43.10278" lon="2.45823">
        <ele>506.5</ele>
      </trkpt>
      <trkpt lat="43.10277" lon="2.45811">
        <ele>506.2</ele>
      </trkpt>
      <trkpt lat="43.10279" lon="2.45802">
        <ele>505.7</ele>
      </trkpt>
      <trkpt lat="43.10289" lon="2.45782">
        <ele>504.4</ele>
      </trkpt>
      <trkpt lat="43.10292" lon="2.45751">
        <ele>503.7</ele>
      </trkpt>
      <trkpt lat="43.10297" lon="2.45742">
        <ele>504.6</ele>
      </trkpt>
      <trkpt lat="43.10323" lon="2.45706">
        <ele>503.4</ele>
      </trkpt>
      <trkpt lat="43.10327" lon="2.45696">
        <ele>503.1</ele>
      </trkpt>
      <trkpt lat="43.10329" lon="2.45683">
        <ele>502</ele>
      </trkpt>
      <trkpt lat="43.10325" lon="2.45642">
        <ele>507.7</ele>
      </trkpt>
      <trkpt lat="43.10328" lon="2.45626">
        <ele>509.3</ele>
      </trkpt>
      <trkpt lat="43.10347" lon="2.45591">
        <ele>497.6</ele>
      </trkpt>
      <trkpt lat="43.10348" lon="2.45581">
        <ele>499.3</ele>
      </trkpt>
      <trkpt lat="43.10345" lon="2.45557">
        <ele>497.6</ele>
      </trkpt>
      <trkpt lat="43.10337" lon="2.45536">
        <ele>497.7</ele>
      </trkpt>
      <trkpt lat="43.10312" lon="2.45507">
        <ele>511.6</ele>
      </trkpt>
      <trkpt lat="43.10307" lon="2.455">
        <ele>511.2</ele>
      </trkpt>
      <trkpt lat="43.10303" lon="2.4548">
        <ele>514.6</ele>
      </trkpt>
      <trkpt lat="43.10302" lon="2.45455">
        <ele>515.7</ele>
      </trkpt>
      <trkpt lat="43.10308" lon="2.45441">
        <ele>514.9</ele>
      </trkpt>
      <trkpt lat="43.10312" lon="2.45435">
        <ele>514.1</ele>
      </trkpt>
      <trkpt lat="43.10325" lon="2.45433">
        <ele>512.3</ele>
      </trkpt>
      <trkpt lat="43.10351" lon="2.45436">
        <ele>501.8</ele>
      </trkpt>
      <trkpt lat="43.10362" lon="2.45433">
        <ele>500.7</ele>
      </trkpt>
      <trkpt lat="43.10376" lon="2.45418">
        <ele>499.3</ele>
      </trkpt>
      <trkpt lat="43.10396" lon="2.45383">
        <ele>501.7</ele>
      </trkpt>
      <trkpt lat="43.10412" lon="2.45365">
        <ele>501.7</ele>
      </trkpt>
      <trkpt lat="43.10425" lon="2.45355">
        <ele>496.2</ele>
      </trkpt>
      <trkpt lat="43.10434" lon="2.45351">
        <ele>495.9</ele>
      </trkpt>
      <trkpt lat="43.10443" lon="2.4535">
        <ele>495.3</ele>
      </trkpt>
      <trkpt lat="43.10453" lon="2.45352">
        <ele>494.5</ele>
      </trkpt>
      <trkpt lat="43.10469" lon="2.45358">
        <ele>493.5</ele>
      </trkpt>
    </trkseg>
  </trk>
</gpx>